<?xml version="1.0" encoding="UTF-8" standalone="no" ?>
<gpx xmlns="http://www.topografix.com/GPX/1/1" xmlns:xsi="http://www.w3.org/2001/XMLSchema-instance" xsi:schemaLocation="http://www.topografix.com/GPX/1/1 http://www.topografix.com/GPX/1/1/gpx.xsd" version="1.1" creator="VisuGPX - https://www.visugpx.com">
  <metadata>
    <name>Sortie Vaux de Cernay</name>
  </metadata>
  <trk>
    <name><![CDATA[Sortie Vaux de Cernay_1]]></name>
    <trkseg>
      <trkpt lat="48.69191" lon="1.93978">
        <ele>176</ele>
        <time>2022-11-19T09:35:06Z</time>
      </trkpt>
      <trkpt lat="48.69191" lon="1.93976">
        <ele>176</ele>
        <time>2022-11-19T09:35:07Z</time>
      </trkpt>
      <trkpt lat="48.69192" lon="1.93973">
        <ele>176</ele>
        <time>2022-11-19T09:35:09Z</time>
      </trkpt>
      <trkpt lat="48.69192" lon="1.9397">
        <ele>176</ele>
        <time>2022-11-19T09:35:11Z</time>
      </trkpt>
      <trkpt lat="48.69192" lon="1.93966">
        <ele>176</ele>
        <time>2022-11-19T09:35:14Z</time>
      </trkpt>
      <trkpt lat="48.69193" lon="1.93963">
        <ele>176</ele>
        <time>2022-11-19T09:35:16Z</time>
      </trkpt>
      <trkpt lat="48.69194" lon="1.9396">
        <ele>176</ele>
        <time>2022-11-19T09:35:18Z</time>
      </trkpt>
      <trkpt lat="48.69196" lon="1.93957">
        <ele>176</ele>
        <time>2022-11-19T09:35:20Z</time>
      </trkpt>
      <trkpt lat="48.69197" lon="1.93954">
        <ele>176</ele>
        <time>2022-11-19T09:35:22Z</time>
      </trkpt>
      <trkpt lat="48.69198" lon="1.9395">
        <ele>176</ele>
        <time>2022-11-19T09:35:24Z</time>
      </trkpt>
      <trkpt lat="48.69199" lon="1.93947">
        <ele>176</ele>
        <time>2022-11-19T09:35:26Z</time>
      </trkpt>
      <trkpt lat="48.692" lon="1.93944">
        <ele>176</ele>
        <time>2022-11-19T09:35:28Z</time>
      </trkpt>
      <trkpt lat="48.69201" lon="1.9394">
        <ele>176</ele>
        <time>2022-11-19T09:35:30Z</time>
      </trkpt>
      <trkpt lat="48.69202" lon="1.93937">
        <ele>176</ele>
        <time>2022-11-19T09:35:32Z</time>
      </trkpt>
      <trkpt lat="48.69203" lon="1.93934">
        <ele>176</ele>
        <time>2022-11-19T09:35:34Z</time>
      </trkpt>
      <trkpt lat="48.69204" lon="1.93931">
        <ele>176</ele>
        <time>2022-11-19T09:35:36Z</time>
      </trkpt>
      <trkpt lat="48.69205" lon="1.93927">
        <ele>176</ele>
        <time>2022-11-19T09:35:38Z</time>
      </trkpt>
      <trkpt lat="48.69206" lon="1.93924">
        <ele>176</ele>
        <time>2022-11-19T09:35:40Z</time>
      </trkpt>
      <trkpt lat="48.69207" lon="1.9392">
        <ele>176</ele>
        <time>2022-11-19T09:35:42Z</time>
      </trkpt>
      <trkpt lat="48.69208" lon="1.93917">
        <ele>176</ele>
        <time>2022-11-19T09:35:44Z</time>
      </trkpt>
      <trkpt lat="48.69209" lon="1.93913">
        <ele>176</ele>
        <time>2022-11-19T09:35:46Z</time>
      </trkpt>
      <trkpt lat="48.69209" lon="1.9391">
        <ele>176</ele>
        <time>2022-11-19T09:35:48Z</time>
      </trkpt>
      <trkpt lat="48.6921" lon="1.93907">
        <ele>176</ele>
        <time>2022-11-19T09:35:50Z</time>
      </trkpt>
      <trkpt lat="48.69211" lon="1.93903">
        <ele>176</ele>
        <time>2022-11-19T09:35:52Z</time>
      </trkpt>
      <trkpt lat="48.69213" lon="1.939">
        <ele>176</ele>
        <time>2022-11-19T09:35:54Z</time>
      </trkpt>
      <trkpt lat="48.69214" lon="1.93897">
        <ele>176</ele>
        <time>2022-11-19T09:35:56Z</time>
      </trkpt>
      <trkpt lat="48.69215" lon="1.93894">
        <ele>177</ele>
        <time>2022-11-19T09:35:58Z</time>
      </trkpt>
      <trkpt lat="48.69217" lon="1.93892">
        <ele>177</ele>
        <time>2022-11-19T09:36:00Z</time>
      </trkpt>
      <trkpt lat="48.69218" lon="1.93888">
        <ele>176</ele>
        <time>2022-11-19T09:36:02Z</time>
      </trkpt>
      <trkpt lat="48.69218" lon="1.93885">
        <ele>176</ele>
        <time>2022-11-19T09:36:04Z</time>
      </trkpt>
      <trkpt lat="48.69218" lon="1.93882">
        <ele>176</ele>
        <time>2022-11-19T09:36:06Z</time>
      </trkpt>
      <trkpt lat="48.69218" lon="1.93878">
        <ele>176</ele>
        <time>2022-11-19T09:36:08Z</time>
      </trkpt>
      <trkpt lat="48.69219" lon="1.93875">
        <ele>177</ele>
        <time>2022-11-19T09:36:10Z</time>
      </trkpt>
      <trkpt lat="48.6922" lon="1.93872">
        <ele>177</ele>
        <time>2022-11-19T09:36:12Z</time>
      </trkpt>
      <trkpt lat="48.69221" lon="1.93869">
        <ele>177</ele>
        <time>2022-11-19T09:36:14Z</time>
      </trkpt>
      <trkpt lat="48.69222" lon="1.93866">
        <ele>177</ele>
        <time>2022-11-19T09:36:16Z</time>
      </trkpt>
      <trkpt lat="48.69222" lon="1.93862">
        <ele>177</ele>
        <time>2022-11-19T09:36:18Z</time>
      </trkpt>
      <trkpt lat="48.69223" lon="1.93859">
        <ele>177</ele>
        <time>2022-11-19T09:36:20Z</time>
      </trkpt>
      <trkpt lat="48.69224" lon="1.93856">
        <ele>177</ele>
        <time>2022-11-19T09:36:22Z</time>
      </trkpt>
      <trkpt lat="48.69225" lon="1.93852">
        <ele>177</ele>
        <time>2022-11-19T09:36:24Z</time>
      </trkpt>
      <trkpt lat="48.69226" lon="1.93849">
        <ele>177</ele>
        <time>2022-11-19T09:36:26Z</time>
      </trkpt>
      <trkpt lat="48.69227" lon="1.93846">
        <ele>176</ele>
        <time>2022-11-19T09:36:28Z</time>
      </trkpt>
      <trkpt lat="48.69228" lon="1.93842">
        <ele>176</ele>
        <time>2022-11-19T09:36:30Z</time>
      </trkpt>
      <trkpt lat="48.69229" lon="1.9384">
        <ele>177</ele>
        <time>2022-11-19T09:36:32Z</time>
      </trkpt>
      <trkpt lat="48.6923" lon="1.93836">
        <ele>177</ele>
        <time>2022-11-19T09:36:34Z</time>
      </trkpt>
      <trkpt lat="48.69231" lon="1.93833">
        <ele>177</ele>
        <time>2022-11-19T09:36:36Z</time>
      </trkpt>
      <trkpt lat="48.69231" lon="1.93829">
        <ele>177</ele>
        <time>2022-11-19T09:36:38Z</time>
      </trkpt>
      <trkpt lat="48.69232" lon="1.93825">
        <ele>177</ele>
        <time>2022-11-19T09:36:40Z</time>
      </trkpt>
      <trkpt lat="48.69233" lon="1.93822">
        <ele>177</ele>
        <time>2022-11-19T09:36:42Z</time>
      </trkpt>
      <trkpt lat="48.69234" lon="1.93818">
        <ele>177</ele>
        <time>2022-11-19T09:36:44Z</time>
      </trkpt>
      <trkpt lat="48.69235" lon="1.93815">
        <ele>177</ele>
        <time>2022-11-19T09:36:46Z</time>
      </trkpt>
      <trkpt lat="48.69236" lon="1.93812">
        <ele>177</ele>
        <time>2022-11-19T09:36:48Z</time>
      </trkpt>
      <trkpt lat="48.69237" lon="1.93808">
        <ele>177</ele>
        <time>2022-11-19T09:36:50Z</time>
      </trkpt>
      <trkpt lat="48.69238" lon="1.93805">
        <ele>177</ele>
        <time>2022-11-19T09:36:52Z</time>
      </trkpt>
      <trkpt lat="48.69238" lon="1.93802">
        <ele>177</ele>
        <time>2022-11-19T09:36:54Z</time>
      </trkpt>
      <trkpt lat="48.69239" lon="1.93799">
        <ele>177</ele>
        <time>2022-11-19T09:36:56Z</time>
      </trkpt>
      <trkpt lat="48.6924" lon="1.93796">
        <ele>177</ele>
        <time>2022-11-19T09:36:58Z</time>
      </trkpt>
      <trkpt lat="48.69241" lon="1.93792">
        <ele>177</ele>
        <time>2022-11-19T09:37:00Z</time>
      </trkpt>
      <trkpt lat="48.69242" lon="1.93789">
        <ele>177</ele>
        <time>2022-11-19T09:37:02Z</time>
      </trkpt>
      <trkpt lat="48.69243" lon="1.93786">
        <ele>177</ele>
        <time>2022-11-19T09:37:04Z</time>
      </trkpt>
      <trkpt lat="48.69244" lon="1.93783">
        <ele>177</ele>
        <time>2022-11-19T09:37:06Z</time>
      </trkpt>
      <trkpt lat="48.69244" lon="1.9378">
        <ele>177</ele>
        <time>2022-11-19T09:37:08Z</time>
      </trkpt>
      <trkpt lat="48.69245" lon="1.93777">
        <ele>177</ele>
        <time>2022-11-19T09:37:10Z</time>
      </trkpt>
      <trkpt lat="48.69246" lon="1.93774">
        <ele>177</ele>
        <time>2022-11-19T09:37:12Z</time>
      </trkpt>
      <trkpt lat="48.69247" lon="1.9377">
        <ele>176</ele>
        <time>2022-11-19T09:37:14Z</time>
      </trkpt>
      <trkpt lat="48.69248" lon="1.93767">
        <ele>176</ele>
        <time>2022-11-19T09:37:16Z</time>
      </trkpt>
      <trkpt lat="48.69249" lon="1.93764">
        <ele>176</ele>
        <time>2022-11-19T09:37:18Z</time>
      </trkpt>
      <trkpt lat="48.6925" lon="1.93761">
        <ele>176</ele>
        <time>2022-11-19T09:37:20Z</time>
      </trkpt>
      <trkpt lat="48.69251" lon="1.93758">
        <ele>176</ele>
        <time>2022-11-19T09:37:23Z</time>
      </trkpt>
      <trkpt lat="48.69251" lon="1.93755">
        <ele>176</ele>
        <time>2022-11-19T09:37:25Z</time>
      </trkpt>
      <trkpt lat="48.69252" lon="1.93751">
        <ele>176</ele>
        <time>2022-11-19T09:37:27Z</time>
      </trkpt>
      <trkpt lat="48.69253" lon="1.93748">
        <ele>176</ele>
        <time>2022-11-19T09:37:29Z</time>
      </trkpt>
      <trkpt lat="48.69254" lon="1.93745">
        <ele>176</ele>
        <time>2022-11-19T09:37:31Z</time>
      </trkpt>
      <trkpt lat="48.69255" lon="1.93741">
        <ele>176</ele>
        <time>2022-11-19T09:37:33Z</time>
      </trkpt>
      <trkpt lat="48.69256" lon="1.93738">
        <ele>176</ele>
        <time>2022-11-19T09:37:35Z</time>
      </trkpt>
      <trkpt lat="48.69257" lon="1.93734">
        <ele>176</ele>
        <time>2022-11-19T09:37:37Z</time>
      </trkpt>
      <trkpt lat="48.69258" lon="1.93731">
        <ele>176</ele>
        <time>2022-11-19T09:37:39Z</time>
      </trkpt>
      <trkpt lat="48.69259" lon="1.93728">
        <ele>176</ele>
        <time>2022-11-19T09:37:41Z</time>
      </trkpt>
      <trkpt lat="48.6926" lon="1.93724">
        <ele>176</ele>
        <time>2022-11-19T09:37:43Z</time>
      </trkpt>
      <trkpt lat="48.69261" lon="1.93721">
        <ele>176</ele>
        <time>2022-11-19T09:37:45Z</time>
      </trkpt>
      <trkpt lat="48.69262" lon="1.93718">
        <ele>176</ele>
        <time>2022-11-19T09:37:47Z</time>
      </trkpt>
      <trkpt lat="48.69262" lon="1.93714">
        <ele>176</ele>
        <time>2022-11-19T09:37:49Z</time>
      </trkpt>
      <trkpt lat="48.69263" lon="1.93711">
        <ele>176</ele>
        <time>2022-11-19T09:37:51Z</time>
      </trkpt>
      <trkpt lat="48.69264" lon="1.93708">
        <ele>176</ele>
        <time>2022-11-19T09:37:53Z</time>
      </trkpt>
      <trkpt lat="48.69265" lon="1.93704">
        <ele>176</ele>
        <time>2022-11-19T09:37:55Z</time>
      </trkpt>
      <trkpt lat="48.69266" lon="1.93701">
        <ele>176</ele>
        <time>2022-11-19T09:37:57Z</time>
      </trkpt>
      <trkpt lat="48.69267" lon="1.93698">
        <ele>175</ele>
        <time>2022-11-19T09:37:59Z</time>
      </trkpt>
      <trkpt lat="48.69267" lon="1.93694">
        <ele>175</ele>
        <time>2022-11-19T09:38:01Z</time>
      </trkpt>
      <trkpt lat="48.69268" lon="1.93691">
        <ele>175</ele>
        <time>2022-11-19T09:38:03Z</time>
      </trkpt>
      <trkpt lat="48.69269" lon="1.93687">
        <ele>175</ele>
        <time>2022-11-19T09:38:05Z</time>
      </trkpt>
      <trkpt lat="48.6927" lon="1.93684">
        <ele>175</ele>
        <time>2022-11-19T09:38:07Z</time>
      </trkpt>
      <trkpt lat="48.69271" lon="1.93681">
        <ele>175</ele>
        <time>2022-11-19T09:38:09Z</time>
      </trkpt>
      <trkpt lat="48.69272" lon="1.93678">
        <ele>175</ele>
        <time>2022-11-19T09:38:11Z</time>
      </trkpt>
      <trkpt lat="48.69272" lon="1.93675">
        <ele>175</ele>
        <time>2022-11-19T09:38:13Z</time>
      </trkpt>
      <trkpt lat="48.69273" lon="1.93671">
        <ele>175</ele>
        <time>2022-11-19T09:38:15Z</time>
      </trkpt>
      <trkpt lat="48.69274" lon="1.93668">
        <ele>175</ele>
        <time>2022-11-19T09:38:17Z</time>
      </trkpt>
      <trkpt lat="48.69275" lon="1.93665">
        <ele>175</ele>
        <time>2022-11-19T09:38:19Z</time>
      </trkpt>
      <trkpt lat="48.69276" lon="1.93661">
        <ele>175</ele>
        <time>2022-11-19T09:38:21Z</time>
      </trkpt>
      <trkpt lat="48.69276" lon="1.93658">
        <ele>175</ele>
        <time>2022-11-19T09:38:23Z</time>
      </trkpt>
      <trkpt lat="48.69277" lon="1.93655">
        <ele>175</ele>
        <time>2022-11-19T09:38:25Z</time>
      </trkpt>
      <trkpt lat="48.69278" lon="1.93651">
        <ele>175</ele>
        <time>2022-11-19T09:38:27Z</time>
      </trkpt>
      <trkpt lat="48.69278" lon="1.93648">
        <ele>175</ele>
        <time>2022-11-19T09:38:29Z</time>
      </trkpt>
      <trkpt lat="48.69279" lon="1.93644">
        <ele>175</ele>
        <time>2022-11-19T09:38:31Z</time>
      </trkpt>
      <trkpt lat="48.6928" lon="1.93641">
        <ele>176</ele>
        <time>2022-11-19T09:38:33Z</time>
      </trkpt>
      <trkpt lat="48.69281" lon="1.93638">
        <ele>176</ele>
        <time>2022-11-19T09:38:35Z</time>
      </trkpt>
      <trkpt lat="48.69282" lon="1.93635">
        <ele>176</ele>
        <time>2022-11-19T09:38:37Z</time>
      </trkpt>
      <trkpt lat="48.69282" lon="1.93632">
        <ele>176</ele>
        <time>2022-11-19T09:38:39Z</time>
      </trkpt>
      <trkpt lat="48.69283" lon="1.93628">
        <ele>176</ele>
        <time>2022-11-19T09:38:41Z</time>
      </trkpt>
      <trkpt lat="48.69284" lon="1.93625">
        <ele>176</ele>
        <time>2022-11-19T09:38:43Z</time>
      </trkpt>
      <trkpt lat="48.69285" lon="1.93622">
        <ele>176</ele>
        <time>2022-11-19T09:38:45Z</time>
      </trkpt>
      <trkpt lat="48.69285" lon="1.93619">
        <ele>176</ele>
        <time>2022-11-19T09:38:47Z</time>
      </trkpt>
      <trkpt lat="48.69285" lon="1.93616">
        <ele>176</ele>
        <time>2022-11-19T09:38:51Z</time>
      </trkpt>
      <trkpt lat="48.69282" lon="1.93616">
        <ele>176</ele>
        <time>2022-11-19T09:38:54Z</time>
      </trkpt>
      <trkpt lat="48.6928" lon="1.93616">
        <ele>176</ele>
        <time>2022-11-19T09:38:56Z</time>
      </trkpt>
      <trkpt lat="48.69278" lon="1.93616">
        <ele>176</ele>
        <time>2022-11-19T09:38:58Z</time>
      </trkpt>
      <trkpt lat="48.69275" lon="1.93615">
        <ele>175</ele>
        <time>2022-11-19T09:39:00Z</time>
      </trkpt>
      <trkpt lat="48.69273" lon="1.93614">
        <ele>175</ele>
        <time>2022-11-19T09:39:02Z</time>
      </trkpt>
      <trkpt lat="48.69271" lon="1.93613">
        <ele>175</ele>
        <time>2022-11-19T09:39:04Z</time>
      </trkpt>
      <trkpt lat="48.69269" lon="1.93612">
        <ele>175</ele>
        <time>2022-11-19T09:39:06Z</time>
      </trkpt>
      <trkpt lat="48.69267" lon="1.93611">
        <ele>175</ele>
        <time>2022-11-19T09:39:08Z</time>
      </trkpt>
      <trkpt lat="48.69265" lon="1.93609">
        <ele>174</ele>
        <time>2022-11-19T09:39:10Z</time>
      </trkpt>
      <trkpt lat="48.69262" lon="1.93608">
        <ele>174</ele>
        <time>2022-11-19T09:39:12Z</time>
      </trkpt>
      <trkpt lat="48.6926" lon="1.93606">
        <ele>174</ele>
        <time>2022-11-19T09:39:14Z</time>
      </trkpt>
      <trkpt lat="48.69258" lon="1.93605">
        <ele>174</ele>
        <time>2022-11-19T09:39:16Z</time>
      </trkpt>
      <trkpt lat="48.69256" lon="1.93604">
        <ele>174</ele>
        <time>2022-11-19T09:39:18Z</time>
      </trkpt>
      <trkpt lat="48.69254" lon="1.93603">
        <ele>174</ele>
        <time>2022-11-19T09:39:20Z</time>
      </trkpt>
      <trkpt lat="48.69252" lon="1.93601">
        <ele>174</ele>
        <time>2022-11-19T09:39:22Z</time>
      </trkpt>
      <trkpt lat="48.6925" lon="1.936">
        <ele>173</ele>
        <time>2022-11-19T09:39:24Z</time>
      </trkpt>
      <trkpt lat="48.69248" lon="1.93599">
        <ele>173</ele>
        <time>2022-11-19T09:39:26Z</time>
      </trkpt>
      <trkpt lat="48.69245" lon="1.93597">
        <ele>173</ele>
        <time>2022-11-19T09:39:28Z</time>
      </trkpt>
      <trkpt lat="48.69243" lon="1.93596">
        <ele>173</ele>
        <time>2022-11-19T09:39:30Z</time>
      </trkpt>
      <trkpt lat="48.69241" lon="1.93595">
        <ele>173</ele>
        <time>2022-11-19T09:39:32Z</time>
      </trkpt>
      <trkpt lat="48.69238" lon="1.93594">
        <ele>173</ele>
        <time>2022-11-19T09:39:34Z</time>
      </trkpt>
      <trkpt lat="48.69236" lon="1.93592">
        <ele>173</ele>
        <time>2022-11-19T09:39:36Z</time>
      </trkpt>
      <trkpt lat="48.69234" lon="1.93591">
        <ele>173</ele>
        <time>2022-11-19T09:39:38Z</time>
      </trkpt>
      <trkpt lat="48.69232" lon="1.9359">
        <ele>173</ele>
        <time>2022-11-19T09:39:40Z</time>
      </trkpt>
      <trkpt lat="48.6923" lon="1.93588">
        <ele>173</ele>
        <time>2022-11-19T09:39:42Z</time>
      </trkpt>
      <trkpt lat="48.69227" lon="1.93587">
        <ele>172</ele>
        <time>2022-11-19T09:39:44Z</time>
      </trkpt>
      <trkpt lat="48.69225" lon="1.93586">
        <ele>172</ele>
        <time>2022-11-19T09:39:46Z</time>
      </trkpt>
      <trkpt lat="48.69223" lon="1.93584">
        <ele>172</ele>
        <time>2022-11-19T09:39:48Z</time>
      </trkpt>
      <trkpt lat="48.69221" lon="1.93583">
        <ele>172</ele>
        <time>2022-11-19T09:39:50Z</time>
      </trkpt>
      <trkpt lat="48.69219" lon="1.93582">
        <ele>172</ele>
        <time>2022-11-19T09:39:52Z</time>
      </trkpt>
      <trkpt lat="48.69216" lon="1.9358">
        <ele>172</ele>
        <time>2022-11-19T09:39:54Z</time>
      </trkpt>
      <trkpt lat="48.69214" lon="1.93579">
        <ele>172</ele>
        <time>2022-11-19T09:39:56Z</time>
      </trkpt>
      <trkpt lat="48.69212" lon="1.93578">
        <ele>172</ele>
        <time>2022-11-19T09:39:58Z</time>
      </trkpt>
      <trkpt lat="48.69209" lon="1.93577">
        <ele>172</ele>
        <time>2022-11-19T09:40:00Z</time>
      </trkpt>
      <trkpt lat="48.69207" lon="1.93576">
        <ele>172</ele>
        <time>2022-11-19T09:40:02Z</time>
      </trkpt>
      <trkpt lat="48.69205" lon="1.93574">
        <ele>172</ele>
        <time>2022-11-19T09:40:04Z</time>
      </trkpt>
      <trkpt lat="48.69203" lon="1.93573">
        <ele>172</ele>
        <time>2022-11-19T09:40:06Z</time>
      </trkpt>
      <trkpt lat="48.69201" lon="1.93571">
        <ele>172</ele>
        <time>2022-11-19T09:40:08Z</time>
      </trkpt>
      <trkpt lat="48.69199" lon="1.9357">
        <ele>172</ele>
        <time>2022-11-19T09:40:10Z</time>
      </trkpt>
      <trkpt lat="48.69197" lon="1.93569">
        <ele>171</ele>
        <time>2022-11-19T09:40:12Z</time>
      </trkpt>
      <trkpt lat="48.69194" lon="1.93568">
        <ele>171</ele>
        <time>2022-11-19T09:40:14Z</time>
      </trkpt>
      <trkpt lat="48.69192" lon="1.93567">
        <ele>171</ele>
        <time>2022-11-19T09:40:16Z</time>
      </trkpt>
      <trkpt lat="48.6919" lon="1.93566">
        <ele>172</ele>
        <time>2022-11-19T09:40:18Z</time>
      </trkpt>
      <trkpt lat="48.69188" lon="1.93565">
        <ele>172</ele>
        <time>2022-11-19T09:40:20Z</time>
      </trkpt>
      <trkpt lat="48.69186" lon="1.93563">
        <ele>172</ele>
        <time>2022-11-19T09:40:22Z</time>
      </trkpt>
      <trkpt lat="48.69184" lon="1.93561">
        <ele>172</ele>
        <time>2022-11-19T09:40:24Z</time>
      </trkpt>
      <trkpt lat="48.69183" lon="1.93559">
        <ele>172</ele>
        <time>2022-11-19T09:40:26Z</time>
      </trkpt>
      <trkpt lat="48.69182" lon="1.93555">
        <ele>172</ele>
        <time>2022-11-19T09:40:29Z</time>
      </trkpt>
      <trkpt lat="48.69181" lon="1.93553">
        <ele>172</ele>
        <time>2022-11-19T09:40:33Z</time>
      </trkpt>
      <trkpt lat="48.69181" lon="1.9355">
        <ele>172</ele>
        <time>2022-11-19T09:40:42Z</time>
      </trkpt>
      <trkpt lat="48.69182" lon="1.93546">
        <ele>173</ele>
        <time>2022-11-19T09:40:45Z</time>
      </trkpt>
      <trkpt lat="48.69183" lon="1.93543">
        <ele>173</ele>
        <time>2022-11-19T09:40:47Z</time>
      </trkpt>
      <trkpt lat="48.69183" lon="1.93539">
        <ele>173</ele>
        <time>2022-11-19T09:40:49Z</time>
      </trkpt>
      <trkpt lat="48.69185" lon="1.93536">
        <ele>173</ele>
        <time>2022-11-19T09:40:51Z</time>
      </trkpt>
      <trkpt lat="48.69186" lon="1.93532">
        <ele>173</ele>
        <time>2022-11-19T09:40:53Z</time>
      </trkpt>
      <trkpt lat="48.69187" lon="1.93529">
        <ele>173</ele>
        <time>2022-11-19T09:40:55Z</time>
      </trkpt>
      <trkpt lat="48.69188" lon="1.93526">
        <ele>173</ele>
        <time>2022-11-19T09:40:57Z</time>
      </trkpt>
      <trkpt lat="48.69189" lon="1.93523">
        <ele>173</ele>
        <time>2022-11-19T09:40:59Z</time>
      </trkpt>
      <trkpt lat="48.6919" lon="1.9352">
        <ele>174</ele>
        <time>2022-11-19T09:41:01Z</time>
      </trkpt>
      <trkpt lat="48.69191" lon="1.93516">
        <ele>174</ele>
        <time>2022-11-19T09:41:03Z</time>
      </trkpt>
      <trkpt lat="48.69193" lon="1.93513">
        <ele>174</ele>
        <time>2022-11-19T09:41:05Z</time>
      </trkpt>
      <trkpt lat="48.69194" lon="1.9351">
        <ele>173</ele>
        <time>2022-11-19T09:41:07Z</time>
      </trkpt>
      <trkpt lat="48.69196" lon="1.93506">
        <ele>173</ele>
        <time>2022-11-19T09:41:09Z</time>
      </trkpt>
      <trkpt lat="48.69197" lon="1.93503">
        <ele>173</ele>
        <time>2022-11-19T09:41:11Z</time>
      </trkpt>
      <trkpt lat="48.69198" lon="1.93499">
        <ele>173</ele>
        <time>2022-11-19T09:41:13Z</time>
      </trkpt>
      <trkpt lat="48.692" lon="1.93496">
        <ele>173</ele>
        <time>2022-11-19T09:41:15Z</time>
      </trkpt>
      <trkpt lat="48.69201" lon="1.93494">
        <ele>173</ele>
        <time>2022-11-19T09:41:17Z</time>
      </trkpt>
      <trkpt lat="48.69203" lon="1.9349">
        <ele>173</ele>
        <time>2022-11-19T09:41:19Z</time>
      </trkpt>
      <trkpt lat="48.69204" lon="1.93487">
        <ele>173</ele>
        <time>2022-11-19T09:41:21Z</time>
      </trkpt>
      <trkpt lat="48.69205" lon="1.93484">
        <ele>173</ele>
        <time>2022-11-19T09:41:23Z</time>
      </trkpt>
      <trkpt lat="48.69207" lon="1.9348">
        <ele>173</ele>
        <time>2022-11-19T09:41:25Z</time>
      </trkpt>
      <trkpt lat="48.69208" lon="1.93477">
        <ele>173</ele>
        <time>2022-11-19T09:41:27Z</time>
      </trkpt>
      <trkpt lat="48.69209" lon="1.93473">
        <ele>173</ele>
        <time>2022-11-19T09:41:29Z</time>
      </trkpt>
      <trkpt lat="48.69211" lon="1.9347">
        <ele>173</ele>
        <time>2022-11-19T09:41:31Z</time>
      </trkpt>
      <trkpt lat="48.69212" lon="1.93467">
        <ele>173</ele>
        <time>2022-11-19T09:41:33Z</time>
      </trkpt>
      <trkpt lat="48.69214" lon="1.93464">
        <ele>173</ele>
        <time>2022-11-19T09:41:35Z</time>
      </trkpt>
      <trkpt lat="48.69215" lon="1.93461">
        <ele>173</ele>
        <time>2022-11-19T09:41:37Z</time>
      </trkpt>
      <trkpt lat="48.69216" lon="1.93458">
        <ele>173</ele>
        <time>2022-11-19T09:41:39Z</time>
      </trkpt>
      <trkpt lat="48.69218" lon="1.93454">
        <ele>173</ele>
        <time>2022-11-19T09:41:41Z</time>
      </trkpt>
      <trkpt lat="48.69219" lon="1.93452">
        <ele>174</ele>
        <time>2022-11-19T09:41:43Z</time>
      </trkpt>
      <trkpt lat="48.6922" lon="1.93449">
        <ele>174</ele>
        <time>2022-11-19T09:41:45Z</time>
      </trkpt>
      <trkpt lat="48.69222" lon="1.93446">
        <ele>174</ele>
        <time>2022-11-19T09:41:47Z</time>
      </trkpt>
      <trkpt lat="48.69223" lon="1.93443">
        <ele>174</ele>
        <time>2022-11-19T09:41:49Z</time>
      </trkpt>
      <trkpt lat="48.69224" lon="1.9344">
        <ele>174</ele>
        <time>2022-11-19T09:41:51Z</time>
      </trkpt>
      <trkpt lat="48.69225" lon="1.93436">
        <ele>174</ele>
        <time>2022-11-19T09:41:53Z</time>
      </trkpt>
      <trkpt lat="48.69226" lon="1.93433">
        <ele>174</ele>
        <time>2022-11-19T09:41:55Z</time>
      </trkpt>
      <trkpt lat="48.69227" lon="1.93429">
        <ele>174</ele>
        <time>2022-11-19T09:41:57Z</time>
      </trkpt>
      <trkpt lat="48.69229" lon="1.93425">
        <ele>174</ele>
        <time>2022-11-19T09:41:59Z</time>
      </trkpt>
      <trkpt lat="48.6923" lon="1.93423">
        <ele>175</ele>
        <time>2022-11-19T09:42:01Z</time>
      </trkpt>
      <trkpt lat="48.69231" lon="1.9342">
        <ele>174</ele>
        <time>2022-11-19T09:42:03Z</time>
      </trkpt>
      <trkpt lat="48.69232" lon="1.93416">
        <ele>174</ele>
        <time>2022-11-19T09:42:05Z</time>
      </trkpt>
      <trkpt lat="48.69233" lon="1.93413">
        <ele>174</ele>
        <time>2022-11-19T09:42:07Z</time>
      </trkpt>
      <trkpt lat="48.69234" lon="1.9341">
        <ele>174</ele>
        <time>2022-11-19T09:42:09Z</time>
      </trkpt>
      <trkpt lat="48.69235" lon="1.93407">
        <ele>174</ele>
        <time>2022-11-19T09:42:11Z</time>
      </trkpt>
      <trkpt lat="48.69237" lon="1.93404">
        <ele>174</ele>
        <time>2022-11-19T09:42:13Z</time>
      </trkpt>
      <trkpt lat="48.69238" lon="1.93401">
        <ele>174</ele>
        <time>2022-11-19T09:42:15Z</time>
      </trkpt>
      <trkpt lat="48.69239" lon="1.93398">
        <ele>174</ele>
        <time>2022-11-19T09:42:17Z</time>
      </trkpt>
      <trkpt lat="48.6924" lon="1.93395">
        <ele>174</ele>
        <time>2022-11-19T09:42:19Z</time>
      </trkpt>
      <trkpt lat="48.69242" lon="1.93393">
        <ele>174</ele>
        <time>2022-11-19T09:42:21Z</time>
      </trkpt>
      <trkpt lat="48.69243" lon="1.9339">
        <ele>174</ele>
        <time>2022-11-19T09:42:23Z</time>
      </trkpt>
      <trkpt lat="48.69244" lon="1.93386">
        <ele>174</ele>
        <time>2022-11-19T09:42:25Z</time>
      </trkpt>
      <trkpt lat="48.69245" lon="1.93383">
        <ele>174</ele>
        <time>2022-11-19T09:42:27Z</time>
      </trkpt>
      <trkpt lat="48.69246" lon="1.9338">
        <ele>174</ele>
        <time>2022-11-19T09:42:29Z</time>
      </trkpt>
      <trkpt lat="48.69247" lon="1.93377">
        <ele>174</ele>
        <time>2022-11-19T09:42:31Z</time>
      </trkpt>
      <trkpt lat="48.69248" lon="1.93373">
        <ele>173</ele>
        <time>2022-11-19T09:42:33Z</time>
      </trkpt>
      <trkpt lat="48.69249" lon="1.9337">
        <ele>173</ele>
        <time>2022-11-19T09:42:35Z</time>
      </trkpt>
      <trkpt lat="48.6925" lon="1.93367">
        <ele>173</ele>
        <time>2022-11-19T09:42:37Z</time>
      </trkpt>
      <trkpt lat="48.69251" lon="1.93363">
        <ele>173</ele>
        <time>2022-11-19T09:42:39Z</time>
      </trkpt>
      <trkpt lat="48.69253" lon="1.9336">
        <ele>173</ele>
        <time>2022-11-19T09:42:41Z</time>
      </trkpt>
      <trkpt lat="48.69254" lon="1.93358">
        <ele>173</ele>
        <time>2022-11-19T09:42:43Z</time>
      </trkpt>
      <trkpt lat="48.69255" lon="1.93355">
        <ele>173</ele>
        <time>2022-11-19T09:42:45Z</time>
      </trkpt>
      <trkpt lat="48.69257" lon="1.93352">
        <ele>173</ele>
        <time>2022-11-19T09:42:47Z</time>
      </trkpt>
      <trkpt lat="48.69258" lon="1.93349">
        <ele>173</ele>
        <time>2022-11-19T09:42:49Z</time>
      </trkpt>
      <trkpt lat="48.69259" lon="1.93346">
        <ele>173</ele>
        <time>2022-11-19T09:42:51Z</time>
      </trkpt>
      <trkpt lat="48.69261" lon="1.93343">
        <ele>173</ele>
        <time>2022-11-19T09:42:53Z</time>
      </trkpt>
      <trkpt lat="48.69262" lon="1.9334">
        <ele>173</ele>
        <time>2022-11-19T09:42:55Z</time>
      </trkpt>
      <trkpt lat="48.69263" lon="1.93337">
        <ele>174</ele>
        <time>2022-11-19T09:42:57Z</time>
      </trkpt>
      <trkpt lat="48.69264" lon="1.93333">
        <ele>173</ele>
        <time>2022-11-19T09:42:59Z</time>
      </trkpt>
      <trkpt lat="48.69265" lon="1.9333">
        <ele>173</ele>
        <time>2022-11-19T09:43:01Z</time>
      </trkpt>
      <trkpt lat="48.69266" lon="1.93327">
        <ele>173</ele>
        <time>2022-11-19T09:43:03Z</time>
      </trkpt>
      <trkpt lat="48.69267" lon="1.93324">
        <ele>173</ele>
        <time>2022-11-19T09:43:05Z</time>
      </trkpt>
      <trkpt lat="48.69268" lon="1.9332">
        <ele>174</ele>
        <time>2022-11-19T09:43:07Z</time>
      </trkpt>
      <trkpt lat="48.69269" lon="1.93318">
        <ele>173</ele>
        <time>2022-11-19T09:43:09Z</time>
      </trkpt>
      <trkpt lat="48.6927" lon="1.93315">
        <ele>174</ele>
        <time>2022-11-19T09:43:11Z</time>
      </trkpt>
      <trkpt lat="48.69272" lon="1.93312">
        <ele>174</ele>
        <time>2022-11-19T09:43:14Z</time>
      </trkpt>
      <trkpt lat="48.69272" lon="1.93309">
        <ele>174</ele>
        <time>2022-11-19T09:43:16Z</time>
      </trkpt>
      <trkpt lat="48.69273" lon="1.93306">
        <ele>174</ele>
        <time>2022-11-19T09:43:18Z</time>
      </trkpt>
      <trkpt lat="48.69274" lon="1.93302">
        <ele>174</ele>
        <time>2022-11-19T09:43:20Z</time>
      </trkpt>
      <trkpt lat="48.69275" lon="1.933">
        <ele>174</ele>
        <time>2022-11-19T09:43:22Z</time>
      </trkpt>
      <trkpt lat="48.69276" lon="1.93297">
        <ele>173</ele>
        <time>2022-11-19T09:43:24Z</time>
      </trkpt>
      <trkpt lat="48.69277" lon="1.93294">
        <ele>174</ele>
        <time>2022-11-19T09:43:26Z</time>
      </trkpt>
      <trkpt lat="48.69279" lon="1.93292">
        <ele>174</ele>
        <time>2022-11-19T09:43:28Z</time>
      </trkpt>
      <trkpt lat="48.6928" lon="1.93288">
        <ele>174</ele>
        <time>2022-11-19T09:43:30Z</time>
      </trkpt>
      <trkpt lat="48.69281" lon="1.93285">
        <ele>174</ele>
        <time>2022-11-19T09:43:32Z</time>
      </trkpt>
      <trkpt lat="48.69282" lon="1.93282">
        <ele>173</ele>
        <time>2022-11-19T09:43:34Z</time>
      </trkpt>
      <trkpt lat="48.69283" lon="1.93279">
        <ele>174</ele>
        <time>2022-11-19T09:43:36Z</time>
      </trkpt>
      <trkpt lat="48.69284" lon="1.93276">
        <ele>174</ele>
        <time>2022-11-19T09:43:38Z</time>
      </trkpt>
      <trkpt lat="48.69285" lon="1.93273">
        <ele>174</ele>
        <time>2022-11-19T09:43:40Z</time>
      </trkpt>
      <trkpt lat="48.69287" lon="1.9327">
        <ele>174</ele>
        <time>2022-11-19T09:43:42Z</time>
      </trkpt>
      <trkpt lat="48.69288" lon="1.93267">
        <ele>174</ele>
        <time>2022-11-19T09:43:44Z</time>
      </trkpt>
      <trkpt lat="48.69289" lon="1.93264">
        <ele>174</ele>
        <time>2022-11-19T09:43:46Z</time>
      </trkpt>
      <trkpt lat="48.6929" lon="1.93261">
        <ele>173</ele>
        <time>2022-11-19T09:43:48Z</time>
      </trkpt>
      <trkpt lat="48.69291" lon="1.93258">
        <ele>173</ele>
        <time>2022-11-19T09:43:50Z</time>
      </trkpt>
      <trkpt lat="48.69292" lon="1.93256">
        <ele>173</ele>
        <time>2022-11-19T09:43:52Z</time>
      </trkpt>
      <trkpt lat="48.69294" lon="1.93253">
        <ele>173</ele>
        <time>2022-11-19T09:43:54Z</time>
      </trkpt>
      <trkpt lat="48.69295" lon="1.93249">
        <ele>173</ele>
        <time>2022-11-19T09:43:56Z</time>
      </trkpt>
      <trkpt lat="48.69296" lon="1.93247">
        <ele>173</ele>
        <time>2022-11-19T09:43:58Z</time>
      </trkpt>
      <trkpt lat="48.69297" lon="1.93245">
        <ele>173</ele>
        <time>2022-11-19T09:44:00Z</time>
      </trkpt>
      <trkpt lat="48.69298" lon="1.93242">
        <ele>173</ele>
        <time>2022-11-19T09:44:02Z</time>
      </trkpt>
      <trkpt lat="48.693" lon="1.93239">
        <ele>173</ele>
        <time>2022-11-19T09:44:04Z</time>
      </trkpt>
      <trkpt lat="48.69301" lon="1.93235">
        <ele>173</ele>
        <time>2022-11-19T09:44:06Z</time>
      </trkpt>
      <trkpt lat="48.69302" lon="1.93232">
        <ele>173</ele>
        <time>2022-11-19T09:44:08Z</time>
      </trkpt>
      <trkpt lat="48.69303" lon="1.93229">
        <ele>173</ele>
        <time>2022-11-19T09:44:10Z</time>
      </trkpt>
      <trkpt lat="48.69304" lon="1.93226">
        <ele>173</ele>
        <time>2022-11-19T09:44:13Z</time>
      </trkpt>
      <trkpt lat="48.69305" lon="1.93224">
        <ele>174</ele>
        <time>2022-11-19T09:44:26Z</time>
      </trkpt>
      <trkpt lat="48.69307" lon="1.93221">
        <ele>174</ele>
        <time>2022-11-19T09:44:39Z</time>
      </trkpt>
      <trkpt lat="48.69307" lon="1.93218">
        <ele>174</ele>
        <time>2022-11-19T09:44:41Z</time>
      </trkpt>
      <trkpt lat="48.69308" lon="1.93215">
        <ele>174</ele>
        <time>2022-11-19T09:44:43Z</time>
      </trkpt>
      <trkpt lat="48.6931" lon="1.93213">
        <ele>175</ele>
        <time>2022-11-19T09:44:45Z</time>
      </trkpt>
      <trkpt lat="48.69311" lon="1.9321">
        <ele>175</ele>
        <time>2022-11-19T09:44:47Z</time>
      </trkpt>
      <trkpt lat="48.69312" lon="1.93207">
        <ele>175</ele>
        <time>2022-11-19T09:44:49Z</time>
      </trkpt>
      <trkpt lat="48.69314" lon="1.93205">
        <ele>175</ele>
        <time>2022-11-19T09:44:51Z</time>
      </trkpt>
      <trkpt lat="48.69314" lon="1.93203">
        <ele>174</ele>
        <time>2022-11-19T09:44:53Z</time>
      </trkpt>
      <trkpt lat="48.69315" lon="1.932">
        <ele>175</ele>
        <time>2022-11-19T09:44:55Z</time>
      </trkpt>
      <trkpt lat="48.69317" lon="1.93198">
        <ele>175</ele>
        <time>2022-11-19T09:44:58Z</time>
      </trkpt>
      <trkpt lat="48.69319" lon="1.93195">
        <ele>175</ele>
        <time>2022-11-19T09:45:00Z</time>
      </trkpt>
      <trkpt lat="48.6932" lon="1.93192">
        <ele>175</ele>
        <time>2022-11-19T09:45:02Z</time>
      </trkpt>
      <trkpt lat="48.69321" lon="1.93189">
        <ele>175</ele>
        <time>2022-11-19T09:45:04Z</time>
      </trkpt>
      <trkpt lat="48.69322" lon="1.93185">
        <ele>175</ele>
        <time>2022-11-19T09:45:06Z</time>
      </trkpt>
      <trkpt lat="48.69323" lon="1.93182">
        <ele>175</ele>
        <time>2022-11-19T09:45:08Z</time>
      </trkpt>
      <trkpt lat="48.69325" lon="1.93178">
        <ele>174</ele>
        <time>2022-11-19T09:45:10Z</time>
      </trkpt>
      <trkpt lat="48.69326" lon="1.93175">
        <ele>174</ele>
        <time>2022-11-19T09:45:12Z</time>
      </trkpt>
      <trkpt lat="48.69327" lon="1.93172">
        <ele>174</ele>
        <time>2022-11-19T09:45:14Z</time>
      </trkpt>
      <trkpt lat="48.69328" lon="1.93168">
        <ele>174</ele>
        <time>2022-11-19T09:45:16Z</time>
      </trkpt>
      <trkpt lat="48.6933" lon="1.93165">
        <ele>174</ele>
        <time>2022-11-19T09:45:18Z</time>
      </trkpt>
      <trkpt lat="48.69331" lon="1.93162">
        <ele>174</ele>
        <time>2022-11-19T09:45:20Z</time>
      </trkpt>
      <trkpt lat="48.69332" lon="1.93159">
        <ele>174</ele>
        <time>2022-11-19T09:45:22Z</time>
      </trkpt>
      <trkpt lat="48.69334" lon="1.93156">
        <ele>174</ele>
        <time>2022-11-19T09:45:24Z</time>
      </trkpt>
      <trkpt lat="48.69335" lon="1.93153">
        <ele>173</ele>
        <time>2022-11-19T09:45:26Z</time>
      </trkpt>
      <trkpt lat="48.69336" lon="1.9315">
        <ele>173</ele>
        <time>2022-11-19T09:45:28Z</time>
      </trkpt>
      <trkpt lat="48.69337" lon="1.93146">
        <ele>173</ele>
        <time>2022-11-19T09:45:30Z</time>
      </trkpt>
      <trkpt lat="48.69338" lon="1.93143">
        <ele>173</ele>
        <time>2022-11-19T09:45:32Z</time>
      </trkpt>
      <trkpt lat="48.69339" lon="1.93141">
        <ele>173</ele>
        <time>2022-11-19T09:45:34Z</time>
      </trkpt>
      <trkpt lat="48.69341" lon="1.93141">
        <ele>174</ele>
        <time>2022-11-19T09:45:44Z</time>
      </trkpt>
      <trkpt lat="48.69341" lon="1.93139">
        <ele>175</ele>
        <time>2022-11-19T09:46:09Z</time>
      </trkpt>
      <trkpt lat="48.69341" lon="1.93136">
        <ele>175</ele>
        <time>2022-11-19T09:46:11Z</time>
      </trkpt>
      <trkpt lat="48.69343" lon="1.93133">
        <ele>175</ele>
        <time>2022-11-19T09:46:14Z</time>
      </trkpt>
      <trkpt lat="48.69344" lon="1.93131">
        <ele>175</ele>
        <time>2022-11-19T09:46:17Z</time>
      </trkpt>
      <trkpt lat="48.69345" lon="1.93128">
        <ele>175</ele>
        <time>2022-11-19T09:46:20Z</time>
      </trkpt>
      <trkpt lat="48.69346" lon="1.93125">
        <ele>175</ele>
        <time>2022-11-19T09:46:22Z</time>
      </trkpt>
      <trkpt lat="48.69347" lon="1.93123">
        <ele>175</ele>
        <time>2022-11-19T09:46:24Z</time>
      </trkpt>
      <trkpt lat="48.69348" lon="1.9312">
        <ele>175</ele>
        <time>2022-11-19T09:46:26Z</time>
      </trkpt>
      <trkpt lat="48.69349" lon="1.93117">
        <ele>175</ele>
        <time>2022-11-19T09:46:28Z</time>
      </trkpt>
      <trkpt lat="48.6935" lon="1.93114">
        <ele>175</ele>
        <time>2022-11-19T09:46:30Z</time>
      </trkpt>
      <trkpt lat="48.6935" lon="1.93111">
        <ele>175</ele>
        <time>2022-11-19T09:46:32Z</time>
      </trkpt>
      <trkpt lat="48.69351" lon="1.93109">
        <ele>176</ele>
        <time>2022-11-19T09:46:34Z</time>
      </trkpt>
      <trkpt lat="48.69353" lon="1.93105">
        <ele>176</ele>
        <time>2022-11-19T09:46:36Z</time>
      </trkpt>
      <trkpt lat="48.69354" lon="1.93103">
        <ele>176</ele>
        <time>2022-11-19T09:46:38Z</time>
      </trkpt>
      <trkpt lat="48.69355" lon="1.931">
        <ele>176</ele>
        <time>2022-11-19T09:46:40Z</time>
      </trkpt>
      <trkpt lat="48.69356" lon="1.93097">
        <ele>175</ele>
        <time>2022-11-19T09:46:42Z</time>
      </trkpt>
      <trkpt lat="48.69357" lon="1.93094">
        <ele>175</ele>
        <time>2022-11-19T09:46:44Z</time>
      </trkpt>
      <trkpt lat="48.69359" lon="1.93091">
        <ele>175</ele>
        <time>2022-11-19T09:46:46Z</time>
      </trkpt>
      <trkpt lat="48.6936" lon="1.93089">
        <ele>175</ele>
        <time>2022-11-19T09:46:48Z</time>
      </trkpt>
      <trkpt lat="48.69361" lon="1.93086">
        <ele>175</ele>
        <time>2022-11-19T09:46:50Z</time>
      </trkpt>
      <trkpt lat="48.69362" lon="1.93083">
        <ele>175</ele>
        <time>2022-11-19T09:46:52Z</time>
      </trkpt>
      <trkpt lat="48.69363" lon="1.9308">
        <ele>175</ele>
        <time>2022-11-19T09:46:54Z</time>
      </trkpt>
      <trkpt lat="48.69365" lon="1.93078">
        <ele>175</ele>
        <time>2022-11-19T09:46:56Z</time>
      </trkpt>
      <trkpt lat="48.69366" lon="1.93074">
        <ele>174</ele>
        <time>2022-11-19T09:46:59Z</time>
      </trkpt>
      <trkpt lat="48.69367" lon="1.9307">
        <ele>174</ele>
        <time>2022-11-19T09:47:01Z</time>
      </trkpt>
      <trkpt lat="48.69368" lon="1.93067">
        <ele>174</ele>
        <time>2022-11-19T09:47:03Z</time>
      </trkpt>
      <trkpt lat="48.6937" lon="1.93064">
        <ele>174</ele>
        <time>2022-11-19T09:47:05Z</time>
      </trkpt>
      <trkpt lat="48.69372" lon="1.93061">
        <ele>174</ele>
        <time>2022-11-19T09:47:07Z</time>
      </trkpt>
      <trkpt lat="48.69373" lon="1.93058">
        <ele>174</ele>
        <time>2022-11-19T09:47:09Z</time>
      </trkpt>
      <trkpt lat="48.69375" lon="1.93055">
        <ele>174</ele>
        <time>2022-11-19T09:47:11Z</time>
      </trkpt>
      <trkpt lat="48.69376" lon="1.93053">
        <ele>173</ele>
        <time>2022-11-19T09:47:13Z</time>
      </trkpt>
      <trkpt lat="48.69378" lon="1.93049">
        <ele>174</ele>
        <time>2022-11-19T09:47:15Z</time>
      </trkpt>
      <trkpt lat="48.69379" lon="1.93046">
        <ele>174</ele>
        <time>2022-11-19T09:47:17Z</time>
      </trkpt>
      <trkpt lat="48.69381" lon="1.93043">
        <ele>174</ele>
        <time>2022-11-19T09:47:19Z</time>
      </trkpt>
      <trkpt lat="48.69382" lon="1.93039">
        <ele>174</ele>
        <time>2022-11-19T09:47:21Z</time>
      </trkpt>
      <trkpt lat="48.69383" lon="1.93036">
        <ele>174</ele>
        <time>2022-11-19T09:47:23Z</time>
      </trkpt>
      <trkpt lat="48.69385" lon="1.93034">
        <ele>174</ele>
        <time>2022-11-19T09:47:25Z</time>
      </trkpt>
      <trkpt lat="48.69387" lon="1.93031">
        <ele>174</ele>
        <time>2022-11-19T09:47:27Z</time>
      </trkpt>
      <trkpt lat="48.69388" lon="1.93029">
        <ele>174</ele>
        <time>2022-11-19T09:47:29Z</time>
      </trkpt>
      <trkpt lat="48.6939" lon="1.93026">
        <ele>174</ele>
        <time>2022-11-19T09:47:32Z</time>
      </trkpt>
      <trkpt lat="48.69391" lon="1.93023">
        <ele>174</ele>
        <time>2022-11-19T09:47:34Z</time>
      </trkpt>
      <trkpt lat="48.69391" lon="1.93019">
        <ele>174</ele>
        <time>2022-11-19T09:47:36Z</time>
      </trkpt>
      <trkpt lat="48.69393" lon="1.93016">
        <ele>174</ele>
        <time>2022-11-19T09:47:38Z</time>
      </trkpt>
      <trkpt lat="48.69394" lon="1.93014">
        <ele>174</ele>
        <time>2022-11-19T09:47:40Z</time>
      </trkpt>
      <trkpt lat="48.69396" lon="1.93011">
        <ele>174</ele>
        <time>2022-11-19T09:47:42Z</time>
      </trkpt>
      <trkpt lat="48.69397" lon="1.93008">
        <ele>174</ele>
        <time>2022-11-19T09:47:44Z</time>
      </trkpt>
      <trkpt lat="48.69398" lon="1.93004">
        <ele>174</ele>
        <time>2022-11-19T09:47:46Z</time>
      </trkpt>
      <trkpt lat="48.69399" lon="1.93001">
        <ele>174</ele>
        <time>2022-11-19T09:47:48Z</time>
      </trkpt>
      <trkpt lat="48.694" lon="1.92997">
        <ele>174</ele>
        <time>2022-11-19T09:47:50Z</time>
      </trkpt>
      <trkpt lat="48.69402" lon="1.92994">
        <ele>175</ele>
        <time>2022-11-19T09:47:52Z</time>
      </trkpt>
      <trkpt lat="48.69403" lon="1.92991">
        <ele>175</ele>
        <time>2022-11-19T09:47:54Z</time>
      </trkpt>
      <trkpt lat="48.69405" lon="1.92987">
        <ele>175</ele>
        <time>2022-11-19T09:47:56Z</time>
      </trkpt>
      <trkpt lat="48.69406" lon="1.92984">
        <ele>175</ele>
        <time>2022-11-19T09:47:58Z</time>
      </trkpt>
      <trkpt lat="48.69407" lon="1.92982">
        <ele>175</ele>
        <time>2022-11-19T09:48:00Z</time>
      </trkpt>
      <trkpt lat="48.69408" lon="1.92979">
        <ele>175</ele>
        <time>2022-11-19T09:48:02Z</time>
      </trkpt>
      <trkpt lat="48.69409" lon="1.92976">
        <ele>175</ele>
        <time>2022-11-19T09:48:04Z</time>
      </trkpt>
      <trkpt lat="48.69411" lon="1.92973">
        <ele>175</ele>
        <time>2022-11-19T09:48:06Z</time>
      </trkpt>
      <trkpt lat="48.69412" lon="1.9297">
        <ele>175</ele>
        <time>2022-11-19T09:48:08Z</time>
      </trkpt>
      <trkpt lat="48.69413" lon="1.92967">
        <ele>176</ele>
        <time>2022-11-19T09:48:10Z</time>
      </trkpt>
      <trkpt lat="48.69415" lon="1.92965">
        <ele>176</ele>
        <time>2022-11-19T09:48:12Z</time>
      </trkpt>
      <trkpt lat="48.69416" lon="1.92962">
        <ele>176</ele>
        <time>2022-11-19T09:48:14Z</time>
      </trkpt>
      <trkpt lat="48.69417" lon="1.9296">
        <ele>176</ele>
        <time>2022-11-19T09:48:16Z</time>
      </trkpt>
      <trkpt lat="48.69418" lon="1.92957">
        <ele>176</ele>
        <time>2022-11-19T09:48:18Z</time>
      </trkpt>
      <trkpt lat="48.6942" lon="1.92955">
        <ele>176</ele>
        <time>2022-11-19T09:48:20Z</time>
      </trkpt>
      <trkpt lat="48.69421" lon="1.92952">
        <ele>176</ele>
        <time>2022-11-19T09:48:22Z</time>
      </trkpt>
      <trkpt lat="48.69422" lon="1.92949">
        <ele>176</ele>
        <time>2022-11-19T09:48:24Z</time>
      </trkpt>
      <trkpt lat="48.69424" lon="1.92946">
        <ele>177</ele>
        <time>2022-11-19T09:48:26Z</time>
      </trkpt>
      <trkpt lat="48.69425" lon="1.92942">
        <ele>177</ele>
        <time>2022-11-19T09:48:28Z</time>
      </trkpt>
      <trkpt lat="48.69426" lon="1.92939">
        <ele>177</ele>
        <time>2022-11-19T09:48:30Z</time>
      </trkpt>
      <trkpt lat="48.69427" lon="1.92937">
        <ele>177</ele>
        <time>2022-11-19T09:48:32Z</time>
      </trkpt>
      <trkpt lat="48.69426" lon="1.92933">
        <ele>177</ele>
        <time>2022-11-19T09:48:35Z</time>
      </trkpt>
      <trkpt lat="48.69426" lon="1.9293">
        <ele>177</ele>
        <time>2022-11-19T09:48:37Z</time>
      </trkpt>
      <trkpt lat="48.69425" lon="1.92926">
        <ele>177</ele>
        <time>2022-11-19T09:48:39Z</time>
      </trkpt>
      <trkpt lat="48.69424" lon="1.92924">
        <ele>177</ele>
        <time>2022-11-19T09:48:41Z</time>
      </trkpt>
      <trkpt lat="48.69423" lon="1.92921">
        <ele>177</ele>
        <time>2022-11-19T09:48:43Z</time>
      </trkpt>
      <trkpt lat="48.69421" lon="1.92919">
        <ele>177</ele>
        <time>2022-11-19T09:48:46Z</time>
      </trkpt>
      <trkpt lat="48.69421" lon="1.92922">
        <ele>174</ele>
        <time>2022-11-19T09:49:22Z</time>
      </trkpt>
      <trkpt lat="48.69422" lon="1.92923">
        <ele>173</ele>
        <time>2022-11-19T09:49:30Z</time>
      </trkpt>
      <trkpt lat="48.69423" lon="1.9292">
        <ele>173</ele>
        <time>2022-11-19T09:49:32Z</time>
      </trkpt>
      <trkpt lat="48.69423" lon="1.92917">
        <ele>173</ele>
        <time>2022-11-19T09:49:34Z</time>
      </trkpt>
      <trkpt lat="48.69423" lon="1.92914">
        <ele>174</ele>
        <time>2022-11-19T09:49:36Z</time>
      </trkpt>
      <trkpt lat="48.69424" lon="1.92911">
        <ele>173</ele>
        <time>2022-11-19T09:49:39Z</time>
      </trkpt>
      <trkpt lat="48.69422" lon="1.92909">
        <ele>174</ele>
        <time>2022-11-19T09:49:52Z</time>
      </trkpt>
      <trkpt lat="48.69419" lon="1.9291">
        <ele>174</ele>
        <time>2022-11-19T09:49:55Z</time>
      </trkpt>
      <trkpt lat="48.69417" lon="1.92912">
        <ele>174</ele>
        <time>2022-11-19T09:49:58Z</time>
      </trkpt>
      <trkpt lat="48.69414" lon="1.92913">
        <ele>174</ele>
        <time>2022-11-19T09:50:01Z</time>
      </trkpt>
      <trkpt lat="48.69412" lon="1.92916">
        <ele>174</ele>
        <time>2022-11-19T09:50:04Z</time>
      </trkpt>
      <trkpt lat="48.69413" lon="1.92918">
        <ele>174</ele>
        <time>2022-11-19T09:50:08Z</time>
      </trkpt>
      <trkpt lat="48.69415" lon="1.92917">
        <ele>174</ele>
        <time>2022-11-19T09:50:27Z</time>
      </trkpt>
      <trkpt lat="48.69417" lon="1.92917">
        <ele>175</ele>
        <time>2022-11-19T09:51:07Z</time>
      </trkpt>
      <trkpt lat="48.69419" lon="1.92916">
        <ele>175</ele>
        <time>2022-11-19T09:51:22Z</time>
      </trkpt>
      <trkpt lat="48.69421" lon="1.92914">
        <ele>175</ele>
        <time>2022-11-19T09:51:25Z</time>
      </trkpt>
      <trkpt lat="48.69423" lon="1.92914">
        <ele>175</ele>
        <time>2022-11-19T09:51:27Z</time>
      </trkpt>
      <trkpt lat="48.69425" lon="1.92913">
        <ele>174</ele>
        <time>2022-11-19T09:51:29Z</time>
      </trkpt>
      <trkpt lat="48.69427" lon="1.92912">
        <ele>174</ele>
        <time>2022-11-19T09:51:31Z</time>
      </trkpt>
      <trkpt lat="48.69429" lon="1.92911">
        <ele>174</ele>
        <time>2022-11-19T09:51:33Z</time>
      </trkpt>
      <trkpt lat="48.69431" lon="1.92908">
        <ele>174</ele>
        <time>2022-11-19T09:51:35Z</time>
      </trkpt>
      <trkpt lat="48.69432" lon="1.92903">
        <ele>174</ele>
        <time>2022-11-19T09:51:37Z</time>
      </trkpt>
      <trkpt lat="48.69433" lon="1.92899">
        <ele>174</ele>
        <time>2022-11-19T09:51:39Z</time>
      </trkpt>
      <trkpt lat="48.69435" lon="1.92896">
        <ele>174</ele>
        <time>2022-11-19T09:51:41Z</time>
      </trkpt>
      <trkpt lat="48.69436" lon="1.92893">
        <ele>174</ele>
        <time>2022-11-19T09:51:43Z</time>
      </trkpt>
      <trkpt lat="48.69437" lon="1.9289">
        <ele>174</ele>
        <time>2022-11-19T09:51:45Z</time>
      </trkpt>
      <trkpt lat="48.69439" lon="1.92886">
        <ele>174</ele>
        <time>2022-11-19T09:51:47Z</time>
      </trkpt>
      <trkpt lat="48.6944" lon="1.92883">
        <ele>175</ele>
        <time>2022-11-19T09:51:49Z</time>
      </trkpt>
      <trkpt lat="48.69441" lon="1.9288">
        <ele>175</ele>
        <time>2022-11-19T09:51:51Z</time>
      </trkpt>
      <trkpt lat="48.69443" lon="1.92875">
        <ele>175</ele>
        <time>2022-11-19T09:51:53Z</time>
      </trkpt>
      <trkpt lat="48.69444" lon="1.92871">
        <ele>175</ele>
        <time>2022-11-19T09:51:55Z</time>
      </trkpt>
      <trkpt lat="48.69445" lon="1.92867">
        <ele>176</ele>
        <time>2022-11-19T09:51:57Z</time>
      </trkpt>
      <trkpt lat="48.69447" lon="1.92864">
        <ele>176</ele>
        <time>2022-11-19T09:51:59Z</time>
      </trkpt>
      <trkpt lat="48.69447" lon="1.92859">
        <ele>176</ele>
        <time>2022-11-19T09:52:01Z</time>
      </trkpt>
      <trkpt lat="48.69447" lon="1.92856">
        <ele>177</ele>
        <time>2022-11-19T09:52:03Z</time>
      </trkpt>
      <trkpt lat="48.69448" lon="1.92851">
        <ele>177</ele>
        <time>2022-11-19T09:52:05Z</time>
      </trkpt>
      <trkpt lat="48.69449" lon="1.92846">
        <ele>177</ele>
        <time>2022-11-19T09:52:07Z</time>
      </trkpt>
      <trkpt lat="48.6945" lon="1.92843">
        <ele>177</ele>
        <time>2022-11-19T09:52:09Z</time>
      </trkpt>
      <trkpt lat="48.69451" lon="1.92839">
        <ele>177</ele>
        <time>2022-11-19T09:52:11Z</time>
      </trkpt>
      <trkpt lat="48.69452" lon="1.92835">
        <ele>178</ele>
        <time>2022-11-19T09:52:13Z</time>
      </trkpt>
      <trkpt lat="48.69452" lon="1.92831">
        <ele>178</ele>
        <time>2022-11-19T09:52:15Z</time>
      </trkpt>
      <trkpt lat="48.69452" lon="1.92827">
        <ele>179</ele>
        <time>2022-11-19T09:52:17Z</time>
      </trkpt>
      <trkpt lat="48.69453" lon="1.92822">
        <ele>179</ele>
        <time>2022-11-19T09:52:19Z</time>
      </trkpt>
      <trkpt lat="48.69453" lon="1.92818">
        <ele>179</ele>
        <time>2022-11-19T09:52:21Z</time>
      </trkpt>
      <trkpt lat="48.69454" lon="1.92814">
        <ele>180</ele>
        <time>2022-11-19T09:52:23Z</time>
      </trkpt>
      <trkpt lat="48.69454" lon="1.92809">
        <ele>180</ele>
        <time>2022-11-19T09:52:25Z</time>
      </trkpt>
      <trkpt lat="48.69456" lon="1.92805">
        <ele>180</ele>
        <time>2022-11-19T09:52:27Z</time>
      </trkpt>
      <trkpt lat="48.69458" lon="1.92801">
        <ele>180</ele>
        <time>2022-11-19T09:52:29Z</time>
      </trkpt>
      <trkpt lat="48.6946" lon="1.92798">
        <ele>181</ele>
        <time>2022-11-19T09:52:31Z</time>
      </trkpt>
      <trkpt lat="48.69462" lon="1.92795">
        <ele>182</ele>
        <time>2022-11-19T09:52:33Z</time>
      </trkpt>
      <trkpt lat="48.69464" lon="1.92791">
        <ele>181</ele>
        <time>2022-11-19T09:52:35Z</time>
      </trkpt>
      <trkpt lat="48.69466" lon="1.92788">
        <ele>182</ele>
        <time>2022-11-19T09:52:37Z</time>
      </trkpt>
      <trkpt lat="48.69469" lon="1.92785">
        <ele>182</ele>
        <time>2022-11-19T09:52:39Z</time>
      </trkpt>
      <trkpt lat="48.69471" lon="1.92782">
        <ele>182</ele>
        <time>2022-11-19T09:52:41Z</time>
      </trkpt>
      <trkpt lat="48.69473" lon="1.9278">
        <ele>182</ele>
        <time>2022-11-19T09:52:43Z</time>
      </trkpt>
      <trkpt lat="48.69475" lon="1.92777">
        <ele>182</ele>
        <time>2022-11-19T09:52:45Z</time>
      </trkpt>
      <trkpt lat="48.69477" lon="1.92774">
        <ele>182</ele>
        <time>2022-11-19T09:52:47Z</time>
      </trkpt>
      <trkpt lat="48.69479" lon="1.92771">
        <ele>182</ele>
        <time>2022-11-19T09:52:49Z</time>
      </trkpt>
      <trkpt lat="48.69481" lon="1.92768">
        <ele>182</ele>
        <time>2022-11-19T09:52:51Z</time>
      </trkpt>
      <trkpt lat="48.69483" lon="1.92765">
        <ele>182</ele>
        <time>2022-11-19T09:52:53Z</time>
      </trkpt>
      <trkpt lat="48.69485" lon="1.92761">
        <ele>182</ele>
        <time>2022-11-19T09:52:55Z</time>
      </trkpt>
      <trkpt lat="48.69488" lon="1.92759">
        <ele>182</ele>
        <time>2022-11-19T09:52:57Z</time>
      </trkpt>
      <trkpt lat="48.69489" lon="1.92755">
        <ele>183</ele>
        <time>2022-11-19T09:52:59Z</time>
      </trkpt>
      <trkpt lat="48.69491" lon="1.92752">
        <ele>183</ele>
        <time>2022-11-19T09:53:01Z</time>
      </trkpt>
      <trkpt lat="48.69492" lon="1.92748">
        <ele>183</ele>
        <time>2022-11-19T09:53:03Z</time>
      </trkpt>
      <trkpt lat="48.69494" lon="1.92744">
        <ele>183</ele>
        <time>2022-11-19T09:53:05Z</time>
      </trkpt>
      <trkpt lat="48.69495" lon="1.9274">
        <ele>183</ele>
        <time>2022-11-19T09:53:07Z</time>
      </trkpt>
      <trkpt lat="48.69496" lon="1.92737">
        <ele>183</ele>
        <time>2022-11-19T09:53:09Z</time>
      </trkpt>
      <trkpt lat="48.69498" lon="1.92735">
        <ele>183</ele>
        <time>2022-11-19T09:53:11Z</time>
      </trkpt>
      <trkpt lat="48.695" lon="1.92731">
        <ele>183</ele>
        <time>2022-11-19T09:53:13Z</time>
      </trkpt>
      <trkpt lat="48.69501" lon="1.92726">
        <ele>183</ele>
        <time>2022-11-19T09:53:15Z</time>
      </trkpt>
      <trkpt lat="48.69503" lon="1.92722">
        <ele>184</ele>
        <time>2022-11-19T09:53:17Z</time>
      </trkpt>
      <trkpt lat="48.69504" lon="1.92719">
        <ele>184</ele>
        <time>2022-11-19T09:53:19Z</time>
      </trkpt>
      <trkpt lat="48.69506" lon="1.92716">
        <ele>184</ele>
        <time>2022-11-19T09:53:21Z</time>
      </trkpt>
      <trkpt lat="48.69507" lon="1.92714">
        <ele>184</ele>
        <time>2022-11-19T09:53:23Z</time>
      </trkpt>
      <trkpt lat="48.69509" lon="1.9271">
        <ele>184</ele>
        <time>2022-11-19T09:53:25Z</time>
      </trkpt>
      <trkpt lat="48.6951" lon="1.92706">
        <ele>184</ele>
        <time>2022-11-19T09:53:27Z</time>
      </trkpt>
      <trkpt lat="48.69511" lon="1.92702">
        <ele>184</ele>
        <time>2022-11-19T09:53:29Z</time>
      </trkpt>
      <trkpt lat="48.69512" lon="1.92699">
        <ele>184</ele>
        <time>2022-11-19T09:53:30Z</time>
      </trkpt>
      <trkpt lat="48.69513" lon="1.92695">
        <ele>184</ele>
        <time>2022-11-19T09:53:32Z</time>
      </trkpt>
      <trkpt lat="48.69515" lon="1.92691">
        <ele>184</ele>
        <time>2022-11-19T09:53:34Z</time>
      </trkpt>
      <trkpt lat="48.69516" lon="1.92688">
        <ele>184</ele>
        <time>2022-11-19T09:53:36Z</time>
      </trkpt>
      <trkpt lat="48.69518" lon="1.92683">
        <ele>185</ele>
        <time>2022-11-19T09:53:38Z</time>
      </trkpt>
      <trkpt lat="48.69519" lon="1.9268">
        <ele>185</ele>
        <time>2022-11-19T09:53:40Z</time>
      </trkpt>
      <trkpt lat="48.69521" lon="1.92676">
        <ele>185</ele>
        <time>2022-11-19T09:53:42Z</time>
      </trkpt>
      <trkpt lat="48.69523" lon="1.92672">
        <ele>186</ele>
        <time>2022-11-19T09:53:44Z</time>
      </trkpt>
      <trkpt lat="48.69524" lon="1.92668">
        <ele>186</ele>
        <time>2022-11-19T09:53:46Z</time>
      </trkpt>
      <trkpt lat="48.69526" lon="1.92665">
        <ele>186</ele>
        <time>2022-11-19T09:53:48Z</time>
      </trkpt>
      <trkpt lat="48.69528" lon="1.92662">
        <ele>187</ele>
        <time>2022-11-19T09:53:50Z</time>
      </trkpt>
      <trkpt lat="48.6953" lon="1.92658">
        <ele>187</ele>
        <time>2022-11-19T09:53:52Z</time>
      </trkpt>
      <trkpt lat="48.69531" lon="1.92654">
        <ele>187</ele>
        <time>2022-11-19T09:53:54Z</time>
      </trkpt>
      <trkpt lat="48.69532" lon="1.92651">
        <ele>188</ele>
        <time>2022-11-19T09:53:56Z</time>
      </trkpt>
      <trkpt lat="48.69533" lon="1.92648">
        <ele>188</ele>
        <time>2022-11-19T09:53:59Z</time>
      </trkpt>
      <trkpt lat="48.69535" lon="1.92646">
        <ele>188</ele>
        <time>2022-11-19T09:54:02Z</time>
      </trkpt>
      <trkpt lat="48.69536" lon="1.92643">
        <ele>189</ele>
        <time>2022-11-19T09:54:04Z</time>
      </trkpt>
      <trkpt lat="48.69537" lon="1.9264">
        <ele>189</ele>
        <time>2022-11-19T09:54:05Z</time>
      </trkpt>
      <trkpt lat="48.69538" lon="1.92637">
        <ele>189</ele>
        <time>2022-11-19T09:54:06Z</time>
      </trkpt>
      <trkpt lat="48.69539" lon="1.92634">
        <ele>189</ele>
        <time>2022-11-19T09:54:07Z</time>
      </trkpt>
      <trkpt lat="48.69541" lon="1.92632">
        <ele>189</ele>
        <time>2022-11-19T09:54:08Z</time>
      </trkpt>
      <trkpt lat="48.69542" lon="1.9263">
        <ele>190</ele>
        <time>2022-11-19T09:54:09Z</time>
      </trkpt>
      <trkpt lat="48.69543" lon="1.92627">
        <ele>190</ele>
        <time>2022-11-19T09:54:10Z</time>
      </trkpt>
      <trkpt lat="48.69545" lon="1.92625">
        <ele>189</ele>
        <time>2022-11-19T09:54:11Z</time>
      </trkpt>
      <trkpt lat="48.69547" lon="1.92623">
        <ele>189</ele>
        <time>2022-11-19T09:54:12Z</time>
      </trkpt>
      <trkpt lat="48.6955" lon="1.92623">
        <ele>189</ele>
        <time>2022-11-19T09:54:14Z</time>
      </trkpt>
      <trkpt lat="48.69552" lon="1.92622">
        <ele>189</ele>
        <time>2022-11-19T09:54:15Z</time>
      </trkpt>
      <trkpt lat="48.69554" lon="1.92621">
        <ele>189</ele>
        <time>2022-11-19T09:54:16Z</time>
      </trkpt>
      <trkpt lat="48.69557" lon="1.92618">
        <ele>189</ele>
        <time>2022-11-19T09:54:18Z</time>
      </trkpt>
      <trkpt lat="48.6956" lon="1.92615">
        <ele>189</ele>
        <time>2022-11-19T09:54:20Z</time>
      </trkpt>
      <trkpt lat="48.69561" lon="1.92614">
        <ele>189</ele>
        <time>2022-11-19T09:54:21Z</time>
      </trkpt>
      <trkpt lat="48.69563" lon="1.92609">
        <ele>189</ele>
        <time>2022-11-19T09:54:23Z</time>
      </trkpt>
      <trkpt lat="48.69564" lon="1.92607">
        <ele>189</ele>
        <time>2022-11-19T09:54:24Z</time>
      </trkpt>
      <trkpt lat="48.69565" lon="1.92605">
        <ele>189</ele>
        <time>2022-11-19T09:54:25Z</time>
      </trkpt>
      <trkpt lat="48.69567" lon="1.926">
        <ele>189</ele>
        <time>2022-11-19T09:54:27Z</time>
      </trkpt>
      <trkpt lat="48.69569" lon="1.92597">
        <ele>189</ele>
        <time>2022-11-19T09:54:29Z</time>
      </trkpt>
      <trkpt lat="48.6957" lon="1.92592">
        <ele>189</ele>
        <time>2022-11-19T09:54:31Z</time>
      </trkpt>
      <trkpt lat="48.69572" lon="1.92588">
        <ele>189</ele>
        <time>2022-11-19T09:54:33Z</time>
      </trkpt>
      <trkpt lat="48.69573" lon="1.92584">
        <ele>189</ele>
        <time>2022-11-19T09:54:35Z</time>
      </trkpt>
      <trkpt lat="48.69575" lon="1.9258">
        <ele>189</ele>
        <time>2022-11-19T09:54:37Z</time>
      </trkpt>
      <trkpt lat="48.69577" lon="1.92577">
        <ele>190</ele>
        <time>2022-11-19T09:54:39Z</time>
      </trkpt>
      <trkpt lat="48.69578" lon="1.92573">
        <ele>190</ele>
        <time>2022-11-19T09:54:41Z</time>
      </trkpt>
      <trkpt lat="48.6958" lon="1.9257">
        <ele>190</ele>
        <time>2022-11-19T09:54:43Z</time>
      </trkpt>
      <trkpt lat="48.69581" lon="1.92567">
        <ele>190</ele>
        <time>2022-11-19T09:54:45Z</time>
      </trkpt>
      <trkpt lat="48.69583" lon="1.92563">
        <ele>189</ele>
        <time>2022-11-19T09:54:47Z</time>
      </trkpt>
      <trkpt lat="48.69584" lon="1.9256">
        <ele>189</ele>
        <time>2022-11-19T09:54:49Z</time>
      </trkpt>
      <trkpt lat="48.69586" lon="1.92556">
        <ele>189</ele>
        <time>2022-11-19T09:54:51Z</time>
      </trkpt>
      <trkpt lat="48.69588" lon="1.92552">
        <ele>190</ele>
        <time>2022-11-19T09:54:53Z</time>
      </trkpt>
      <trkpt lat="48.69589" lon="1.92548">
        <ele>190</ele>
        <time>2022-11-19T09:54:55Z</time>
      </trkpt>
      <trkpt lat="48.6959" lon="1.92544">
        <ele>190</ele>
        <time>2022-11-19T09:54:57Z</time>
      </trkpt>
      <trkpt lat="48.69591" lon="1.92541">
        <ele>190</ele>
        <time>2022-11-19T09:54:59Z</time>
      </trkpt>
      <trkpt lat="48.69592" lon="1.92538">
        <ele>191</ele>
        <time>2022-11-19T09:55:01Z</time>
      </trkpt>
      <trkpt lat="48.69594" lon="1.92534">
        <ele>191</ele>
        <time>2022-11-19T09:55:03Z</time>
      </trkpt>
      <trkpt lat="48.69596" lon="1.92531">
        <ele>191</ele>
        <time>2022-11-19T09:55:05Z</time>
      </trkpt>
      <trkpt lat="48.69598" lon="1.92527">
        <ele>191</ele>
        <time>2022-11-19T09:55:07Z</time>
      </trkpt>
      <trkpt lat="48.696" lon="1.92524">
        <ele>191</ele>
        <time>2022-11-19T09:55:09Z</time>
      </trkpt>
      <trkpt lat="48.69602" lon="1.92521">
        <ele>191</ele>
        <time>2022-11-19T09:55:11Z</time>
      </trkpt>
      <trkpt lat="48.69604" lon="1.92518">
        <ele>190</ele>
        <time>2022-11-19T09:55:13Z</time>
      </trkpt>
      <trkpt lat="48.69605" lon="1.92513">
        <ele>191</ele>
        <time>2022-11-19T09:55:15Z</time>
      </trkpt>
      <trkpt lat="48.69607" lon="1.92508">
        <ele>191</ele>
        <time>2022-11-19T09:55:17Z</time>
      </trkpt>
      <trkpt lat="48.69608" lon="1.92504">
        <ele>191</ele>
        <time>2022-11-19T09:55:19Z</time>
      </trkpt>
      <trkpt lat="48.69609" lon="1.925">
        <ele>191</ele>
        <time>2022-11-19T09:55:21Z</time>
      </trkpt>
      <trkpt lat="48.6961" lon="1.92496">
        <ele>192</ele>
        <time>2022-11-19T09:55:23Z</time>
      </trkpt>
      <trkpt lat="48.69611" lon="1.92492">
        <ele>192</ele>
        <time>2022-11-19T09:55:25Z</time>
      </trkpt>
      <trkpt lat="48.69612" lon="1.92489">
        <ele>192</ele>
        <time>2022-11-19T09:55:27Z</time>
      </trkpt>
      <trkpt lat="48.69613" lon="1.92485">
        <ele>192</ele>
        <time>2022-11-19T09:55:29Z</time>
      </trkpt>
      <trkpt lat="48.69615" lon="1.92481">
        <ele>192</ele>
        <time>2022-11-19T09:55:31Z</time>
      </trkpt>
      <trkpt lat="48.69616" lon="1.92478">
        <ele>192</ele>
        <time>2022-11-19T09:55:33Z</time>
      </trkpt>
      <trkpt lat="48.69617" lon="1.92474">
        <ele>192</ele>
        <time>2022-11-19T09:55:35Z</time>
      </trkpt>
      <trkpt lat="48.69619" lon="1.9247">
        <ele>192</ele>
        <time>2022-11-19T09:55:37Z</time>
      </trkpt>
      <trkpt lat="48.6962" lon="1.92466">
        <ele>192</ele>
        <time>2022-11-19T09:55:39Z</time>
      </trkpt>
      <trkpt lat="48.69621" lon="1.92463">
        <ele>192</ele>
        <time>2022-11-19T09:55:41Z</time>
      </trkpt>
      <trkpt lat="48.69623" lon="1.92458">
        <ele>192</ele>
        <time>2022-11-19T09:55:43Z</time>
      </trkpt>
      <trkpt lat="48.69624" lon="1.92454">
        <ele>193</ele>
        <time>2022-11-19T09:55:45Z</time>
      </trkpt>
      <trkpt lat="48.69625" lon="1.9245">
        <ele>193</ele>
        <time>2022-11-19T09:55:47Z</time>
      </trkpt>
      <trkpt lat="48.69626" lon="1.92447">
        <ele>193</ele>
        <time>2022-11-19T09:55:49Z</time>
      </trkpt>
      <trkpt lat="48.69627" lon="1.92443">
        <ele>192</ele>
        <time>2022-11-19T09:55:51Z</time>
      </trkpt>
      <trkpt lat="48.69628" lon="1.92439">
        <ele>192</ele>
        <time>2022-11-19T09:55:53Z</time>
      </trkpt>
      <trkpt lat="48.69628" lon="1.92433">
        <ele>193</ele>
        <time>2022-11-19T09:55:55Z</time>
      </trkpt>
      <trkpt lat="48.69628" lon="1.9243">
        <ele>193</ele>
        <time>2022-11-19T09:55:56Z</time>
      </trkpt>
      <trkpt lat="48.69629" lon="1.92427">
        <ele>193</ele>
        <time>2022-11-19T09:55:57Z</time>
      </trkpt>
      <trkpt lat="48.69629" lon="1.92424">
        <ele>193</ele>
        <time>2022-11-19T09:55:58Z</time>
      </trkpt>
      <trkpt lat="48.6963" lon="1.9242">
        <ele>193</ele>
        <time>2022-11-19T09:56:00Z</time>
      </trkpt>
      <trkpt lat="48.69632" lon="1.92415">
        <ele>193</ele>
        <time>2022-11-19T09:56:02Z</time>
      </trkpt>
      <trkpt lat="48.69633" lon="1.92412">
        <ele>193</ele>
        <time>2022-11-19T09:56:03Z</time>
      </trkpt>
      <trkpt lat="48.69634" lon="1.92409">
        <ele>193</ele>
        <time>2022-11-19T09:56:04Z</time>
      </trkpt>
      <trkpt lat="48.69635" lon="1.92405">
        <ele>193</ele>
        <time>2022-11-19T09:56:06Z</time>
      </trkpt>
      <trkpt lat="48.69636" lon="1.92401">
        <ele>193</ele>
        <time>2022-11-19T09:56:08Z</time>
      </trkpt>
      <trkpt lat="48.69638" lon="1.92397">
        <ele>193</ele>
        <time>2022-11-19T09:56:10Z</time>
      </trkpt>
      <trkpt lat="48.69639" lon="1.92394">
        <ele>193</ele>
        <time>2022-11-19T09:56:11Z</time>
      </trkpt>
      <trkpt lat="48.6964" lon="1.92392">
        <ele>193</ele>
        <time>2022-11-19T09:56:12Z</time>
      </trkpt>
      <trkpt lat="48.69641" lon="1.92389">
        <ele>193</ele>
        <time>2022-11-19T09:56:13Z</time>
      </trkpt>
      <trkpt lat="48.69643" lon="1.92385">
        <ele>193</ele>
        <time>2022-11-19T09:56:15Z</time>
      </trkpt>
      <trkpt lat="48.69645" lon="1.92382">
        <ele>193</ele>
        <time>2022-11-19T09:56:17Z</time>
      </trkpt>
      <trkpt lat="48.69647" lon="1.92379">
        <ele>193</ele>
        <time>2022-11-19T09:56:19Z</time>
      </trkpt>
      <trkpt lat="48.6965" lon="1.92377">
        <ele>194</ele>
        <time>2022-11-19T09:56:21Z</time>
      </trkpt>
      <trkpt lat="48.69652" lon="1.92374">
        <ele>194</ele>
        <time>2022-11-19T09:56:23Z</time>
      </trkpt>
      <trkpt lat="48.69654" lon="1.92371">
        <ele>193</ele>
        <time>2022-11-19T09:56:25Z</time>
      </trkpt>
      <trkpt lat="48.69656" lon="1.92367">
        <ele>193</ele>
        <time>2022-11-19T09:56:27Z</time>
      </trkpt>
      <trkpt lat="48.69658" lon="1.92365">
        <ele>193</ele>
        <time>2022-11-19T09:56:29Z</time>
      </trkpt>
      <trkpt lat="48.69661" lon="1.92362">
        <ele>194</ele>
        <time>2022-11-19T09:56:31Z</time>
      </trkpt>
      <trkpt lat="48.69664" lon="1.9236">
        <ele>194</ele>
        <time>2022-11-19T09:56:33Z</time>
      </trkpt>
      <trkpt lat="48.69667" lon="1.92358">
        <ele>194</ele>
        <time>2022-11-19T09:56:35Z</time>
      </trkpt>
      <trkpt lat="48.6967" lon="1.92356">
        <ele>194</ele>
        <time>2022-11-19T09:56:37Z</time>
      </trkpt>
      <trkpt lat="48.69672" lon="1.92353">
        <ele>194</ele>
        <time>2022-11-19T09:56:39Z</time>
      </trkpt>
      <trkpt lat="48.69674" lon="1.9235">
        <ele>194</ele>
        <time>2022-11-19T09:56:41Z</time>
      </trkpt>
      <trkpt lat="48.69676" lon="1.92347">
        <ele>194</ele>
        <time>2022-11-19T09:56:43Z</time>
      </trkpt>
      <trkpt lat="48.69677" lon="1.92343">
        <ele>194</ele>
        <time>2022-11-19T09:56:45Z</time>
      </trkpt>
      <trkpt lat="48.69679" lon="1.92339">
        <ele>194</ele>
        <time>2022-11-19T09:56:47Z</time>
      </trkpt>
      <trkpt lat="48.6968" lon="1.92336">
        <ele>195</ele>
        <time>2022-11-19T09:56:49Z</time>
      </trkpt>
      <trkpt lat="48.69681" lon="1.92332">
        <ele>195</ele>
        <time>2022-11-19T09:56:51Z</time>
      </trkpt>
      <trkpt lat="48.69682" lon="1.92328">
        <ele>195</ele>
        <time>2022-11-19T09:56:53Z</time>
      </trkpt>
      <trkpt lat="48.69682" lon="1.92323">
        <ele>196</ele>
        <time>2022-11-19T09:56:55Z</time>
      </trkpt>
      <trkpt lat="48.69682" lon="1.9232">
        <ele>196</ele>
        <time>2022-11-19T09:56:56Z</time>
      </trkpt>
      <trkpt lat="48.69683" lon="1.92316">
        <ele>196</ele>
        <time>2022-11-19T09:56:58Z</time>
      </trkpt>
      <trkpt lat="48.69684" lon="1.92312">
        <ele>196</ele>
        <time>2022-11-19T09:57:00Z</time>
      </trkpt>
      <trkpt lat="48.69685" lon="1.92309">
        <ele>196</ele>
        <time>2022-11-19T09:57:02Z</time>
      </trkpt>
      <trkpt lat="48.69686" lon="1.92305">
        <ele>195</ele>
        <time>2022-11-19T09:57:04Z</time>
      </trkpt>
      <trkpt lat="48.69687" lon="1.923">
        <ele>195</ele>
        <time>2022-11-19T09:57:06Z</time>
      </trkpt>
      <trkpt lat="48.69688" lon="1.92296">
        <ele>195</ele>
        <time>2022-11-19T09:57:08Z</time>
      </trkpt>
      <trkpt lat="48.69689" lon="1.92292">
        <ele>195</ele>
        <time>2022-11-19T09:57:10Z</time>
      </trkpt>
      <trkpt lat="48.69691" lon="1.92288">
        <ele>194</ele>
        <time>2022-11-19T09:57:12Z</time>
      </trkpt>
      <trkpt lat="48.69692" lon="1.92284">
        <ele>194</ele>
        <time>2022-11-19T09:57:14Z</time>
      </trkpt>
      <trkpt lat="48.69694" lon="1.9228">
        <ele>194</ele>
        <time>2022-11-19T09:57:16Z</time>
      </trkpt>
      <trkpt lat="48.69696" lon="1.92277">
        <ele>194</ele>
        <time>2022-11-19T09:57:18Z</time>
      </trkpt>
      <trkpt lat="48.69697" lon="1.92272">
        <ele>194</ele>
        <time>2022-11-19T09:57:20Z</time>
      </trkpt>
      <trkpt lat="48.69698" lon="1.92268">
        <ele>194</ele>
        <time>2022-11-19T09:57:22Z</time>
      </trkpt>
      <trkpt lat="48.697" lon="1.92264">
        <ele>193</ele>
        <time>2022-11-19T09:57:24Z</time>
      </trkpt>
      <trkpt lat="48.69701" lon="1.9226">
        <ele>193</ele>
        <time>2022-11-19T09:57:26Z</time>
      </trkpt>
      <trkpt lat="48.69703" lon="1.92256">
        <ele>193</ele>
        <time>2022-11-19T09:57:28Z</time>
      </trkpt>
      <trkpt lat="48.69705" lon="1.92252">
        <ele>193</ele>
        <time>2022-11-19T09:57:30Z</time>
      </trkpt>
      <trkpt lat="48.69706" lon="1.92248">
        <ele>193</ele>
        <time>2022-11-19T09:57:32Z</time>
      </trkpt>
      <trkpt lat="48.69708" lon="1.92244">
        <ele>193</ele>
        <time>2022-11-19T09:57:34Z</time>
      </trkpt>
      <trkpt lat="48.69709" lon="1.9224">
        <ele>193</ele>
        <time>2022-11-19T09:57:36Z</time>
      </trkpt>
      <trkpt lat="48.6971" lon="1.92237">
        <ele>193</ele>
        <time>2022-11-19T09:57:38Z</time>
      </trkpt>
      <trkpt lat="48.69711" lon="1.92233">
        <ele>193</ele>
        <time>2022-11-19T09:57:40Z</time>
      </trkpt>
      <trkpt lat="48.69713" lon="1.92229">
        <ele>193</ele>
        <time>2022-11-19T09:57:42Z</time>
      </trkpt>
      <trkpt lat="48.69715" lon="1.92225">
        <ele>193</ele>
        <time>2022-11-19T09:57:44Z</time>
      </trkpt>
      <trkpt lat="48.69716" lon="1.92221">
        <ele>193</ele>
        <time>2022-11-19T09:57:46Z</time>
      </trkpt>
      <trkpt lat="48.69717" lon="1.92216">
        <ele>193</ele>
        <time>2022-11-19T09:57:48Z</time>
      </trkpt>
      <trkpt lat="48.69717" lon="1.92212">
        <ele>193</ele>
        <time>2022-11-19T09:57:50Z</time>
      </trkpt>
      <trkpt lat="48.69717" lon="1.92207">
        <ele>193</ele>
        <time>2022-11-19T09:57:52Z</time>
      </trkpt>
      <trkpt lat="48.69717" lon="1.92203">
        <ele>193</ele>
        <time>2022-11-19T09:57:54Z</time>
      </trkpt>
      <trkpt lat="48.69717" lon="1.92199">
        <ele>193</ele>
        <time>2022-11-19T09:57:56Z</time>
      </trkpt>
      <trkpt lat="48.69715" lon="1.92194">
        <ele>193</ele>
        <time>2022-11-19T09:57:58Z</time>
      </trkpt>
      <trkpt lat="48.69713" lon="1.9219">
        <ele>192</ele>
        <time>2022-11-19T09:58:00Z</time>
      </trkpt>
      <trkpt lat="48.69712" lon="1.92186">
        <ele>192</ele>
        <time>2022-11-19T09:58:02Z</time>
      </trkpt>
      <trkpt lat="48.6971" lon="1.92182">
        <ele>192</ele>
        <time>2022-11-19T09:58:04Z</time>
      </trkpt>
      <trkpt lat="48.6971" lon="1.92177">
        <ele>192</ele>
        <time>2022-11-19T09:58:06Z</time>
      </trkpt>
      <trkpt lat="48.6971" lon="1.92173">
        <ele>192</ele>
        <time>2022-11-19T09:58:08Z</time>
      </trkpt>
      <trkpt lat="48.69711" lon="1.9217">
        <ele>192</ele>
        <time>2022-11-19T09:58:10Z</time>
      </trkpt>
      <trkpt lat="48.69712" lon="1.92166">
        <ele>192</ele>
        <time>2022-11-19T09:58:12Z</time>
      </trkpt>
      <trkpt lat="48.69715" lon="1.92161">
        <ele>192</ele>
        <time>2022-11-19T09:58:14Z</time>
      </trkpt>
      <trkpt lat="48.69716" lon="1.92159">
        <ele>192</ele>
        <time>2022-11-19T09:58:15Z</time>
      </trkpt>
      <trkpt lat="48.69719" lon="1.92155">
        <ele>191</ele>
        <time>2022-11-19T09:58:17Z</time>
      </trkpt>
      <trkpt lat="48.69721" lon="1.92151">
        <ele>191</ele>
        <time>2022-11-19T09:58:19Z</time>
      </trkpt>
      <trkpt lat="48.69723" lon="1.92148">
        <ele>191</ele>
        <time>2022-11-19T09:58:21Z</time>
      </trkpt>
      <trkpt lat="48.69725" lon="1.92145">
        <ele>191</ele>
        <time>2022-11-19T09:58:23Z</time>
      </trkpt>
      <trkpt lat="48.69728" lon="1.92143">
        <ele>191</ele>
        <time>2022-11-19T09:58:25Z</time>
      </trkpt>
      <trkpt lat="48.6973" lon="1.92141">
        <ele>191</ele>
        <time>2022-11-19T09:58:27Z</time>
      </trkpt>
      <trkpt lat="48.69733" lon="1.92139">
        <ele>191</ele>
        <time>2022-11-19T09:58:29Z</time>
      </trkpt>
      <trkpt lat="48.69735" lon="1.92138">
        <ele>190</ele>
        <time>2022-11-19T09:58:31Z</time>
      </trkpt>
      <trkpt lat="48.69738" lon="1.92137">
        <ele>190</ele>
        <time>2022-11-19T09:58:33Z</time>
      </trkpt>
      <trkpt lat="48.69741" lon="1.92136">
        <ele>190</ele>
        <time>2022-11-19T09:58:35Z</time>
      </trkpt>
      <trkpt lat="48.69744" lon="1.92135">
        <ele>190</ele>
        <time>2022-11-19T09:58:37Z</time>
      </trkpt>
      <trkpt lat="48.69747" lon="1.92134">
        <ele>190</ele>
        <time>2022-11-19T09:58:39Z</time>
      </trkpt>
      <trkpt lat="48.6975" lon="1.92133">
        <ele>190</ele>
        <time>2022-11-19T09:58:41Z</time>
      </trkpt>
      <trkpt lat="48.69753" lon="1.92131">
        <ele>190</ele>
        <time>2022-11-19T09:58:43Z</time>
      </trkpt>
      <trkpt lat="48.69755" lon="1.92129">
        <ele>190</ele>
        <time>2022-11-19T09:58:45Z</time>
      </trkpt>
      <trkpt lat="48.69758" lon="1.92128">
        <ele>190</ele>
        <time>2022-11-19T09:58:47Z</time>
      </trkpt>
      <trkpt lat="48.69761" lon="1.92126">
        <ele>190</ele>
        <time>2022-11-19T09:58:49Z</time>
      </trkpt>
      <trkpt lat="48.69763" lon="1.92124">
        <ele>190</ele>
        <time>2022-11-19T09:58:51Z</time>
      </trkpt>
      <trkpt lat="48.69766" lon="1.92123">
        <ele>190</ele>
        <time>2022-11-19T09:58:53Z</time>
      </trkpt>
      <trkpt lat="48.6977" lon="1.92121">
        <ele>190</ele>
        <time>2022-11-19T09:58:55Z</time>
      </trkpt>
      <trkpt lat="48.69773" lon="1.92119">
        <ele>190</ele>
        <time>2022-11-19T09:58:57Z</time>
      </trkpt>
      <trkpt lat="48.69775" lon="1.92118">
        <ele>190</ele>
        <time>2022-11-19T09:58:59Z</time>
      </trkpt>
      <trkpt lat="48.69778" lon="1.92117">
        <ele>190</ele>
        <time>2022-11-19T09:59:01Z</time>
      </trkpt>
      <trkpt lat="48.69781" lon="1.92116">
        <ele>190</ele>
        <time>2022-11-19T09:59:03Z</time>
      </trkpt>
      <trkpt lat="48.69784" lon="1.92114">
        <ele>190</ele>
        <time>2022-11-19T09:59:05Z</time>
      </trkpt>
      <trkpt lat="48.69786" lon="1.92114">
        <ele>190</ele>
        <time>2022-11-19T09:59:07Z</time>
      </trkpt>
      <trkpt lat="48.69788" lon="1.92111">
        <ele>190</ele>
        <time>2022-11-19T09:59:09Z</time>
      </trkpt>
      <trkpt lat="48.69786" lon="1.92109">
        <ele>190</ele>
        <time>2022-11-19T09:59:11Z</time>
      </trkpt>
      <trkpt lat="48.69783" lon="1.92108">
        <ele>190</ele>
        <time>2022-11-19T09:59:13Z</time>
      </trkpt>
      <trkpt lat="48.69781" lon="1.92107">
        <ele>190</ele>
        <time>2022-11-19T09:59:15Z</time>
      </trkpt>
      <trkpt lat="48.69779" lon="1.92107">
        <ele>190</ele>
        <time>2022-11-19T09:59:17Z</time>
      </trkpt>
      <trkpt lat="48.69777" lon="1.92107">
        <ele>190</ele>
        <time>2022-11-19T09:59:19Z</time>
      </trkpt>
      <trkpt lat="48.69775" lon="1.92105">
        <ele>189</ele>
        <time>2022-11-19T09:59:21Z</time>
      </trkpt>
      <trkpt lat="48.69772" lon="1.92104">
        <ele>189</ele>
        <time>2022-11-19T09:59:23Z</time>
      </trkpt>
      <trkpt lat="48.6977" lon="1.92102">
        <ele>189</ele>
        <time>2022-11-19T09:59:25Z</time>
      </trkpt>
      <trkpt lat="48.69767" lon="1.92101">
        <ele>188</ele>
        <time>2022-11-19T09:59:27Z</time>
      </trkpt>
      <trkpt lat="48.69764" lon="1.921">
        <ele>188</ele>
        <time>2022-11-19T09:59:29Z</time>
      </trkpt>
      <trkpt lat="48.69761" lon="1.92098">
        <ele>187</ele>
        <time>2022-11-19T09:59:31Z</time>
      </trkpt>
      <trkpt lat="48.69758" lon="1.92098">
        <ele>187</ele>
        <time>2022-11-19T09:59:33Z</time>
      </trkpt>
      <trkpt lat="48.69756" lon="1.92096">
        <ele>186</ele>
        <time>2022-11-19T09:59:35Z</time>
      </trkpt>
      <trkpt lat="48.69753" lon="1.92095">
        <ele>186</ele>
        <time>2022-11-19T09:59:37Z</time>
      </trkpt>
      <trkpt lat="48.69749" lon="1.92094">
        <ele>185</ele>
        <time>2022-11-19T09:59:39Z</time>
      </trkpt>
      <trkpt lat="48.69747" lon="1.92092">
        <ele>185</ele>
        <time>2022-11-19T09:59:41Z</time>
      </trkpt>
      <trkpt lat="48.69744" lon="1.9209">
        <ele>185</ele>
        <time>2022-11-19T09:59:43Z</time>
      </trkpt>
      <trkpt lat="48.69742" lon="1.92088">
        <ele>184</ele>
        <time>2022-11-19T09:59:45Z</time>
      </trkpt>
      <trkpt lat="48.69739" lon="1.92086">
        <ele>184</ele>
        <time>2022-11-19T09:59:47Z</time>
      </trkpt>
      <trkpt lat="48.69736" lon="1.92085">
        <ele>184</ele>
        <time>2022-11-19T09:59:49Z</time>
      </trkpt>
      <trkpt lat="48.69734" lon="1.92083">
        <ele>183</ele>
        <time>2022-11-19T09:59:51Z</time>
      </trkpt>
      <trkpt lat="48.69731" lon="1.92081">
        <ele>183</ele>
        <time>2022-11-19T09:59:53Z</time>
      </trkpt>
      <trkpt lat="48.69728" lon="1.9208">
        <ele>183</ele>
        <time>2022-11-19T09:59:55Z</time>
      </trkpt>
      <trkpt lat="48.69725" lon="1.92079">
        <ele>184</ele>
        <time>2022-11-19T09:59:57Z</time>
      </trkpt>
      <trkpt lat="48.69722" lon="1.92078">
        <ele>184</ele>
        <time>2022-11-19T09:59:59Z</time>
      </trkpt>
      <trkpt lat="48.6972" lon="1.92077">
        <ele>184</ele>
        <time>2022-11-19T10:00:01Z</time>
      </trkpt>
      <trkpt lat="48.69718" lon="1.92075">
        <ele>183</ele>
        <time>2022-11-19T10:00:03Z</time>
      </trkpt>
      <trkpt lat="48.69716" lon="1.92073">
        <ele>183</ele>
        <time>2022-11-19T10:00:05Z</time>
      </trkpt>
      <trkpt lat="48.69713" lon="1.92071">
        <ele>183</ele>
        <time>2022-11-19T10:00:07Z</time>
      </trkpt>
      <trkpt lat="48.6971" lon="1.92069">
        <ele>182</ele>
        <time>2022-11-19T10:00:09Z</time>
      </trkpt>
      <trkpt lat="48.69707" lon="1.92067">
        <ele>182</ele>
        <time>2022-11-19T10:00:11Z</time>
      </trkpt>
      <trkpt lat="48.69705" lon="1.92066">
        <ele>182</ele>
        <time>2022-11-19T10:00:13Z</time>
      </trkpt>
      <trkpt lat="48.69702" lon="1.92064">
        <ele>182</ele>
        <time>2022-11-19T10:00:15Z</time>
      </trkpt>
      <trkpt lat="48.69699" lon="1.92062">
        <ele>182</ele>
        <time>2022-11-19T10:00:17Z</time>
      </trkpt>
      <trkpt lat="48.69697" lon="1.9206">
        <ele>182</ele>
        <time>2022-11-19T10:00:19Z</time>
      </trkpt>
      <trkpt lat="48.69694" lon="1.92059">
        <ele>182</ele>
        <time>2022-11-19T10:00:21Z</time>
      </trkpt>
      <trkpt lat="48.69691" lon="1.92056">
        <ele>182</ele>
        <time>2022-11-19T10:00:23Z</time>
      </trkpt>
      <trkpt lat="48.69689" lon="1.92054">
        <ele>182</ele>
        <time>2022-11-19T10:00:25Z</time>
      </trkpt>
      <trkpt lat="48.69687" lon="1.92052">
        <ele>183</ele>
        <time>2022-11-19T10:00:27Z</time>
      </trkpt>
      <trkpt lat="48.69684" lon="1.9205">
        <ele>183</ele>
        <time>2022-11-19T10:00:29Z</time>
      </trkpt>
      <trkpt lat="48.6968" lon="1.92048">
        <ele>183</ele>
        <time>2022-11-19T10:00:31Z</time>
      </trkpt>
      <trkpt lat="48.69677" lon="1.92048">
        <ele>183</ele>
        <time>2022-11-19T10:00:33Z</time>
      </trkpt>
      <trkpt lat="48.69675" lon="1.92047">
        <ele>183</ele>
        <time>2022-11-19T10:00:35Z</time>
      </trkpt>
      <trkpt lat="48.69672" lon="1.92047">
        <ele>183</ele>
        <time>2022-11-19T10:00:37Z</time>
      </trkpt>
      <trkpt lat="48.6967" lon="1.92046">
        <ele>183</ele>
        <time>2022-11-19T10:00:39Z</time>
      </trkpt>
      <trkpt lat="48.69668" lon="1.92044">
        <ele>183</ele>
        <time>2022-11-19T10:00:41Z</time>
      </trkpt>
      <trkpt lat="48.69665" lon="1.92043">
        <ele>183</ele>
        <time>2022-11-19T10:00:43Z</time>
      </trkpt>
      <trkpt lat="48.69663" lon="1.92041">
        <ele>183</ele>
        <time>2022-11-19T10:00:45Z</time>
      </trkpt>
      <trkpt lat="48.6966" lon="1.92039">
        <ele>182</ele>
        <time>2022-11-19T10:00:47Z</time>
      </trkpt>
      <trkpt lat="48.69658" lon="1.92037">
        <ele>182</ele>
        <time>2022-11-19T10:00:49Z</time>
      </trkpt>
      <trkpt lat="48.69656" lon="1.92036">
        <ele>182</ele>
        <time>2022-11-19T10:00:51Z</time>
      </trkpt>
      <trkpt lat="48.69653" lon="1.92034">
        <ele>182</ele>
        <time>2022-11-19T10:00:53Z</time>
      </trkpt>
      <trkpt lat="48.69651" lon="1.92032">
        <ele>182</ele>
        <time>2022-11-19T10:00:55Z</time>
      </trkpt>
      <trkpt lat="48.69648" lon="1.9203">
        <ele>182</ele>
        <time>2022-11-19T10:00:57Z</time>
      </trkpt>
      <trkpt lat="48.69645" lon="1.92027">
        <ele>182</ele>
        <time>2022-11-19T10:00:59Z</time>
      </trkpt>
      <trkpt lat="48.69643" lon="1.92025">
        <ele>182</ele>
        <time>2022-11-19T10:01:01Z</time>
      </trkpt>
      <trkpt lat="48.6964" lon="1.92023">
        <ele>182</ele>
        <time>2022-11-19T10:01:03Z</time>
      </trkpt>
      <trkpt lat="48.69637" lon="1.92022">
        <ele>182</ele>
        <time>2022-11-19T10:01:05Z</time>
      </trkpt>
      <trkpt lat="48.69634" lon="1.92021">
        <ele>182</ele>
        <time>2022-11-19T10:01:07Z</time>
      </trkpt>
      <trkpt lat="48.69631" lon="1.9202">
        <ele>181</ele>
        <time>2022-11-19T10:01:09Z</time>
      </trkpt>
      <trkpt lat="48.69628" lon="1.92017">
        <ele>181</ele>
        <time>2022-11-19T10:01:11Z</time>
      </trkpt>
      <trkpt lat="48.69626" lon="1.92015">
        <ele>182</ele>
        <time>2022-11-19T10:01:13Z</time>
      </trkpt>
      <trkpt lat="48.69623" lon="1.92013">
        <ele>182</ele>
        <time>2022-11-19T10:01:15Z</time>
      </trkpt>
      <trkpt lat="48.6962" lon="1.9201">
        <ele>182</ele>
        <time>2022-11-19T10:01:17Z</time>
      </trkpt>
      <trkpt lat="48.69618" lon="1.92008">
        <ele>182</ele>
        <time>2022-11-19T10:01:19Z</time>
      </trkpt>
      <trkpt lat="48.69616" lon="1.92006">
        <ele>182</ele>
        <time>2022-11-19T10:01:21Z</time>
      </trkpt>
      <trkpt lat="48.69614" lon="1.92005">
        <ele>182</ele>
        <time>2022-11-19T10:01:23Z</time>
      </trkpt>
      <trkpt lat="48.69611" lon="1.92004">
        <ele>182</ele>
        <time>2022-11-19T10:01:25Z</time>
      </trkpt>
      <trkpt lat="48.69609" lon="1.92002">
        <ele>182</ele>
        <time>2022-11-19T10:01:27Z</time>
      </trkpt>
      <trkpt lat="48.69606" lon="1.92">
        <ele>182</ele>
        <time>2022-11-19T10:01:29Z</time>
      </trkpt>
      <trkpt lat="48.69603" lon="1.91997">
        <ele>182</ele>
        <time>2022-11-19T10:01:31Z</time>
      </trkpt>
      <trkpt lat="48.69601" lon="1.91995">
        <ele>182</ele>
        <time>2022-11-19T10:01:32Z</time>
      </trkpt>
      <trkpt lat="48.696" lon="1.91994">
        <ele>182</ele>
        <time>2022-11-19T10:01:33Z</time>
      </trkpt>
      <trkpt lat="48.69597" lon="1.91991">
        <ele>182</ele>
        <time>2022-11-19T10:01:35Z</time>
      </trkpt>
      <trkpt lat="48.69595" lon="1.91989">
        <ele>182</ele>
        <time>2022-11-19T10:01:37Z</time>
      </trkpt>
      <trkpt lat="48.69592" lon="1.91986">
        <ele>182</ele>
        <time>2022-11-19T10:01:39Z</time>
      </trkpt>
      <trkpt lat="48.6959" lon="1.91983">
        <ele>181</ele>
        <time>2022-11-19T10:01:41Z</time>
      </trkpt>
      <trkpt lat="48.69589" lon="1.91979">
        <ele>181</ele>
        <time>2022-11-19T10:01:43Z</time>
      </trkpt>
      <trkpt lat="48.69587" lon="1.91976">
        <ele>182</ele>
        <time>2022-11-19T10:01:45Z</time>
      </trkpt>
      <trkpt lat="48.69585" lon="1.91972">
        <ele>182</ele>
        <time>2022-11-19T10:01:47Z</time>
      </trkpt>
      <trkpt lat="48.69583" lon="1.91969">
        <ele>182</ele>
        <time>2022-11-19T10:01:49Z</time>
      </trkpt>
      <trkpt lat="48.69581" lon="1.91967">
        <ele>182</ele>
        <time>2022-11-19T10:01:51Z</time>
      </trkpt>
      <trkpt lat="48.69579" lon="1.91965">
        <ele>182</ele>
        <time>2022-11-19T10:01:53Z</time>
      </trkpt>
      <trkpt lat="48.69577" lon="1.91963">
        <ele>182</ele>
        <time>2022-11-19T10:01:55Z</time>
      </trkpt>
      <trkpt lat="48.69574" lon="1.91961">
        <ele>182</ele>
        <time>2022-11-19T10:01:57Z</time>
      </trkpt>
      <trkpt lat="48.69573" lon="1.91958">
        <ele>182</ele>
        <time>2022-11-19T10:01:59Z</time>
      </trkpt>
      <trkpt lat="48.69571" lon="1.91955">
        <ele>181</ele>
        <time>2022-11-19T10:02:01Z</time>
      </trkpt>
      <trkpt lat="48.69569" lon="1.91953">
        <ele>182</ele>
        <time>2022-11-19T10:02:03Z</time>
      </trkpt>
      <trkpt lat="48.69567" lon="1.91951">
        <ele>182</ele>
        <time>2022-11-19T10:02:05Z</time>
      </trkpt>
      <trkpt lat="48.69566" lon="1.91947">
        <ele>181</ele>
        <time>2022-11-19T10:02:07Z</time>
      </trkpt>
      <trkpt lat="48.69565" lon="1.91944">
        <ele>180</ele>
        <time>2022-11-19T10:02:09Z</time>
      </trkpt>
      <trkpt lat="48.69563" lon="1.91941">
        <ele>180</ele>
        <time>2022-11-19T10:02:11Z</time>
      </trkpt>
      <trkpt lat="48.69562" lon="1.91938">
        <ele>180</ele>
        <time>2022-11-19T10:02:13Z</time>
      </trkpt>
      <trkpt lat="48.69561" lon="1.91936">
        <ele>181</ele>
        <time>2022-11-19T10:02:17Z</time>
      </trkpt>
      <trkpt lat="48.6956" lon="1.91932">
        <ele>181</ele>
        <time>2022-11-19T10:02:19Z</time>
      </trkpt>
      <trkpt lat="48.69558" lon="1.91928">
        <ele>181</ele>
        <time>2022-11-19T10:02:21Z</time>
      </trkpt>
      <trkpt lat="48.69556" lon="1.91926">
        <ele>181</ele>
        <time>2022-11-19T10:02:22Z</time>
      </trkpt>
      <trkpt lat="48.69554" lon="1.91922">
        <ele>181</ele>
        <time>2022-11-19T10:02:24Z</time>
      </trkpt>
      <trkpt lat="48.69553" lon="1.9192">
        <ele>180</ele>
        <time>2022-11-19T10:02:25Z</time>
      </trkpt>
      <trkpt lat="48.69551" lon="1.91916">
        <ele>180</ele>
        <time>2022-11-19T10:02:27Z</time>
      </trkpt>
      <trkpt lat="48.69549" lon="1.91912">
        <ele>180</ele>
        <time>2022-11-19T10:02:29Z</time>
      </trkpt>
      <trkpt lat="48.69548" lon="1.91908">
        <ele>179</ele>
        <time>2022-11-19T10:02:31Z</time>
      </trkpt>
      <trkpt lat="48.69546" lon="1.91905">
        <ele>179</ele>
        <time>2022-11-19T10:02:33Z</time>
      </trkpt>
      <trkpt lat="48.69544" lon="1.91902">
        <ele>179</ele>
        <time>2022-11-19T10:02:35Z</time>
      </trkpt>
      <trkpt lat="48.69542" lon="1.91899">
        <ele>179</ele>
        <time>2022-11-19T10:02:37Z</time>
      </trkpt>
      <trkpt lat="48.6954" lon="1.91896">
        <ele>178</ele>
        <time>2022-11-19T10:02:39Z</time>
      </trkpt>
      <trkpt lat="48.69539" lon="1.91893">
        <ele>178</ele>
        <time>2022-11-19T10:02:41Z</time>
      </trkpt>
      <trkpt lat="48.69538" lon="1.91889">
        <ele>178</ele>
        <time>2022-11-19T10:02:43Z</time>
      </trkpt>
      <trkpt lat="48.69536" lon="1.91886">
        <ele>177</ele>
        <time>2022-11-19T10:02:45Z</time>
      </trkpt>
      <trkpt lat="48.69535" lon="1.91884">
        <ele>177</ele>
        <time>2022-11-19T10:02:47Z</time>
      </trkpt>
      <trkpt lat="48.69533" lon="1.91881">
        <ele>176</ele>
        <time>2022-11-19T10:02:49Z</time>
      </trkpt>
      <trkpt lat="48.69531" lon="1.91878">
        <ele>176</ele>
        <time>2022-11-19T10:02:51Z</time>
      </trkpt>
      <trkpt lat="48.69529" lon="1.91876">
        <ele>176</ele>
        <time>2022-11-19T10:02:53Z</time>
      </trkpt>
      <trkpt lat="48.69527" lon="1.91874">
        <ele>175</ele>
        <time>2022-11-19T10:02:55Z</time>
      </trkpt>
      <trkpt lat="48.69525" lon="1.91872">
        <ele>175</ele>
        <time>2022-11-19T10:02:57Z</time>
      </trkpt>
      <trkpt lat="48.69523" lon="1.91868">
        <ele>175</ele>
        <time>2022-11-19T10:02:59Z</time>
      </trkpt>
      <trkpt lat="48.69521" lon="1.91865">
        <ele>175</ele>
        <time>2022-11-19T10:03:01Z</time>
      </trkpt>
      <trkpt lat="48.69519" lon="1.91862">
        <ele>174</ele>
        <time>2022-11-19T10:03:03Z</time>
      </trkpt>
      <trkpt lat="48.69517" lon="1.91858">
        <ele>174</ele>
        <time>2022-11-19T10:03:05Z</time>
      </trkpt>
      <trkpt lat="48.69514" lon="1.91856">
        <ele>175</ele>
        <time>2022-11-19T10:03:07Z</time>
      </trkpt>
      <trkpt lat="48.69512" lon="1.91853">
        <ele>175</ele>
        <time>2022-11-19T10:03:09Z</time>
      </trkpt>
      <trkpt lat="48.6951" lon="1.9185">
        <ele>174</ele>
        <time>2022-11-19T10:03:11Z</time>
      </trkpt>
      <trkpt lat="48.69508" lon="1.91847">
        <ele>174</ele>
        <time>2022-11-19T10:03:13Z</time>
      </trkpt>
      <trkpt lat="48.69507" lon="1.91843">
        <ele>173</ele>
        <time>2022-11-19T10:03:15Z</time>
      </trkpt>
      <trkpt lat="48.69505" lon="1.9184">
        <ele>173</ele>
        <time>2022-11-19T10:03:17Z</time>
      </trkpt>
      <trkpt lat="48.69503" lon="1.91837">
        <ele>173</ele>
        <time>2022-11-19T10:03:19Z</time>
      </trkpt>
      <trkpt lat="48.69501" lon="1.91833">
        <ele>172</ele>
        <time>2022-11-19T10:03:21Z</time>
      </trkpt>
      <trkpt lat="48.695" lon="1.9183">
        <ele>172</ele>
        <time>2022-11-19T10:03:22Z</time>
      </trkpt>
      <trkpt lat="48.69499" lon="1.91825">
        <ele>172</ele>
        <time>2022-11-19T10:03:24Z</time>
      </trkpt>
      <trkpt lat="48.69497" lon="1.91821">
        <ele>172</ele>
        <time>2022-11-19T10:03:26Z</time>
      </trkpt>
      <trkpt lat="48.69496" lon="1.91817">
        <ele>171</ele>
        <time>2022-11-19T10:03:28Z</time>
      </trkpt>
      <trkpt lat="48.69495" lon="1.91814">
        <ele>171</ele>
        <time>2022-11-19T10:03:30Z</time>
      </trkpt>
      <trkpt lat="48.69494" lon="1.9181">
        <ele>170</ele>
        <time>2022-11-19T10:03:32Z</time>
      </trkpt>
      <trkpt lat="48.69492" lon="1.91807">
        <ele>170</ele>
        <time>2022-11-19T10:03:34Z</time>
      </trkpt>
      <trkpt lat="48.69491" lon="1.91803">
        <ele>169</ele>
        <time>2022-11-19T10:03:36Z</time>
      </trkpt>
      <trkpt lat="48.6949" lon="1.91799">
        <ele>169</ele>
        <time>2022-11-19T10:03:38Z</time>
      </trkpt>
      <trkpt lat="48.69489" lon="1.91795">
        <ele>169</ele>
        <time>2022-11-19T10:03:40Z</time>
      </trkpt>
      <trkpt lat="48.69488" lon="1.91792">
        <ele>169</ele>
        <time>2022-11-19T10:03:42Z</time>
      </trkpt>
      <trkpt lat="48.69486" lon="1.91789">
        <ele>169</ele>
        <time>2022-11-19T10:03:44Z</time>
      </trkpt>
      <trkpt lat="48.69485" lon="1.91784">
        <ele>168</ele>
        <time>2022-11-19T10:03:46Z</time>
      </trkpt>
      <trkpt lat="48.69483" lon="1.9178">
        <ele>168</ele>
        <time>2022-11-19T10:03:48Z</time>
      </trkpt>
      <trkpt lat="48.69482" lon="1.91776">
        <ele>168</ele>
        <time>2022-11-19T10:03:50Z</time>
      </trkpt>
      <trkpt lat="48.69481" lon="1.91773">
        <ele>168</ele>
        <time>2022-11-19T10:03:52Z</time>
      </trkpt>
      <trkpt lat="48.6948" lon="1.9177">
        <ele>168</ele>
        <time>2022-11-19T10:03:54Z</time>
      </trkpt>
      <trkpt lat="48.69479" lon="1.91765">
        <ele>168</ele>
        <time>2022-11-19T10:03:56Z</time>
      </trkpt>
      <trkpt lat="48.69478" lon="1.91761">
        <ele>168</ele>
        <time>2022-11-19T10:03:58Z</time>
      </trkpt>
      <trkpt lat="48.69477" lon="1.91757">
        <ele>168</ele>
        <time>2022-11-19T10:04:00Z</time>
      </trkpt>
      <trkpt lat="48.69475" lon="1.91753">
        <ele>168</ele>
        <time>2022-11-19T10:04:02Z</time>
      </trkpt>
      <trkpt lat="48.69474" lon="1.91749">
        <ele>168</ele>
        <time>2022-11-19T10:04:04Z</time>
      </trkpt>
      <trkpt lat="48.69472" lon="1.91745">
        <ele>168</ele>
        <time>2022-11-19T10:04:06Z</time>
      </trkpt>
      <trkpt lat="48.69471" lon="1.91742">
        <ele>168</ele>
        <time>2022-11-19T10:04:08Z</time>
      </trkpt>
      <trkpt lat="48.6947" lon="1.91739">
        <ele>168</ele>
        <time>2022-11-19T10:04:10Z</time>
      </trkpt>
      <trkpt lat="48.69469" lon="1.91735">
        <ele>168</ele>
        <time>2022-11-19T10:04:12Z</time>
      </trkpt>
      <trkpt lat="48.69468" lon="1.91731">
        <ele>168</ele>
        <time>2022-11-19T10:04:14Z</time>
      </trkpt>
      <trkpt lat="48.69467" lon="1.91727">
        <ele>168</ele>
        <time>2022-11-19T10:04:16Z</time>
      </trkpt>
      <trkpt lat="48.69465" lon="1.91723">
        <ele>168</ele>
        <time>2022-11-19T10:04:18Z</time>
      </trkpt>
      <trkpt lat="48.69464" lon="1.91719">
        <ele>167</ele>
        <time>2022-11-19T10:04:20Z</time>
      </trkpt>
      <trkpt lat="48.69463" lon="1.91715">
        <ele>167</ele>
        <time>2022-11-19T10:04:22Z</time>
      </trkpt>
      <trkpt lat="48.69461" lon="1.91712">
        <ele>167</ele>
        <time>2022-11-19T10:04:24Z</time>
      </trkpt>
      <trkpt lat="48.6946" lon="1.91708">
        <ele>167</ele>
        <time>2022-11-19T10:04:26Z</time>
      </trkpt>
      <trkpt lat="48.69459" lon="1.91704">
        <ele>166</ele>
        <time>2022-11-19T10:04:28Z</time>
      </trkpt>
      <trkpt lat="48.69458" lon="1.917">
        <ele>166</ele>
        <time>2022-11-19T10:04:30Z</time>
      </trkpt>
      <trkpt lat="48.69457" lon="1.91696">
        <ele>165</ele>
        <time>2022-11-19T10:04:32Z</time>
      </trkpt>
      <trkpt lat="48.69455" lon="1.91692">
        <ele>165</ele>
        <time>2022-11-19T10:04:34Z</time>
      </trkpt>
      <trkpt lat="48.69454" lon="1.91688">
        <ele>164</ele>
        <time>2022-11-19T10:04:36Z</time>
      </trkpt>
      <trkpt lat="48.69453" lon="1.91684">
        <ele>164</ele>
        <time>2022-11-19T10:04:38Z</time>
      </trkpt>
      <trkpt lat="48.69451" lon="1.9168">
        <ele>164</ele>
        <time>2022-11-19T10:04:40Z</time>
      </trkpt>
      <trkpt lat="48.6945" lon="1.91677">
        <ele>164</ele>
        <time>2022-11-19T10:04:42Z</time>
      </trkpt>
      <trkpt lat="48.69449" lon="1.91673">
        <ele>164</ele>
        <time>2022-11-19T10:04:44Z</time>
      </trkpt>
      <trkpt lat="48.69448" lon="1.91669">
        <ele>164</ele>
        <time>2022-11-19T10:04:46Z</time>
      </trkpt>
      <trkpt lat="48.69447" lon="1.91665">
        <ele>164</ele>
        <time>2022-11-19T10:04:48Z</time>
      </trkpt>
      <trkpt lat="48.69445" lon="1.91661">
        <ele>164</ele>
        <time>2022-11-19T10:04:50Z</time>
      </trkpt>
      <trkpt lat="48.69445" lon="1.91656">
        <ele>164</ele>
        <time>2022-11-19T10:04:52Z</time>
      </trkpt>
      <trkpt lat="48.69444" lon="1.91652">
        <ele>164</ele>
        <time>2022-11-19T10:04:54Z</time>
      </trkpt>
      <trkpt lat="48.69443" lon="1.91648">
        <ele>164</ele>
        <time>2022-11-19T10:04:56Z</time>
      </trkpt>
      <trkpt lat="48.69441" lon="1.91644">
        <ele>163</ele>
        <time>2022-11-19T10:04:58Z</time>
      </trkpt>
      <trkpt lat="48.6944" lon="1.91641">
        <ele>163</ele>
        <time>2022-11-19T10:05:00Z</time>
      </trkpt>
      <trkpt lat="48.69439" lon="1.91637">
        <ele>163</ele>
        <time>2022-11-19T10:05:02Z</time>
      </trkpt>
      <trkpt lat="48.69437" lon="1.91633">
        <ele>163</ele>
        <time>2022-11-19T10:05:04Z</time>
      </trkpt>
      <trkpt lat="48.69436" lon="1.9163">
        <ele>163</ele>
        <time>2022-11-19T10:05:06Z</time>
      </trkpt>
      <trkpt lat="48.69435" lon="1.91625">
        <ele>163</ele>
        <time>2022-11-19T10:05:08Z</time>
      </trkpt>
      <trkpt lat="48.69434" lon="1.91621">
        <ele>162</ele>
        <time>2022-11-19T10:05:10Z</time>
      </trkpt>
      <trkpt lat="48.69432" lon="1.91617">
        <ele>161</ele>
        <time>2022-11-19T10:05:12Z</time>
      </trkpt>
      <trkpt lat="48.69431" lon="1.91614">
        <ele>161</ele>
        <time>2022-11-19T10:05:14Z</time>
      </trkpt>
      <trkpt lat="48.6943" lon="1.9161">
        <ele>161</ele>
        <time>2022-11-19T10:05:16Z</time>
      </trkpt>
      <trkpt lat="48.69429" lon="1.91606">
        <ele>160</ele>
        <time>2022-11-19T10:05:18Z</time>
      </trkpt>
      <trkpt lat="48.69427" lon="1.91602">
        <ele>160</ele>
        <time>2022-11-19T10:05:20Z</time>
      </trkpt>
      <trkpt lat="48.69426" lon="1.91598">
        <ele>159</ele>
        <time>2022-11-19T10:05:22Z</time>
      </trkpt>
      <trkpt lat="48.69424" lon="1.91594">
        <ele>159</ele>
        <time>2022-11-19T10:05:24Z</time>
      </trkpt>
      <trkpt lat="48.69423" lon="1.9159">
        <ele>159</ele>
        <time>2022-11-19T10:05:26Z</time>
      </trkpt>
      <trkpt lat="48.69421" lon="1.91587">
        <ele>158</ele>
        <time>2022-11-19T10:05:28Z</time>
      </trkpt>
      <trkpt lat="48.69419" lon="1.91584">
        <ele>158</ele>
        <time>2022-11-19T10:05:30Z</time>
      </trkpt>
      <trkpt lat="48.69417" lon="1.91584">
        <ele>158</ele>
        <time>2022-11-19T10:05:32Z</time>
      </trkpt>
      <trkpt lat="48.69415" lon="1.91587">
        <ele>157</ele>
        <time>2022-11-19T10:05:34Z</time>
      </trkpt>
      <trkpt lat="48.69415" lon="1.9159">
        <ele>157</ele>
        <time>2022-11-19T10:05:36Z</time>
      </trkpt>
      <trkpt lat="48.69415" lon="1.91594">
        <ele>157</ele>
        <time>2022-11-19T10:05:38Z</time>
      </trkpt>
      <trkpt lat="48.69414" lon="1.91598">
        <ele>157</ele>
        <time>2022-11-19T10:05:40Z</time>
      </trkpt>
      <trkpt lat="48.69414" lon="1.91601">
        <ele>157</ele>
        <time>2022-11-19T10:05:41Z</time>
      </trkpt>
      <trkpt lat="48.69415" lon="1.91606">
        <ele>155</ele>
        <time>2022-11-19T10:05:43Z</time>
      </trkpt>
      <trkpt lat="48.69416" lon="1.91613">
        <ele>154</ele>
        <time>2022-11-19T10:05:45Z</time>
      </trkpt>
      <trkpt lat="48.69416" lon="1.91617">
        <ele>153</ele>
        <time>2022-11-19T10:05:46Z</time>
      </trkpt>
      <trkpt lat="48.69415" lon="1.9162">
        <ele>152</ele>
        <time>2022-11-19T10:05:47Z</time>
      </trkpt>
      <trkpt lat="48.69415" lon="1.91623">
        <ele>151</ele>
        <time>2022-11-19T10:05:48Z</time>
      </trkpt>
      <trkpt lat="48.69414" lon="1.91628">
        <ele>150</ele>
        <time>2022-11-19T10:05:50Z</time>
      </trkpt>
      <trkpt lat="48.69413" lon="1.91633">
        <ele>149</ele>
        <time>2022-11-19T10:05:52Z</time>
      </trkpt>
      <trkpt lat="48.69412" lon="1.91636">
        <ele>149</ele>
        <time>2022-11-19T10:05:54Z</time>
      </trkpt>
      <trkpt lat="48.69411" lon="1.91639">
        <ele>148</ele>
        <time>2022-11-19T10:05:56Z</time>
      </trkpt>
      <trkpt lat="48.6941" lon="1.91642">
        <ele>148</ele>
        <time>2022-11-19T10:05:58Z</time>
      </trkpt>
      <trkpt lat="48.69408" lon="1.91644">
        <ele>147</ele>
        <time>2022-11-19T10:06:00Z</time>
      </trkpt>
      <trkpt lat="48.69406" lon="1.91646">
        <ele>147</ele>
        <time>2022-11-19T10:06:02Z</time>
      </trkpt>
      <trkpt lat="48.69404" lon="1.91646">
        <ele>147</ele>
        <time>2022-11-19T10:06:03Z</time>
      </trkpt>
      <trkpt lat="48.69402" lon="1.91645">
        <ele>147</ele>
        <time>2022-11-19T10:06:04Z</time>
      </trkpt>
      <trkpt lat="48.694" lon="1.91645">
        <ele>147</ele>
        <time>2022-11-19T10:06:05Z</time>
      </trkpt>
      <trkpt lat="48.69398" lon="1.91645">
        <ele>147</ele>
        <time>2022-11-19T10:06:06Z</time>
      </trkpt>
      <trkpt lat="48.69395" lon="1.91645">
        <ele>147</ele>
        <time>2022-11-19T10:06:08Z</time>
      </trkpt>
      <trkpt lat="48.69392" lon="1.91646">
        <ele>147</ele>
        <time>2022-11-19T10:06:10Z</time>
      </trkpt>
      <trkpt lat="48.6939" lon="1.91647">
        <ele>147</ele>
        <time>2022-11-19T10:06:12Z</time>
      </trkpt>
      <trkpt lat="48.69387" lon="1.91648">
        <ele>147</ele>
        <time>2022-11-19T10:06:14Z</time>
      </trkpt>
      <trkpt lat="48.69385" lon="1.91649">
        <ele>147</ele>
        <time>2022-11-19T10:06:16Z</time>
      </trkpt>
      <trkpt lat="48.69383" lon="1.9165">
        <ele>148</ele>
        <time>2022-11-19T10:06:18Z</time>
      </trkpt>
      <trkpt lat="48.69381" lon="1.91652">
        <ele>148</ele>
        <time>2022-11-19T10:06:20Z</time>
      </trkpt>
      <trkpt lat="48.69379" lon="1.91653">
        <ele>149</ele>
        <time>2022-11-19T10:06:22Z</time>
      </trkpt>
      <trkpt lat="48.69377" lon="1.91655">
        <ele>149</ele>
        <time>2022-11-19T10:06:24Z</time>
      </trkpt>
      <trkpt lat="48.69375" lon="1.91655">
        <ele>150</ele>
        <time>2022-11-19T10:06:26Z</time>
      </trkpt>
      <trkpt lat="48.69373" lon="1.91656">
        <ele>149</ele>
        <time>2022-11-19T10:06:28Z</time>
      </trkpt>
      <trkpt lat="48.69371" lon="1.91657">
        <ele>150</ele>
        <time>2022-11-19T10:06:30Z</time>
      </trkpt>
      <trkpt lat="48.69369" lon="1.91658">
        <ele>151</ele>
        <time>2022-11-19T10:06:32Z</time>
      </trkpt>
      <trkpt lat="48.69367" lon="1.9166">
        <ele>151</ele>
        <time>2022-11-19T10:06:35Z</time>
      </trkpt>
      <trkpt lat="48.69365" lon="1.9166">
        <ele>151</ele>
        <time>2022-11-19T10:06:39Z</time>
      </trkpt>
      <trkpt lat="48.69362" lon="1.91662">
        <ele>151</ele>
        <time>2022-11-19T10:06:41Z</time>
      </trkpt>
      <trkpt lat="48.6936" lon="1.91664">
        <ele>151</ele>
        <time>2022-11-19T10:06:43Z</time>
      </trkpt>
      <trkpt lat="48.6936" lon="1.91667">
        <ele>151</ele>
        <time>2022-11-19T10:06:45Z</time>
      </trkpt>
      <trkpt lat="48.69358" lon="1.91671">
        <ele>152</ele>
        <time>2022-11-19T10:06:47Z</time>
      </trkpt>
      <trkpt lat="48.69357" lon="1.91674">
        <ele>152</ele>
        <time>2022-11-19T10:06:49Z</time>
      </trkpt>
      <trkpt lat="48.69356" lon="1.91675">
        <ele>152</ele>
        <time>2022-11-19T10:06:51Z</time>
      </trkpt>
      <trkpt lat="48.69354" lon="1.91674">
        <ele>152</ele>
        <time>2022-11-19T10:06:53Z</time>
      </trkpt>
      <trkpt lat="48.69351" lon="1.91675">
        <ele>152</ele>
        <time>2022-11-19T10:06:55Z</time>
      </trkpt>
      <trkpt lat="48.69349" lon="1.91676">
        <ele>152</ele>
        <time>2022-11-19T10:06:57Z</time>
      </trkpt>
      <trkpt lat="48.69346" lon="1.91676">
        <ele>152</ele>
        <time>2022-11-19T10:06:59Z</time>
      </trkpt>
      <trkpt lat="48.69343" lon="1.91676">
        <ele>152</ele>
        <time>2022-11-19T10:07:01Z</time>
      </trkpt>
      <trkpt lat="48.69341" lon="1.91674">
        <ele>152</ele>
        <time>2022-11-19T10:07:03Z</time>
      </trkpt>
      <trkpt lat="48.69339" lon="1.91671">
        <ele>152</ele>
        <time>2022-11-19T10:07:05Z</time>
      </trkpt>
      <trkpt lat="48.69338" lon="1.91668">
        <ele>152</ele>
        <time>2022-11-19T10:07:07Z</time>
      </trkpt>
      <trkpt lat="48.69336" lon="1.91665">
        <ele>153</ele>
        <time>2022-11-19T10:07:09Z</time>
      </trkpt>
      <trkpt lat="48.69335" lon="1.91662">
        <ele>153</ele>
        <time>2022-11-19T10:07:11Z</time>
      </trkpt>
      <trkpt lat="48.69333" lon="1.91658">
        <ele>153</ele>
        <time>2022-11-19T10:07:13Z</time>
      </trkpt>
      <trkpt lat="48.69332" lon="1.91654">
        <ele>153</ele>
        <time>2022-11-19T10:07:15Z</time>
      </trkpt>
      <trkpt lat="48.6933" lon="1.91652">
        <ele>153</ele>
        <time>2022-11-19T10:07:17Z</time>
      </trkpt>
      <trkpt lat="48.69328" lon="1.9165">
        <ele>154</ele>
        <time>2022-11-19T10:07:19Z</time>
      </trkpt>
      <trkpt lat="48.69326" lon="1.91648">
        <ele>154</ele>
        <time>2022-11-19T10:07:21Z</time>
      </trkpt>
      <trkpt lat="48.69324" lon="1.91646">
        <ele>154</ele>
        <time>2022-11-19T10:07:23Z</time>
      </trkpt>
      <trkpt lat="48.69322" lon="1.91646">
        <ele>154</ele>
        <time>2022-11-19T10:07:25Z</time>
      </trkpt>
      <trkpt lat="48.6932" lon="1.91649">
        <ele>154</ele>
        <time>2022-11-19T10:07:28Z</time>
      </trkpt>
      <trkpt lat="48.69319" lon="1.91652">
        <ele>154</ele>
        <time>2022-11-19T10:07:31Z</time>
      </trkpt>
      <trkpt lat="48.69318" lon="1.91653">
        <ele>154</ele>
        <time>2022-11-19T10:07:34Z</time>
      </trkpt>
      <trkpt lat="48.69316" lon="1.91655">
        <ele>154</ele>
        <time>2022-11-19T10:07:36Z</time>
      </trkpt>
      <trkpt lat="48.69313" lon="1.91656">
        <ele>154</ele>
        <time>2022-11-19T10:07:38Z</time>
      </trkpt>
      <trkpt lat="48.69311" lon="1.91658">
        <ele>154</ele>
        <time>2022-11-19T10:07:40Z</time>
      </trkpt>
      <trkpt lat="48.69309" lon="1.91661">
        <ele>153</ele>
        <time>2022-11-19T10:07:42Z</time>
      </trkpt>
      <trkpt lat="48.69308" lon="1.91666">
        <ele>153</ele>
        <time>2022-11-19T10:07:44Z</time>
      </trkpt>
      <trkpt lat="48.69308" lon="1.91669">
        <ele>153</ele>
        <time>2022-11-19T10:07:45Z</time>
      </trkpt>
      <trkpt lat="48.69307" lon="1.91671">
        <ele>153</ele>
        <time>2022-11-19T10:07:46Z</time>
      </trkpt>
      <trkpt lat="48.69306" lon="1.91676">
        <ele>153</ele>
        <time>2022-11-19T10:07:48Z</time>
      </trkpt>
      <trkpt lat="48.69304" lon="1.9168">
        <ele>153</ele>
        <time>2022-11-19T10:07:50Z</time>
      </trkpt>
      <trkpt lat="48.69302" lon="1.91683">
        <ele>152</ele>
        <time>2022-11-19T10:07:52Z</time>
      </trkpt>
      <trkpt lat="48.693" lon="1.91686">
        <ele>152</ele>
        <time>2022-11-19T10:07:54Z</time>
      </trkpt>
      <trkpt lat="48.69298" lon="1.91688">
        <ele>152</ele>
        <time>2022-11-19T10:07:56Z</time>
      </trkpt>
      <trkpt lat="48.69295" lon="1.91689">
        <ele>152</ele>
        <time>2022-11-19T10:07:58Z</time>
      </trkpt>
      <trkpt lat="48.69294" lon="1.91691">
        <ele>152</ele>
        <time>2022-11-19T10:08:01Z</time>
      </trkpt>
      <trkpt lat="48.69292" lon="1.91693">
        <ele>152</ele>
        <time>2022-11-19T10:08:04Z</time>
      </trkpt>
      <trkpt lat="48.69291" lon="1.91696">
        <ele>152</ele>
        <time>2022-11-19T10:08:08Z</time>
      </trkpt>
      <trkpt lat="48.69289" lon="1.91697">
        <ele>153</ele>
        <time>2022-11-19T10:08:10Z</time>
      </trkpt>
      <trkpt lat="48.69286" lon="1.91698">
        <ele>153</ele>
        <time>2022-11-19T10:08:11Z</time>
      </trkpt>
      <trkpt lat="48.69282" lon="1.91697">
        <ele>153</ele>
        <time>2022-11-19T10:08:12Z</time>
      </trkpt>
      <trkpt lat="48.69273" lon="1.91697">
        <ele>152</ele>
        <time>2022-11-19T10:08:14Z</time>
      </trkpt>
      <trkpt lat="48.6927" lon="1.91697">
        <ele>152</ele>
        <time>2022-11-19T10:08:15Z</time>
      </trkpt>
      <trkpt lat="48.69268" lon="1.91698">
        <ele>152</ele>
        <time>2022-11-19T10:08:16Z</time>
      </trkpt>
      <trkpt lat="48.69266" lon="1.91701">
        <ele>152</ele>
        <time>2022-11-19T10:08:18Z</time>
      </trkpt>
      <trkpt lat="48.69264" lon="1.91703">
        <ele>152</ele>
        <time>2022-11-19T10:08:19Z</time>
      </trkpt>
      <trkpt lat="48.69262" lon="1.91706">
        <ele>151</ele>
        <time>2022-11-19T10:08:21Z</time>
      </trkpt>
      <trkpt lat="48.6926" lon="1.91709">
        <ele>152</ele>
        <time>2022-11-19T10:08:23Z</time>
      </trkpt>
      <trkpt lat="48.69262" lon="1.91713">
        <ele>151</ele>
        <time>2022-11-19T10:08:26Z</time>
      </trkpt>
      <trkpt lat="48.69263" lon="1.91716">
        <ele>151</ele>
        <time>2022-11-19T10:08:28Z</time>
      </trkpt>
      <trkpt lat="48.69264" lon="1.91719">
        <ele>151</ele>
        <time>2022-11-19T10:08:30Z</time>
      </trkpt>
      <trkpt lat="48.69263" lon="1.91723">
        <ele>152</ele>
        <time>2022-11-19T10:08:32Z</time>
      </trkpt>
      <trkpt lat="48.69264" lon="1.91727">
        <ele>152</ele>
        <time>2022-11-19T10:08:34Z</time>
      </trkpt>
      <trkpt lat="48.69264" lon="1.91731">
        <ele>152</ele>
        <time>2022-11-19T10:08:36Z</time>
      </trkpt>
      <trkpt lat="48.69263" lon="1.91734">
        <ele>152</ele>
        <time>2022-11-19T10:08:39Z</time>
      </trkpt>
      <trkpt lat="48.69262" lon="1.91738">
        <ele>152</ele>
        <time>2022-11-19T10:08:41Z</time>
      </trkpt>
      <trkpt lat="48.69261" lon="1.91741">
        <ele>151</ele>
        <time>2022-11-19T10:08:42Z</time>
      </trkpt>
      <trkpt lat="48.6926" lon="1.91745">
        <ele>152</ele>
        <time>2022-11-19T10:08:44Z</time>
      </trkpt>
      <trkpt lat="48.69259" lon="1.9175">
        <ele>152</ele>
        <time>2022-11-19T10:08:46Z</time>
      </trkpt>
      <trkpt lat="48.69258" lon="1.91754">
        <ele>151</ele>
        <time>2022-11-19T10:08:48Z</time>
      </trkpt>
      <trkpt lat="48.69258" lon="1.91758">
        <ele>151</ele>
        <time>2022-11-19T10:08:50Z</time>
      </trkpt>
      <trkpt lat="48.69258" lon="1.91761">
        <ele>152</ele>
        <time>2022-11-19T10:08:52Z</time>
      </trkpt>
      <trkpt lat="48.69258" lon="1.91765">
        <ele>152</ele>
        <time>2022-11-19T10:08:54Z</time>
      </trkpt>
      <trkpt lat="48.69257" lon="1.91769">
        <ele>152</ele>
        <time>2022-11-19T10:08:56Z</time>
      </trkpt>
      <trkpt lat="48.69257" lon="1.91772">
        <ele>152</ele>
        <time>2022-11-19T10:08:58Z</time>
      </trkpt>
      <trkpt lat="48.69256" lon="1.91775">
        <ele>152</ele>
        <time>2022-11-19T10:09:00Z</time>
      </trkpt>
      <trkpt lat="48.69255" lon="1.91778">
        <ele>151</ele>
        <time>2022-11-19T10:09:02Z</time>
      </trkpt>
      <trkpt lat="48.69255" lon="1.91781">
        <ele>151</ele>
        <time>2022-11-19T10:09:04Z</time>
      </trkpt>
      <trkpt lat="48.69254" lon="1.91785">
        <ele>152</ele>
        <time>2022-11-19T10:09:06Z</time>
      </trkpt>
      <trkpt lat="48.69253" lon="1.91788">
        <ele>152</ele>
        <time>2022-11-19T10:09:09Z</time>
      </trkpt>
      <trkpt lat="48.69251" lon="1.9179">
        <ele>152</ele>
        <time>2022-11-19T10:09:11Z</time>
      </trkpt>
      <trkpt lat="48.6925" lon="1.91794">
        <ele>152</ele>
        <time>2022-11-19T10:09:13Z</time>
      </trkpt>
      <trkpt lat="48.69249" lon="1.91796">
        <ele>152</ele>
        <time>2022-11-19T10:09:16Z</time>
      </trkpt>
      <trkpt lat="48.69247" lon="1.91798">
        <ele>152</ele>
        <time>2022-11-19T10:09:18Z</time>
      </trkpt>
      <trkpt lat="48.69245" lon="1.918">
        <ele>152</ele>
        <time>2022-11-19T10:09:20Z</time>
      </trkpt>
      <trkpt lat="48.69243" lon="1.91802">
        <ele>152</ele>
        <time>2022-11-19T10:09:22Z</time>
      </trkpt>
      <trkpt lat="48.69241" lon="1.91805">
        <ele>152</ele>
        <time>2022-11-19T10:09:24Z</time>
      </trkpt>
      <trkpt lat="48.6924" lon="1.91807">
        <ele>151</ele>
        <time>2022-11-19T10:09:26Z</time>
      </trkpt>
      <trkpt lat="48.69237" lon="1.91808">
        <ele>151</ele>
        <time>2022-11-19T10:09:28Z</time>
      </trkpt>
      <trkpt lat="48.69235" lon="1.91809">
        <ele>151</ele>
        <time>2022-11-19T10:09:29Z</time>
      </trkpt>
      <trkpt lat="48.69232" lon="1.91809">
        <ele>151</ele>
        <time>2022-11-19T10:09:31Z</time>
      </trkpt>
      <trkpt lat="48.69229" lon="1.91809">
        <ele>151</ele>
        <time>2022-11-19T10:09:33Z</time>
      </trkpt>
      <trkpt lat="48.69226" lon="1.91811">
        <ele>151</ele>
        <time>2022-11-19T10:09:35Z</time>
      </trkpt>
      <trkpt lat="48.69223" lon="1.91813">
        <ele>151</ele>
        <time>2022-11-19T10:09:37Z</time>
      </trkpt>
      <trkpt lat="48.69221" lon="1.91815">
        <ele>151</ele>
        <time>2022-11-19T10:09:39Z</time>
      </trkpt>
      <trkpt lat="48.69219" lon="1.91817">
        <ele>151</ele>
        <time>2022-11-19T10:09:41Z</time>
      </trkpt>
      <trkpt lat="48.69216" lon="1.91819">
        <ele>151</ele>
        <time>2022-11-19T10:09:43Z</time>
      </trkpt>
      <trkpt lat="48.69213" lon="1.91822">
        <ele>151</ele>
        <time>2022-11-19T10:09:45Z</time>
      </trkpt>
      <trkpt lat="48.69211" lon="1.91825">
        <ele>151</ele>
        <time>2022-11-19T10:09:47Z</time>
      </trkpt>
      <trkpt lat="48.6921" lon="1.91827">
        <ele>150</ele>
        <time>2022-11-19T10:09:49Z</time>
      </trkpt>
      <trkpt lat="48.69207" lon="1.91829">
        <ele>150</ele>
        <time>2022-11-19T10:09:52Z</time>
      </trkpt>
      <trkpt lat="48.69205" lon="1.9183">
        <ele>150</ele>
        <time>2022-11-19T10:09:54Z</time>
      </trkpt>
      <trkpt lat="48.69203" lon="1.91831">
        <ele>150</ele>
        <time>2022-11-19T10:09:57Z</time>
      </trkpt>
      <trkpt lat="48.69201" lon="1.91829">
        <ele>151</ele>
        <time>2022-11-19T10:10:00Z</time>
      </trkpt>
      <trkpt lat="48.692" lon="1.91825">
        <ele>151</ele>
        <time>2022-11-19T10:10:02Z</time>
      </trkpt>
      <trkpt lat="48.69198" lon="1.91824">
        <ele>152</ele>
        <time>2022-11-19T10:10:05Z</time>
      </trkpt>
      <trkpt lat="48.69197" lon="1.91827">
        <ele>153</ele>
        <time>2022-11-19T10:10:07Z</time>
      </trkpt>
      <trkpt lat="48.69195" lon="1.91829">
        <ele>153</ele>
        <time>2022-11-19T10:10:09Z</time>
      </trkpt>
      <trkpt lat="48.69194" lon="1.91833">
        <ele>153</ele>
        <time>2022-11-19T10:10:11Z</time>
      </trkpt>
      <trkpt lat="48.69193" lon="1.91837">
        <ele>153</ele>
        <time>2022-11-19T10:10:13Z</time>
      </trkpt>
      <trkpt lat="48.69193" lon="1.91841">
        <ele>153</ele>
        <time>2022-11-19T10:10:15Z</time>
      </trkpt>
      <trkpt lat="48.69193" lon="1.91845">
        <ele>153</ele>
        <time>2022-11-19T10:10:17Z</time>
      </trkpt>
      <trkpt lat="48.69193" lon="1.91851">
        <ele>153</ele>
        <time>2022-11-19T10:10:19Z</time>
      </trkpt>
      <trkpt lat="48.69192" lon="1.91855">
        <ele>153</ele>
        <time>2022-11-19T10:10:21Z</time>
      </trkpt>
      <trkpt lat="48.69191" lon="1.91858">
        <ele>154</ele>
        <time>2022-11-19T10:10:23Z</time>
      </trkpt>
      <trkpt lat="48.6919" lon="1.91862">
        <ele>153</ele>
        <time>2022-11-19T10:10:25Z</time>
      </trkpt>
      <trkpt lat="48.69189" lon="1.91866">
        <ele>154</ele>
        <time>2022-11-19T10:10:27Z</time>
      </trkpt>
      <trkpt lat="48.69188" lon="1.91872">
        <ele>153</ele>
        <time>2022-11-19T10:10:29Z</time>
      </trkpt>
      <trkpt lat="48.69188" lon="1.91876">
        <ele>154</ele>
        <time>2022-11-19T10:10:31Z</time>
      </trkpt>
      <trkpt lat="48.69187" lon="1.91879">
        <ele>154</ele>
        <time>2022-11-19T10:10:33Z</time>
      </trkpt>
      <trkpt lat="48.69185" lon="1.91881">
        <ele>154</ele>
        <time>2022-11-19T10:10:35Z</time>
      </trkpt>
      <trkpt lat="48.69183" lon="1.91884">
        <ele>155</ele>
        <time>2022-11-19T10:10:37Z</time>
      </trkpt>
      <trkpt lat="48.69181" lon="1.91887">
        <ele>155</ele>
        <time>2022-11-19T10:10:39Z</time>
      </trkpt>
      <trkpt lat="48.6918" lon="1.91891">
        <ele>155</ele>
        <time>2022-11-19T10:10:41Z</time>
      </trkpt>
      <trkpt lat="48.6918" lon="1.91894">
        <ele>155</ele>
        <time>2022-11-19T10:10:43Z</time>
      </trkpt>
      <trkpt lat="48.69181" lon="1.91898">
        <ele>155</ele>
        <time>2022-11-19T10:10:45Z</time>
      </trkpt>
      <trkpt lat="48.69181" lon="1.91902">
        <ele>155</ele>
        <time>2022-11-19T10:10:47Z</time>
      </trkpt>
      <trkpt lat="48.69182" lon="1.91904">
        <ele>156</ele>
        <time>2022-11-19T10:10:49Z</time>
      </trkpt>
      <trkpt lat="48.69183" lon="1.91907">
        <ele>156</ele>
        <time>2022-11-19T10:10:52Z</time>
      </trkpt>
      <trkpt lat="48.69184" lon="1.9191">
        <ele>156</ele>
        <time>2022-11-19T10:10:54Z</time>
      </trkpt>
      <trkpt lat="48.69185" lon="1.91913">
        <ele>156</ele>
        <time>2022-11-19T10:10:56Z</time>
      </trkpt>
      <trkpt lat="48.69185" lon="1.91917">
        <ele>157</ele>
        <time>2022-11-19T10:10:58Z</time>
      </trkpt>
      <trkpt lat="48.69183" lon="1.9192">
        <ele>157</ele>
        <time>2022-11-19T10:11:00Z</time>
      </trkpt>
      <trkpt lat="48.69182" lon="1.91922">
        <ele>157</ele>
        <time>2022-11-19T10:11:02Z</time>
      </trkpt>
      <trkpt lat="48.6918" lon="1.91925">
        <ele>157</ele>
        <time>2022-11-19T10:11:04Z</time>
      </trkpt>
      <trkpt lat="48.69181" lon="1.91928">
        <ele>156</ele>
        <time>2022-11-19T10:11:06Z</time>
      </trkpt>
      <trkpt lat="48.6918" lon="1.9193">
        <ele>156</ele>
        <time>2022-11-19T10:11:08Z</time>
      </trkpt>
      <trkpt lat="48.69179" lon="1.91934">
        <ele>156</ele>
        <time>2022-11-19T10:11:10Z</time>
      </trkpt>
      <trkpt lat="48.69179" lon="1.91937">
        <ele>157</ele>
        <time>2022-11-19T10:11:12Z</time>
      </trkpt>
      <trkpt lat="48.69176" lon="1.9194">
        <ele>157</ele>
        <time>2022-11-19T10:11:14Z</time>
      </trkpt>
      <trkpt lat="48.69173" lon="1.91941">
        <ele>157</ele>
        <time>2022-11-19T10:11:16Z</time>
      </trkpt>
      <trkpt lat="48.69171" lon="1.91942">
        <ele>157</ele>
        <time>2022-11-19T10:11:18Z</time>
      </trkpt>
      <trkpt lat="48.69169" lon="1.91942">
        <ele>157</ele>
        <time>2022-11-19T10:11:20Z</time>
      </trkpt>
      <trkpt lat="48.69166" lon="1.91941">
        <ele>158</ele>
        <time>2022-11-19T10:11:22Z</time>
      </trkpt>
      <trkpt lat="48.69163" lon="1.9194">
        <ele>157</ele>
        <time>2022-11-19T10:11:24Z</time>
      </trkpt>
      <trkpt lat="48.6916" lon="1.91939">
        <ele>157</ele>
        <time>2022-11-19T10:11:26Z</time>
      </trkpt>
      <trkpt lat="48.69157" lon="1.91939">
        <ele>157</ele>
        <time>2022-11-19T10:11:28Z</time>
      </trkpt>
      <trkpt lat="48.69155" lon="1.91939">
        <ele>157</ele>
        <time>2022-11-19T10:11:30Z</time>
      </trkpt>
      <trkpt lat="48.69151" lon="1.9194">
        <ele>157</ele>
        <time>2022-11-19T10:11:32Z</time>
      </trkpt>
      <trkpt lat="48.69149" lon="1.91941">
        <ele>157</ele>
        <time>2022-11-19T10:11:34Z</time>
      </trkpt>
      <trkpt lat="48.69146" lon="1.91942">
        <ele>157</ele>
        <time>2022-11-19T10:11:36Z</time>
      </trkpt>
      <trkpt lat="48.69144" lon="1.91943">
        <ele>157</ele>
        <time>2022-11-19T10:11:38Z</time>
      </trkpt>
      <trkpt lat="48.69141" lon="1.91944">
        <ele>157</ele>
        <time>2022-11-19T10:11:40Z</time>
      </trkpt>
      <trkpt lat="48.69139" lon="1.91945">
        <ele>157</ele>
        <time>2022-11-19T10:11:42Z</time>
      </trkpt>
      <trkpt lat="48.69136" lon="1.91945">
        <ele>157</ele>
        <time>2022-11-19T10:11:45Z</time>
      </trkpt>
      <trkpt lat="48.69134" lon="1.91945">
        <ele>156</ele>
        <time>2022-11-19T10:11:52Z</time>
      </trkpt>
      <trkpt lat="48.69131" lon="1.91945">
        <ele>156</ele>
        <time>2022-11-19T10:11:56Z</time>
      </trkpt>
      <trkpt lat="48.69129" lon="1.91945">
        <ele>156</ele>
        <time>2022-11-19T10:11:57Z</time>
      </trkpt>
      <trkpt lat="48.69127" lon="1.91945">
        <ele>156</ele>
        <time>2022-11-19T10:11:58Z</time>
      </trkpt>
      <trkpt lat="48.69124" lon="1.91947">
        <ele>156</ele>
        <time>2022-11-19T10:12:00Z</time>
      </trkpt>
      <trkpt lat="48.69122" lon="1.91949">
        <ele>156</ele>
        <time>2022-11-19T10:12:02Z</time>
      </trkpt>
      <trkpt lat="48.69121" lon="1.91952">
        <ele>156</ele>
        <time>2022-11-19T10:12:04Z</time>
      </trkpt>
      <trkpt lat="48.69119" lon="1.91955">
        <ele>156</ele>
        <time>2022-11-19T10:12:06Z</time>
      </trkpt>
      <trkpt lat="48.69118" lon="1.91957">
        <ele>156</ele>
        <time>2022-11-19T10:12:08Z</time>
      </trkpt>
      <trkpt lat="48.69116" lon="1.91959">
        <ele>156</ele>
        <time>2022-11-19T10:12:10Z</time>
      </trkpt>
      <trkpt lat="48.69115" lon="1.91962">
        <ele>156</ele>
        <time>2022-11-19T10:12:12Z</time>
      </trkpt>
      <trkpt lat="48.69113" lon="1.91964">
        <ele>156</ele>
        <time>2022-11-19T10:12:14Z</time>
      </trkpt>
      <trkpt lat="48.69113" lon="1.91966">
        <ele>156</ele>
        <time>2022-11-19T10:12:17Z</time>
      </trkpt>
      <trkpt lat="48.69112" lon="1.9197">
        <ele>155</ele>
        <time>2022-11-19T10:12:21Z</time>
      </trkpt>
      <trkpt lat="48.69112" lon="1.91974">
        <ele>155</ele>
        <time>2022-11-19T10:12:25Z</time>
      </trkpt>
      <trkpt lat="48.69111" lon="1.91978">
        <ele>154</ele>
        <time>2022-11-19T10:12:27Z</time>
      </trkpt>
      <trkpt lat="48.69109" lon="1.9198">
        <ele>154</ele>
        <time>2022-11-19T10:12:28Z</time>
      </trkpt>
      <trkpt lat="48.69108" lon="1.91983">
        <ele>154</ele>
        <time>2022-11-19T10:12:30Z</time>
      </trkpt>
      <trkpt lat="48.69108" lon="1.91987">
        <ele>154</ele>
        <time>2022-11-19T10:12:33Z</time>
      </trkpt>
      <trkpt lat="48.69109" lon="1.9199">
        <ele>154</ele>
        <time>2022-11-19T10:12:35Z</time>
      </trkpt>
      <trkpt lat="48.69111" lon="1.91992">
        <ele>154</ele>
        <time>2022-11-19T10:12:38Z</time>
      </trkpt>
      <trkpt lat="48.69113" lon="1.91993">
        <ele>154</ele>
        <time>2022-11-19T10:12:40Z</time>
      </trkpt>
      <trkpt lat="48.69114" lon="1.91996">
        <ele>153</ele>
        <time>2022-11-19T10:12:42Z</time>
      </trkpt>
      <trkpt lat="48.69115" lon="1.91999">
        <ele>153</ele>
        <time>2022-11-19T10:12:44Z</time>
      </trkpt>
      <trkpt lat="48.69116" lon="1.92002">
        <ele>153</ele>
        <time>2022-11-19T10:12:46Z</time>
      </trkpt>
      <trkpt lat="48.69117" lon="1.92004">
        <ele>154</ele>
        <time>2022-11-19T10:12:48Z</time>
      </trkpt>
      <trkpt lat="48.69118" lon="1.92008">
        <ele>154</ele>
        <time>2022-11-19T10:12:50Z</time>
      </trkpt>
      <trkpt lat="48.69118" lon="1.92011">
        <ele>154</ele>
        <time>2022-11-19T10:12:52Z</time>
      </trkpt>
      <trkpt lat="48.69116" lon="1.92014">
        <ele>154</ele>
        <time>2022-11-19T10:12:54Z</time>
      </trkpt>
      <trkpt lat="48.69115" lon="1.92017">
        <ele>154</ele>
        <time>2022-11-19T10:12:56Z</time>
      </trkpt>
      <trkpt lat="48.69113" lon="1.9202">
        <ele>154</ele>
        <time>2022-11-19T10:12:58Z</time>
      </trkpt>
      <trkpt lat="48.69111" lon="1.92023">
        <ele>154</ele>
        <time>2022-11-19T10:13:00Z</time>
      </trkpt>
      <trkpt lat="48.69109" lon="1.92026">
        <ele>154</ele>
        <time>2022-11-19T10:13:02Z</time>
      </trkpt>
      <trkpt lat="48.69108" lon="1.92028">
        <ele>154</ele>
        <time>2022-11-19T10:13:04Z</time>
      </trkpt>
      <trkpt lat="48.69106" lon="1.92032">
        <ele>154</ele>
        <time>2022-11-19T10:13:06Z</time>
      </trkpt>
      <trkpt lat="48.69105" lon="1.92035">
        <ele>154</ele>
        <time>2022-11-19T10:13:08Z</time>
      </trkpt>
      <trkpt lat="48.69103" lon="1.92038">
        <ele>154</ele>
        <time>2022-11-19T10:13:10Z</time>
      </trkpt>
      <trkpt lat="48.69101" lon="1.92041">
        <ele>154</ele>
        <time>2022-11-19T10:13:13Z</time>
      </trkpt>
      <trkpt lat="48.69099" lon="1.92044">
        <ele>154</ele>
        <time>2022-11-19T10:13:15Z</time>
      </trkpt>
      <trkpt lat="48.69097" lon="1.92046">
        <ele>154</ele>
        <time>2022-11-19T10:13:17Z</time>
      </trkpt>
      <trkpt lat="48.69095" lon="1.92048">
        <ele>154</ele>
        <time>2022-11-19T10:13:19Z</time>
      </trkpt>
      <trkpt lat="48.69094" lon="1.9205">
        <ele>154</ele>
        <time>2022-11-19T10:13:21Z</time>
      </trkpt>
      <trkpt lat="48.69092" lon="1.92052">
        <ele>154</ele>
        <time>2022-11-19T10:13:24Z</time>
      </trkpt>
      <trkpt lat="48.6909" lon="1.92055">
        <ele>154</ele>
        <time>2022-11-19T10:13:26Z</time>
      </trkpt>
      <trkpt lat="48.69089" lon="1.92058">
        <ele>154</ele>
        <time>2022-11-19T10:13:28Z</time>
      </trkpt>
      <trkpt lat="48.69088" lon="1.92061">
        <ele>154</ele>
        <time>2022-11-19T10:13:30Z</time>
      </trkpt>
      <trkpt lat="48.69088" lon="1.92065">
        <ele>154</ele>
        <time>2022-11-19T10:13:32Z</time>
      </trkpt>
      <trkpt lat="48.69087" lon="1.92068">
        <ele>154</ele>
        <time>2022-11-19T10:13:34Z</time>
      </trkpt>
      <trkpt lat="48.69087" lon="1.92072">
        <ele>153</ele>
        <time>2022-11-19T10:13:36Z</time>
      </trkpt>
      <trkpt lat="48.69086" lon="1.92075">
        <ele>153</ele>
        <time>2022-11-19T10:13:38Z</time>
      </trkpt>
      <trkpt lat="48.69084" lon="1.92076">
        <ele>154</ele>
        <time>2022-11-19T10:13:42Z</time>
      </trkpt>
      <trkpt lat="48.69082" lon="1.92078">
        <ele>154</ele>
        <time>2022-11-19T10:13:44Z</time>
      </trkpt>
      <trkpt lat="48.6908" lon="1.92079">
        <ele>153</ele>
        <time>2022-11-19T10:13:46Z</time>
      </trkpt>
      <trkpt lat="48.69078" lon="1.92081">
        <ele>153</ele>
        <time>2022-11-19T10:13:48Z</time>
      </trkpt>
      <trkpt lat="48.69074" lon="1.92083">
        <ele>153</ele>
        <time>2022-11-19T10:13:50Z</time>
      </trkpt>
      <trkpt lat="48.69071" lon="1.92084">
        <ele>153</ele>
        <time>2022-11-19T10:13:52Z</time>
      </trkpt>
      <trkpt lat="48.69069" lon="1.92088">
        <ele>153</ele>
        <time>2022-11-19T10:13:54Z</time>
      </trkpt>
      <trkpt lat="48.69066" lon="1.92091">
        <ele>153</ele>
        <time>2022-11-19T10:13:56Z</time>
      </trkpt>
      <trkpt lat="48.69064" lon="1.92095">
        <ele>153</ele>
        <time>2022-11-19T10:13:58Z</time>
      </trkpt>
      <trkpt lat="48.69062" lon="1.92097">
        <ele>152</ele>
        <time>2022-11-19T10:14:00Z</time>
      </trkpt>
      <trkpt lat="48.69061" lon="1.92099">
        <ele>152</ele>
        <time>2022-11-19T10:14:01Z</time>
      </trkpt>
      <trkpt lat="48.69059" lon="1.92102">
        <ele>152</ele>
        <time>2022-11-19T10:14:03Z</time>
      </trkpt>
      <trkpt lat="48.69057" lon="1.92105">
        <ele>151</ele>
        <time>2022-11-19T10:14:05Z</time>
      </trkpt>
      <trkpt lat="48.69056" lon="1.92108">
        <ele>151</ele>
        <time>2022-11-19T10:14:07Z</time>
      </trkpt>
      <trkpt lat="48.69054" lon="1.9211">
        <ele>151</ele>
        <time>2022-11-19T10:14:14Z</time>
      </trkpt>
      <trkpt lat="48.69052" lon="1.92112">
        <ele>151</ele>
        <time>2022-11-19T10:14:18Z</time>
      </trkpt>
      <trkpt lat="48.69051" lon="1.92114">
        <ele>151</ele>
        <time>2022-11-19T10:14:20Z</time>
      </trkpt>
      <trkpt lat="48.69049" lon="1.92116">
        <ele>151</ele>
        <time>2022-11-19T10:14:22Z</time>
      </trkpt>
      <trkpt lat="48.69047" lon="1.92118">
        <ele>150</ele>
        <time>2022-11-19T10:14:24Z</time>
      </trkpt>
      <trkpt lat="48.69045" lon="1.92119">
        <ele>150</ele>
        <time>2022-11-19T10:14:26Z</time>
      </trkpt>
      <trkpt lat="48.69043" lon="1.92121">
        <ele>150</ele>
        <time>2022-11-19T10:14:28Z</time>
      </trkpt>
      <trkpt lat="48.69041" lon="1.92123">
        <ele>150</ele>
        <time>2022-11-19T10:14:30Z</time>
      </trkpt>
      <trkpt lat="48.69039" lon="1.92124">
        <ele>150</ele>
        <time>2022-11-19T10:14:32Z</time>
      </trkpt>
      <trkpt lat="48.69037" lon="1.92127">
        <ele>149</ele>
        <time>2022-11-19T10:14:34Z</time>
      </trkpt>
      <trkpt lat="48.69035" lon="1.92128">
        <ele>149</ele>
        <time>2022-11-19T10:14:35Z</time>
      </trkpt>
      <trkpt lat="48.69034" lon="1.9213">
        <ele>149</ele>
        <time>2022-11-19T10:14:36Z</time>
      </trkpt>
      <trkpt lat="48.69032" lon="1.92133">
        <ele>149</ele>
        <time>2022-11-19T10:14:37Z</time>
      </trkpt>
      <trkpt lat="48.6903" lon="1.92134">
        <ele>149</ele>
        <time>2022-11-19T10:14:38Z</time>
      </trkpt>
      <trkpt lat="48.69027" lon="1.92137">
        <ele>148</ele>
        <time>2022-11-19T10:14:40Z</time>
      </trkpt>
      <trkpt lat="48.69024" lon="1.9214">
        <ele>148</ele>
        <time>2022-11-19T10:14:42Z</time>
      </trkpt>
      <trkpt lat="48.69023" lon="1.92141">
        <ele>148</ele>
        <time>2022-11-19T10:14:43Z</time>
      </trkpt>
      <trkpt lat="48.69021" lon="1.92143">
        <ele>148</ele>
        <time>2022-11-19T10:14:44Z</time>
      </trkpt>
      <trkpt lat="48.6902" lon="1.92148">
        <ele>148</ele>
        <time>2022-11-19T10:14:46Z</time>
      </trkpt>
      <trkpt lat="48.69021" lon="1.92151">
        <ele>148</ele>
        <time>2022-11-19T10:14:48Z</time>
      </trkpt>
      <trkpt lat="48.69022" lon="1.92155">
        <ele>148</ele>
        <time>2022-11-19T10:14:50Z</time>
      </trkpt>
      <trkpt lat="48.69024" lon="1.92159">
        <ele>148</ele>
        <time>2022-11-19T10:14:52Z</time>
      </trkpt>
      <trkpt lat="48.69025" lon="1.92163">
        <ele>148</ele>
        <time>2022-11-19T10:14:54Z</time>
      </trkpt>
      <trkpt lat="48.69026" lon="1.92167">
        <ele>148</ele>
        <time>2022-11-19T10:14:56Z</time>
      </trkpt>
      <trkpt lat="48.69028" lon="1.92171">
        <ele>148</ele>
        <time>2022-11-19T10:14:58Z</time>
      </trkpt>
      <trkpt lat="48.69028" lon="1.92177">
        <ele>148</ele>
        <time>2022-11-19T10:15:00Z</time>
      </trkpt>
      <trkpt lat="48.69028" lon="1.92181">
        <ele>148</ele>
        <time>2022-11-19T10:15:02Z</time>
      </trkpt>
      <trkpt lat="48.69029" lon="1.92185">
        <ele>148</ele>
        <time>2022-11-19T10:15:04Z</time>
      </trkpt>
      <trkpt lat="48.69031" lon="1.92187">
        <ele>147</ele>
        <time>2022-11-19T10:15:07Z</time>
      </trkpt>
      <trkpt lat="48.69033" lon="1.92187">
        <ele>147</ele>
        <time>2022-11-19T10:15:11Z</time>
      </trkpt>
      <trkpt lat="48.69035" lon="1.9219">
        <ele>146</ele>
        <time>2022-11-19T10:15:14Z</time>
      </trkpt>
      <trkpt lat="48.69037" lon="1.92191">
        <ele>145</ele>
        <time>2022-11-19T10:15:17Z</time>
      </trkpt>
      <trkpt lat="48.69039" lon="1.92193">
        <ele>145</ele>
        <time>2022-11-19T10:15:19Z</time>
      </trkpt>
      <trkpt lat="48.69041" lon="1.92195">
        <ele>145</ele>
        <time>2022-11-19T10:15:21Z</time>
      </trkpt>
      <trkpt lat="48.69043" lon="1.92198">
        <ele>145</ele>
        <time>2022-11-19T10:15:23Z</time>
      </trkpt>
      <trkpt lat="48.69045" lon="1.922">
        <ele>145</ele>
        <time>2022-11-19T10:15:25Z</time>
      </trkpt>
      <trkpt lat="48.69047" lon="1.92201">
        <ele>145</ele>
        <time>2022-11-19T10:15:27Z</time>
      </trkpt>
      <trkpt lat="48.69049" lon="1.92202">
        <ele>145</ele>
        <time>2022-11-19T10:15:29Z</time>
      </trkpt>
      <trkpt lat="48.69051" lon="1.92204">
        <ele>145</ele>
        <time>2022-11-19T10:15:31Z</time>
      </trkpt>
      <trkpt lat="48.69053" lon="1.92206">
        <ele>146</ele>
        <time>2022-11-19T10:15:33Z</time>
      </trkpt>
      <trkpt lat="48.69055" lon="1.92209">
        <ele>146</ele>
        <time>2022-11-19T10:15:35Z</time>
      </trkpt>
      <trkpt lat="48.69057" lon="1.9221">
        <ele>146</ele>
        <time>2022-11-19T10:15:37Z</time>
      </trkpt>
      <trkpt lat="48.69059" lon="1.9221">
        <ele>146</ele>
        <time>2022-11-19T10:15:39Z</time>
      </trkpt>
      <trkpt lat="48.69062" lon="1.9221">
        <ele>146</ele>
        <time>2022-11-19T10:15:41Z</time>
      </trkpt>
      <trkpt lat="48.69063" lon="1.92213">
        <ele>146</ele>
        <time>2022-11-19T10:15:43Z</time>
      </trkpt>
      <trkpt lat="48.69065" lon="1.92217">
        <ele>146</ele>
        <time>2022-11-19T10:15:45Z</time>
      </trkpt>
      <trkpt lat="48.69065" lon="1.92222">
        <ele>146</ele>
        <time>2022-11-19T10:15:47Z</time>
      </trkpt>
      <trkpt lat="48.69067" lon="1.92224">
        <ele>146</ele>
        <time>2022-11-19T10:15:49Z</time>
      </trkpt>
      <trkpt lat="48.69068" lon="1.92227">
        <ele>146</ele>
        <time>2022-11-19T10:15:51Z</time>
      </trkpt>
      <trkpt lat="48.6907" lon="1.92228">
        <ele>147</ele>
        <time>2022-11-19T10:15:53Z</time>
      </trkpt>
      <trkpt lat="48.69072" lon="1.92229">
        <ele>147</ele>
        <time>2022-11-19T10:15:55Z</time>
      </trkpt>
      <trkpt lat="48.69075" lon="1.92231">
        <ele>147</ele>
        <time>2022-11-19T10:15:57Z</time>
      </trkpt>
      <trkpt lat="48.69077" lon="1.92232">
        <ele>147</ele>
        <time>2022-11-19T10:15:58Z</time>
      </trkpt>
      <trkpt lat="48.6908" lon="1.92235">
        <ele>147</ele>
        <time>2022-11-19T10:16:00Z</time>
      </trkpt>
      <trkpt lat="48.69082" lon="1.92236">
        <ele>147</ele>
        <time>2022-11-19T10:16:02Z</time>
      </trkpt>
      <trkpt lat="48.69085" lon="1.92238">
        <ele>147</ele>
        <time>2022-11-19T10:16:04Z</time>
      </trkpt>
      <trkpt lat="48.69087" lon="1.92239">
        <ele>147</ele>
        <time>2022-11-19T10:16:06Z</time>
      </trkpt>
      <trkpt lat="48.69089" lon="1.92242">
        <ele>147</ele>
        <time>2022-11-19T10:16:08Z</time>
      </trkpt>
      <trkpt lat="48.69091" lon="1.92244">
        <ele>148</ele>
        <time>2022-11-19T10:16:10Z</time>
      </trkpt>
      <trkpt lat="48.69094" lon="1.92246">
        <ele>148</ele>
        <time>2022-11-19T10:16:12Z</time>
      </trkpt>
      <trkpt lat="48.69096" lon="1.92247">
        <ele>148</ele>
        <time>2022-11-19T10:16:14Z</time>
      </trkpt>
      <trkpt lat="48.69098" lon="1.9225">
        <ele>148</ele>
        <time>2022-11-19T10:16:16Z</time>
      </trkpt>
      <trkpt lat="48.691" lon="1.92252">
        <ele>148</ele>
        <time>2022-11-19T10:16:18Z</time>
      </trkpt>
      <trkpt lat="48.69101" lon="1.92256">
        <ele>149</ele>
        <time>2022-11-19T10:16:20Z</time>
      </trkpt>
      <trkpt lat="48.69101" lon="1.9226">
        <ele>149</ele>
        <time>2022-11-19T10:16:22Z</time>
      </trkpt>
      <trkpt lat="48.69102" lon="1.92264">
        <ele>149</ele>
        <time>2022-11-19T10:16:24Z</time>
      </trkpt>
      <trkpt lat="48.69103" lon="1.92267">
        <ele>150</ele>
        <time>2022-11-19T10:16:26Z</time>
      </trkpt>
      <trkpt lat="48.69105" lon="1.9227">
        <ele>150</ele>
        <time>2022-11-19T10:16:28Z</time>
      </trkpt>
      <trkpt lat="48.69106" lon="1.92274">
        <ele>151</ele>
        <time>2022-11-19T10:16:30Z</time>
      </trkpt>
      <trkpt lat="48.69106" lon="1.92277">
        <ele>151</ele>
        <time>2022-11-19T10:16:32Z</time>
      </trkpt>
      <trkpt lat="48.69107" lon="1.92281">
        <ele>152</ele>
        <time>2022-11-19T10:16:34Z</time>
      </trkpt>
      <trkpt lat="48.69108" lon="1.92284">
        <ele>152</ele>
        <time>2022-11-19T10:16:37Z</time>
      </trkpt>
      <trkpt lat="48.69108" lon="1.92287">
        <ele>153</ele>
        <time>2022-11-19T10:16:39Z</time>
      </trkpt>
      <trkpt lat="48.69111" lon="1.92288">
        <ele>153</ele>
        <time>2022-11-19T10:16:44Z</time>
      </trkpt>
      <trkpt lat="48.69113" lon="1.92289">
        <ele>153</ele>
        <time>2022-11-19T10:16:46Z</time>
      </trkpt>
      <trkpt lat="48.69114" lon="1.92293">
        <ele>154</ele>
        <time>2022-11-19T10:16:48Z</time>
      </trkpt>
      <trkpt lat="48.69115" lon="1.92298">
        <ele>154</ele>
        <time>2022-11-19T10:16:50Z</time>
      </trkpt>
      <trkpt lat="48.69115" lon="1.92303">
        <ele>154</ele>
        <time>2022-11-19T10:16:52Z</time>
      </trkpt>
      <trkpt lat="48.69116" lon="1.92306">
        <ele>154</ele>
        <time>2022-11-19T10:16:54Z</time>
      </trkpt>
      <trkpt lat="48.69117" lon="1.9231">
        <ele>154</ele>
        <time>2022-11-19T10:16:56Z</time>
      </trkpt>
      <trkpt lat="48.69117" lon="1.92313">
        <ele>154</ele>
        <time>2022-11-19T10:16:58Z</time>
      </trkpt>
      <trkpt lat="48.69117" lon="1.92317">
        <ele>153</ele>
        <time>2022-11-19T10:17:00Z</time>
      </trkpt>
      <trkpt lat="48.69117" lon="1.92322">
        <ele>153</ele>
        <time>2022-11-19T10:17:02Z</time>
      </trkpt>
      <trkpt lat="48.69117" lon="1.92327">
        <ele>154</ele>
        <time>2022-11-19T10:17:04Z</time>
      </trkpt>
      <trkpt lat="48.69117" lon="1.9233">
        <ele>154</ele>
        <time>2022-11-19T10:17:05Z</time>
      </trkpt>
      <trkpt lat="48.69116" lon="1.92333">
        <ele>154</ele>
        <time>2022-11-19T10:17:06Z</time>
      </trkpt>
      <trkpt lat="48.69115" lon="1.92337">
        <ele>155</ele>
        <time>2022-11-19T10:17:08Z</time>
      </trkpt>
      <trkpt lat="48.69113" lon="1.92342">
        <ele>155</ele>
        <time>2022-11-19T10:17:10Z</time>
      </trkpt>
      <trkpt lat="48.69111" lon="1.92346">
        <ele>155</ele>
        <time>2022-11-19T10:17:12Z</time>
      </trkpt>
      <trkpt lat="48.6911" lon="1.9235">
        <ele>155</ele>
        <time>2022-11-19T10:17:14Z</time>
      </trkpt>
      <trkpt lat="48.69109" lon="1.92353">
        <ele>156</ele>
        <time>2022-11-19T10:17:16Z</time>
      </trkpt>
      <trkpt lat="48.69109" lon="1.92356">
        <ele>156</ele>
        <time>2022-11-19T10:17:18Z</time>
      </trkpt>
      <trkpt lat="48.69109" lon="1.92361">
        <ele>157</ele>
        <time>2022-11-19T10:17:21Z</time>
      </trkpt>
      <trkpt lat="48.69107" lon="1.92364">
        <ele>158</ele>
        <time>2022-11-19T10:17:23Z</time>
      </trkpt>
      <trkpt lat="48.69106" lon="1.92366">
        <ele>158</ele>
        <time>2022-11-19T10:17:24Z</time>
      </trkpt>
      <trkpt lat="48.69104" lon="1.9237">
        <ele>159</ele>
        <time>2022-11-19T10:17:26Z</time>
      </trkpt>
      <trkpt lat="48.69103" lon="1.92375">
        <ele>159</ele>
        <time>2022-11-19T10:17:28Z</time>
      </trkpt>
      <trkpt lat="48.69102" lon="1.92379">
        <ele>160</ele>
        <time>2022-11-19T10:17:30Z</time>
      </trkpt>
      <trkpt lat="48.691" lon="1.92383">
        <ele>160</ele>
        <time>2022-11-19T10:17:32Z</time>
      </trkpt>
      <trkpt lat="48.69098" lon="1.92387">
        <ele>160</ele>
        <time>2022-11-19T10:17:34Z</time>
      </trkpt>
      <trkpt lat="48.69097" lon="1.9239">
        <ele>160</ele>
        <time>2022-11-19T10:17:36Z</time>
      </trkpt>
      <trkpt lat="48.69095" lon="1.92393">
        <ele>160</ele>
        <time>2022-11-19T10:17:38Z</time>
      </trkpt>
      <trkpt lat="48.69094" lon="1.92397">
        <ele>160</ele>
        <time>2022-11-19T10:17:40Z</time>
      </trkpt>
      <trkpt lat="48.69093" lon="1.924">
        <ele>160</ele>
        <time>2022-11-19T10:17:42Z</time>
      </trkpt>
      <trkpt lat="48.69092" lon="1.92405">
        <ele>161</ele>
        <time>2022-11-19T10:17:44Z</time>
      </trkpt>
      <trkpt lat="48.6909" lon="1.92409">
        <ele>161</ele>
        <time>2022-11-19T10:17:46Z</time>
      </trkpt>
      <trkpt lat="48.69089" lon="1.92412">
        <ele>161</ele>
        <time>2022-11-19T10:17:48Z</time>
      </trkpt>
      <trkpt lat="48.69088" lon="1.92416">
        <ele>161</ele>
        <time>2022-11-19T10:17:50Z</time>
      </trkpt>
      <trkpt lat="48.69087" lon="1.9242">
        <ele>161</ele>
        <time>2022-11-19T10:17:52Z</time>
      </trkpt>
      <trkpt lat="48.69086" lon="1.92425">
        <ele>162</ele>
        <time>2022-11-19T10:17:54Z</time>
      </trkpt>
      <trkpt lat="48.69085" lon="1.92428">
        <ele>162</ele>
        <time>2022-11-19T10:17:56Z</time>
      </trkpt>
      <trkpt lat="48.69084" lon="1.92432">
        <ele>163</ele>
        <time>2022-11-19T10:17:58Z</time>
      </trkpt>
      <trkpt lat="48.69083" lon="1.92436">
        <ele>163</ele>
        <time>2022-11-19T10:18:00Z</time>
      </trkpt>
      <trkpt lat="48.69082" lon="1.9244">
        <ele>163</ele>
        <time>2022-11-19T10:18:02Z</time>
      </trkpt>
      <trkpt lat="48.69082" lon="1.92444">
        <ele>164</ele>
        <time>2022-11-19T10:18:04Z</time>
      </trkpt>
      <trkpt lat="48.6908" lon="1.92448">
        <ele>164</ele>
        <time>2022-11-19T10:18:06Z</time>
      </trkpt>
      <trkpt lat="48.6908" lon="1.92451">
        <ele>165</ele>
        <time>2022-11-19T10:18:08Z</time>
      </trkpt>
      <trkpt lat="48.6908" lon="1.92455">
        <ele>165</ele>
        <time>2022-11-19T10:18:10Z</time>
      </trkpt>
      <trkpt lat="48.69079" lon="1.92459">
        <ele>166</ele>
        <time>2022-11-19T10:18:12Z</time>
      </trkpt>
      <trkpt lat="48.69078" lon="1.92462">
        <ele>166</ele>
        <time>2022-11-19T10:18:14Z</time>
      </trkpt>
      <trkpt lat="48.69078" lon="1.92466">
        <ele>167</ele>
        <time>2022-11-19T10:18:16Z</time>
      </trkpt>
      <trkpt lat="48.69077" lon="1.9247">
        <ele>167</ele>
        <time>2022-11-19T10:18:18Z</time>
      </trkpt>
      <trkpt lat="48.69076" lon="1.92474">
        <ele>167</ele>
        <time>2022-11-19T10:18:20Z</time>
      </trkpt>
      <trkpt lat="48.69076" lon="1.92478">
        <ele>167</ele>
        <time>2022-11-19T10:18:22Z</time>
      </trkpt>
      <trkpt lat="48.69075" lon="1.92482">
        <ele>168</ele>
        <time>2022-11-19T10:18:24Z</time>
      </trkpt>
      <trkpt lat="48.69075" lon="1.92486">
        <ele>168</ele>
        <time>2022-11-19T10:18:26Z</time>
      </trkpt>
      <trkpt lat="48.69074" lon="1.9249">
        <ele>169</ele>
        <time>2022-11-19T10:18:28Z</time>
      </trkpt>
      <trkpt lat="48.69072" lon="1.92494">
        <ele>169</ele>
        <time>2022-11-19T10:18:30Z</time>
      </trkpt>
      <trkpt lat="48.6907" lon="1.92497">
        <ele>169</ele>
        <time>2022-11-19T10:18:32Z</time>
      </trkpt>
      <trkpt lat="48.69069" lon="1.92501">
        <ele>169</ele>
        <time>2022-11-19T10:18:34Z</time>
      </trkpt>
      <trkpt lat="48.69068" lon="1.92505">
        <ele>169</ele>
        <time>2022-11-19T10:18:36Z</time>
      </trkpt>
      <trkpt lat="48.69066" lon="1.92506">
        <ele>169</ele>
        <time>2022-11-19T10:18:37Z</time>
      </trkpt>
      <trkpt lat="48.69064" lon="1.92508">
        <ele>169</ele>
        <time>2022-11-19T10:18:38Z</time>
      </trkpt>
      <trkpt lat="48.69063" lon="1.92513">
        <ele>168</ele>
        <time>2022-11-19T10:18:40Z</time>
      </trkpt>
      <trkpt lat="48.69062" lon="1.92517">
        <ele>168</ele>
        <time>2022-11-19T10:18:42Z</time>
      </trkpt>
      <trkpt lat="48.69061" lon="1.92521">
        <ele>168</ele>
        <time>2022-11-19T10:18:44Z</time>
      </trkpt>
      <trkpt lat="48.69059" lon="1.92525">
        <ele>168</ele>
        <time>2022-11-19T10:18:46Z</time>
      </trkpt>
      <trkpt lat="48.69057" lon="1.92529">
        <ele>169</ele>
        <time>2022-11-19T10:18:48Z</time>
      </trkpt>
      <trkpt lat="48.69055" lon="1.92532">
        <ele>168</ele>
        <time>2022-11-19T10:18:50Z</time>
      </trkpt>
      <trkpt lat="48.69054" lon="1.92536">
        <ele>169</ele>
        <time>2022-11-19T10:18:52Z</time>
      </trkpt>
      <trkpt lat="48.69053" lon="1.92538">
        <ele>169</ele>
        <time>2022-11-19T10:18:54Z</time>
      </trkpt>
      <trkpt lat="48.6905" lon="1.92542">
        <ele>168</ele>
        <time>2022-11-19T10:18:56Z</time>
      </trkpt>
      <trkpt lat="48.69048" lon="1.92546">
        <ele>168</ele>
        <time>2022-11-19T10:18:58Z</time>
      </trkpt>
      <trkpt lat="48.69047" lon="1.92548">
        <ele>169</ele>
        <time>2022-11-19T10:18:59Z</time>
      </trkpt>
      <trkpt lat="48.69045" lon="1.92551">
        <ele>169</ele>
        <time>2022-11-19T10:19:01Z</time>
      </trkpt>
      <trkpt lat="48.69045" lon="1.92555">
        <ele>169</ele>
        <time>2022-11-19T10:19:03Z</time>
      </trkpt>
      <trkpt lat="48.69044" lon="1.92559">
        <ele>169</ele>
        <time>2022-11-19T10:19:05Z</time>
      </trkpt>
      <trkpt lat="48.69043" lon="1.92563">
        <ele>170</ele>
        <time>2022-11-19T10:19:07Z</time>
      </trkpt>
      <trkpt lat="48.69042" lon="1.92566">
        <ele>170</ele>
        <time>2022-11-19T10:19:09Z</time>
      </trkpt>
      <trkpt lat="48.69042" lon="1.92569">
        <ele>170</ele>
        <time>2022-11-19T10:19:11Z</time>
      </trkpt>
      <trkpt lat="48.69042" lon="1.92573">
        <ele>171</ele>
        <time>2022-11-19T10:19:13Z</time>
      </trkpt>
      <trkpt lat="48.69041" lon="1.92578">
        <ele>171</ele>
        <time>2022-11-19T10:19:15Z</time>
      </trkpt>
      <trkpt lat="48.69041" lon="1.92582">
        <ele>171</ele>
        <time>2022-11-19T10:19:17Z</time>
      </trkpt>
      <trkpt lat="48.69041" lon="1.92586">
        <ele>172</ele>
        <time>2022-11-19T10:19:19Z</time>
      </trkpt>
      <trkpt lat="48.69041" lon="1.9259">
        <ele>172</ele>
        <time>2022-11-19T10:19:21Z</time>
      </trkpt>
      <trkpt lat="48.69042" lon="1.92593">
        <ele>172</ele>
        <time>2022-11-19T10:19:23Z</time>
      </trkpt>
      <trkpt lat="48.69043" lon="1.92597">
        <ele>172</ele>
        <time>2022-11-19T10:19:25Z</time>
      </trkpt>
      <trkpt lat="48.69044" lon="1.926">
        <ele>172</ele>
        <time>2022-11-19T10:19:27Z</time>
      </trkpt>
      <trkpt lat="48.69045" lon="1.92603">
        <ele>172</ele>
        <time>2022-11-19T10:19:30Z</time>
      </trkpt>
      <trkpt lat="48.69047" lon="1.92605">
        <ele>172</ele>
        <time>2022-11-19T10:19:32Z</time>
      </trkpt>
      <trkpt lat="48.69048" lon="1.92608">
        <ele>172</ele>
        <time>2022-11-19T10:19:34Z</time>
      </trkpt>
      <trkpt lat="48.6905" lon="1.92611">
        <ele>172</ele>
        <time>2022-11-19T10:19:36Z</time>
      </trkpt>
      <trkpt lat="48.69052" lon="1.92613">
        <ele>172</ele>
        <time>2022-11-19T10:19:38Z</time>
      </trkpt>
      <trkpt lat="48.69054" lon="1.92614">
        <ele>171</ele>
        <time>2022-11-19T10:19:40Z</time>
      </trkpt>
      <trkpt lat="48.69056" lon="1.92617">
        <ele>171</ele>
        <time>2022-11-19T10:19:43Z</time>
      </trkpt>
      <trkpt lat="48.69058" lon="1.92618">
        <ele>171</ele>
        <time>2022-11-19T10:19:45Z</time>
      </trkpt>
      <trkpt lat="48.6906" lon="1.9262">
        <ele>171</ele>
        <time>2022-11-19T10:19:47Z</time>
      </trkpt>
      <trkpt lat="48.69062" lon="1.92622">
        <ele>170</ele>
        <time>2022-11-19T10:19:49Z</time>
      </trkpt>
      <trkpt lat="48.69064" lon="1.92624">
        <ele>170</ele>
        <time>2022-11-19T10:19:51Z</time>
      </trkpt>
      <trkpt lat="48.69066" lon="1.92625">
        <ele>170</ele>
        <time>2022-11-19T10:19:53Z</time>
      </trkpt>
      <trkpt lat="48.69068" lon="1.92625">
        <ele>170</ele>
        <time>2022-11-19T10:19:55Z</time>
      </trkpt>
      <trkpt lat="48.6907" lon="1.92626">
        <ele>170</ele>
        <time>2022-11-19T10:19:57Z</time>
      </trkpt>
      <trkpt lat="48.69073" lon="1.92627">
        <ele>170</ele>
        <time>2022-11-19T10:19:59Z</time>
      </trkpt>
      <trkpt lat="48.69075" lon="1.92628">
        <ele>170</ele>
        <time>2022-11-19T10:20:01Z</time>
      </trkpt>
      <trkpt lat="48.69077" lon="1.9263">
        <ele>170</ele>
        <time>2022-11-19T10:20:03Z</time>
      </trkpt>
      <trkpt lat="48.69079" lon="1.92631">
        <ele>170</ele>
        <time>2022-11-19T10:20:05Z</time>
      </trkpt>
      <trkpt lat="48.69081" lon="1.92632">
        <ele>170</ele>
        <time>2022-11-19T10:20:07Z</time>
      </trkpt>
      <trkpt lat="48.69083" lon="1.92634">
        <ele>170</ele>
        <time>2022-11-19T10:20:09Z</time>
      </trkpt>
      <trkpt lat="48.69085" lon="1.92635">
        <ele>170</ele>
        <time>2022-11-19T10:20:11Z</time>
      </trkpt>
      <trkpt lat="48.69087" lon="1.92637">
        <ele>171</ele>
        <time>2022-11-19T10:20:13Z</time>
      </trkpt>
      <trkpt lat="48.6909" lon="1.92639">
        <ele>171</ele>
        <time>2022-11-19T10:20:15Z</time>
      </trkpt>
      <trkpt lat="48.69093" lon="1.92641">
        <ele>170</ele>
        <time>2022-11-19T10:20:17Z</time>
      </trkpt>
      <trkpt lat="48.69095" lon="1.92642">
        <ele>170</ele>
        <time>2022-11-19T10:20:19Z</time>
      </trkpt>
      <trkpt lat="48.69097" lon="1.92644">
        <ele>170</ele>
        <time>2022-11-19T10:20:21Z</time>
      </trkpt>
      <trkpt lat="48.691" lon="1.92646">
        <ele>170</ele>
        <time>2022-11-19T10:20:23Z</time>
      </trkpt>
      <trkpt lat="48.69102" lon="1.92648">
        <ele>170</ele>
        <time>2022-11-19T10:20:25Z</time>
      </trkpt>
      <trkpt lat="48.69105" lon="1.9265">
        <ele>171</ele>
        <time>2022-11-19T10:20:27Z</time>
      </trkpt>
      <trkpt lat="48.69107" lon="1.92652">
        <ele>170</ele>
        <time>2022-11-19T10:20:29Z</time>
      </trkpt>
      <trkpt lat="48.6911" lon="1.92653">
        <ele>170</ele>
        <time>2022-11-19T10:20:31Z</time>
      </trkpt>
      <trkpt lat="48.69112" lon="1.92654">
        <ele>171</ele>
        <time>2022-11-19T10:20:33Z</time>
      </trkpt>
      <trkpt lat="48.69115" lon="1.92655">
        <ele>171</ele>
        <time>2022-11-19T10:20:36Z</time>
      </trkpt>
      <trkpt lat="48.69117" lon="1.92658">
        <ele>171</ele>
        <time>2022-11-19T10:20:38Z</time>
      </trkpt>
      <trkpt lat="48.69119" lon="1.9266">
        <ele>171</ele>
        <time>2022-11-19T10:20:40Z</time>
      </trkpt>
      <trkpt lat="48.6912" lon="1.92662">
        <ele>170</ele>
        <time>2022-11-19T10:20:42Z</time>
      </trkpt>
      <trkpt lat="48.69123" lon="1.92664">
        <ele>170</ele>
        <time>2022-11-19T10:20:44Z</time>
      </trkpt>
      <trkpt lat="48.69126" lon="1.92665">
        <ele>170</ele>
        <time>2022-11-19T10:20:46Z</time>
      </trkpt>
      <trkpt lat="48.69128" lon="1.92667">
        <ele>170</ele>
        <time>2022-11-19T10:20:48Z</time>
      </trkpt>
      <trkpt lat="48.69131" lon="1.92669">
        <ele>170</ele>
        <time>2022-11-19T10:20:50Z</time>
      </trkpt>
      <trkpt lat="48.69134" lon="1.9267">
        <ele>170</ele>
        <time>2022-11-19T10:20:52Z</time>
      </trkpt>
      <trkpt lat="48.69136" lon="1.92671">
        <ele>170</ele>
        <time>2022-11-19T10:20:54Z</time>
      </trkpt>
      <trkpt lat="48.69139" lon="1.92673">
        <ele>171</ele>
        <time>2022-11-19T10:20:56Z</time>
      </trkpt>
      <trkpt lat="48.69141" lon="1.92675">
        <ele>171</ele>
        <time>2022-11-19T10:20:58Z</time>
      </trkpt>
      <trkpt lat="48.69143" lon="1.92677">
        <ele>171</ele>
        <time>2022-11-19T10:21:00Z</time>
      </trkpt>
      <trkpt lat="48.69146" lon="1.92679">
        <ele>171</ele>
        <time>2022-11-19T10:21:02Z</time>
      </trkpt>
      <trkpt lat="48.69148" lon="1.9268">
        <ele>171</ele>
        <time>2022-11-19T10:21:04Z</time>
      </trkpt>
      <trkpt lat="48.6915" lon="1.92682">
        <ele>172</ele>
        <time>2022-11-19T10:21:06Z</time>
      </trkpt>
      <trkpt lat="48.69152" lon="1.92684">
        <ele>172</ele>
        <time>2022-11-19T10:21:08Z</time>
      </trkpt>
      <trkpt lat="48.69153" lon="1.92686">
        <ele>172</ele>
        <time>2022-11-19T10:21:09Z</time>
      </trkpt>
      <trkpt lat="48.69156" lon="1.9269">
        <ele>172</ele>
        <time>2022-11-19T10:21:11Z</time>
      </trkpt>
      <trkpt lat="48.69157" lon="1.92693">
        <ele>172</ele>
        <time>2022-11-19T10:21:13Z</time>
      </trkpt>
      <trkpt lat="48.6916" lon="1.92697">
        <ele>172</ele>
        <time>2022-11-19T10:21:15Z</time>
      </trkpt>
      <trkpt lat="48.69161" lon="1.92701">
        <ele>173</ele>
        <time>2022-11-19T10:21:17Z</time>
      </trkpt>
      <trkpt lat="48.69163" lon="1.92704">
        <ele>173</ele>
        <time>2022-11-19T10:21:19Z</time>
      </trkpt>
      <trkpt lat="48.69164" lon="1.92709">
        <ele>173</ele>
        <time>2022-11-19T10:21:21Z</time>
      </trkpt>
      <trkpt lat="48.69165" lon="1.92712">
        <ele>173</ele>
        <time>2022-11-19T10:21:23Z</time>
      </trkpt>
      <trkpt lat="48.69167" lon="1.92716">
        <ele>173</ele>
        <time>2022-11-19T10:21:25Z</time>
      </trkpt>
      <trkpt lat="48.69168" lon="1.92719">
        <ele>173</ele>
        <time>2022-11-19T10:21:27Z</time>
      </trkpt>
      <trkpt lat="48.69169" lon="1.92722">
        <ele>173</ele>
        <time>2022-11-19T10:21:29Z</time>
      </trkpt>
      <trkpt lat="48.6917" lon="1.92725">
        <ele>173</ele>
        <time>2022-11-19T10:21:31Z</time>
      </trkpt>
      <trkpt lat="48.69171" lon="1.92729">
        <ele>173</ele>
        <time>2022-11-19T10:21:33Z</time>
      </trkpt>
      <trkpt lat="48.69173" lon="1.92733">
        <ele>173</ele>
        <time>2022-11-19T10:21:35Z</time>
      </trkpt>
      <trkpt lat="48.69175" lon="1.92737">
        <ele>173</ele>
        <time>2022-11-19T10:21:37Z</time>
      </trkpt>
      <trkpt lat="48.69177" lon="1.92741">
        <ele>173</ele>
        <time>2022-11-19T10:21:39Z</time>
      </trkpt>
      <trkpt lat="48.69178" lon="1.92745">
        <ele>173</ele>
        <time>2022-11-19T10:21:41Z</time>
      </trkpt>
      <trkpt lat="48.69179" lon="1.92749">
        <ele>173</ele>
        <time>2022-11-19T10:21:43Z</time>
      </trkpt>
      <trkpt lat="48.69179" lon="1.92752">
        <ele>173</ele>
        <time>2022-11-19T10:21:44Z</time>
      </trkpt>
      <trkpt lat="48.69178" lon="1.92756">
        <ele>173</ele>
        <time>2022-11-19T10:21:46Z</time>
      </trkpt>
      <trkpt lat="48.69177" lon="1.92761">
        <ele>173</ele>
        <time>2022-11-19T10:21:48Z</time>
      </trkpt>
      <trkpt lat="48.69175" lon="1.92765">
        <ele>173</ele>
        <time>2022-11-19T10:21:50Z</time>
      </trkpt>
      <trkpt lat="48.69174" lon="1.92768">
        <ele>173</ele>
        <time>2022-11-19T10:21:52Z</time>
      </trkpt>
      <trkpt lat="48.69174" lon="1.92772">
        <ele>173</ele>
        <time>2022-11-19T10:21:54Z</time>
      </trkpt>
      <trkpt lat="48.69173" lon="1.92776">
        <ele>173</ele>
        <time>2022-11-19T10:21:56Z</time>
      </trkpt>
      <trkpt lat="48.69172" lon="1.9278">
        <ele>173</ele>
        <time>2022-11-19T10:21:58Z</time>
      </trkpt>
      <trkpt lat="48.6917" lon="1.92784">
        <ele>173</ele>
        <time>2022-11-19T10:22:00Z</time>
      </trkpt>
      <trkpt lat="48.69169" lon="1.92788">
        <ele>173</ele>
        <time>2022-11-19T10:22:02Z</time>
      </trkpt>
      <trkpt lat="48.69167" lon="1.92791">
        <ele>172</ele>
        <time>2022-11-19T10:22:04Z</time>
      </trkpt>
      <trkpt lat="48.69165" lon="1.92793">
        <ele>172</ele>
        <time>2022-11-19T10:22:05Z</time>
      </trkpt>
      <trkpt lat="48.69164" lon="1.92796">
        <ele>172</ele>
        <time>2022-11-19T10:22:07Z</time>
      </trkpt>
      <trkpt lat="48.69161" lon="1.92797">
        <ele>172</ele>
        <time>2022-11-19T10:22:09Z</time>
      </trkpt>
      <trkpt lat="48.6916" lon="1.928">
        <ele>172</ele>
        <time>2022-11-19T10:22:11Z</time>
      </trkpt>
      <trkpt lat="48.69158" lon="1.92804">
        <ele>172</ele>
        <time>2022-11-19T10:22:13Z</time>
      </trkpt>
      <trkpt lat="48.69158" lon="1.92807">
        <ele>172</ele>
        <time>2022-11-19T10:22:15Z</time>
      </trkpt>
      <trkpt lat="48.69157" lon="1.92811">
        <ele>171</ele>
        <time>2022-11-19T10:22:17Z</time>
      </trkpt>
      <trkpt lat="48.69156" lon="1.92814">
        <ele>171</ele>
        <time>2022-11-19T10:22:19Z</time>
      </trkpt>
      <trkpt lat="48.69155" lon="1.92817">
        <ele>171</ele>
        <time>2022-11-19T10:22:20Z</time>
      </trkpt>
      <trkpt lat="48.69153" lon="1.9282">
        <ele>171</ele>
        <time>2022-11-19T10:22:22Z</time>
      </trkpt>
      <trkpt lat="48.69152" lon="1.92825">
        <ele>171</ele>
        <time>2022-11-19T10:22:24Z</time>
      </trkpt>
      <trkpt lat="48.69151" lon="1.92829">
        <ele>171</ele>
        <time>2022-11-19T10:22:26Z</time>
      </trkpt>
      <trkpt lat="48.6915" lon="1.92833">
        <ele>172</ele>
        <time>2022-11-19T10:22:28Z</time>
      </trkpt>
      <trkpt lat="48.69148" lon="1.92836">
        <ele>172</ele>
        <time>2022-11-19T10:22:30Z</time>
      </trkpt>
      <trkpt lat="48.69146" lon="1.9284">
        <ele>171</ele>
        <time>2022-11-19T10:22:32Z</time>
      </trkpt>
      <trkpt lat="48.69143" lon="1.92843">
        <ele>171</ele>
        <time>2022-11-19T10:22:34Z</time>
      </trkpt>
      <trkpt lat="48.69142" lon="1.92845">
        <ele>171</ele>
        <time>2022-11-19T10:22:35Z</time>
      </trkpt>
      <trkpt lat="48.69139" lon="1.92848">
        <ele>172</ele>
        <time>2022-11-19T10:22:37Z</time>
      </trkpt>
      <trkpt lat="48.69138" lon="1.92851">
        <ele>172</ele>
        <time>2022-11-19T10:22:39Z</time>
      </trkpt>
      <trkpt lat="48.69136" lon="1.92853">
        <ele>172</ele>
        <time>2022-11-19T10:22:41Z</time>
      </trkpt>
      <trkpt lat="48.69133" lon="1.92855">
        <ele>172</ele>
        <time>2022-11-19T10:22:43Z</time>
      </trkpt>
      <trkpt lat="48.69131" lon="1.92858">
        <ele>172</ele>
        <time>2022-11-19T10:22:45Z</time>
      </trkpt>
      <trkpt lat="48.6913" lon="1.92861">
        <ele>172</ele>
        <time>2022-11-19T10:22:47Z</time>
      </trkpt>
      <trkpt lat="48.69129" lon="1.92864">
        <ele>172</ele>
        <time>2022-11-19T10:22:50Z</time>
      </trkpt>
      <trkpt lat="48.69128" lon="1.92867">
        <ele>172</ele>
        <time>2022-11-19T10:22:52Z</time>
      </trkpt>
      <trkpt lat="48.69127" lon="1.9287">
        <ele>173</ele>
        <time>2022-11-19T10:22:54Z</time>
      </trkpt>
      <trkpt lat="48.69125" lon="1.92874">
        <ele>173</ele>
        <time>2022-11-19T10:22:56Z</time>
      </trkpt>
      <trkpt lat="48.69123" lon="1.92877">
        <ele>174</ele>
        <time>2022-11-19T10:22:58Z</time>
      </trkpt>
      <trkpt lat="48.69122" lon="1.9288">
        <ele>174</ele>
        <time>2022-11-19T10:23:00Z</time>
      </trkpt>
      <trkpt lat="48.6912" lon="1.92884">
        <ele>174</ele>
        <time>2022-11-19T10:23:02Z</time>
      </trkpt>
      <trkpt lat="48.69118" lon="1.92887">
        <ele>174</ele>
        <time>2022-11-19T10:23:04Z</time>
      </trkpt>
      <trkpt lat="48.69117" lon="1.9289">
        <ele>174</ele>
        <time>2022-11-19T10:23:06Z</time>
      </trkpt>
      <trkpt lat="48.69114" lon="1.92893">
        <ele>175</ele>
        <time>2022-11-19T10:23:08Z</time>
      </trkpt>
      <trkpt lat="48.69111" lon="1.92896">
        <ele>175</ele>
        <time>2022-11-19T10:23:10Z</time>
      </trkpt>
      <trkpt lat="48.69109" lon="1.92899">
        <ele>175</ele>
        <time>2022-11-19T10:23:12Z</time>
      </trkpt>
      <trkpt lat="48.69107" lon="1.92902">
        <ele>174</ele>
        <time>2022-11-19T10:23:14Z</time>
      </trkpt>
      <trkpt lat="48.69105" lon="1.92905">
        <ele>174</ele>
        <time>2022-11-19T10:23:16Z</time>
      </trkpt>
      <trkpt lat="48.69104" lon="1.92909">
        <ele>174</ele>
        <time>2022-11-19T10:23:18Z</time>
      </trkpt>
      <trkpt lat="48.69103" lon="1.92912">
        <ele>174</ele>
        <time>2022-11-19T10:23:20Z</time>
      </trkpt>
      <trkpt lat="48.69102" lon="1.92915">
        <ele>174</ele>
        <time>2022-11-19T10:23:22Z</time>
      </trkpt>
      <trkpt lat="48.691" lon="1.92919">
        <ele>174</ele>
        <time>2022-11-19T10:23:24Z</time>
      </trkpt>
      <trkpt lat="48.69099" lon="1.92922">
        <ele>174</ele>
        <time>2022-11-19T10:23:26Z</time>
      </trkpt>
      <trkpt lat="48.69098" lon="1.92925">
        <ele>175</ele>
        <time>2022-11-19T10:23:28Z</time>
      </trkpt>
      <trkpt lat="48.69097" lon="1.92928">
        <ele>175</ele>
        <time>2022-11-19T10:23:30Z</time>
      </trkpt>
      <trkpt lat="48.69095" lon="1.92932">
        <ele>175</ele>
        <time>2022-11-19T10:23:32Z</time>
      </trkpt>
      <trkpt lat="48.69093" lon="1.92934">
        <ele>175</ele>
        <time>2022-11-19T10:23:34Z</time>
      </trkpt>
      <trkpt lat="48.69092" lon="1.92936">
        <ele>175</ele>
        <time>2022-11-19T10:23:36Z</time>
      </trkpt>
      <trkpt lat="48.6909" lon="1.92939">
        <ele>175</ele>
        <time>2022-11-19T10:23:38Z</time>
      </trkpt>
      <trkpt lat="48.69089" lon="1.92941">
        <ele>175</ele>
        <time>2022-11-19T10:23:40Z</time>
      </trkpt>
      <trkpt lat="48.69086" lon="1.92943">
        <ele>175</ele>
        <time>2022-11-19T10:23:42Z</time>
      </trkpt>
      <trkpt lat="48.69083" lon="1.92945">
        <ele>174</ele>
        <time>2022-11-19T10:23:44Z</time>
      </trkpt>
      <trkpt lat="48.6908" lon="1.92946">
        <ele>174</ele>
        <time>2022-11-19T10:23:46Z</time>
      </trkpt>
      <trkpt lat="48.69079" lon="1.92947">
        <ele>174</ele>
        <time>2022-11-19T10:23:48Z</time>
      </trkpt>
      <trkpt lat="48.69077" lon="1.9295">
        <ele>174</ele>
        <time>2022-11-19T10:23:51Z</time>
      </trkpt>
      <trkpt lat="48.69075" lon="1.92952">
        <ele>174</ele>
        <time>2022-11-19T10:23:53Z</time>
      </trkpt>
      <trkpt lat="48.69073" lon="1.92955">
        <ele>174</ele>
        <time>2022-11-19T10:23:56Z</time>
      </trkpt>
      <trkpt lat="48.69073" lon="1.92958">
        <ele>175</ele>
        <time>2022-11-19T10:23:58Z</time>
      </trkpt>
      <trkpt lat="48.69072" lon="1.92961">
        <ele>175</ele>
        <time>2022-11-19T10:24:00Z</time>
      </trkpt>
      <trkpt lat="48.69071" lon="1.92965">
        <ele>175</ele>
        <time>2022-11-19T10:24:03Z</time>
      </trkpt>
      <trkpt lat="48.69071" lon="1.92969">
        <ele>174</ele>
        <time>2022-11-19T10:24:05Z</time>
      </trkpt>
      <trkpt lat="48.69071" lon="1.92972">
        <ele>174</ele>
        <time>2022-11-19T10:24:07Z</time>
      </trkpt>
      <trkpt lat="48.69071" lon="1.92975">
        <ele>174</ele>
        <time>2022-11-19T10:24:09Z</time>
      </trkpt>
      <trkpt lat="48.69069" lon="1.92979">
        <ele>173</ele>
        <time>2022-11-19T10:24:11Z</time>
      </trkpt>
      <trkpt lat="48.69067" lon="1.92982">
        <ele>173</ele>
        <time>2022-11-19T10:24:13Z</time>
      </trkpt>
      <trkpt lat="48.69065" lon="1.92986">
        <ele>173</ele>
        <time>2022-11-19T10:24:15Z</time>
      </trkpt>
      <trkpt lat="48.69063" lon="1.92989">
        <ele>173</ele>
        <time>2022-11-19T10:24:17Z</time>
      </trkpt>
      <trkpt lat="48.69062" lon="1.92993">
        <ele>173</ele>
        <time>2022-11-19T10:24:19Z</time>
      </trkpt>
      <trkpt lat="48.69061" lon="1.92997">
        <ele>173</ele>
        <time>2022-11-19T10:24:21Z</time>
      </trkpt>
      <trkpt lat="48.69061" lon="1.93001">
        <ele>173</ele>
        <time>2022-11-19T10:24:23Z</time>
      </trkpt>
      <trkpt lat="48.69058" lon="1.93005">
        <ele>173</ele>
        <time>2022-11-19T10:24:25Z</time>
      </trkpt>
      <trkpt lat="48.69056" lon="1.93007">
        <ele>173</ele>
        <time>2022-11-19T10:24:26Z</time>
      </trkpt>
      <trkpt lat="48.69054" lon="1.93008">
        <ele>173</ele>
        <time>2022-11-19T10:24:27Z</time>
      </trkpt>
      <trkpt lat="48.69052" lon="1.93009">
        <ele>173</ele>
        <time>2022-11-19T10:24:28Z</time>
      </trkpt>
      <trkpt lat="48.6905" lon="1.9301">
        <ele>172</ele>
        <time>2022-11-19T10:24:29Z</time>
      </trkpt>
      <trkpt lat="48.69045" lon="1.9301">
        <ele>172</ele>
        <time>2022-11-19T10:24:32Z</time>
      </trkpt>
      <trkpt lat="48.69043" lon="1.93009">
        <ele>171</ele>
        <time>2022-11-19T10:24:33Z</time>
      </trkpt>
      <trkpt lat="48.69042" lon="1.93006">
        <ele>171</ele>
        <time>2022-11-19T10:24:35Z</time>
      </trkpt>
      <trkpt lat="48.69041" lon="1.93003">
        <ele>171</ele>
        <time>2022-11-19T10:24:37Z</time>
      </trkpt>
      <trkpt lat="48.69038" lon="1.92999">
        <ele>171</ele>
        <time>2022-11-19T10:24:39Z</time>
      </trkpt>
      <trkpt lat="48.69037" lon="1.92998">
        <ele>171</ele>
        <time>2022-11-19T10:24:40Z</time>
      </trkpt>
      <trkpt lat="48.69035" lon="1.92997">
        <ele>171</ele>
        <time>2022-11-19T10:24:42Z</time>
      </trkpt>
      <trkpt lat="48.69033" lon="1.92997">
        <ele>171</ele>
        <time>2022-11-19T10:24:44Z</time>
      </trkpt>
      <trkpt lat="48.69029" lon="1.92997">
        <ele>171</ele>
        <time>2022-11-19T10:24:46Z</time>
      </trkpt>
      <trkpt lat="48.69027" lon="1.92998">
        <ele>171</ele>
        <time>2022-11-19T10:24:47Z</time>
      </trkpt>
      <trkpt lat="48.69025" lon="1.92997">
        <ele>170</ele>
        <time>2022-11-19T10:24:48Z</time>
      </trkpt>
      <trkpt lat="48.69023" lon="1.92998">
        <ele>170</ele>
        <time>2022-11-19T10:24:49Z</time>
      </trkpt>
      <trkpt lat="48.69021" lon="1.92998">
        <ele>170</ele>
        <time>2022-11-19T10:24:50Z</time>
      </trkpt>
      <trkpt lat="48.69019" lon="1.92998">
        <ele>171</ele>
        <time>2022-11-19T10:24:52Z</time>
      </trkpt>
      <trkpt lat="48.69016" lon="1.92998">
        <ele>171</ele>
        <time>2022-11-19T10:24:55Z</time>
      </trkpt>
      <trkpt lat="48.69014" lon="1.92998">
        <ele>171</ele>
        <time>2022-11-19T10:24:56Z</time>
      </trkpt>
      <trkpt lat="48.69011" lon="1.92997">
        <ele>171</ele>
        <time>2022-11-19T10:24:58Z</time>
      </trkpt>
      <trkpt lat="48.69008" lon="1.92994">
        <ele>171</ele>
        <time>2022-11-19T10:25:00Z</time>
      </trkpt>
      <trkpt lat="48.69007" lon="1.92991">
        <ele>171</ele>
        <time>2022-11-19T10:25:02Z</time>
      </trkpt>
      <trkpt lat="48.69005" lon="1.92987">
        <ele>171</ele>
        <time>2022-11-19T10:25:04Z</time>
      </trkpt>
      <trkpt lat="48.69004" lon="1.92983">
        <ele>171</ele>
        <time>2022-11-19T10:25:06Z</time>
      </trkpt>
      <trkpt lat="48.69001" lon="1.9298">
        <ele>171</ele>
        <time>2022-11-19T10:25:08Z</time>
      </trkpt>
      <trkpt lat="48.68998" lon="1.92977">
        <ele>171</ele>
        <time>2022-11-19T10:25:10Z</time>
      </trkpt>
      <trkpt lat="48.68996" lon="1.92975">
        <ele>171</ele>
        <time>2022-11-19T10:25:12Z</time>
      </trkpt>
      <trkpt lat="48.68994" lon="1.92972">
        <ele>171</ele>
        <time>2022-11-19T10:25:14Z</time>
      </trkpt>
      <trkpt lat="48.68992" lon="1.9297">
        <ele>170</ele>
        <time>2022-11-19T10:25:17Z</time>
      </trkpt>
      <trkpt lat="48.68992" lon="1.92967">
        <ele>170</ele>
        <time>2022-11-19T10:25:22Z</time>
      </trkpt>
      <trkpt lat="48.68993" lon="1.92965">
        <ele>170</ele>
        <time>2022-11-19T10:25:28Z</time>
      </trkpt>
      <trkpt lat="48.68992" lon="1.92962">
        <ele>170</ele>
        <time>2022-11-19T10:25:33Z</time>
      </trkpt>
      <trkpt lat="48.68993" lon="1.9296">
        <ele>170</ele>
        <time>2022-11-19T10:25:52Z</time>
      </trkpt>
      <trkpt lat="48.68994" lon="1.9296">
        <ele>170</ele>
        <time>2022-11-19T10:25:55Z</time>
      </trkpt>
      <trkpt lat="48.68996" lon="1.9296">
        <ele>170</ele>
        <time>2022-11-19T10:25:59Z</time>
      </trkpt>
      <trkpt lat="48.69" lon="1.92956">
        <ele>169</ele>
        <time>2022-11-19T10:26:11Z</time>
      </trkpt>
      <trkpt lat="48.69001" lon="1.92957">
        <ele>168</ele>
        <time>2022-11-19T10:26:20Z</time>
      </trkpt>
      <trkpt lat="48.69001" lon="1.9296">
        <ele>168</ele>
        <time>2022-11-19T10:26:26Z</time>
      </trkpt>
      <trkpt lat="48.68999" lon="1.9296">
        <ele>168</ele>
        <time>2022-11-19T10:26:38Z</time>
      </trkpt>
      <trkpt lat="48.68994" lon="1.92961">
        <ele>167</ele>
        <time>2022-11-19T10:26:51Z</time>
      </trkpt>
      <trkpt lat="48.68997" lon="1.92962">
        <ele>167</ele>
        <time>2022-11-19T10:26:54Z</time>
      </trkpt>
      <trkpt lat="48.69" lon="1.92961">
        <ele>166</ele>
        <time>2022-11-19T10:26:56Z</time>
      </trkpt>
      <trkpt lat="48.68998" lon="1.92963">
        <ele>166</ele>
        <time>2022-11-19T10:27:06Z</time>
      </trkpt>
      <trkpt lat="48.68996" lon="1.92964">
        <ele>166</ele>
        <time>2022-11-19T10:27:09Z</time>
      </trkpt>
      <trkpt lat="48.68994" lon="1.92962">
        <ele>166</ele>
        <time>2022-11-19T10:27:12Z</time>
      </trkpt>
      <trkpt lat="48.68992" lon="1.92961">
        <ele>165</ele>
        <time>2022-11-19T10:27:14Z</time>
      </trkpt>
      <trkpt lat="48.68988" lon="1.92962">
        <ele>165</ele>
        <time>2022-11-19T10:27:16Z</time>
      </trkpt>
      <trkpt lat="48.68986" lon="1.92962">
        <ele>165</ele>
        <time>2022-11-19T10:27:19Z</time>
      </trkpt>
      <trkpt lat="48.68983" lon="1.92961">
        <ele>165</ele>
        <time>2022-11-19T10:27:21Z</time>
      </trkpt>
      <trkpt lat="48.68981" lon="1.9296">
        <ele>164</ele>
        <time>2022-11-19T10:27:30Z</time>
      </trkpt>
      <trkpt lat="48.6898" lon="1.92958">
        <ele>164</ele>
        <time>2022-11-19T10:27:33Z</time>
      </trkpt>
      <trkpt lat="48.68978" lon="1.92957">
        <ele>164</ele>
        <time>2022-11-19T10:27:35Z</time>
      </trkpt>
      <trkpt lat="48.68976" lon="1.92959">
        <ele>164</ele>
        <time>2022-11-19T10:27:37Z</time>
      </trkpt>
      <trkpt lat="48.68974" lon="1.92959">
        <ele>164</ele>
        <time>2022-11-19T10:27:40Z</time>
      </trkpt>
      <trkpt lat="48.68971" lon="1.92959">
        <ele>163</ele>
        <time>2022-11-19T10:27:42Z</time>
      </trkpt>
      <trkpt lat="48.68968" lon="1.92959">
        <ele>163</ele>
        <time>2022-11-19T10:27:44Z</time>
      </trkpt>
      <trkpt lat="48.68967" lon="1.92958">
        <ele>163</ele>
        <time>2022-11-19T10:27:46Z</time>
      </trkpt>
      <trkpt lat="48.68964" lon="1.92956">
        <ele>163</ele>
        <time>2022-11-19T10:27:49Z</time>
      </trkpt>
      <trkpt lat="48.68963" lon="1.92952">
        <ele>163</ele>
        <time>2022-11-19T10:27:51Z</time>
      </trkpt>
      <trkpt lat="48.68962" lon="1.92946">
        <ele>163</ele>
        <time>2022-11-19T10:27:53Z</time>
      </trkpt>
      <trkpt lat="48.68961" lon="1.92942">
        <ele>163</ele>
        <time>2022-11-19T10:27:55Z</time>
      </trkpt>
      <trkpt lat="48.6896" lon="1.92938">
        <ele>163</ele>
        <time>2022-11-19T10:27:57Z</time>
      </trkpt>
      <trkpt lat="48.68958" lon="1.92934">
        <ele>163</ele>
        <time>2022-11-19T10:27:59Z</time>
      </trkpt>
      <trkpt lat="48.68956" lon="1.92931">
        <ele>163</ele>
        <time>2022-11-19T10:28:01Z</time>
      </trkpt>
      <trkpt lat="48.68955" lon="1.92927">
        <ele>163</ele>
        <time>2022-11-19T10:28:03Z</time>
      </trkpt>
      <trkpt lat="48.68952" lon="1.92924">
        <ele>163</ele>
        <time>2022-11-19T10:28:05Z</time>
      </trkpt>
      <trkpt lat="48.6895" lon="1.92922">
        <ele>163</ele>
        <time>2022-11-19T10:28:07Z</time>
      </trkpt>
      <trkpt lat="48.68947" lon="1.9292">
        <ele>163</ele>
        <time>2022-11-19T10:28:09Z</time>
      </trkpt>
      <trkpt lat="48.68945" lon="1.92918">
        <ele>163</ele>
        <time>2022-11-19T10:28:11Z</time>
      </trkpt>
      <trkpt lat="48.68942" lon="1.92915">
        <ele>163</ele>
        <time>2022-11-19T10:28:13Z</time>
      </trkpt>
      <trkpt lat="48.68941" lon="1.92911">
        <ele>162</ele>
        <time>2022-11-19T10:28:15Z</time>
      </trkpt>
      <trkpt lat="48.68939" lon="1.92909">
        <ele>162</ele>
        <time>2022-11-19T10:28:17Z</time>
      </trkpt>
      <trkpt lat="48.68937" lon="1.92907">
        <ele>162</ele>
        <time>2022-11-19T10:28:20Z</time>
      </trkpt>
      <trkpt lat="48.68935" lon="1.92907">
        <ele>162</ele>
        <time>2022-11-19T10:28:23Z</time>
      </trkpt>
      <trkpt lat="48.68933" lon="1.92906">
        <ele>161</ele>
        <time>2022-11-19T10:28:25Z</time>
      </trkpt>
      <trkpt lat="48.6893" lon="1.92904">
        <ele>161</ele>
        <time>2022-11-19T10:28:27Z</time>
      </trkpt>
      <trkpt lat="48.68927" lon="1.92903">
        <ele>161</ele>
        <time>2022-11-19T10:28:29Z</time>
      </trkpt>
      <trkpt lat="48.68923" lon="1.92902">
        <ele>160</ele>
        <time>2022-11-19T10:28:31Z</time>
      </trkpt>
      <trkpt lat="48.68921" lon="1.92901">
        <ele>160</ele>
        <time>2022-11-19T10:28:33Z</time>
      </trkpt>
      <trkpt lat="48.68919" lon="1.92899">
        <ele>160</ele>
        <time>2022-11-19T10:28:35Z</time>
      </trkpt>
      <trkpt lat="48.68917" lon="1.92897">
        <ele>159</ele>
        <time>2022-11-19T10:28:37Z</time>
      </trkpt>
      <trkpt lat="48.68916" lon="1.92893">
        <ele>159</ele>
        <time>2022-11-19T10:28:39Z</time>
      </trkpt>
      <trkpt lat="48.68915" lon="1.9289">
        <ele>158</ele>
        <time>2022-11-19T10:28:41Z</time>
      </trkpt>
      <trkpt lat="48.68913" lon="1.92888">
        <ele>158</ele>
        <time>2022-11-19T10:28:43Z</time>
      </trkpt>
      <trkpt lat="48.68911" lon="1.92884">
        <ele>158</ele>
        <time>2022-11-19T10:28:45Z</time>
      </trkpt>
      <trkpt lat="48.68909" lon="1.9288">
        <ele>158</ele>
        <time>2022-11-19T10:28:47Z</time>
      </trkpt>
      <trkpt lat="48.68907" lon="1.92877">
        <ele>158</ele>
        <time>2022-11-19T10:28:49Z</time>
      </trkpt>
      <trkpt lat="48.68906" lon="1.92874">
        <ele>158</ele>
        <time>2022-11-19T10:28:51Z</time>
      </trkpt>
      <trkpt lat="48.68906" lon="1.9287">
        <ele>158</ele>
        <time>2022-11-19T10:28:56Z</time>
      </trkpt>
      <trkpt lat="48.68906" lon="1.92866">
        <ele>157</ele>
        <time>2022-11-19T10:28:58Z</time>
      </trkpt>
      <trkpt lat="48.68907" lon="1.92861">
        <ele>158</ele>
        <time>2022-11-19T10:29:00Z</time>
      </trkpt>
      <trkpt lat="48.68908" lon="1.92856">
        <ele>157</ele>
        <time>2022-11-19T10:29:02Z</time>
      </trkpt>
      <trkpt lat="48.68908" lon="1.92853">
        <ele>157</ele>
        <time>2022-11-19T10:29:04Z</time>
      </trkpt>
      <trkpt lat="48.68908" lon="1.92849">
        <ele>157</ele>
        <time>2022-11-19T10:29:06Z</time>
      </trkpt>
      <trkpt lat="48.68908" lon="1.92846">
        <ele>156</ele>
        <time>2022-11-19T10:29:08Z</time>
      </trkpt>
      <trkpt lat="48.68908" lon="1.92842">
        <ele>156</ele>
        <time>2022-11-19T10:29:10Z</time>
      </trkpt>
      <trkpt lat="48.68908" lon="1.92838">
        <ele>156</ele>
        <time>2022-11-19T10:29:12Z</time>
      </trkpt>
      <trkpt lat="48.68907" lon="1.92835">
        <ele>156</ele>
        <time>2022-11-19T10:29:14Z</time>
      </trkpt>
      <trkpt lat="48.68906" lon="1.92832">
        <ele>156</ele>
        <time>2022-11-19T10:29:17Z</time>
      </trkpt>
      <trkpt lat="48.68903" lon="1.92831">
        <ele>156</ele>
        <time>2022-11-19T10:29:19Z</time>
      </trkpt>
      <trkpt lat="48.68901" lon="1.92831">
        <ele>156</ele>
        <time>2022-11-19T10:29:21Z</time>
      </trkpt>
      <trkpt lat="48.68899" lon="1.92832">
        <ele>156</ele>
        <time>2022-11-19T10:29:22Z</time>
      </trkpt>
      <trkpt lat="48.68896" lon="1.92833">
        <ele>156</ele>
        <time>2022-11-19T10:29:24Z</time>
      </trkpt>
      <trkpt lat="48.68894" lon="1.92834">
        <ele>156</ele>
        <time>2022-11-19T10:29:26Z</time>
      </trkpt>
      <trkpt lat="48.68891" lon="1.92834">
        <ele>156</ele>
        <time>2022-11-19T10:29:28Z</time>
      </trkpt>
      <trkpt lat="48.68888" lon="1.92835">
        <ele>156</ele>
        <time>2022-11-19T10:29:30Z</time>
      </trkpt>
      <trkpt lat="48.68886" lon="1.92833">
        <ele>156</ele>
        <time>2022-11-19T10:29:32Z</time>
      </trkpt>
      <trkpt lat="48.68884" lon="1.92832">
        <ele>156</ele>
        <time>2022-11-19T10:29:33Z</time>
      </trkpt>
      <trkpt lat="48.68882" lon="1.92831">
        <ele>155</ele>
        <time>2022-11-19T10:29:34Z</time>
      </trkpt>
      <trkpt lat="48.68879" lon="1.92831">
        <ele>155</ele>
        <time>2022-11-19T10:29:36Z</time>
      </trkpt>
      <trkpt lat="48.68878" lon="1.92832">
        <ele>155</ele>
        <time>2022-11-19T10:29:38Z</time>
      </trkpt>
      <trkpt lat="48.68875" lon="1.92832">
        <ele>155</ele>
        <time>2022-11-19T10:29:40Z</time>
      </trkpt>
      <trkpt lat="48.68873" lon="1.92833">
        <ele>154</ele>
        <time>2022-11-19T10:29:42Z</time>
      </trkpt>
      <trkpt lat="48.68871" lon="1.92833">
        <ele>154</ele>
        <time>2022-11-19T10:29:44Z</time>
      </trkpt>
      <trkpt lat="48.68869" lon="1.92834">
        <ele>154</ele>
        <time>2022-11-19T10:29:46Z</time>
      </trkpt>
      <trkpt lat="48.68867" lon="1.92835">
        <ele>154</ele>
        <time>2022-11-19T10:29:48Z</time>
      </trkpt>
      <trkpt lat="48.68864" lon="1.92836">
        <ele>154</ele>
        <time>2022-11-19T10:29:51Z</time>
      </trkpt>
      <trkpt lat="48.68861" lon="1.92837">
        <ele>154</ele>
        <time>2022-11-19T10:29:53Z</time>
      </trkpt>
      <trkpt lat="48.68859" lon="1.92836">
        <ele>154</ele>
        <time>2022-11-19T10:29:55Z</time>
      </trkpt>
      <trkpt lat="48.68857" lon="1.92835">
        <ele>154</ele>
        <time>2022-11-19T10:29:56Z</time>
      </trkpt>
      <trkpt lat="48.68855" lon="1.92835">
        <ele>153</ele>
        <time>2022-11-19T10:29:57Z</time>
      </trkpt>
      <trkpt lat="48.68853" lon="1.92837">
        <ele>153</ele>
        <time>2022-11-19T10:30:00Z</time>
      </trkpt>
      <trkpt lat="48.68852" lon="1.9284">
        <ele>153</ele>
        <time>2022-11-19T10:30:02Z</time>
      </trkpt>
      <trkpt lat="48.68851" lon="1.92843">
        <ele>154</ele>
        <time>2022-11-19T10:30:05Z</time>
      </trkpt>
      <trkpt lat="48.6885" lon="1.92846">
        <ele>154</ele>
        <time>2022-11-19T10:30:07Z</time>
      </trkpt>
      <trkpt lat="48.6885" lon="1.92849">
        <ele>153</ele>
        <time>2022-11-19T10:30:09Z</time>
      </trkpt>
      <trkpt lat="48.68848" lon="1.92852">
        <ele>153</ele>
        <time>2022-11-19T10:30:11Z</time>
      </trkpt>
      <trkpt lat="48.68845" lon="1.92853">
        <ele>153</ele>
        <time>2022-11-19T10:30:13Z</time>
      </trkpt>
      <trkpt lat="48.68842" lon="1.92854">
        <ele>152</ele>
        <time>2022-11-19T10:30:15Z</time>
      </trkpt>
      <trkpt lat="48.68839" lon="1.92856">
        <ele>152</ele>
        <time>2022-11-19T10:30:17Z</time>
      </trkpt>
      <trkpt lat="48.68838" lon="1.92859">
        <ele>151</ele>
        <time>2022-11-19T10:30:19Z</time>
      </trkpt>
      <trkpt lat="48.68837" lon="1.92863">
        <ele>151</ele>
        <time>2022-11-19T10:30:21Z</time>
      </trkpt>
      <trkpt lat="48.68836" lon="1.92867">
        <ele>151</ele>
        <time>2022-11-19T10:30:23Z</time>
      </trkpt>
      <trkpt lat="48.68835" lon="1.92872">
        <ele>151</ele>
        <time>2022-11-19T10:30:25Z</time>
      </trkpt>
      <trkpt lat="48.68834" lon="1.92876">
        <ele>151</ele>
        <time>2022-11-19T10:30:27Z</time>
      </trkpt>
      <trkpt lat="48.68833" lon="1.9288">
        <ele>150</ele>
        <time>2022-11-19T10:30:29Z</time>
      </trkpt>
      <trkpt lat="48.68831" lon="1.92884">
        <ele>150</ele>
        <time>2022-11-19T10:30:31Z</time>
      </trkpt>
      <trkpt lat="48.68829" lon="1.92887">
        <ele>150</ele>
        <time>2022-11-19T10:30:33Z</time>
      </trkpt>
      <trkpt lat="48.68827" lon="1.9289">
        <ele>149</ele>
        <time>2022-11-19T10:30:35Z</time>
      </trkpt>
      <trkpt lat="48.68826" lon="1.92893">
        <ele>149</ele>
        <time>2022-11-19T10:30:37Z</time>
      </trkpt>
      <trkpt lat="48.68824" lon="1.92897">
        <ele>149</ele>
        <time>2022-11-19T10:30:39Z</time>
      </trkpt>
      <trkpt lat="48.68823" lon="1.92901">
        <ele>149</ele>
        <time>2022-11-19T10:30:41Z</time>
      </trkpt>
      <trkpt lat="48.68821" lon="1.92905">
        <ele>149</ele>
        <time>2022-11-19T10:30:43Z</time>
      </trkpt>
      <trkpt lat="48.6882" lon="1.92909">
        <ele>149</ele>
        <time>2022-11-19T10:30:45Z</time>
      </trkpt>
      <trkpt lat="48.6882" lon="1.92913">
        <ele>148</ele>
        <time>2022-11-19T10:30:47Z</time>
      </trkpt>
      <trkpt lat="48.68822" lon="1.92915">
        <ele>148</ele>
        <time>2022-11-19T10:30:49Z</time>
      </trkpt>
      <trkpt lat="48.68824" lon="1.92916">
        <ele>147</ele>
        <time>2022-11-19T10:30:51Z</time>
      </trkpt>
      <trkpt lat="48.68825" lon="1.92919">
        <ele>147</ele>
        <time>2022-11-19T10:30:53Z</time>
      </trkpt>
      <trkpt lat="48.68827" lon="1.92921">
        <ele>147</ele>
        <time>2022-11-19T10:30:56Z</time>
      </trkpt>
      <trkpt lat="48.68828" lon="1.92925">
        <ele>147</ele>
        <time>2022-11-19T10:30:59Z</time>
      </trkpt>
      <trkpt lat="48.68829" lon="1.92929">
        <ele>146</ele>
        <time>2022-11-19T10:31:01Z</time>
      </trkpt>
      <trkpt lat="48.68829" lon="1.92933">
        <ele>146</ele>
        <time>2022-11-19T10:31:03Z</time>
      </trkpt>
      <trkpt lat="48.68828" lon="1.92936">
        <ele>146</ele>
        <time>2022-11-19T10:31:05Z</time>
      </trkpt>
      <trkpt lat="48.68828" lon="1.92941">
        <ele>146</ele>
        <time>2022-11-19T10:31:07Z</time>
      </trkpt>
      <trkpt lat="48.68827" lon="1.92944">
        <ele>146</ele>
        <time>2022-11-19T10:31:09Z</time>
      </trkpt>
      <trkpt lat="48.68828" lon="1.92951">
        <ele>146</ele>
        <time>2022-11-19T10:31:12Z</time>
      </trkpt>
      <trkpt lat="48.68828" lon="1.92954">
        <ele>146</ele>
        <time>2022-11-19T10:31:13Z</time>
      </trkpt>
      <trkpt lat="48.68829" lon="1.92957">
        <ele>146</ele>
        <time>2022-11-19T10:31:14Z</time>
      </trkpt>
      <trkpt lat="48.6883" lon="1.9296">
        <ele>146</ele>
        <time>2022-11-19T10:31:15Z</time>
      </trkpt>
      <trkpt lat="48.68831" lon="1.92965">
        <ele>146</ele>
        <time>2022-11-19T10:31:17Z</time>
      </trkpt>
      <trkpt lat="48.6883" lon="1.92968">
        <ele>146</ele>
        <time>2022-11-19T10:31:18Z</time>
      </trkpt>
      <trkpt lat="48.6883" lon="1.9297">
        <ele>146</ele>
        <time>2022-11-19T10:31:19Z</time>
      </trkpt>
      <trkpt lat="48.68828" lon="1.92975">
        <ele>146</ele>
        <time>2022-11-19T10:31:21Z</time>
      </trkpt>
      <trkpt lat="48.68827" lon="1.92977">
        <ele>146</ele>
        <time>2022-11-19T10:31:22Z</time>
      </trkpt>
      <trkpt lat="48.68825" lon="1.92979">
        <ele>146</ele>
        <time>2022-11-19T10:31:23Z</time>
      </trkpt>
      <trkpt lat="48.68823" lon="1.9298">
        <ele>146</ele>
        <time>2022-11-19T10:31:24Z</time>
      </trkpt>
      <trkpt lat="48.68822" lon="1.92984">
        <ele>146</ele>
        <time>2022-11-19T10:31:26Z</time>
      </trkpt>
      <trkpt lat="48.68821" lon="1.92988">
        <ele>146</ele>
        <time>2022-11-19T10:31:28Z</time>
      </trkpt>
      <trkpt lat="48.68821" lon="1.92993">
        <ele>146</ele>
        <time>2022-11-19T10:31:30Z</time>
      </trkpt>
      <trkpt lat="48.68819" lon="1.92996">
        <ele>146</ele>
        <time>2022-11-19T10:31:32Z</time>
      </trkpt>
      <trkpt lat="48.68816" lon="1.92999">
        <ele>146</ele>
        <time>2022-11-19T10:31:34Z</time>
      </trkpt>
      <trkpt lat="48.68815" lon="1.93003">
        <ele>145</ele>
        <time>2022-11-19T10:31:36Z</time>
      </trkpt>
      <trkpt lat="48.68814" lon="1.93007">
        <ele>146</ele>
        <time>2022-11-19T10:31:38Z</time>
      </trkpt>
      <trkpt lat="48.68814" lon="1.93011">
        <ele>146</ele>
        <time>2022-11-19T10:31:40Z</time>
      </trkpt>
      <trkpt lat="48.68814" lon="1.93015">
        <ele>146</ele>
        <time>2022-11-19T10:31:42Z</time>
      </trkpt>
      <trkpt lat="48.68814" lon="1.9302">
        <ele>147</ele>
        <time>2022-11-19T10:31:44Z</time>
      </trkpt>
      <trkpt lat="48.68815" lon="1.93023">
        <ele>147</ele>
        <time>2022-11-19T10:31:46Z</time>
      </trkpt>
      <trkpt lat="48.68815" lon="1.93027">
        <ele>148</ele>
        <time>2022-11-19T10:31:48Z</time>
      </trkpt>
      <trkpt lat="48.68815" lon="1.9303">
        <ele>148</ele>
        <time>2022-11-19T10:31:50Z</time>
      </trkpt>
      <trkpt lat="48.68816" lon="1.93033">
        <ele>148</ele>
        <time>2022-11-19T10:31:52Z</time>
      </trkpt>
      <trkpt lat="48.68816" lon="1.93037">
        <ele>149</ele>
        <time>2022-11-19T10:31:54Z</time>
      </trkpt>
      <trkpt lat="48.68816" lon="1.9304">
        <ele>149</ele>
        <time>2022-11-19T10:31:56Z</time>
      </trkpt>
      <trkpt lat="48.68816" lon="1.93044">
        <ele>149</ele>
        <time>2022-11-19T10:31:58Z</time>
      </trkpt>
      <trkpt lat="48.68816" lon="1.93048">
        <ele>150</ele>
        <time>2022-11-19T10:32:00Z</time>
      </trkpt>
      <trkpt lat="48.68815" lon="1.93052">
        <ele>150</ele>
        <time>2022-11-19T10:32:02Z</time>
      </trkpt>
      <trkpt lat="48.68813" lon="1.93054">
        <ele>151</ele>
        <time>2022-11-19T10:32:04Z</time>
      </trkpt>
      <trkpt lat="48.68812" lon="1.93057">
        <ele>151</ele>
        <time>2022-11-19T10:32:06Z</time>
      </trkpt>
      <trkpt lat="48.68811" lon="1.9306">
        <ele>152</ele>
        <time>2022-11-19T10:32:08Z</time>
      </trkpt>
      <trkpt lat="48.68809" lon="1.93063">
        <ele>152</ele>
        <time>2022-11-19T10:32:10Z</time>
      </trkpt>
      <trkpt lat="48.68805" lon="1.93064">
        <ele>152</ele>
        <time>2022-11-19T10:32:12Z</time>
      </trkpt>
      <trkpt lat="48.68804" lon="1.93064">
        <ele>152</ele>
        <time>2022-11-19T10:32:13Z</time>
      </trkpt>
      <trkpt lat="48.68801" lon="1.93065">
        <ele>152</ele>
        <time>2022-11-19T10:32:15Z</time>
      </trkpt>
      <trkpt lat="48.68798" lon="1.93066">
        <ele>153</ele>
        <time>2022-11-19T10:32:17Z</time>
      </trkpt>
      <trkpt lat="48.68795" lon="1.93068">
        <ele>153</ele>
        <time>2022-11-19T10:32:19Z</time>
      </trkpt>
      <trkpt lat="48.68792" lon="1.9307">
        <ele>153</ele>
        <time>2022-11-19T10:32:21Z</time>
      </trkpt>
      <trkpt lat="48.6879" lon="1.93073">
        <ele>153</ele>
        <time>2022-11-19T10:32:23Z</time>
      </trkpt>
      <trkpt lat="48.68789" lon="1.93077">
        <ele>154</ele>
        <time>2022-11-19T10:32:25Z</time>
      </trkpt>
      <trkpt lat="48.68789" lon="1.93081">
        <ele>154</ele>
        <time>2022-11-19T10:32:27Z</time>
      </trkpt>
      <trkpt lat="48.68789" lon="1.93084">
        <ele>155</ele>
        <time>2022-11-19T10:32:29Z</time>
      </trkpt>
      <trkpt lat="48.6879" lon="1.93089">
        <ele>155</ele>
        <time>2022-11-19T10:32:31Z</time>
      </trkpt>
      <trkpt lat="48.6879" lon="1.93094">
        <ele>155</ele>
        <time>2022-11-19T10:32:33Z</time>
      </trkpt>
      <trkpt lat="48.68791" lon="1.93098">
        <ele>155</ele>
        <time>2022-11-19T10:32:35Z</time>
      </trkpt>
      <trkpt lat="48.68793" lon="1.93101">
        <ele>156</ele>
        <time>2022-11-19T10:32:37Z</time>
      </trkpt>
      <trkpt lat="48.68794" lon="1.93104">
        <ele>156</ele>
        <time>2022-11-19T10:32:39Z</time>
      </trkpt>
      <trkpt lat="48.68795" lon="1.93107">
        <ele>157</ele>
        <time>2022-11-19T10:32:41Z</time>
      </trkpt>
      <trkpt lat="48.68796" lon="1.93109">
        <ele>157</ele>
        <time>2022-11-19T10:32:43Z</time>
      </trkpt>
      <trkpt lat="48.68797" lon="1.93112">
        <ele>157</ele>
        <time>2022-11-19T10:32:46Z</time>
      </trkpt>
      <trkpt lat="48.68799" lon="1.93113">
        <ele>157</ele>
        <time>2022-11-19T10:32:48Z</time>
      </trkpt>
      <trkpt lat="48.68801" lon="1.93115">
        <ele>157</ele>
        <time>2022-11-19T10:32:51Z</time>
      </trkpt>
      <trkpt lat="48.68803" lon="1.93116">
        <ele>158</ele>
        <time>2022-11-19T10:32:53Z</time>
      </trkpt>
      <trkpt lat="48.68805" lon="1.93118">
        <ele>158</ele>
        <time>2022-11-19T10:32:55Z</time>
      </trkpt>
      <trkpt lat="48.68806" lon="1.93122">
        <ele>159</ele>
        <time>2022-11-19T10:32:57Z</time>
      </trkpt>
      <trkpt lat="48.68807" lon="1.93124">
        <ele>159</ele>
        <time>2022-11-19T10:32:58Z</time>
      </trkpt>
      <trkpt lat="48.68808" lon="1.93127">
        <ele>159</ele>
        <time>2022-11-19T10:32:59Z</time>
      </trkpt>
      <trkpt lat="48.68809" lon="1.93131">
        <ele>159</ele>
        <time>2022-11-19T10:33:00Z</time>
      </trkpt>
      <trkpt lat="48.68809" lon="1.93135">
        <ele>159</ele>
        <time>2022-11-19T10:33:01Z</time>
      </trkpt>
      <trkpt lat="48.68809" lon="1.93141">
        <ele>160</ele>
        <time>2022-11-19T10:33:02Z</time>
      </trkpt>
      <trkpt lat="48.68809" lon="1.93148">
        <ele>160</ele>
        <time>2022-11-19T10:33:03Z</time>
      </trkpt>
      <trkpt lat="48.68808" lon="1.93154">
        <ele>160</ele>
        <time>2022-11-19T10:33:04Z</time>
      </trkpt>
      <trkpt lat="48.68807" lon="1.93161">
        <ele>160</ele>
        <time>2022-11-19T10:33:05Z</time>
      </trkpt>
      <trkpt lat="48.68807" lon="1.93168">
        <ele>160</ele>
        <time>2022-11-19T10:33:06Z</time>
      </trkpt>
      <trkpt lat="48.68806" lon="1.93173">
        <ele>160</ele>
        <time>2022-11-19T10:33:07Z</time>
      </trkpt>
      <trkpt lat="48.68805" lon="1.93179">
        <ele>160</ele>
        <time>2022-11-19T10:33:08Z</time>
      </trkpt>
      <trkpt lat="48.68804" lon="1.93186">
        <ele>160</ele>
        <time>2022-11-19T10:33:09Z</time>
      </trkpt>
      <trkpt lat="48.68804" lon="1.93193">
        <ele>160</ele>
        <time>2022-11-19T10:33:10Z</time>
      </trkpt>
      <trkpt lat="48.68804" lon="1.932">
        <ele>160</ele>
        <time>2022-11-19T10:33:11Z</time>
      </trkpt>
      <trkpt lat="48.68805" lon="1.93207">
        <ele>159</ele>
        <time>2022-11-19T10:33:12Z</time>
      </trkpt>
      <trkpt lat="48.68805" lon="1.93213">
        <ele>159</ele>
        <time>2022-11-19T10:33:13Z</time>
      </trkpt>
      <trkpt lat="48.68806" lon="1.9322">
        <ele>159</ele>
        <time>2022-11-19T10:33:14Z</time>
      </trkpt>
      <trkpt lat="48.68807" lon="1.93225">
        <ele>159</ele>
        <time>2022-11-19T10:33:15Z</time>
      </trkpt>
      <trkpt lat="48.68807" lon="1.93231">
        <ele>159</ele>
        <time>2022-11-19T10:33:16Z</time>
      </trkpt>
      <trkpt lat="48.68808" lon="1.93235">
        <ele>159</ele>
        <time>2022-11-19T10:33:17Z</time>
      </trkpt>
      <trkpt lat="48.68809" lon="1.9324">
        <ele>159</ele>
        <time>2022-11-19T10:33:18Z</time>
      </trkpt>
      <trkpt lat="48.68809" lon="1.93244">
        <ele>159</ele>
        <time>2022-11-19T10:33:19Z</time>
      </trkpt>
      <trkpt lat="48.68808" lon="1.93248">
        <ele>159</ele>
        <time>2022-11-19T10:33:20Z</time>
      </trkpt>
      <trkpt lat="48.68808" lon="1.93256">
        <ele>159</ele>
        <time>2022-11-19T10:33:22Z</time>
      </trkpt>
      <trkpt lat="48.68809" lon="1.9326">
        <ele>159</ele>
        <time>2022-11-19T10:33:23Z</time>
      </trkpt>
      <trkpt lat="48.68807" lon="1.93268">
        <ele>159</ele>
        <time>2022-11-19T10:33:25Z</time>
      </trkpt>
      <trkpt lat="48.68808" lon="1.93271">
        <ele>159</ele>
        <time>2022-11-19T10:33:26Z</time>
      </trkpt>
      <trkpt lat="48.68808" lon="1.93275">
        <ele>159</ele>
        <time>2022-11-19T10:33:27Z</time>
      </trkpt>
      <trkpt lat="48.68808" lon="1.93279">
        <ele>159</ele>
        <time>2022-11-19T10:33:28Z</time>
      </trkpt>
      <trkpt lat="48.68807" lon="1.93283">
        <ele>159</ele>
        <time>2022-11-19T10:33:29Z</time>
      </trkpt>
      <trkpt lat="48.68808" lon="1.93286">
        <ele>159</ele>
        <time>2022-11-19T10:33:30Z</time>
      </trkpt>
      <trkpt lat="48.68808" lon="1.93291">
        <ele>160</ele>
        <time>2022-11-19T10:33:32Z</time>
      </trkpt>
      <trkpt lat="48.68809" lon="1.93296">
        <ele>160</ele>
        <time>2022-11-19T10:33:34Z</time>
      </trkpt>
      <trkpt lat="48.68809" lon="1.93299">
        <ele>160</ele>
        <time>2022-11-19T10:33:35Z</time>
      </trkpt>
      <trkpt lat="48.68809" lon="1.93302">
        <ele>160</ele>
        <time>2022-11-19T10:33:36Z</time>
      </trkpt>
      <trkpt lat="48.68808" lon="1.93308">
        <ele>160</ele>
        <time>2022-11-19T10:33:38Z</time>
      </trkpt>
      <trkpt lat="48.68807" lon="1.93312">
        <ele>161</ele>
        <time>2022-11-19T10:33:40Z</time>
      </trkpt>
      <trkpt lat="48.68807" lon="1.93315">
        <ele>161</ele>
        <time>2022-11-19T10:33:42Z</time>
      </trkpt>
      <trkpt lat="48.68807" lon="1.93319">
        <ele>161</ele>
        <time>2022-11-19T10:33:44Z</time>
      </trkpt>
      <trkpt lat="48.68807" lon="1.93323">
        <ele>162</ele>
        <time>2022-11-19T10:33:46Z</time>
      </trkpt>
      <trkpt lat="48.68808" lon="1.93327">
        <ele>163</ele>
        <time>2022-11-19T10:33:48Z</time>
      </trkpt>
      <trkpt lat="48.68808" lon="1.93331">
        <ele>163</ele>
        <time>2022-11-19T10:33:50Z</time>
      </trkpt>
      <trkpt lat="48.68807" lon="1.93335">
        <ele>164</ele>
        <time>2022-11-19T10:33:52Z</time>
      </trkpt>
      <trkpt lat="48.68806" lon="1.93339">
        <ele>164</ele>
        <time>2022-11-19T10:33:54Z</time>
      </trkpt>
      <trkpt lat="48.68806" lon="1.93342">
        <ele>164</ele>
        <time>2022-11-19T10:33:56Z</time>
      </trkpt>
      <trkpt lat="48.68805" lon="1.93345">
        <ele>164</ele>
        <time>2022-11-19T10:33:58Z</time>
      </trkpt>
      <trkpt lat="48.68803" lon="1.93348">
        <ele>164</ele>
        <time>2022-11-19T10:34:00Z</time>
      </trkpt>
      <trkpt lat="48.68802" lon="1.93352">
        <ele>165</ele>
        <time>2022-11-19T10:34:02Z</time>
      </trkpt>
      <trkpt lat="48.68801" lon="1.93356">
        <ele>165</ele>
        <time>2022-11-19T10:34:04Z</time>
      </trkpt>
      <trkpt lat="48.68801" lon="1.9336">
        <ele>165</ele>
        <time>2022-11-19T10:34:06Z</time>
      </trkpt>
      <trkpt lat="48.688" lon="1.93362">
        <ele>165</ele>
        <time>2022-11-19T10:34:08Z</time>
      </trkpt>
      <trkpt lat="48.68799" lon="1.93365">
        <ele>165</ele>
        <time>2022-11-19T10:34:10Z</time>
      </trkpt>
      <trkpt lat="48.68797" lon="1.93368">
        <ele>165</ele>
        <time>2022-11-19T10:34:12Z</time>
      </trkpt>
      <trkpt lat="48.68795" lon="1.93369">
        <ele>165</ele>
        <time>2022-11-19T10:34:13Z</time>
      </trkpt>
      <trkpt lat="48.68793" lon="1.9337">
        <ele>165</ele>
        <time>2022-11-19T10:34:14Z</time>
      </trkpt>
      <trkpt lat="48.6879" lon="1.9337">
        <ele>165</ele>
        <time>2022-11-19T10:34:16Z</time>
      </trkpt>
      <trkpt lat="48.68787" lon="1.93372">
        <ele>165</ele>
        <time>2022-11-19T10:34:18Z</time>
      </trkpt>
      <trkpt lat="48.68785" lon="1.93374">
        <ele>165</ele>
        <time>2022-11-19T10:34:20Z</time>
      </trkpt>
      <trkpt lat="48.68784" lon="1.93376">
        <ele>165</ele>
        <time>2022-11-19T10:34:22Z</time>
      </trkpt>
      <trkpt lat="48.68781" lon="1.93377">
        <ele>165</ele>
        <time>2022-11-19T10:34:24Z</time>
      </trkpt>
      <trkpt lat="48.68778" lon="1.9338">
        <ele>164</ele>
        <time>2022-11-19T10:34:26Z</time>
      </trkpt>
      <trkpt lat="48.68776" lon="1.93383">
        <ele>164</ele>
        <time>2022-11-19T10:34:28Z</time>
      </trkpt>
      <trkpt lat="48.68774" lon="1.93385">
        <ele>164</ele>
        <time>2022-11-19T10:34:30Z</time>
      </trkpt>
      <trkpt lat="48.68772" lon="1.93388">
        <ele>164</ele>
        <time>2022-11-19T10:34:32Z</time>
      </trkpt>
      <trkpt lat="48.68769" lon="1.93389">
        <ele>164</ele>
        <time>2022-11-19T10:34:34Z</time>
      </trkpt>
      <trkpt lat="48.68766" lon="1.9339">
        <ele>164</ele>
        <time>2022-11-19T10:34:36Z</time>
      </trkpt>
      <trkpt lat="48.68764" lon="1.93391">
        <ele>164</ele>
        <time>2022-11-19T10:34:38Z</time>
      </trkpt>
      <trkpt lat="48.68763" lon="1.93394">
        <ele>164</ele>
        <time>2022-11-19T10:34:40Z</time>
      </trkpt>
      <trkpt lat="48.68763" lon="1.93397">
        <ele>163</ele>
        <time>2022-11-19T10:34:45Z</time>
      </trkpt>
      <trkpt lat="48.68761" lon="1.93401">
        <ele>163</ele>
        <time>2022-11-19T10:34:47Z</time>
      </trkpt>
      <trkpt lat="48.6876" lon="1.93404">
        <ele>163</ele>
        <time>2022-11-19T10:34:49Z</time>
      </trkpt>
      <trkpt lat="48.68758" lon="1.93406">
        <ele>163</ele>
        <time>2022-11-19T10:34:51Z</time>
      </trkpt>
      <trkpt lat="48.68756" lon="1.93409">
        <ele>163</ele>
        <time>2022-11-19T10:34:54Z</time>
      </trkpt>
      <trkpt lat="48.68755" lon="1.93413">
        <ele>163</ele>
        <time>2022-11-19T10:34:56Z</time>
      </trkpt>
      <trkpt lat="48.68754" lon="1.93417">
        <ele>163</ele>
        <time>2022-11-19T10:34:58Z</time>
      </trkpt>
      <trkpt lat="48.68752" lon="1.93422">
        <ele>163</ele>
        <time>2022-11-19T10:35:00Z</time>
      </trkpt>
      <trkpt lat="48.68752" lon="1.93426">
        <ele>163</ele>
        <time>2022-11-19T10:35:02Z</time>
      </trkpt>
      <trkpt lat="48.68752" lon="1.93429">
        <ele>163</ele>
        <time>2022-11-19T10:35:04Z</time>
      </trkpt>
      <trkpt lat="48.68753" lon="1.93433">
        <ele>163</ele>
        <time>2022-11-19T10:35:06Z</time>
      </trkpt>
      <trkpt lat="48.68754" lon="1.93437">
        <ele>163</ele>
        <time>2022-11-19T10:35:08Z</time>
      </trkpt>
      <trkpt lat="48.68754" lon="1.9344">
        <ele>163</ele>
        <time>2022-11-19T10:35:09Z</time>
      </trkpt>
      <trkpt lat="48.68754" lon="1.93445">
        <ele>164</ele>
        <time>2022-11-19T10:35:11Z</time>
      </trkpt>
      <trkpt lat="48.68753" lon="1.93449">
        <ele>164</ele>
        <time>2022-11-19T10:35:13Z</time>
      </trkpt>
      <trkpt lat="48.68752" lon="1.93453">
        <ele>164</ele>
        <time>2022-11-19T10:35:15Z</time>
      </trkpt>
      <trkpt lat="48.68751" lon="1.93458">
        <ele>164</ele>
        <time>2022-11-19T10:35:17Z</time>
      </trkpt>
      <trkpt lat="48.6875" lon="1.93462">
        <ele>164</ele>
        <time>2022-11-19T10:35:19Z</time>
      </trkpt>
      <trkpt lat="48.68749" lon="1.93465">
        <ele>164</ele>
        <time>2022-11-19T10:35:21Z</time>
      </trkpt>
      <trkpt lat="48.68747" lon="1.93468">
        <ele>164</ele>
        <time>2022-11-19T10:35:23Z</time>
      </trkpt>
      <trkpt lat="48.68746" lon="1.9347">
        <ele>164</ele>
        <time>2022-11-19T10:35:25Z</time>
      </trkpt>
      <trkpt lat="48.68744" lon="1.93472">
        <ele>164</ele>
        <time>2022-11-19T10:35:27Z</time>
      </trkpt>
      <trkpt lat="48.68742" lon="1.93474">
        <ele>165</ele>
        <time>2022-11-19T10:35:29Z</time>
      </trkpt>
      <trkpt lat="48.6874" lon="1.93478">
        <ele>164</ele>
        <time>2022-11-19T10:35:31Z</time>
      </trkpt>
      <trkpt lat="48.68738" lon="1.93481">
        <ele>164</ele>
        <time>2022-11-19T10:35:33Z</time>
      </trkpt>
      <trkpt lat="48.68737" lon="1.93484">
        <ele>163</ele>
        <time>2022-11-19T10:35:35Z</time>
      </trkpt>
      <trkpt lat="48.68735" lon="1.93487">
        <ele>163</ele>
        <time>2022-11-19T10:35:37Z</time>
      </trkpt>
      <trkpt lat="48.68733" lon="1.9349">
        <ele>164</ele>
        <time>2022-11-19T10:35:39Z</time>
      </trkpt>
      <trkpt lat="48.68731" lon="1.93493">
        <ele>164</ele>
        <time>2022-11-19T10:35:41Z</time>
      </trkpt>
      <trkpt lat="48.68729" lon="1.93495">
        <ele>164</ele>
        <time>2022-11-19T10:35:43Z</time>
      </trkpt>
      <trkpt lat="48.68728" lon="1.93498">
        <ele>164</ele>
        <time>2022-11-19T10:35:45Z</time>
      </trkpt>
      <trkpt lat="48.68727" lon="1.93502">
        <ele>164</ele>
        <time>2022-11-19T10:35:47Z</time>
      </trkpt>
      <trkpt lat="48.68726" lon="1.93504">
        <ele>164</ele>
        <time>2022-11-19T10:35:49Z</time>
      </trkpt>
      <trkpt lat="48.68725" lon="1.93509">
        <ele>163</ele>
        <time>2022-11-19T10:35:51Z</time>
      </trkpt>
      <trkpt lat="48.68724" lon="1.93514">
        <ele>164</ele>
        <time>2022-11-19T10:35:53Z</time>
      </trkpt>
      <trkpt lat="48.68723" lon="1.93517">
        <ele>164</ele>
        <time>2022-11-19T10:35:54Z</time>
      </trkpt>
      <trkpt lat="48.68722" lon="1.9352">
        <ele>163</ele>
        <time>2022-11-19T10:35:55Z</time>
      </trkpt>
      <trkpt lat="48.68722" lon="1.93522">
        <ele>163</ele>
        <time>2022-11-19T10:35:56Z</time>
      </trkpt>
      <trkpt lat="48.68721" lon="1.93525">
        <ele>163</ele>
        <time>2022-11-19T10:35:57Z</time>
      </trkpt>
      <trkpt lat="48.6872" lon="1.9353">
        <ele>163</ele>
        <time>2022-11-19T10:35:59Z</time>
      </trkpt>
      <trkpt lat="48.68718" lon="1.93534">
        <ele>163</ele>
        <time>2022-11-19T10:36:01Z</time>
      </trkpt>
      <trkpt lat="48.68717" lon="1.93538">
        <ele>163</ele>
        <time>2022-11-19T10:36:03Z</time>
      </trkpt>
      <trkpt lat="48.68716" lon="1.93543">
        <ele>163</ele>
        <time>2022-11-19T10:36:05Z</time>
      </trkpt>
      <trkpt lat="48.68715" lon="1.93547">
        <ele>164</ele>
        <time>2022-11-19T10:36:07Z</time>
      </trkpt>
      <trkpt lat="48.68714" lon="1.93551">
        <ele>164</ele>
        <time>2022-11-19T10:36:09Z</time>
      </trkpt>
      <trkpt lat="48.68713" lon="1.93554">
        <ele>164</ele>
        <time>2022-11-19T10:36:11Z</time>
      </trkpt>
      <trkpt lat="48.68713" lon="1.93558">
        <ele>164</ele>
        <time>2022-11-19T10:36:13Z</time>
      </trkpt>
      <trkpt lat="48.68712" lon="1.93561">
        <ele>164</ele>
        <time>2022-11-19T10:36:15Z</time>
      </trkpt>
      <trkpt lat="48.68711" lon="1.93565">
        <ele>164</ele>
        <time>2022-11-19T10:36:17Z</time>
      </trkpt>
      <trkpt lat="48.68711" lon="1.93569">
        <ele>164</ele>
        <time>2022-11-19T10:36:19Z</time>
      </trkpt>
      <trkpt lat="48.6871" lon="1.93572">
        <ele>164</ele>
        <time>2022-11-19T10:36:21Z</time>
      </trkpt>
      <trkpt lat="48.68709" lon="1.93575">
        <ele>165</ele>
        <time>2022-11-19T10:36:23Z</time>
      </trkpt>
      <trkpt lat="48.68708" lon="1.93579">
        <ele>165</ele>
        <time>2022-11-19T10:36:25Z</time>
      </trkpt>
      <trkpt lat="48.68709" lon="1.93583">
        <ele>165</ele>
        <time>2022-11-19T10:36:27Z</time>
      </trkpt>
      <trkpt lat="48.68709" lon="1.93586">
        <ele>165</ele>
        <time>2022-11-19T10:36:29Z</time>
      </trkpt>
      <trkpt lat="48.68709" lon="1.9359">
        <ele>165</ele>
        <time>2022-11-19T10:36:31Z</time>
      </trkpt>
      <trkpt lat="48.68709" lon="1.93594">
        <ele>165</ele>
        <time>2022-11-19T10:36:33Z</time>
      </trkpt>
      <trkpt lat="48.6871" lon="1.936">
        <ele>165</ele>
        <time>2022-11-19T10:36:35Z</time>
      </trkpt>
      <trkpt lat="48.6871" lon="1.93603">
        <ele>165</ele>
        <time>2022-11-19T10:36:36Z</time>
      </trkpt>
      <trkpt lat="48.68711" lon="1.93607">
        <ele>164</ele>
        <time>2022-11-19T10:36:38Z</time>
      </trkpt>
      <trkpt lat="48.68713" lon="1.9361">
        <ele>164</ele>
        <time>2022-11-19T10:36:40Z</time>
      </trkpt>
      <trkpt lat="48.68714" lon="1.93614">
        <ele>163</ele>
        <time>2022-11-19T10:36:42Z</time>
      </trkpt>
      <trkpt lat="48.68715" lon="1.93617">
        <ele>163</ele>
        <time>2022-11-19T10:36:44Z</time>
      </trkpt>
      <trkpt lat="48.68715" lon="1.9362">
        <ele>164</ele>
        <time>2022-11-19T10:36:46Z</time>
      </trkpt>
      <trkpt lat="48.68714" lon="1.93624">
        <ele>164</ele>
        <time>2022-11-19T10:36:48Z</time>
      </trkpt>
      <trkpt lat="48.68715" lon="1.93627">
        <ele>164</ele>
        <time>2022-11-19T10:36:50Z</time>
      </trkpt>
      <trkpt lat="48.68716" lon="1.93631">
        <ele>164</ele>
        <time>2022-11-19T10:36:52Z</time>
      </trkpt>
      <trkpt lat="48.68717" lon="1.93635">
        <ele>164</ele>
        <time>2022-11-19T10:36:54Z</time>
      </trkpt>
      <trkpt lat="48.68716" lon="1.9364">
        <ele>164</ele>
        <time>2022-11-19T10:36:56Z</time>
      </trkpt>
      <trkpt lat="48.68713" lon="1.93643">
        <ele>164</ele>
        <time>2022-11-19T10:36:58Z</time>
      </trkpt>
      <trkpt lat="48.68711" lon="1.93643">
        <ele>163</ele>
        <time>2022-11-19T10:36:59Z</time>
      </trkpt>
      <trkpt lat="48.68709" lon="1.93643">
        <ele>163</ele>
        <time>2022-11-19T10:37:00Z</time>
      </trkpt>
      <trkpt lat="48.68705" lon="1.93643">
        <ele>163</ele>
        <time>2022-11-19T10:37:02Z</time>
      </trkpt>
      <trkpt lat="48.68703" lon="1.93642">
        <ele>162</ele>
        <time>2022-11-19T10:37:04Z</time>
      </trkpt>
      <trkpt lat="48.68701" lon="1.93642">
        <ele>161</ele>
        <time>2022-11-19T10:37:06Z</time>
      </trkpt>
      <trkpt lat="48.68698" lon="1.9364">
        <ele>161</ele>
        <time>2022-11-19T10:37:08Z</time>
      </trkpt>
      <trkpt lat="48.68695" lon="1.93639">
        <ele>160</ele>
        <time>2022-11-19T10:37:10Z</time>
      </trkpt>
      <trkpt lat="48.68693" lon="1.93637">
        <ele>161</ele>
        <time>2022-11-19T10:37:12Z</time>
      </trkpt>
      <trkpt lat="48.68692" lon="1.93635">
        <ele>161</ele>
        <time>2022-11-19T10:37:13Z</time>
      </trkpt>
      <trkpt lat="48.68688" lon="1.93633">
        <ele>161</ele>
        <time>2022-11-19T10:37:15Z</time>
      </trkpt>
      <trkpt lat="48.68687" lon="1.93631">
        <ele>160</ele>
        <time>2022-11-19T10:37:17Z</time>
      </trkpt>
      <trkpt lat="48.68685" lon="1.93629">
        <ele>160</ele>
        <time>2022-11-19T10:37:19Z</time>
      </trkpt>
      <trkpt lat="48.68682" lon="1.93627">
        <ele>160</ele>
        <time>2022-11-19T10:37:21Z</time>
      </trkpt>
      <trkpt lat="48.6868" lon="1.93624">
        <ele>160</ele>
        <time>2022-11-19T10:37:23Z</time>
      </trkpt>
      <trkpt lat="48.68678" lon="1.93623">
        <ele>160</ele>
        <time>2022-11-19T10:37:24Z</time>
      </trkpt>
      <trkpt lat="48.68676" lon="1.93622">
        <ele>160</ele>
        <time>2022-11-19T10:37:25Z</time>
      </trkpt>
      <trkpt lat="48.68673" lon="1.9362">
        <ele>159</ele>
        <time>2022-11-19T10:37:27Z</time>
      </trkpt>
      <trkpt lat="48.68671" lon="1.93618">
        <ele>159</ele>
        <time>2022-11-19T10:37:29Z</time>
      </trkpt>
      <trkpt lat="48.68669" lon="1.93617">
        <ele>158</ele>
        <time>2022-11-19T10:37:31Z</time>
      </trkpt>
      <trkpt lat="48.68667" lon="1.93615">
        <ele>157</ele>
        <time>2022-11-19T10:37:33Z</time>
      </trkpt>
      <trkpt lat="48.68665" lon="1.93613">
        <ele>157</ele>
        <time>2022-11-19T10:37:35Z</time>
      </trkpt>
      <trkpt lat="48.68663" lon="1.9361">
        <ele>156</ele>
        <time>2022-11-19T10:37:37Z</time>
      </trkpt>
      <trkpt lat="48.6866" lon="1.93607">
        <ele>156</ele>
        <time>2022-11-19T10:37:39Z</time>
      </trkpt>
      <trkpt lat="48.68658" lon="1.93605">
        <ele>156</ele>
        <time>2022-11-19T10:37:41Z</time>
      </trkpt>
      <trkpt lat="48.68657" lon="1.93603">
        <ele>157</ele>
        <time>2022-11-19T10:37:43Z</time>
      </trkpt>
      <trkpt lat="48.68656" lon="1.936">
        <ele>157</ele>
        <time>2022-11-19T10:37:46Z</time>
      </trkpt>
      <trkpt lat="48.68654" lon="1.93597">
        <ele>156</ele>
        <time>2022-11-19T10:37:49Z</time>
      </trkpt>
      <trkpt lat="48.68653" lon="1.93595">
        <ele>156</ele>
        <time>2022-11-19T10:37:51Z</time>
      </trkpt>
      <trkpt lat="48.68652" lon="1.93592">
        <ele>156</ele>
        <time>2022-11-19T10:37:53Z</time>
      </trkpt>
      <trkpt lat="48.68651" lon="1.93589">
        <ele>155</ele>
        <time>2022-11-19T10:37:55Z</time>
      </trkpt>
      <trkpt lat="48.68649" lon="1.93585">
        <ele>155</ele>
        <time>2022-11-19T10:37:57Z</time>
      </trkpt>
      <trkpt lat="48.68648" lon="1.93581">
        <ele>154</ele>
        <time>2022-11-19T10:37:59Z</time>
      </trkpt>
      <trkpt lat="48.68646" lon="1.93578">
        <ele>154</ele>
        <time>2022-11-19T10:38:01Z</time>
      </trkpt>
      <trkpt lat="48.68645" lon="1.93574">
        <ele>154</ele>
        <time>2022-11-19T10:38:03Z</time>
      </trkpt>
      <trkpt lat="48.68644" lon="1.93571">
        <ele>154</ele>
        <time>2022-11-19T10:38:06Z</time>
      </trkpt>
      <trkpt lat="48.68642" lon="1.9357">
        <ele>154</ele>
        <time>2022-11-19T10:38:08Z</time>
      </trkpt>
      <trkpt lat="48.6864" lon="1.93566">
        <ele>153</ele>
        <time>2022-11-19T10:38:10Z</time>
      </trkpt>
      <trkpt lat="48.68638" lon="1.93563">
        <ele>153</ele>
        <time>2022-11-19T10:38:12Z</time>
      </trkpt>
      <trkpt lat="48.68636" lon="1.93561">
        <ele>153</ele>
        <time>2022-11-19T10:38:14Z</time>
      </trkpt>
      <trkpt lat="48.68634" lon="1.93558">
        <ele>153</ele>
        <time>2022-11-19T10:38:16Z</time>
      </trkpt>
      <trkpt lat="48.68633" lon="1.93556">
        <ele>152</ele>
        <time>2022-11-19T10:38:18Z</time>
      </trkpt>
      <trkpt lat="48.68632" lon="1.93552">
        <ele>152</ele>
        <time>2022-11-19T10:38:20Z</time>
      </trkpt>
      <trkpt lat="48.6863" lon="1.93549">
        <ele>152</ele>
        <time>2022-11-19T10:38:23Z</time>
      </trkpt>
      <trkpt lat="48.68629" lon="1.93546">
        <ele>152</ele>
        <time>2022-11-19T10:38:25Z</time>
      </trkpt>
      <trkpt lat="48.68627" lon="1.93543">
        <ele>152</ele>
        <time>2022-11-19T10:38:27Z</time>
      </trkpt>
      <trkpt lat="48.68626" lon="1.93541">
        <ele>152</ele>
        <time>2022-11-19T10:38:29Z</time>
      </trkpt>
      <trkpt lat="48.68624" lon="1.93539">
        <ele>151</ele>
        <time>2022-11-19T10:38:31Z</time>
      </trkpt>
      <trkpt lat="48.68623" lon="1.93536">
        <ele>151</ele>
        <time>2022-11-19T10:38:33Z</time>
      </trkpt>
      <trkpt lat="48.68622" lon="1.93532">
        <ele>151</ele>
        <time>2022-11-19T10:38:35Z</time>
      </trkpt>
      <trkpt lat="48.68621" lon="1.93527">
        <ele>151</ele>
        <time>2022-11-19T10:38:37Z</time>
      </trkpt>
      <trkpt lat="48.6862" lon="1.93523">
        <ele>150</ele>
        <time>2022-11-19T10:38:39Z</time>
      </trkpt>
      <trkpt lat="48.6862" lon="1.9352">
        <ele>150</ele>
        <time>2022-11-19T10:38:41Z</time>
      </trkpt>
      <trkpt lat="48.68618" lon="1.93517">
        <ele>149</ele>
        <time>2022-11-19T10:38:43Z</time>
      </trkpt>
      <trkpt lat="48.68617" lon="1.93513">
        <ele>149</ele>
        <time>2022-11-19T10:38:45Z</time>
      </trkpt>
      <trkpt lat="48.68615" lon="1.9351">
        <ele>149</ele>
        <time>2022-11-19T10:38:47Z</time>
      </trkpt>
      <trkpt lat="48.68615" lon="1.93506">
        <ele>148</ele>
        <time>2022-11-19T10:38:49Z</time>
      </trkpt>
      <trkpt lat="48.68614" lon="1.93501">
        <ele>148</ele>
        <time>2022-11-19T10:38:51Z</time>
      </trkpt>
      <trkpt lat="48.68614" lon="1.93497">
        <ele>148</ele>
        <time>2022-11-19T10:38:53Z</time>
      </trkpt>
      <trkpt lat="48.68614" lon="1.93494">
        <ele>148</ele>
        <time>2022-11-19T10:38:54Z</time>
      </trkpt>
      <trkpt lat="48.68614" lon="1.93489">
        <ele>147</ele>
        <time>2022-11-19T10:38:56Z</time>
      </trkpt>
      <trkpt lat="48.68614" lon="1.93485">
        <ele>147</ele>
        <time>2022-11-19T10:38:58Z</time>
      </trkpt>
      <trkpt lat="48.68614" lon="1.93483">
        <ele>146</ele>
        <time>2022-11-19T10:39:00Z</time>
      </trkpt>
      <trkpt lat="48.68614" lon="1.93479">
        <ele>146</ele>
        <time>2022-11-19T10:39:02Z</time>
      </trkpt>
      <trkpt lat="48.68613" lon="1.93475">
        <ele>145</ele>
        <time>2022-11-19T10:39:04Z</time>
      </trkpt>
      <trkpt lat="48.68612" lon="1.93472">
        <ele>144</ele>
        <time>2022-11-19T10:39:06Z</time>
      </trkpt>
      <trkpt lat="48.6861" lon="1.93468">
        <ele>144</ele>
        <time>2022-11-19T10:39:08Z</time>
      </trkpt>
      <trkpt lat="48.6861" lon="1.93463">
        <ele>143</ele>
        <time>2022-11-19T10:39:10Z</time>
      </trkpt>
      <trkpt lat="48.68609" lon="1.9346">
        <ele>143</ele>
        <time>2022-11-19T10:39:12Z</time>
      </trkpt>
      <trkpt lat="48.68608" lon="1.93457">
        <ele>142</ele>
        <time>2022-11-19T10:39:14Z</time>
      </trkpt>
      <trkpt lat="48.68607" lon="1.93454">
        <ele>142</ele>
        <time>2022-11-19T10:39:16Z</time>
      </trkpt>
      <trkpt lat="48.68606" lon="1.93451">
        <ele>142</ele>
        <time>2022-11-19T10:39:18Z</time>
      </trkpt>
      <trkpt lat="48.68604" lon="1.93447">
        <ele>141</ele>
        <time>2022-11-19T10:39:20Z</time>
      </trkpt>
      <trkpt lat="48.68602" lon="1.93444">
        <ele>140</ele>
        <time>2022-11-19T10:39:22Z</time>
      </trkpt>
      <trkpt lat="48.686" lon="1.93441">
        <ele>140</ele>
        <time>2022-11-19T10:39:24Z</time>
      </trkpt>
      <trkpt lat="48.68597" lon="1.9344">
        <ele>140</ele>
        <time>2022-11-19T10:39:27Z</time>
      </trkpt>
      <trkpt lat="48.68596" lon="1.93442">
        <ele>139</ele>
        <time>2022-11-19T10:39:30Z</time>
      </trkpt>
      <trkpt lat="48.68595" lon="1.93445">
        <ele>139</ele>
        <time>2022-11-19T10:39:32Z</time>
      </trkpt>
      <trkpt lat="48.68595" lon="1.93448">
        <ele>139</ele>
        <time>2022-11-19T10:39:34Z</time>
      </trkpt>
      <trkpt lat="48.68594" lon="1.9345">
        <ele>139</ele>
        <time>2022-11-19T10:39:36Z</time>
      </trkpt>
      <trkpt lat="48.68594" lon="1.93454">
        <ele>138</ele>
        <time>2022-11-19T10:39:39Z</time>
      </trkpt>
      <trkpt lat="48.68591" lon="1.93459">
        <ele>138</ele>
        <time>2022-11-19T10:39:41Z</time>
      </trkpt>
      <trkpt lat="48.6859" lon="1.93462">
        <ele>137</ele>
        <time>2022-11-19T10:39:43Z</time>
      </trkpt>
      <trkpt lat="48.68588" lon="1.93464">
        <ele>137</ele>
        <time>2022-11-19T10:39:45Z</time>
      </trkpt>
      <trkpt lat="48.68586" lon="1.93467">
        <ele>137</ele>
        <time>2022-11-19T10:39:47Z</time>
      </trkpt>
      <trkpt lat="48.68583" lon="1.93469">
        <ele>136</ele>
        <time>2022-11-19T10:39:49Z</time>
      </trkpt>
      <trkpt lat="48.68582" lon="1.93471">
        <ele>136</ele>
        <time>2022-11-19T10:39:51Z</time>
      </trkpt>
      <trkpt lat="48.6858" lon="1.93473">
        <ele>136</ele>
        <time>2022-11-19T10:39:53Z</time>
      </trkpt>
      <trkpt lat="48.68579" lon="1.93476">
        <ele>136</ele>
        <time>2022-11-19T10:39:55Z</time>
      </trkpt>
      <trkpt lat="48.68578" lon="1.9348">
        <ele>135</ele>
        <time>2022-11-19T10:39:58Z</time>
      </trkpt>
      <trkpt lat="48.68577" lon="1.93483">
        <ele>135</ele>
        <time>2022-11-19T10:40:00Z</time>
      </trkpt>
      <trkpt lat="48.68575" lon="1.93486">
        <ele>135</ele>
        <time>2022-11-19T10:40:02Z</time>
      </trkpt>
      <trkpt lat="48.68574" lon="1.9349">
        <ele>135</ele>
        <time>2022-11-19T10:40:04Z</time>
      </trkpt>
      <trkpt lat="48.68572" lon="1.93493">
        <ele>135</ele>
        <time>2022-11-19T10:40:06Z</time>
      </trkpt>
      <trkpt lat="48.68571" lon="1.93496">
        <ele>135</ele>
        <time>2022-11-19T10:40:08Z</time>
      </trkpt>
      <trkpt lat="48.6857" lon="1.935">
        <ele>134</ele>
        <time>2022-11-19T10:40:10Z</time>
      </trkpt>
      <trkpt lat="48.6857" lon="1.93505">
        <ele>134</ele>
        <time>2022-11-19T10:40:12Z</time>
      </trkpt>
      <trkpt lat="48.6857" lon="1.93509">
        <ele>134</ele>
        <time>2022-11-19T10:40:14Z</time>
      </trkpt>
      <trkpt lat="48.6857" lon="1.93513">
        <ele>134</ele>
        <time>2022-11-19T10:40:16Z</time>
      </trkpt>
      <trkpt lat="48.6857" lon="1.93517">
        <ele>134</ele>
        <time>2022-11-19T10:40:18Z</time>
      </trkpt>
      <trkpt lat="48.68569" lon="1.9352">
        <ele>134</ele>
        <time>2022-11-19T10:40:20Z</time>
      </trkpt>
      <trkpt lat="48.68569" lon="1.93524">
        <ele>134</ele>
        <time>2022-11-19T10:40:22Z</time>
      </trkpt>
      <trkpt lat="48.68569" lon="1.93527">
        <ele>133</ele>
        <time>2022-11-19T10:40:24Z</time>
      </trkpt>
      <trkpt lat="48.68569" lon="1.93531">
        <ele>133</ele>
        <time>2022-11-19T10:40:26Z</time>
      </trkpt>
      <trkpt lat="48.68569" lon="1.93536">
        <ele>133</ele>
        <time>2022-11-19T10:40:28Z</time>
      </trkpt>
      <trkpt lat="48.68568" lon="1.9354">
        <ele>133</ele>
        <time>2022-11-19T10:40:30Z</time>
      </trkpt>
      <trkpt lat="48.68568" lon="1.93545">
        <ele>133</ele>
        <time>2022-11-19T10:40:32Z</time>
      </trkpt>
      <trkpt lat="48.68566" lon="1.9355">
        <ele>133</ele>
        <time>2022-11-19T10:40:34Z</time>
      </trkpt>
      <trkpt lat="48.68565" lon="1.93554">
        <ele>133</ele>
        <time>2022-11-19T10:40:36Z</time>
      </trkpt>
      <trkpt lat="48.68564" lon="1.93558">
        <ele>133</ele>
        <time>2022-11-19T10:40:38Z</time>
      </trkpt>
      <trkpt lat="48.68563" lon="1.93562">
        <ele>133</ele>
        <time>2022-11-19T10:40:40Z</time>
      </trkpt>
      <trkpt lat="48.68563" lon="1.93567">
        <ele>132</ele>
        <time>2022-11-19T10:40:42Z</time>
      </trkpt>
      <trkpt lat="48.68563" lon="1.93571">
        <ele>133</ele>
        <time>2022-11-19T10:40:44Z</time>
      </trkpt>
      <trkpt lat="48.68563" lon="1.93575">
        <ele>133</ele>
        <time>2022-11-19T10:40:46Z</time>
      </trkpt>
      <trkpt lat="48.68561" lon="1.9358">
        <ele>133</ele>
        <time>2022-11-19T10:40:48Z</time>
      </trkpt>
      <trkpt lat="48.6856" lon="1.93582">
        <ele>133</ele>
        <time>2022-11-19T10:40:49Z</time>
      </trkpt>
      <trkpt lat="48.68557" lon="1.93586">
        <ele>133</ele>
        <time>2022-11-19T10:40:51Z</time>
      </trkpt>
      <trkpt lat="48.68556" lon="1.93588">
        <ele>133</ele>
        <time>2022-11-19T10:40:52Z</time>
      </trkpt>
      <trkpt lat="48.68553" lon="1.93591">
        <ele>133</ele>
        <time>2022-11-19T10:40:54Z</time>
      </trkpt>
      <trkpt lat="48.6855" lon="1.93593">
        <ele>132</ele>
        <time>2022-11-19T10:40:56Z</time>
      </trkpt>
      <trkpt lat="48.68548" lon="1.93595">
        <ele>132</ele>
        <time>2022-11-19T10:40:57Z</time>
      </trkpt>
      <trkpt lat="48.68545" lon="1.93597">
        <ele>132</ele>
        <time>2022-11-19T10:40:59Z</time>
      </trkpt>
      <trkpt lat="48.68543" lon="1.93599">
        <ele>132</ele>
        <time>2022-11-19T10:41:01Z</time>
      </trkpt>
      <trkpt lat="48.6854" lon="1.93603">
        <ele>131</ele>
        <time>2022-11-19T10:41:03Z</time>
      </trkpt>
      <trkpt lat="48.68538" lon="1.93604">
        <ele>131</ele>
        <time>2022-11-19T10:41:04Z</time>
      </trkpt>
      <trkpt lat="48.68536" lon="1.93608">
        <ele>131</ele>
        <time>2022-11-19T10:41:06Z</time>
      </trkpt>
      <trkpt lat="48.68534" lon="1.93611">
        <ele>131</ele>
        <time>2022-11-19T10:41:08Z</time>
      </trkpt>
      <trkpt lat="48.68532" lon="1.93615">
        <ele>131</ele>
        <time>2022-11-19T10:41:10Z</time>
      </trkpt>
      <trkpt lat="48.68531" lon="1.93619">
        <ele>130</ele>
        <time>2022-11-19T10:41:12Z</time>
      </trkpt>
      <trkpt lat="48.6853" lon="1.93622">
        <ele>130</ele>
        <time>2022-11-19T10:41:13Z</time>
      </trkpt>
      <trkpt lat="48.68529" lon="1.93624">
        <ele>130</ele>
        <time>2022-11-19T10:41:14Z</time>
      </trkpt>
      <trkpt lat="48.68527" lon="1.93628">
        <ele>130</ele>
        <time>2022-11-19T10:41:16Z</time>
      </trkpt>
      <trkpt lat="48.68526" lon="1.93632">
        <ele>130</ele>
        <time>2022-11-19T10:41:18Z</time>
      </trkpt>
      <trkpt lat="48.68525" lon="1.93636">
        <ele>130</ele>
        <time>2022-11-19T10:41:20Z</time>
      </trkpt>
      <trkpt lat="48.68525" lon="1.9364">
        <ele>129</ele>
        <time>2022-11-19T10:41:22Z</time>
      </trkpt>
      <trkpt lat="48.68525" lon="1.93644">
        <ele>129</ele>
        <time>2022-11-19T10:41:24Z</time>
      </trkpt>
      <trkpt lat="48.68524" lon="1.93647">
        <ele>129</ele>
        <time>2022-11-19T10:41:26Z</time>
      </trkpt>
      <trkpt lat="48.68522" lon="1.9365">
        <ele>129</ele>
        <time>2022-11-19T10:41:28Z</time>
      </trkpt>
      <trkpt lat="48.6852" lon="1.93654">
        <ele>128</ele>
        <time>2022-11-19T10:41:30Z</time>
      </trkpt>
      <trkpt lat="48.6852" lon="1.93659">
        <ele>128</ele>
        <time>2022-11-19T10:41:32Z</time>
      </trkpt>
      <trkpt lat="48.68519" lon="1.93664">
        <ele>127</ele>
        <time>2022-11-19T10:41:34Z</time>
      </trkpt>
      <trkpt lat="48.68519" lon="1.93669">
        <ele>126</ele>
        <time>2022-11-19T10:41:36Z</time>
      </trkpt>
      <trkpt lat="48.68518" lon="1.93673">
        <ele>126</ele>
        <time>2022-11-19T10:41:38Z</time>
      </trkpt>
      <trkpt lat="48.68518" lon="1.93678">
        <ele>125</ele>
        <time>2022-11-19T10:41:40Z</time>
      </trkpt>
      <trkpt lat="48.68517" lon="1.93682">
        <ele>124</ele>
        <time>2022-11-19T10:41:42Z</time>
      </trkpt>
      <trkpt lat="48.68516" lon="1.93685">
        <ele>124</ele>
        <time>2022-11-19T10:41:43Z</time>
      </trkpt>
      <trkpt lat="48.68516" lon="1.9369">
        <ele>124</ele>
        <time>2022-11-19T10:41:45Z</time>
      </trkpt>
      <trkpt lat="48.68515" lon="1.93692">
        <ele>123</ele>
        <time>2022-11-19T10:41:46Z</time>
      </trkpt>
      <trkpt lat="48.68514" lon="1.93695">
        <ele>123</ele>
        <time>2022-11-19T10:41:47Z</time>
      </trkpt>
      <trkpt lat="48.68513" lon="1.93697">
        <ele>123</ele>
        <time>2022-11-19T10:41:48Z</time>
      </trkpt>
      <trkpt lat="48.68512" lon="1.93702">
        <ele>123</ele>
        <time>2022-11-19T10:41:50Z</time>
      </trkpt>
      <trkpt lat="48.68511" lon="1.93706">
        <ele>122</ele>
        <time>2022-11-19T10:41:52Z</time>
      </trkpt>
      <trkpt lat="48.6851" lon="1.9371">
        <ele>122</ele>
        <time>2022-11-19T10:41:54Z</time>
      </trkpt>
      <trkpt lat="48.68509" lon="1.93714">
        <ele>122</ele>
        <time>2022-11-19T10:41:56Z</time>
      </trkpt>
      <trkpt lat="48.68509" lon="1.93718">
        <ele>122</ele>
        <time>2022-11-19T10:41:58Z</time>
      </trkpt>
      <trkpt lat="48.68508" lon="1.93722">
        <ele>122</ele>
        <time>2022-11-19T10:42:00Z</time>
      </trkpt>
      <trkpt lat="48.68508" lon="1.93726">
        <ele>122</ele>
        <time>2022-11-19T10:42:02Z</time>
      </trkpt>
      <trkpt lat="48.68506" lon="1.9373">
        <ele>122</ele>
        <time>2022-11-19T10:42:04Z</time>
      </trkpt>
      <trkpt lat="48.68505" lon="1.93733">
        <ele>122</ele>
        <time>2022-11-19T10:42:05Z</time>
      </trkpt>
      <trkpt lat="48.68505" lon="1.93736">
        <ele>122</ele>
        <time>2022-11-19T10:42:06Z</time>
      </trkpt>
      <trkpt lat="48.68504" lon="1.93739">
        <ele>122</ele>
        <time>2022-11-19T10:42:07Z</time>
      </trkpt>
      <trkpt lat="48.68503" lon="1.93744">
        <ele>122</ele>
        <time>2022-11-19T10:42:09Z</time>
      </trkpt>
      <trkpt lat="48.68501" lon="1.93748">
        <ele>121</ele>
        <time>2022-11-19T10:42:11Z</time>
      </trkpt>
      <trkpt lat="48.685" lon="1.93753">
        <ele>121</ele>
        <time>2022-11-19T10:42:13Z</time>
      </trkpt>
      <trkpt lat="48.685" lon="1.93758">
        <ele>121</ele>
        <time>2022-11-19T10:42:15Z</time>
      </trkpt>
      <trkpt lat="48.68499" lon="1.93763">
        <ele>121</ele>
        <time>2022-11-19T10:42:17Z</time>
      </trkpt>
      <trkpt lat="48.68498" lon="1.93768">
        <ele>121</ele>
        <time>2022-11-19T10:42:19Z</time>
      </trkpt>
      <trkpt lat="48.68498" lon="1.93773">
        <ele>121</ele>
        <time>2022-11-19T10:42:21Z</time>
      </trkpt>
      <trkpt lat="48.68498" lon="1.93777">
        <ele>121</ele>
        <time>2022-11-19T10:42:23Z</time>
      </trkpt>
      <trkpt lat="48.68498" lon="1.93782">
        <ele>120</ele>
        <time>2022-11-19T10:42:25Z</time>
      </trkpt>
      <trkpt lat="48.68497" lon="1.93787">
        <ele>121</ele>
        <time>2022-11-19T10:42:27Z</time>
      </trkpt>
      <trkpt lat="48.68497" lon="1.93792">
        <ele>121</ele>
        <time>2022-11-19T10:42:29Z</time>
      </trkpt>
      <trkpt lat="48.68495" lon="1.93796">
        <ele>121</ele>
        <time>2022-11-19T10:42:31Z</time>
      </trkpt>
      <trkpt lat="48.68494" lon="1.93799">
        <ele>121</ele>
        <time>2022-11-19T10:42:32Z</time>
      </trkpt>
      <trkpt lat="48.68493" lon="1.93803">
        <ele>121</ele>
        <time>2022-11-19T10:42:34Z</time>
      </trkpt>
      <trkpt lat="48.68492" lon="1.93807">
        <ele>121</ele>
        <time>2022-11-19T10:42:36Z</time>
      </trkpt>
      <trkpt lat="48.6849" lon="1.93812">
        <ele>121</ele>
        <time>2022-11-19T10:42:38Z</time>
      </trkpt>
      <trkpt lat="48.68488" lon="1.93816">
        <ele>121</ele>
        <time>2022-11-19T10:42:40Z</time>
      </trkpt>
      <trkpt lat="48.68487" lon="1.93818">
        <ele>121</ele>
        <time>2022-11-19T10:42:42Z</time>
      </trkpt>
      <trkpt lat="48.68485" lon="1.93822">
        <ele>121</ele>
        <time>2022-11-19T10:42:44Z</time>
      </trkpt>
      <trkpt lat="48.68483" lon="1.93825">
        <ele>121</ele>
        <time>2022-11-19T10:42:46Z</time>
      </trkpt>
      <trkpt lat="48.68481" lon="1.93828">
        <ele>121</ele>
        <time>2022-11-19T10:42:48Z</time>
      </trkpt>
      <trkpt lat="48.68479" lon="1.93831">
        <ele>121</ele>
        <time>2022-11-19T10:42:50Z</time>
      </trkpt>
      <trkpt lat="48.68477" lon="1.93834">
        <ele>122</ele>
        <time>2022-11-19T10:42:52Z</time>
      </trkpt>
      <trkpt lat="48.68476" lon="1.93837">
        <ele>122</ele>
        <time>2022-11-19T10:42:54Z</time>
      </trkpt>
      <trkpt lat="48.68474" lon="1.9384">
        <ele>122</ele>
        <time>2022-11-19T10:42:56Z</time>
      </trkpt>
      <trkpt lat="48.68471" lon="1.93842">
        <ele>122</ele>
        <time>2022-11-19T10:42:58Z</time>
      </trkpt>
      <trkpt lat="48.68468" lon="1.93846">
        <ele>123</ele>
        <time>2022-11-19T10:43:00Z</time>
      </trkpt>
      <trkpt lat="48.68467" lon="1.93847">
        <ele>123</ele>
        <time>2022-11-19T10:43:01Z</time>
      </trkpt>
      <trkpt lat="48.68465" lon="1.9385">
        <ele>123</ele>
        <time>2022-11-19T10:43:03Z</time>
      </trkpt>
      <trkpt lat="48.68462" lon="1.93852">
        <ele>123</ele>
        <time>2022-11-19T10:43:05Z</time>
      </trkpt>
      <trkpt lat="48.6846" lon="1.93854">
        <ele>123</ele>
        <time>2022-11-19T10:43:07Z</time>
      </trkpt>
      <trkpt lat="48.68457" lon="1.93858">
        <ele>123</ele>
        <time>2022-11-19T10:43:09Z</time>
      </trkpt>
      <trkpt lat="48.68455" lon="1.9386">
        <ele>123</ele>
        <time>2022-11-19T10:43:10Z</time>
      </trkpt>
      <trkpt lat="48.68453" lon="1.93861">
        <ele>124</ele>
        <time>2022-11-19T10:43:11Z</time>
      </trkpt>
      <trkpt lat="48.68451" lon="1.93863">
        <ele>123</ele>
        <time>2022-11-19T10:43:12Z</time>
      </trkpt>
      <trkpt lat="48.68449" lon="1.93866">
        <ele>124</ele>
        <time>2022-11-19T10:43:14Z</time>
      </trkpt>
      <trkpt lat="48.68446" lon="1.93869">
        <ele>124</ele>
        <time>2022-11-19T10:43:16Z</time>
      </trkpt>
      <trkpt lat="48.68444" lon="1.93873">
        <ele>124</ele>
        <time>2022-11-19T10:43:18Z</time>
      </trkpt>
      <trkpt lat="48.68442" lon="1.93876">
        <ele>123</ele>
        <time>2022-11-19T10:43:20Z</time>
      </trkpt>
      <trkpt lat="48.68441" lon="1.93879">
        <ele>124</ele>
        <time>2022-11-19T10:43:22Z</time>
      </trkpt>
      <trkpt lat="48.68439" lon="1.93883">
        <ele>123</ele>
        <time>2022-11-19T10:43:24Z</time>
      </trkpt>
      <trkpt lat="48.68438" lon="1.93887">
        <ele>123</ele>
        <time>2022-11-19T10:43:26Z</time>
      </trkpt>
      <trkpt lat="48.68436" lon="1.93892">
        <ele>123</ele>
        <time>2022-11-19T10:43:28Z</time>
      </trkpt>
      <trkpt lat="48.68435" lon="1.93896">
        <ele>123</ele>
        <time>2022-11-19T10:43:30Z</time>
      </trkpt>
      <trkpt lat="48.68434" lon="1.93899">
        <ele>123</ele>
        <time>2022-11-19T10:43:32Z</time>
      </trkpt>
      <trkpt lat="48.68433" lon="1.93903">
        <ele>123</ele>
        <time>2022-11-19T10:43:34Z</time>
      </trkpt>
      <trkpt lat="48.68432" lon="1.93906">
        <ele>123</ele>
        <time>2022-11-19T10:43:36Z</time>
      </trkpt>
      <trkpt lat="48.68432" lon="1.9391">
        <ele>123</ele>
        <time>2022-11-19T10:43:38Z</time>
      </trkpt>
      <trkpt lat="48.6843" lon="1.93913">
        <ele>123</ele>
        <time>2022-11-19T10:43:40Z</time>
      </trkpt>
      <trkpt lat="48.68428" lon="1.93916">
        <ele>123</ele>
        <time>2022-11-19T10:43:42Z</time>
      </trkpt>
      <trkpt lat="48.68427" lon="1.93918">
        <ele>123</ele>
        <time>2022-11-19T10:43:44Z</time>
      </trkpt>
      <trkpt lat="48.68426" lon="1.93921">
        <ele>124</ele>
        <time>2022-11-19T10:43:46Z</time>
      </trkpt>
      <trkpt lat="48.68424" lon="1.93924">
        <ele>124</ele>
        <time>2022-11-19T10:43:48Z</time>
      </trkpt>
      <trkpt lat="48.68422" lon="1.93928">
        <ele>124</ele>
        <time>2022-11-19T10:43:50Z</time>
      </trkpt>
      <trkpt lat="48.68421" lon="1.9393">
        <ele>124</ele>
        <time>2022-11-19T10:43:51Z</time>
      </trkpt>
      <trkpt lat="48.68418" lon="1.93933">
        <ele>124</ele>
        <time>2022-11-19T10:43:53Z</time>
      </trkpt>
      <trkpt lat="48.68415" lon="1.93936">
        <ele>124</ele>
        <time>2022-11-19T10:43:55Z</time>
      </trkpt>
      <trkpt lat="48.68413" lon="1.93937">
        <ele>124</ele>
        <time>2022-11-19T10:43:56Z</time>
      </trkpt>
      <trkpt lat="48.68411" lon="1.93938">
        <ele>124</ele>
        <time>2022-11-19T10:43:57Z</time>
      </trkpt>
      <trkpt lat="48.6841" lon="1.93939">
        <ele>124</ele>
        <time>2022-11-19T10:43:58Z</time>
      </trkpt>
      <trkpt lat="48.68408" lon="1.93941">
        <ele>124</ele>
        <time>2022-11-19T10:43:59Z</time>
      </trkpt>
      <trkpt lat="48.68406" lon="1.93942">
        <ele>124</ele>
        <time>2022-11-19T10:44:00Z</time>
      </trkpt>
      <trkpt lat="48.68403" lon="1.93944">
        <ele>124</ele>
        <time>2022-11-19T10:44:02Z</time>
      </trkpt>
      <trkpt lat="48.68402" lon="1.93946">
        <ele>124</ele>
        <time>2022-11-19T10:44:03Z</time>
      </trkpt>
      <trkpt lat="48.684" lon="1.93947">
        <ele>124</ele>
        <time>2022-11-19T10:44:04Z</time>
      </trkpt>
      <trkpt lat="48.68397" lon="1.9395">
        <ele>123</ele>
        <time>2022-11-19T10:44:06Z</time>
      </trkpt>
      <trkpt lat="48.68394" lon="1.93952">
        <ele>123</ele>
        <time>2022-11-19T10:44:08Z</time>
      </trkpt>
      <trkpt lat="48.68391" lon="1.93955">
        <ele>122</ele>
        <time>2022-11-19T10:44:10Z</time>
      </trkpt>
      <trkpt lat="48.68389" lon="1.93957">
        <ele>122</ele>
        <time>2022-11-19T10:44:12Z</time>
      </trkpt>
      <trkpt lat="48.68387" lon="1.93959">
        <ele>122</ele>
        <time>2022-11-19T10:44:14Z</time>
      </trkpt>
      <trkpt lat="48.68385" lon="1.93962">
        <ele>122</ele>
        <time>2022-11-19T10:44:16Z</time>
      </trkpt>
      <trkpt lat="48.68384" lon="1.93965">
        <ele>122</ele>
        <time>2022-11-19T10:44:18Z</time>
      </trkpt>
      <trkpt lat="48.68382" lon="1.93968">
        <ele>122</ele>
        <time>2022-11-19T10:44:20Z</time>
      </trkpt>
      <trkpt lat="48.68381" lon="1.93973">
        <ele>122</ele>
        <time>2022-11-19T10:44:22Z</time>
      </trkpt>
      <trkpt lat="48.6838" lon="1.93977">
        <ele>122</ele>
        <time>2022-11-19T10:44:24Z</time>
      </trkpt>
      <trkpt lat="48.68379" lon="1.9398">
        <ele>122</ele>
        <time>2022-11-19T10:44:25Z</time>
      </trkpt>
      <trkpt lat="48.68378" lon="1.93982">
        <ele>122</ele>
        <time>2022-11-19T10:44:26Z</time>
      </trkpt>
      <trkpt lat="48.68375" lon="1.93985">
        <ele>122</ele>
        <time>2022-11-19T10:44:28Z</time>
      </trkpt>
      <trkpt lat="48.68373" lon="1.93989">
        <ele>122</ele>
        <time>2022-11-19T10:44:30Z</time>
      </trkpt>
      <trkpt lat="48.68371" lon="1.93992">
        <ele>123</ele>
        <time>2022-11-19T10:44:32Z</time>
      </trkpt>
      <trkpt lat="48.68369" lon="1.93995">
        <ele>123</ele>
        <time>2022-11-19T10:44:34Z</time>
      </trkpt>
      <trkpt lat="48.68368" lon="1.93998">
        <ele>122</ele>
        <time>2022-11-19T10:44:36Z</time>
      </trkpt>
      <trkpt lat="48.68366" lon="1.94001">
        <ele>122</ele>
        <time>2022-11-19T10:44:38Z</time>
      </trkpt>
      <trkpt lat="48.68364" lon="1.94005">
        <ele>122</ele>
        <time>2022-11-19T10:44:40Z</time>
      </trkpt>
      <trkpt lat="48.68362" lon="1.9401">
        <ele>123</ele>
        <time>2022-11-19T10:44:42Z</time>
      </trkpt>
      <trkpt lat="48.68361" lon="1.94013">
        <ele>123</ele>
        <time>2022-11-19T10:44:43Z</time>
      </trkpt>
      <trkpt lat="48.6836" lon="1.94015">
        <ele>123</ele>
        <time>2022-11-19T10:44:44Z</time>
      </trkpt>
      <trkpt lat="48.68357" lon="1.94018">
        <ele>123</ele>
        <time>2022-11-19T10:44:46Z</time>
      </trkpt>
      <trkpt lat="48.68355" lon="1.94021">
        <ele>123</ele>
        <time>2022-11-19T10:44:48Z</time>
      </trkpt>
      <trkpt lat="48.68353" lon="1.94025">
        <ele>123</ele>
        <time>2022-11-19T10:44:50Z</time>
      </trkpt>
      <trkpt lat="48.68351" lon="1.94028">
        <ele>123</ele>
        <time>2022-11-19T10:44:52Z</time>
      </trkpt>
      <trkpt lat="48.68349" lon="1.9403">
        <ele>123</ele>
        <time>2022-11-19T10:44:53Z</time>
      </trkpt>
      <trkpt lat="48.68348" lon="1.94034">
        <ele>123</ele>
        <time>2022-11-19T10:44:55Z</time>
      </trkpt>
      <trkpt lat="48.68346" lon="1.94038">
        <ele>123</ele>
        <time>2022-11-19T10:44:57Z</time>
      </trkpt>
      <trkpt lat="48.68345" lon="1.94042">
        <ele>123</ele>
        <time>2022-11-19T10:44:59Z</time>
      </trkpt>
      <trkpt lat="48.68345" lon="1.94047">
        <ele>123</ele>
        <time>2022-11-19T10:45:01Z</time>
      </trkpt>
      <trkpt lat="48.68344" lon="1.94052">
        <ele>124</ele>
        <time>2022-11-19T10:45:03Z</time>
      </trkpt>
      <trkpt lat="48.68343" lon="1.94057">
        <ele>124</ele>
        <time>2022-11-19T10:45:05Z</time>
      </trkpt>
      <trkpt lat="48.68342" lon="1.94061">
        <ele>125</ele>
        <time>2022-11-19T10:45:07Z</time>
      </trkpt>
      <trkpt lat="48.68341" lon="1.94066">
        <ele>125</ele>
        <time>2022-11-19T10:45:09Z</time>
      </trkpt>
      <trkpt lat="48.68339" lon="1.9407">
        <ele>125</ele>
        <time>2022-11-19T10:45:11Z</time>
      </trkpt>
      <trkpt lat="48.68338" lon="1.94073">
        <ele>125</ele>
        <time>2022-11-19T10:45:13Z</time>
      </trkpt>
      <trkpt lat="48.68338" lon="1.94077">
        <ele>125</ele>
        <time>2022-11-19T10:45:15Z</time>
      </trkpt>
      <trkpt lat="48.68336" lon="1.94081">
        <ele>125</ele>
        <time>2022-11-19T10:45:17Z</time>
      </trkpt>
      <trkpt lat="48.68336" lon="1.94085">
        <ele>125</ele>
        <time>2022-11-19T10:45:19Z</time>
      </trkpt>
      <trkpt lat="48.68336" lon="1.94089">
        <ele>125</ele>
        <time>2022-11-19T10:45:21Z</time>
      </trkpt>
      <trkpt lat="48.68335" lon="1.94093">
        <ele>125</ele>
        <time>2022-11-19T10:45:23Z</time>
      </trkpt>
      <trkpt lat="48.68334" lon="1.94096">
        <ele>125</ele>
        <time>2022-11-19T10:45:25Z</time>
      </trkpt>
      <trkpt lat="48.68334" lon="1.94101">
        <ele>125</ele>
        <time>2022-11-19T10:45:27Z</time>
      </trkpt>
      <trkpt lat="48.68333" lon="1.94105">
        <ele>126</ele>
        <time>2022-11-19T10:45:29Z</time>
      </trkpt>
      <trkpt lat="48.68333" lon="1.94109">
        <ele>125</ele>
        <time>2022-11-19T10:45:31Z</time>
      </trkpt>
      <trkpt lat="48.68332" lon="1.94113">
        <ele>126</ele>
        <time>2022-11-19T10:45:33Z</time>
      </trkpt>
      <trkpt lat="48.68332" lon="1.94117">
        <ele>126</ele>
        <time>2022-11-19T10:45:35Z</time>
      </trkpt>
      <trkpt lat="48.68332" lon="1.94122">
        <ele>126</ele>
        <time>2022-11-19T10:45:37Z</time>
      </trkpt>
      <trkpt lat="48.68331" lon="1.94126">
        <ele>126</ele>
        <time>2022-11-19T10:45:39Z</time>
      </trkpt>
      <trkpt lat="48.68329" lon="1.9413">
        <ele>126</ele>
        <time>2022-11-19T10:45:41Z</time>
      </trkpt>
      <trkpt lat="48.68329" lon="1.94134">
        <ele>127</ele>
        <time>2022-11-19T10:45:43Z</time>
      </trkpt>
      <trkpt lat="48.6833" lon="1.94139">
        <ele>127</ele>
        <time>2022-11-19T10:45:45Z</time>
      </trkpt>
      <trkpt lat="48.6833" lon="1.94143">
        <ele>127</ele>
        <time>2022-11-19T10:45:47Z</time>
      </trkpt>
      <trkpt lat="48.6833" lon="1.94146">
        <ele>128</ele>
        <time>2022-11-19T10:45:49Z</time>
      </trkpt>
      <trkpt lat="48.6833" lon="1.94151">
        <ele>128</ele>
        <time>2022-11-19T10:45:51Z</time>
      </trkpt>
      <trkpt lat="48.6833" lon="1.94156">
        <ele>128</ele>
        <time>2022-11-19T10:45:53Z</time>
      </trkpt>
      <trkpt lat="48.68329" lon="1.9416">
        <ele>128</ele>
        <time>2022-11-19T10:45:55Z</time>
      </trkpt>
      <trkpt lat="48.68329" lon="1.94164">
        <ele>128</ele>
        <time>2022-11-19T10:45:57Z</time>
      </trkpt>
      <trkpt lat="48.6833" lon="1.94168">
        <ele>128</ele>
        <time>2022-11-19T10:45:59Z</time>
      </trkpt>
      <trkpt lat="48.68331" lon="1.94172">
        <ele>127</ele>
        <time>2022-11-19T10:46:01Z</time>
      </trkpt>
      <trkpt lat="48.68333" lon="1.94174">
        <ele>127</ele>
        <time>2022-11-19T10:46:03Z</time>
      </trkpt>
      <trkpt lat="48.68335" lon="1.94172">
        <ele>126</ele>
        <time>2022-11-19T10:46:06Z</time>
      </trkpt>
      <trkpt lat="48.68336" lon="1.9417">
        <ele>125</ele>
        <time>2022-11-19T10:46:08Z</time>
      </trkpt>
      <trkpt lat="48.68339" lon="1.94168">
        <ele>125</ele>
        <time>2022-11-19T10:46:11Z</time>
      </trkpt>
      <trkpt lat="48.6834" lon="1.94165">
        <ele>125</ele>
        <time>2022-11-19T10:46:13Z</time>
      </trkpt>
      <trkpt lat="48.68342" lon="1.94162">
        <ele>125</ele>
        <time>2022-11-19T10:46:15Z</time>
      </trkpt>
      <trkpt lat="48.68343" lon="1.94159">
        <ele>125</ele>
        <time>2022-11-19T10:46:17Z</time>
      </trkpt>
      <trkpt lat="48.68345" lon="1.94157">
        <ele>125</ele>
        <time>2022-11-19T10:46:19Z</time>
      </trkpt>
      <trkpt lat="48.68348" lon="1.94155">
        <ele>125</ele>
        <time>2022-11-19T10:46:21Z</time>
      </trkpt>
      <trkpt lat="48.6835" lon="1.94153">
        <ele>125</ele>
        <time>2022-11-19T10:46:23Z</time>
      </trkpt>
      <trkpt lat="48.68352" lon="1.94152">
        <ele>125</ele>
        <time>2022-11-19T10:46:25Z</time>
      </trkpt>
      <trkpt lat="48.68355" lon="1.94152">
        <ele>126</ele>
        <time>2022-11-19T10:46:27Z</time>
      </trkpt>
      <trkpt lat="48.68357" lon="1.94153">
        <ele>126</ele>
        <time>2022-11-19T10:46:29Z</time>
      </trkpt>
      <trkpt lat="48.68359" lon="1.94153">
        <ele>126</ele>
        <time>2022-11-19T10:46:31Z</time>
      </trkpt>
      <trkpt lat="48.68361" lon="1.94153">
        <ele>126</ele>
        <time>2022-11-19T10:46:33Z</time>
      </trkpt>
      <trkpt lat="48.68363" lon="1.94153">
        <ele>127</ele>
        <time>2022-11-19T10:46:35Z</time>
      </trkpt>
      <trkpt lat="48.68365" lon="1.94153">
        <ele>127</ele>
        <time>2022-11-19T10:46:37Z</time>
      </trkpt>
      <trkpt lat="48.68368" lon="1.94153">
        <ele>127</ele>
        <time>2022-11-19T10:46:39Z</time>
      </trkpt>
      <trkpt lat="48.6837" lon="1.94154">
        <ele>127</ele>
        <time>2022-11-19T10:46:41Z</time>
      </trkpt>
      <trkpt lat="48.68372" lon="1.94155">
        <ele>128</ele>
        <time>2022-11-19T10:46:43Z</time>
      </trkpt>
      <trkpt lat="48.68374" lon="1.94154">
        <ele>128</ele>
        <time>2022-11-19T10:46:45Z</time>
      </trkpt>
      <trkpt lat="48.68377" lon="1.94154">
        <ele>128</ele>
        <time>2022-11-19T10:46:48Z</time>
      </trkpt>
      <trkpt lat="48.68379" lon="1.94154">
        <ele>128</ele>
        <time>2022-11-19T10:46:50Z</time>
      </trkpt>
      <trkpt lat="48.6838" lon="1.94152">
        <ele>129</ele>
        <time>2022-11-19T10:46:53Z</time>
      </trkpt>
      <trkpt lat="48.68382" lon="1.94149">
        <ele>129</ele>
        <time>2022-11-19T10:46:56Z</time>
      </trkpt>
      <trkpt lat="48.68385" lon="1.94148">
        <ele>130</ele>
        <time>2022-11-19T10:46:58Z</time>
      </trkpt>
      <trkpt lat="48.68387" lon="1.94147">
        <ele>130</ele>
        <time>2022-11-19T10:46:59Z</time>
      </trkpt>
      <trkpt lat="48.6839" lon="1.94145">
        <ele>131</ele>
        <time>2022-11-19T10:47:01Z</time>
      </trkpt>
      <trkpt lat="48.68393" lon="1.94146">
        <ele>131</ele>
        <time>2022-11-19T10:47:03Z</time>
      </trkpt>
      <trkpt lat="48.68396" lon="1.94148">
        <ele>132</ele>
        <time>2022-11-19T10:47:05Z</time>
      </trkpt>
      <trkpt lat="48.68399" lon="1.9415">
        <ele>132</ele>
        <time>2022-11-19T10:47:07Z</time>
      </trkpt>
      <trkpt lat="48.68401" lon="1.94151">
        <ele>132</ele>
        <time>2022-11-19T10:47:09Z</time>
      </trkpt>
      <trkpt lat="48.68404" lon="1.94152">
        <ele>132</ele>
        <time>2022-11-19T10:47:11Z</time>
      </trkpt>
      <trkpt lat="48.68407" lon="1.94153">
        <ele>132</ele>
        <time>2022-11-19T10:47:13Z</time>
      </trkpt>
      <trkpt lat="48.68411" lon="1.94154">
        <ele>132</ele>
        <time>2022-11-19T10:47:15Z</time>
      </trkpt>
      <trkpt lat="48.68413" lon="1.94155">
        <ele>131</ele>
        <time>2022-11-19T10:47:17Z</time>
      </trkpt>
      <trkpt lat="48.68416" lon="1.94156">
        <ele>131</ele>
        <time>2022-11-19T10:47:19Z</time>
      </trkpt>
      <trkpt lat="48.68419" lon="1.94157">
        <ele>131</ele>
        <time>2022-11-19T10:47:21Z</time>
      </trkpt>
      <trkpt lat="48.68421" lon="1.94159">
        <ele>131</ele>
        <time>2022-11-19T10:47:23Z</time>
      </trkpt>
      <trkpt lat="48.68423" lon="1.94161">
        <ele>131</ele>
        <time>2022-11-19T10:47:25Z</time>
      </trkpt>
      <trkpt lat="48.68426" lon="1.94162">
        <ele>131</ele>
        <time>2022-11-19T10:47:27Z</time>
      </trkpt>
      <trkpt lat="48.68428" lon="1.94163">
        <ele>131</ele>
        <time>2022-11-19T10:47:29Z</time>
      </trkpt>
      <trkpt lat="48.68431" lon="1.94162">
        <ele>131</ele>
        <time>2022-11-19T10:47:31Z</time>
      </trkpt>
      <trkpt lat="48.68434" lon="1.94162">
        <ele>131</ele>
        <time>2022-11-19T10:47:33Z</time>
      </trkpt>
      <trkpt lat="48.68436" lon="1.94162">
        <ele>131</ele>
        <time>2022-11-19T10:47:35Z</time>
      </trkpt>
      <trkpt lat="48.68439" lon="1.94162">
        <ele>132</ele>
        <time>2022-11-19T10:47:37Z</time>
      </trkpt>
      <trkpt lat="48.68441" lon="1.94162">
        <ele>132</ele>
        <time>2022-11-19T10:47:39Z</time>
      </trkpt>
      <trkpt lat="48.68444" lon="1.94161">
        <ele>132</ele>
        <time>2022-11-19T10:47:41Z</time>
      </trkpt>
      <trkpt lat="48.68447" lon="1.94161">
        <ele>132</ele>
        <time>2022-11-19T10:47:43Z</time>
      </trkpt>
      <trkpt lat="48.6845" lon="1.94161">
        <ele>132</ele>
        <time>2022-11-19T10:47:45Z</time>
      </trkpt>
      <trkpt lat="48.68453" lon="1.94159">
        <ele>132</ele>
        <time>2022-11-19T10:47:47Z</time>
      </trkpt>
      <trkpt lat="48.68455" lon="1.94158">
        <ele>132</ele>
        <time>2022-11-19T10:47:49Z</time>
      </trkpt>
      <trkpt lat="48.68457" lon="1.94156">
        <ele>132</ele>
        <time>2022-11-19T10:47:51Z</time>
      </trkpt>
      <trkpt lat="48.68459" lon="1.94153">
        <ele>132</ele>
        <time>2022-11-19T10:47:53Z</time>
      </trkpt>
      <trkpt lat="48.6846" lon="1.9415">
        <ele>132</ele>
        <time>2022-11-19T10:47:55Z</time>
      </trkpt>
      <trkpt lat="48.68462" lon="1.94148">
        <ele>132</ele>
        <time>2022-11-19T10:47:57Z</time>
      </trkpt>
      <trkpt lat="48.68465" lon="1.94146">
        <ele>133</ele>
        <time>2022-11-19T10:47:59Z</time>
      </trkpt>
      <trkpt lat="48.68467" lon="1.94144">
        <ele>133</ele>
        <time>2022-11-19T10:48:01Z</time>
      </trkpt>
      <trkpt lat="48.6847" lon="1.94142">
        <ele>134</ele>
        <time>2022-11-19T10:48:03Z</time>
      </trkpt>
      <trkpt lat="48.68472" lon="1.94141">
        <ele>135</ele>
        <time>2022-11-19T10:48:05Z</time>
      </trkpt>
      <trkpt lat="48.68474" lon="1.9414">
        <ele>135</ele>
        <time>2022-11-19T10:48:06Z</time>
      </trkpt>
      <trkpt lat="48.68476" lon="1.94137">
        <ele>136</ele>
        <time>2022-11-19T10:48:08Z</time>
      </trkpt>
      <trkpt lat="48.68478" lon="1.94135">
        <ele>136</ele>
        <time>2022-11-19T10:48:10Z</time>
      </trkpt>
      <trkpt lat="48.68479" lon="1.94132">
        <ele>137</ele>
        <time>2022-11-19T10:48:12Z</time>
      </trkpt>
      <trkpt lat="48.68481" lon="1.9413">
        <ele>137</ele>
        <time>2022-11-19T10:48:14Z</time>
      </trkpt>
      <trkpt lat="48.68482" lon="1.94127">
        <ele>138</ele>
        <time>2022-11-19T10:48:16Z</time>
      </trkpt>
      <trkpt lat="48.68484" lon="1.94124">
        <ele>138</ele>
        <time>2022-11-19T10:48:18Z</time>
      </trkpt>
      <trkpt lat="48.68485" lon="1.94121">
        <ele>139</ele>
        <time>2022-11-19T10:48:20Z</time>
      </trkpt>
      <trkpt lat="48.68486" lon="1.94118">
        <ele>139</ele>
        <time>2022-11-19T10:48:22Z</time>
      </trkpt>
      <trkpt lat="48.68487" lon="1.94115">
        <ele>140</ele>
        <time>2022-11-19T10:48:24Z</time>
      </trkpt>
      <trkpt lat="48.68489" lon="1.94113">
        <ele>141</ele>
        <time>2022-11-19T10:48:26Z</time>
      </trkpt>
      <trkpt lat="48.68491" lon="1.94111">
        <ele>141</ele>
        <time>2022-11-19T10:48:28Z</time>
      </trkpt>
      <trkpt lat="48.68492" lon="1.94107">
        <ele>142</ele>
        <time>2022-11-19T10:48:30Z</time>
      </trkpt>
      <trkpt lat="48.68493" lon="1.94104">
        <ele>142</ele>
        <time>2022-11-19T10:48:32Z</time>
      </trkpt>
      <trkpt lat="48.68495" lon="1.94102">
        <ele>143</ele>
        <time>2022-11-19T10:48:34Z</time>
      </trkpt>
      <trkpt lat="48.68497" lon="1.941">
        <ele>143</ele>
        <time>2022-11-19T10:48:36Z</time>
      </trkpt>
      <trkpt lat="48.68498" lon="1.94097">
        <ele>144</ele>
        <time>2022-11-19T10:48:38Z</time>
      </trkpt>
      <trkpt lat="48.68499" lon="1.94094">
        <ele>144</ele>
        <time>2022-11-19T10:48:40Z</time>
      </trkpt>
      <trkpt lat="48.68501" lon="1.94091">
        <ele>145</ele>
        <time>2022-11-19T10:48:42Z</time>
      </trkpt>
      <trkpt lat="48.68503" lon="1.94088">
        <ele>145</ele>
        <time>2022-11-19T10:48:44Z</time>
      </trkpt>
      <trkpt lat="48.68504" lon="1.94085">
        <ele>145</ele>
        <time>2022-11-19T10:48:46Z</time>
      </trkpt>
      <trkpt lat="48.68507" lon="1.94082">
        <ele>146</ele>
        <time>2022-11-19T10:48:48Z</time>
      </trkpt>
      <trkpt lat="48.68509" lon="1.94078">
        <ele>146</ele>
        <time>2022-11-19T10:48:50Z</time>
      </trkpt>
      <trkpt lat="48.6851" lon="1.94075">
        <ele>146</ele>
        <time>2022-11-19T10:48:52Z</time>
      </trkpt>
      <trkpt lat="48.68512" lon="1.94072">
        <ele>146</ele>
        <time>2022-11-19T10:48:54Z</time>
      </trkpt>
      <trkpt lat="48.68513" lon="1.94067">
        <ele>147</ele>
        <time>2022-11-19T10:48:56Z</time>
      </trkpt>
      <trkpt lat="48.68513" lon="1.94064">
        <ele>147</ele>
        <time>2022-11-19T10:48:58Z</time>
      </trkpt>
      <trkpt lat="48.68514" lon="1.9406">
        <ele>148</ele>
        <time>2022-11-19T10:49:00Z</time>
      </trkpt>
      <trkpt lat="48.68513" lon="1.94057">
        <ele>148</ele>
        <time>2022-11-19T10:49:02Z</time>
      </trkpt>
      <trkpt lat="48.68513" lon="1.94053">
        <ele>148</ele>
        <time>2022-11-19T10:49:04Z</time>
      </trkpt>
      <trkpt lat="48.68514" lon="1.94049">
        <ele>149</ele>
        <time>2022-11-19T10:49:06Z</time>
      </trkpt>
      <trkpt lat="48.68514" lon="1.94046">
        <ele>149</ele>
        <time>2022-11-19T10:49:08Z</time>
      </trkpt>
      <trkpt lat="48.68514" lon="1.94042">
        <ele>150</ele>
        <time>2022-11-19T10:49:10Z</time>
      </trkpt>
      <trkpt lat="48.68514" lon="1.94038">
        <ele>150</ele>
        <time>2022-11-19T10:49:12Z</time>
      </trkpt>
      <trkpt lat="48.68514" lon="1.94033">
        <ele>150</ele>
        <time>2022-11-19T10:49:14Z</time>
      </trkpt>
      <trkpt lat="48.68515" lon="1.94029">
        <ele>150</ele>
        <time>2022-11-19T10:49:16Z</time>
      </trkpt>
      <trkpt lat="48.68515" lon="1.94026">
        <ele>151</ele>
        <time>2022-11-19T10:49:18Z</time>
      </trkpt>
      <trkpt lat="48.68516" lon="1.94022">
        <ele>151</ele>
        <time>2022-11-19T10:49:20Z</time>
      </trkpt>
      <trkpt lat="48.68516" lon="1.94017">
        <ele>151</ele>
        <time>2022-11-19T10:49:23Z</time>
      </trkpt>
      <trkpt lat="48.68517" lon="1.94013">
        <ele>151</ele>
        <time>2022-11-19T10:49:25Z</time>
      </trkpt>
      <trkpt lat="48.68517" lon="1.94009">
        <ele>152</ele>
        <time>2022-11-19T10:49:27Z</time>
      </trkpt>
      <trkpt lat="48.68518" lon="1.94004">
        <ele>152</ele>
        <time>2022-11-19T10:49:29Z</time>
      </trkpt>
      <trkpt lat="48.6852" lon="1.94">
        <ele>152</ele>
        <time>2022-11-19T10:49:31Z</time>
      </trkpt>
      <trkpt lat="48.68522" lon="1.93996">
        <ele>153</ele>
        <time>2022-11-19T10:49:33Z</time>
      </trkpt>
      <trkpt lat="48.68524" lon="1.93993">
        <ele>153</ele>
        <time>2022-11-19T10:49:35Z</time>
      </trkpt>
      <trkpt lat="48.68526" lon="1.93991">
        <ele>153</ele>
        <time>2022-11-19T10:49:37Z</time>
      </trkpt>
      <trkpt lat="48.68528" lon="1.93987">
        <ele>153</ele>
        <time>2022-11-19T10:49:39Z</time>
      </trkpt>
      <trkpt lat="48.6853" lon="1.93983">
        <ele>153</ele>
        <time>2022-11-19T10:49:41Z</time>
      </trkpt>
      <trkpt lat="48.68533" lon="1.93981">
        <ele>153</ele>
        <time>2022-11-19T10:49:43Z</time>
      </trkpt>
      <trkpt lat="48.68535" lon="1.93979">
        <ele>153</ele>
        <time>2022-11-19T10:49:45Z</time>
      </trkpt>
      <trkpt lat="48.68538" lon="1.93976">
        <ele>154</ele>
        <time>2022-11-19T10:49:47Z</time>
      </trkpt>
      <trkpt lat="48.6854" lon="1.93973">
        <ele>154</ele>
        <time>2022-11-19T10:49:49Z</time>
      </trkpt>
      <trkpt lat="48.68542" lon="1.93969">
        <ele>154</ele>
        <time>2022-11-19T10:49:51Z</time>
      </trkpt>
      <trkpt lat="48.68543" lon="1.93967">
        <ele>154</ele>
        <time>2022-11-19T10:49:53Z</time>
      </trkpt>
      <trkpt lat="48.68545" lon="1.93964">
        <ele>154</ele>
        <time>2022-11-19T10:49:55Z</time>
      </trkpt>
      <trkpt lat="48.68547" lon="1.93961">
        <ele>154</ele>
        <time>2022-11-19T10:49:57Z</time>
      </trkpt>
      <trkpt lat="48.68549" lon="1.93959">
        <ele>154</ele>
        <time>2022-11-19T10:49:59Z</time>
      </trkpt>
      <trkpt lat="48.68551" lon="1.93956">
        <ele>154</ele>
        <time>2022-11-19T10:50:01Z</time>
      </trkpt>
      <trkpt lat="48.68552" lon="1.93953">
        <ele>154</ele>
        <time>2022-11-19T10:50:03Z</time>
      </trkpt>
      <trkpt lat="48.68554" lon="1.9395">
        <ele>155</ele>
        <time>2022-11-19T10:50:05Z</time>
      </trkpt>
      <trkpt lat="48.68556" lon="1.93947">
        <ele>155</ele>
        <time>2022-11-19T10:50:07Z</time>
      </trkpt>
      <trkpt lat="48.68558" lon="1.93945">
        <ele>155</ele>
        <time>2022-11-19T10:50:09Z</time>
      </trkpt>
      <trkpt lat="48.68559" lon="1.93943">
        <ele>156</ele>
        <time>2022-11-19T10:50:11Z</time>
      </trkpt>
      <trkpt lat="48.68561" lon="1.93942">
        <ele>156</ele>
        <time>2022-11-19T10:50:13Z</time>
      </trkpt>
      <trkpt lat="48.68564" lon="1.9394">
        <ele>156</ele>
        <time>2022-11-19T10:50:15Z</time>
      </trkpt>
      <trkpt lat="48.68566" lon="1.93938">
        <ele>157</ele>
        <time>2022-11-19T10:50:17Z</time>
      </trkpt>
      <trkpt lat="48.68568" lon="1.93936">
        <ele>157</ele>
        <time>2022-11-19T10:50:19Z</time>
      </trkpt>
      <trkpt lat="48.68571" lon="1.93933">
        <ele>157</ele>
        <time>2022-11-19T10:50:21Z</time>
      </trkpt>
      <trkpt lat="48.68573" lon="1.93931">
        <ele>157</ele>
        <time>2022-11-19T10:50:23Z</time>
      </trkpt>
      <trkpt lat="48.68576" lon="1.93929">
        <ele>158</ele>
        <time>2022-11-19T10:50:25Z</time>
      </trkpt>
      <trkpt lat="48.68578" lon="1.93928">
        <ele>158</ele>
        <time>2022-11-19T10:50:27Z</time>
      </trkpt>
      <trkpt lat="48.68581" lon="1.93927">
        <ele>158</ele>
        <time>2022-11-19T10:50:29Z</time>
      </trkpt>
      <trkpt lat="48.68584" lon="1.93926">
        <ele>158</ele>
        <time>2022-11-19T10:50:31Z</time>
      </trkpt>
      <trkpt lat="48.68586" lon="1.93925">
        <ele>158</ele>
        <time>2022-11-19T10:50:33Z</time>
      </trkpt>
      <trkpt lat="48.68589" lon="1.93923">
        <ele>158</ele>
        <time>2022-11-19T10:50:35Z</time>
      </trkpt>
      <trkpt lat="48.68592" lon="1.93922">
        <ele>159</ele>
        <time>2022-11-19T10:50:37Z</time>
      </trkpt>
      <trkpt lat="48.68595" lon="1.93921">
        <ele>159</ele>
        <time>2022-11-19T10:50:39Z</time>
      </trkpt>
      <trkpt lat="48.68598" lon="1.93919">
        <ele>158</ele>
        <time>2022-11-19T10:50:41Z</time>
      </trkpt>
      <trkpt lat="48.686" lon="1.93918">
        <ele>158</ele>
        <time>2022-11-19T10:50:43Z</time>
      </trkpt>
      <trkpt lat="48.68603" lon="1.93916">
        <ele>159</ele>
        <time>2022-11-19T10:50:45Z</time>
      </trkpt>
      <trkpt lat="48.68606" lon="1.93914">
        <ele>159</ele>
        <time>2022-11-19T10:50:47Z</time>
      </trkpt>
      <trkpt lat="48.68608" lon="1.93912">
        <ele>159</ele>
        <time>2022-11-19T10:50:49Z</time>
      </trkpt>
      <trkpt lat="48.68611" lon="1.9391">
        <ele>160</ele>
        <time>2022-11-19T10:50:51Z</time>
      </trkpt>
      <trkpt lat="48.68614" lon="1.93909">
        <ele>160</ele>
        <time>2022-11-19T10:50:53Z</time>
      </trkpt>
      <trkpt lat="48.68616" lon="1.93907">
        <ele>160</ele>
        <time>2022-11-19T10:50:55Z</time>
      </trkpt>
      <trkpt lat="48.68619" lon="1.93905">
        <ele>160</ele>
        <time>2022-11-19T10:50:57Z</time>
      </trkpt>
      <trkpt lat="48.68622" lon="1.93903">
        <ele>160</ele>
        <time>2022-11-19T10:50:59Z</time>
      </trkpt>
      <trkpt lat="48.68624" lon="1.939">
        <ele>160</ele>
        <time>2022-11-19T10:51:01Z</time>
      </trkpt>
      <trkpt lat="48.68626" lon="1.93898">
        <ele>161</ele>
        <time>2022-11-19T10:51:03Z</time>
      </trkpt>
      <trkpt lat="48.68629" lon="1.93896">
        <ele>161</ele>
        <time>2022-11-19T10:51:05Z</time>
      </trkpt>
      <trkpt lat="48.68632" lon="1.93895">
        <ele>161</ele>
        <time>2022-11-19T10:51:07Z</time>
      </trkpt>
      <trkpt lat="48.68636" lon="1.93896">
        <ele>161</ele>
        <time>2022-11-19T10:51:09Z</time>
      </trkpt>
      <trkpt lat="48.68639" lon="1.93895">
        <ele>161</ele>
        <time>2022-11-19T10:51:11Z</time>
      </trkpt>
      <trkpt lat="48.68641" lon="1.93895">
        <ele>161</ele>
        <time>2022-11-19T10:51:13Z</time>
      </trkpt>
      <trkpt lat="48.68644" lon="1.93895">
        <ele>161</ele>
        <time>2022-11-19T10:51:15Z</time>
      </trkpt>
      <trkpt lat="48.68648" lon="1.93897">
        <ele>162</ele>
        <time>2022-11-19T10:51:17Z</time>
      </trkpt>
      <trkpt lat="48.6865" lon="1.93899">
        <ele>161</ele>
        <time>2022-11-19T10:51:19Z</time>
      </trkpt>
      <trkpt lat="48.68653" lon="1.93901">
        <ele>161</ele>
        <time>2022-11-19T10:51:21Z</time>
      </trkpt>
      <trkpt lat="48.68656" lon="1.93902">
        <ele>161</ele>
        <time>2022-11-19T10:51:23Z</time>
      </trkpt>
      <trkpt lat="48.68659" lon="1.93905">
        <ele>161</ele>
        <time>2022-11-19T10:51:25Z</time>
      </trkpt>
      <trkpt lat="48.68661" lon="1.93906">
        <ele>161</ele>
        <time>2022-11-19T10:51:27Z</time>
      </trkpt>
      <trkpt lat="48.68664" lon="1.93908">
        <ele>161</ele>
        <time>2022-11-19T10:51:29Z</time>
      </trkpt>
      <trkpt lat="48.68667" lon="1.93909">
        <ele>161</ele>
        <time>2022-11-19T10:51:31Z</time>
      </trkpt>
      <trkpt lat="48.6867" lon="1.9391">
        <ele>161</ele>
        <time>2022-11-19T10:51:33Z</time>
      </trkpt>
      <trkpt lat="48.68673" lon="1.93911">
        <ele>162</ele>
        <time>2022-11-19T10:51:35Z</time>
      </trkpt>
      <trkpt lat="48.68675" lon="1.93911">
        <ele>162</ele>
        <time>2022-11-19T10:51:37Z</time>
      </trkpt>
      <trkpt lat="48.68678" lon="1.93911">
        <ele>162</ele>
        <time>2022-11-19T10:51:39Z</time>
      </trkpt>
      <trkpt lat="48.68681" lon="1.93911">
        <ele>162</ele>
        <time>2022-11-19T10:51:41Z</time>
      </trkpt>
      <trkpt lat="48.68684" lon="1.93912">
        <ele>163</ele>
        <time>2022-11-19T10:51:43Z</time>
      </trkpt>
      <trkpt lat="48.68687" lon="1.93912">
        <ele>163</ele>
        <time>2022-11-19T10:51:45Z</time>
      </trkpt>
      <trkpt lat="48.68689" lon="1.93914">
        <ele>163</ele>
        <time>2022-11-19T10:51:47Z</time>
      </trkpt>
      <trkpt lat="48.68692" lon="1.93916">
        <ele>163</ele>
        <time>2022-11-19T10:51:49Z</time>
      </trkpt>
      <trkpt lat="48.68694" lon="1.93918">
        <ele>163</ele>
        <time>2022-11-19T10:51:50Z</time>
      </trkpt>
      <trkpt lat="48.68697" lon="1.9392">
        <ele>163</ele>
        <time>2022-11-19T10:51:52Z</time>
      </trkpt>
      <trkpt lat="48.68699" lon="1.93921">
        <ele>163</ele>
        <time>2022-11-19T10:51:54Z</time>
      </trkpt>
      <trkpt lat="48.68702" lon="1.93923">
        <ele>163</ele>
        <time>2022-11-19T10:51:56Z</time>
      </trkpt>
      <trkpt lat="48.68705" lon="1.93924">
        <ele>163</ele>
        <time>2022-11-19T10:51:58Z</time>
      </trkpt>
      <trkpt lat="48.68708" lon="1.93925">
        <ele>163</ele>
        <time>2022-11-19T10:52:00Z</time>
      </trkpt>
      <trkpt lat="48.6871" lon="1.93928">
        <ele>163</ele>
        <time>2022-11-19T10:52:02Z</time>
      </trkpt>
      <trkpt lat="48.68711" lon="1.93929">
        <ele>164</ele>
        <time>2022-11-19T10:52:07Z</time>
      </trkpt>
      <trkpt lat="48.68713" lon="1.93933">
        <ele>163</ele>
        <time>2022-11-19T10:52:10Z</time>
      </trkpt>
      <trkpt lat="48.68715" lon="1.93936">
        <ele>163</ele>
        <time>2022-11-19T10:52:12Z</time>
      </trkpt>
      <trkpt lat="48.68716" lon="1.9394">
        <ele>163</ele>
        <time>2022-11-19T10:52:14Z</time>
      </trkpt>
      <trkpt lat="48.68717" lon="1.93944">
        <ele>162</ele>
        <time>2022-11-19T10:52:16Z</time>
      </trkpt>
      <trkpt lat="48.68718" lon="1.93948">
        <ele>162</ele>
        <time>2022-11-19T10:52:18Z</time>
      </trkpt>
      <trkpt lat="48.68718" lon="1.93951">
        <ele>162</ele>
        <time>2022-11-19T10:52:20Z</time>
      </trkpt>
      <trkpt lat="48.68718" lon="1.93955">
        <ele>162</ele>
        <time>2022-11-19T10:52:22Z</time>
      </trkpt>
      <trkpt lat="48.68717" lon="1.93958">
        <ele>162</ele>
        <time>2022-11-19T10:52:24Z</time>
      </trkpt>
      <trkpt lat="48.68716" lon="1.93962">
        <ele>162</ele>
        <time>2022-11-19T10:52:26Z</time>
      </trkpt>
      <trkpt lat="48.68716" lon="1.93965">
        <ele>163</ele>
        <time>2022-11-19T10:52:28Z</time>
      </trkpt>
      <trkpt lat="48.68715" lon="1.93969">
        <ele>163</ele>
        <time>2022-11-19T10:52:30Z</time>
      </trkpt>
      <trkpt lat="48.68714" lon="1.93973">
        <ele>163</ele>
        <time>2022-11-19T10:52:32Z</time>
      </trkpt>
      <trkpt lat="48.68713" lon="1.93984">
        <ele>164</ele>
        <time>2022-11-19T10:52:38Z</time>
      </trkpt>
      <trkpt lat="48.68713" lon="1.93989">
        <ele>164</ele>
        <time>2022-11-19T10:52:40Z</time>
      </trkpt>
      <trkpt lat="48.68711" lon="1.93992">
        <ele>165</ele>
        <time>2022-11-19T10:52:42Z</time>
      </trkpt>
      <trkpt lat="48.6871" lon="1.93995">
        <ele>165</ele>
        <time>2022-11-19T10:52:44Z</time>
      </trkpt>
      <trkpt lat="48.68709" lon="1.93998">
        <ele>166</ele>
        <time>2022-11-19T10:52:46Z</time>
      </trkpt>
      <trkpt lat="48.68709" lon="1.94001">
        <ele>166</ele>
        <time>2022-11-19T10:52:48Z</time>
      </trkpt>
      <trkpt lat="48.68708" lon="1.94005">
        <ele>166</ele>
        <time>2022-11-19T10:52:50Z</time>
      </trkpt>
      <trkpt lat="48.68707" lon="1.94008">
        <ele>166</ele>
        <time>2022-11-19T10:52:52Z</time>
      </trkpt>
      <trkpt lat="48.68705" lon="1.94011">
        <ele>166</ele>
        <time>2022-11-19T10:52:54Z</time>
      </trkpt>
      <trkpt lat="48.68705" lon="1.94014">
        <ele>167</ele>
        <time>2022-11-19T10:52:56Z</time>
      </trkpt>
      <trkpt lat="48.68704" lon="1.94017">
        <ele>167</ele>
        <time>2022-11-19T10:52:58Z</time>
      </trkpt>
      <trkpt lat="48.68703" lon="1.9402">
        <ele>167</ele>
        <time>2022-11-19T10:53:00Z</time>
      </trkpt>
      <trkpt lat="48.687" lon="1.94022">
        <ele>167</ele>
        <time>2022-11-19T10:53:02Z</time>
      </trkpt>
      <trkpt lat="48.68698" lon="1.94025">
        <ele>167</ele>
        <time>2022-11-19T10:53:04Z</time>
      </trkpt>
      <trkpt lat="48.68697" lon="1.94026">
        <ele>167</ele>
        <time>2022-11-19T10:53:05Z</time>
      </trkpt>
      <trkpt lat="48.68693" lon="1.9403">
        <ele>167</ele>
        <time>2022-11-19T10:53:07Z</time>
      </trkpt>
      <trkpt lat="48.68692" lon="1.94034">
        <ele>168</ele>
        <time>2022-11-19T10:53:09Z</time>
      </trkpt>
      <trkpt lat="48.68691" lon="1.94038">
        <ele>168</ele>
        <time>2022-11-19T10:53:11Z</time>
      </trkpt>
      <trkpt lat="48.6869" lon="1.94042">
        <ele>168</ele>
        <time>2022-11-19T10:53:13Z</time>
      </trkpt>
      <trkpt lat="48.68689" lon="1.94045">
        <ele>168</ele>
        <time>2022-11-19T10:53:15Z</time>
      </trkpt>
      <trkpt lat="48.68688" lon="1.94048">
        <ele>168</ele>
        <time>2022-11-19T10:53:17Z</time>
      </trkpt>
      <trkpt lat="48.68686" lon="1.94051">
        <ele>168</ele>
        <time>2022-11-19T10:53:19Z</time>
      </trkpt>
      <trkpt lat="48.68683" lon="1.94053">
        <ele>168</ele>
        <time>2022-11-19T10:53:21Z</time>
      </trkpt>
      <trkpt lat="48.68681" lon="1.94056">
        <ele>169</ele>
        <time>2022-11-19T10:53:23Z</time>
      </trkpt>
      <trkpt lat="48.68679" lon="1.94059">
        <ele>169</ele>
        <time>2022-11-19T10:53:25Z</time>
      </trkpt>
      <trkpt lat="48.68677" lon="1.94062">
        <ele>169</ele>
        <time>2022-11-19T10:53:27Z</time>
      </trkpt>
      <trkpt lat="48.68676" lon="1.94066">
        <ele>170</ele>
        <time>2022-11-19T10:53:29Z</time>
      </trkpt>
      <trkpt lat="48.68675" lon="1.9407">
        <ele>170</ele>
        <time>2022-11-19T10:53:31Z</time>
      </trkpt>
      <trkpt lat="48.68673" lon="1.94075">
        <ele>170</ele>
        <time>2022-11-19T10:53:33Z</time>
      </trkpt>
      <trkpt lat="48.68671" lon="1.94078">
        <ele>170</ele>
        <time>2022-11-19T10:53:35Z</time>
      </trkpt>
      <trkpt lat="48.68669" lon="1.94082">
        <ele>170</ele>
        <time>2022-11-19T10:53:37Z</time>
      </trkpt>
      <trkpt lat="48.68668" lon="1.94085">
        <ele>170</ele>
        <time>2022-11-19T10:53:39Z</time>
      </trkpt>
      <trkpt lat="48.68667" lon="1.94089">
        <ele>170</ele>
        <time>2022-11-19T10:53:41Z</time>
      </trkpt>
      <trkpt lat="48.68666" lon="1.94093">
        <ele>171</ele>
        <time>2022-11-19T10:53:43Z</time>
      </trkpt>
      <trkpt lat="48.68664" lon="1.94096">
        <ele>171</ele>
        <time>2022-11-19T10:53:45Z</time>
      </trkpt>
      <trkpt lat="48.68664" lon="1.941">
        <ele>171</ele>
        <time>2022-11-19T10:53:47Z</time>
      </trkpt>
      <trkpt lat="48.68662" lon="1.94103">
        <ele>172</ele>
        <time>2022-11-19T10:53:49Z</time>
      </trkpt>
      <trkpt lat="48.68661" lon="1.94106">
        <ele>172</ele>
        <time>2022-11-19T10:53:51Z</time>
      </trkpt>
      <trkpt lat="48.68659" lon="1.94109">
        <ele>172</ele>
        <time>2022-11-19T10:53:53Z</time>
      </trkpt>
      <trkpt lat="48.68658" lon="1.94113">
        <ele>172</ele>
        <time>2022-11-19T10:53:55Z</time>
      </trkpt>
      <trkpt lat="48.68657" lon="1.94116">
        <ele>172</ele>
        <time>2022-11-19T10:53:57Z</time>
      </trkpt>
      <trkpt lat="48.68656" lon="1.9412">
        <ele>173</ele>
        <time>2022-11-19T10:53:59Z</time>
      </trkpt>
      <trkpt lat="48.68655" lon="1.94123">
        <ele>173</ele>
        <time>2022-11-19T10:54:01Z</time>
      </trkpt>
      <trkpt lat="48.68653" lon="1.94127">
        <ele>173</ele>
        <time>2022-11-19T10:54:03Z</time>
      </trkpt>
      <trkpt lat="48.68651" lon="1.9413">
        <ele>173</ele>
        <time>2022-11-19T10:54:05Z</time>
      </trkpt>
      <trkpt lat="48.68649" lon="1.94133">
        <ele>173</ele>
        <time>2022-11-19T10:54:07Z</time>
      </trkpt>
      <trkpt lat="48.68648" lon="1.94136">
        <ele>174</ele>
        <time>2022-11-19T10:54:09Z</time>
      </trkpt>
      <trkpt lat="48.68647" lon="1.94139">
        <ele>174</ele>
        <time>2022-11-19T10:54:11Z</time>
      </trkpt>
      <trkpt lat="48.68645" lon="1.94142">
        <ele>174</ele>
        <time>2022-11-19T10:54:13Z</time>
      </trkpt>
      <trkpt lat="48.68644" lon="1.94146">
        <ele>174</ele>
        <time>2022-11-19T10:54:15Z</time>
      </trkpt>
      <trkpt lat="48.68643" lon="1.94149">
        <ele>174</ele>
        <time>2022-11-19T10:54:17Z</time>
      </trkpt>
      <trkpt lat="48.68642" lon="1.94152">
        <ele>173</ele>
        <time>2022-11-19T10:54:19Z</time>
      </trkpt>
      <trkpt lat="48.68641" lon="1.94155">
        <ele>174</ele>
        <time>2022-11-19T10:54:21Z</time>
      </trkpt>
      <trkpt lat="48.6864" lon="1.94157">
        <ele>174</ele>
        <time>2022-11-19T10:54:23Z</time>
      </trkpt>
      <trkpt lat="48.68638" lon="1.94161">
        <ele>174</ele>
        <time>2022-11-19T10:54:25Z</time>
      </trkpt>
      <trkpt lat="48.68636" lon="1.94164">
        <ele>174</ele>
        <time>2022-11-19T10:54:27Z</time>
      </trkpt>
      <trkpt lat="48.68633" lon="1.94167">
        <ele>174</ele>
        <time>2022-11-19T10:54:29Z</time>
      </trkpt>
      <trkpt lat="48.68633" lon="1.94169">
        <ele>174</ele>
        <time>2022-11-19T10:54:31Z</time>
      </trkpt>
      <trkpt lat="48.68631" lon="1.94172">
        <ele>174</ele>
        <time>2022-11-19T10:54:33Z</time>
      </trkpt>
      <trkpt lat="48.6863" lon="1.94175">
        <ele>174</ele>
        <time>2022-11-19T10:54:35Z</time>
      </trkpt>
      <trkpt lat="48.68629" lon="1.94178">
        <ele>174</ele>
        <time>2022-11-19T10:54:37Z</time>
      </trkpt>
      <trkpt lat="48.68627" lon="1.94182">
        <ele>174</ele>
        <time>2022-11-19T10:54:39Z</time>
      </trkpt>
      <trkpt lat="48.68626" lon="1.94185">
        <ele>174</ele>
        <time>2022-11-19T10:54:41Z</time>
      </trkpt>
      <trkpt lat="48.68626" lon="1.94189">
        <ele>174</ele>
        <time>2022-11-19T10:54:43Z</time>
      </trkpt>
      <trkpt lat="48.68625" lon="1.94193">
        <ele>174</ele>
        <time>2022-11-19T10:54:45Z</time>
      </trkpt>
      <trkpt lat="48.68623" lon="1.94195">
        <ele>174</ele>
        <time>2022-11-19T10:54:47Z</time>
      </trkpt>
      <trkpt lat="48.68622" lon="1.94197">
        <ele>174</ele>
        <time>2022-11-19T10:54:49Z</time>
      </trkpt>
      <trkpt lat="48.6862" lon="1.942">
        <ele>174</ele>
        <time>2022-11-19T10:54:51Z</time>
      </trkpt>
      <trkpt lat="48.68618" lon="1.94203">
        <ele>174</ele>
        <time>2022-11-19T10:54:53Z</time>
      </trkpt>
      <trkpt lat="48.68617" lon="1.94206">
        <ele>174</ele>
        <time>2022-11-19T10:54:55Z</time>
      </trkpt>
      <trkpt lat="48.68614" lon="1.94209">
        <ele>174</ele>
        <time>2022-11-19T10:54:57Z</time>
      </trkpt>
      <trkpt lat="48.68613" lon="1.94211">
        <ele>174</ele>
        <time>2022-11-19T10:54:58Z</time>
      </trkpt>
      <trkpt lat="48.68611" lon="1.94212">
        <ele>174</ele>
        <time>2022-11-19T10:54:59Z</time>
      </trkpt>
      <trkpt lat="48.68609" lon="1.94214">
        <ele>173</ele>
        <time>2022-11-19T10:55:01Z</time>
      </trkpt>
      <trkpt lat="48.68607" lon="1.94216">
        <ele>173</ele>
        <time>2022-11-19T10:55:03Z</time>
      </trkpt>
      <trkpt lat="48.68606" lon="1.9422">
        <ele>173</ele>
        <time>2022-11-19T10:55:05Z</time>
      </trkpt>
      <trkpt lat="48.68606" lon="1.94223">
        <ele>172</ele>
        <time>2022-11-19T10:55:07Z</time>
      </trkpt>
      <trkpt lat="48.68605" lon="1.94226">
        <ele>172</ele>
        <time>2022-11-19T10:55:09Z</time>
      </trkpt>
      <trkpt lat="48.68603" lon="1.94229">
        <ele>172</ele>
        <time>2022-11-19T10:55:11Z</time>
      </trkpt>
      <trkpt lat="48.68601" lon="1.9423">
        <ele>172</ele>
        <time>2022-11-19T10:55:12Z</time>
      </trkpt>
      <trkpt lat="48.686" lon="1.94234">
        <ele>172</ele>
        <time>2022-11-19T10:55:14Z</time>
      </trkpt>
      <trkpt lat="48.68598" lon="1.94239">
        <ele>171</ele>
        <time>2022-11-19T10:55:16Z</time>
      </trkpt>
      <trkpt lat="48.68598" lon="1.94244">
        <ele>171</ele>
        <time>2022-11-19T10:55:18Z</time>
      </trkpt>
      <trkpt lat="48.68597" lon="1.94249">
        <ele>171</ele>
        <time>2022-11-19T10:55:20Z</time>
      </trkpt>
      <trkpt lat="48.68596" lon="1.94252">
        <ele>171</ele>
        <time>2022-11-19T10:55:22Z</time>
      </trkpt>
      <trkpt lat="48.68593" lon="1.94253">
        <ele>171</ele>
        <time>2022-11-19T10:55:24Z</time>
      </trkpt>
      <trkpt lat="48.6859" lon="1.94256">
        <ele>170</ele>
        <time>2022-11-19T10:55:26Z</time>
      </trkpt>
      <trkpt lat="48.6859" lon="1.94259">
        <ele>170</ele>
        <time>2022-11-19T10:55:28Z</time>
      </trkpt>
      <trkpt lat="48.68589" lon="1.94263">
        <ele>170</ele>
        <time>2022-11-19T10:55:30Z</time>
      </trkpt>
      <trkpt lat="48.68589" lon="1.94266">
        <ele>170</ele>
        <time>2022-11-19T10:55:32Z</time>
      </trkpt>
      <trkpt lat="48.68589" lon="1.94269">
        <ele>170</ele>
        <time>2022-11-19T10:55:34Z</time>
      </trkpt>
      <trkpt lat="48.68589" lon="1.94272">
        <ele>170</ele>
        <time>2022-11-19T10:55:35Z</time>
      </trkpt>
      <trkpt lat="48.68587" lon="1.94276">
        <ele>170</ele>
        <time>2022-11-19T10:55:37Z</time>
      </trkpt>
      <trkpt lat="48.68585" lon="1.94279">
        <ele>170</ele>
        <time>2022-11-19T10:55:39Z</time>
      </trkpt>
      <trkpt lat="48.68583" lon="1.94281">
        <ele>170</ele>
        <time>2022-11-19T10:55:41Z</time>
      </trkpt>
      <trkpt lat="48.68583" lon="1.94285">
        <ele>169</ele>
        <time>2022-11-19T10:55:45Z</time>
      </trkpt>
      <trkpt lat="48.68582" lon="1.94287">
        <ele>169</ele>
        <time>2022-11-19T10:55:47Z</time>
      </trkpt>
      <trkpt lat="48.6858" lon="1.9429">
        <ele>169</ele>
        <time>2022-11-19T10:55:49Z</time>
      </trkpt>
      <trkpt lat="48.68577" lon="1.94292">
        <ele>168</ele>
        <time>2022-11-19T10:55:51Z</time>
      </trkpt>
      <trkpt lat="48.68576" lon="1.94294">
        <ele>168</ele>
        <time>2022-11-19T10:55:52Z</time>
      </trkpt>
      <trkpt lat="48.68574" lon="1.94295">
        <ele>168</ele>
        <time>2022-11-19T10:55:53Z</time>
      </trkpt>
      <trkpt lat="48.68573" lon="1.94297">
        <ele>168</ele>
        <time>2022-11-19T10:55:54Z</time>
      </trkpt>
      <trkpt lat="48.6857" lon="1.94299">
        <ele>168</ele>
        <time>2022-11-19T10:55:56Z</time>
      </trkpt>
      <trkpt lat="48.68568" lon="1.94303">
        <ele>168</ele>
        <time>2022-11-19T10:55:58Z</time>
      </trkpt>
      <trkpt lat="48.68566" lon="1.94306">
        <ele>168</ele>
        <time>2022-11-19T10:56:00Z</time>
      </trkpt>
      <trkpt lat="48.68564" lon="1.9431">
        <ele>167</ele>
        <time>2022-11-19T10:56:02Z</time>
      </trkpt>
      <trkpt lat="48.68562" lon="1.94314">
        <ele>167</ele>
        <time>2022-11-19T10:56:04Z</time>
      </trkpt>
      <trkpt lat="48.6856" lon="1.94318">
        <ele>167</ele>
        <time>2022-11-19T10:56:06Z</time>
      </trkpt>
      <trkpt lat="48.68559" lon="1.94323">
        <ele>167</ele>
        <time>2022-11-19T10:56:08Z</time>
      </trkpt>
      <trkpt lat="48.68558" lon="1.94327">
        <ele>166</ele>
        <time>2022-11-19T10:56:10Z</time>
      </trkpt>
      <trkpt lat="48.68557" lon="1.94331">
        <ele>166</ele>
        <time>2022-11-19T10:56:12Z</time>
      </trkpt>
      <trkpt lat="48.68555" lon="1.94335">
        <ele>166</ele>
        <time>2022-11-19T10:56:14Z</time>
      </trkpt>
      <trkpt lat="48.68553" lon="1.94339">
        <ele>166</ele>
        <time>2022-11-19T10:56:16Z</time>
      </trkpt>
      <trkpt lat="48.68551" lon="1.94341">
        <ele>166</ele>
        <time>2022-11-19T10:56:17Z</time>
      </trkpt>
      <trkpt lat="48.68549" lon="1.94345">
        <ele>165</ele>
        <time>2022-11-19T10:56:19Z</time>
      </trkpt>
      <trkpt lat="48.68547" lon="1.94348">
        <ele>165</ele>
        <time>2022-11-19T10:56:21Z</time>
      </trkpt>
      <trkpt lat="48.68546" lon="1.94351">
        <ele>165</ele>
        <time>2022-11-19T10:56:23Z</time>
      </trkpt>
      <trkpt lat="48.68544" lon="1.94354">
        <ele>165</ele>
        <time>2022-11-19T10:56:25Z</time>
      </trkpt>
      <trkpt lat="48.68542" lon="1.94358">
        <ele>165</ele>
        <time>2022-11-19T10:56:27Z</time>
      </trkpt>
      <trkpt lat="48.6854" lon="1.9436">
        <ele>165</ele>
        <time>2022-11-19T10:56:28Z</time>
      </trkpt>
      <trkpt lat="48.68538" lon="1.94363">
        <ele>165</ele>
        <time>2022-11-19T10:56:30Z</time>
      </trkpt>
      <trkpt lat="48.68535" lon="1.94367">
        <ele>164</ele>
        <time>2022-11-19T10:56:32Z</time>
      </trkpt>
      <trkpt lat="48.68534" lon="1.94372">
        <ele>164</ele>
        <time>2022-11-19T10:56:34Z</time>
      </trkpt>
      <trkpt lat="48.68533" lon="1.94376">
        <ele>165</ele>
        <time>2022-11-19T10:56:36Z</time>
      </trkpt>
      <trkpt lat="48.68533" lon="1.9438">
        <ele>165</ele>
        <time>2022-11-19T10:56:38Z</time>
      </trkpt>
      <trkpt lat="48.68533" lon="1.94384">
        <ele>165</ele>
        <time>2022-11-19T10:56:40Z</time>
      </trkpt>
      <trkpt lat="48.68531" lon="1.94389">
        <ele>166</ele>
        <time>2022-11-19T10:56:42Z</time>
      </trkpt>
      <trkpt lat="48.68529" lon="1.94393">
        <ele>166</ele>
        <time>2022-11-19T10:56:44Z</time>
      </trkpt>
      <trkpt lat="48.68528" lon="1.94397">
        <ele>167</ele>
        <time>2022-11-19T10:56:46Z</time>
      </trkpt>
      <trkpt lat="48.68526" lon="1.94402">
        <ele>167</ele>
        <time>2022-11-19T10:56:48Z</time>
      </trkpt>
      <trkpt lat="48.68526" lon="1.94406">
        <ele>168</ele>
        <time>2022-11-19T10:56:50Z</time>
      </trkpt>
      <trkpt lat="48.68525" lon="1.94409">
        <ele>168</ele>
        <time>2022-11-19T10:56:52Z</time>
      </trkpt>
      <trkpt lat="48.68523" lon="1.94414">
        <ele>168</ele>
        <time>2022-11-19T10:56:54Z</time>
      </trkpt>
      <trkpt lat="48.68521" lon="1.94417">
        <ele>169</ele>
        <time>2022-11-19T10:56:56Z</time>
      </trkpt>
      <trkpt lat="48.6852" lon="1.94421">
        <ele>169</ele>
        <time>2022-11-19T10:56:58Z</time>
      </trkpt>
      <trkpt lat="48.68519" lon="1.94425">
        <ele>169</ele>
        <time>2022-11-19T10:57:00Z</time>
      </trkpt>
      <trkpt lat="48.68517" lon="1.9443">
        <ele>169</ele>
        <time>2022-11-19T10:57:02Z</time>
      </trkpt>
      <trkpt lat="48.68515" lon="1.94434">
        <ele>169</ele>
        <time>2022-11-19T10:57:04Z</time>
      </trkpt>
      <trkpt lat="48.68513" lon="1.94439">
        <ele>170</ele>
        <time>2022-11-19T10:57:06Z</time>
      </trkpt>
      <trkpt lat="48.68512" lon="1.94443">
        <ele>170</ele>
        <time>2022-11-19T10:57:08Z</time>
      </trkpt>
      <trkpt lat="48.6851" lon="1.94447">
        <ele>170</ele>
        <time>2022-11-19T10:57:10Z</time>
      </trkpt>
      <trkpt lat="48.68509" lon="1.94451">
        <ele>170</ele>
        <time>2022-11-19T10:57:12Z</time>
      </trkpt>
      <trkpt lat="48.68508" lon="1.94455">
        <ele>170</ele>
        <time>2022-11-19T10:57:14Z</time>
      </trkpt>
      <trkpt lat="48.68507" lon="1.94459">
        <ele>171</ele>
        <time>2022-11-19T10:57:16Z</time>
      </trkpt>
      <trkpt lat="48.68506" lon="1.94463">
        <ele>171</ele>
        <time>2022-11-19T10:57:18Z</time>
      </trkpt>
      <trkpt lat="48.68504" lon="1.94467">
        <ele>171</ele>
        <time>2022-11-19T10:57:20Z</time>
      </trkpt>
      <trkpt lat="48.68502" lon="1.94472">
        <ele>172</ele>
        <time>2022-11-19T10:57:22Z</time>
      </trkpt>
      <trkpt lat="48.685" lon="1.94475">
        <ele>172</ele>
        <time>2022-11-19T10:57:24Z</time>
      </trkpt>
      <trkpt lat="48.68499" lon="1.94479">
        <ele>173</ele>
        <time>2022-11-19T10:57:26Z</time>
      </trkpt>
      <trkpt lat="48.68497" lon="1.94483">
        <ele>173</ele>
        <time>2022-11-19T10:57:28Z</time>
      </trkpt>
      <trkpt lat="48.68496" lon="1.94487">
        <ele>174</ele>
        <time>2022-11-19T10:57:30Z</time>
      </trkpt>
      <trkpt lat="48.68495" lon="1.9449">
        <ele>174</ele>
        <time>2022-11-19T10:57:32Z</time>
      </trkpt>
      <trkpt lat="48.68493" lon="1.94494">
        <ele>175</ele>
        <time>2022-11-19T10:57:34Z</time>
      </trkpt>
      <trkpt lat="48.68492" lon="1.94496">
        <ele>175</ele>
        <time>2022-11-19T10:57:35Z</time>
      </trkpt>
      <trkpt lat="48.6849" lon="1.94499">
        <ele>175</ele>
        <time>2022-11-19T10:57:37Z</time>
      </trkpt>
      <trkpt lat="48.68489" lon="1.94502">
        <ele>175</ele>
        <time>2022-11-19T10:57:39Z</time>
      </trkpt>
      <trkpt lat="48.68488" lon="1.94506">
        <ele>175</ele>
        <time>2022-11-19T10:57:41Z</time>
      </trkpt>
      <trkpt lat="48.68486" lon="1.94509">
        <ele>176</ele>
        <time>2022-11-19T10:57:43Z</time>
      </trkpt>
      <trkpt lat="48.68486" lon="1.94513">
        <ele>176</ele>
        <time>2022-11-19T10:57:45Z</time>
      </trkpt>
      <trkpt lat="48.68483" lon="1.94516">
        <ele>176</ele>
        <time>2022-11-19T10:57:47Z</time>
      </trkpt>
      <trkpt lat="48.68481" lon="1.9452">
        <ele>176</ele>
        <time>2022-11-19T10:57:49Z</time>
      </trkpt>
      <trkpt lat="48.6848" lon="1.94523">
        <ele>177</ele>
        <time>2022-11-19T10:57:51Z</time>
      </trkpt>
      <trkpt lat="48.68478" lon="1.94527">
        <ele>177</ele>
        <time>2022-11-19T10:57:53Z</time>
      </trkpt>
      <trkpt lat="48.68476" lon="1.9453">
        <ele>177</ele>
        <time>2022-11-19T10:57:55Z</time>
      </trkpt>
      <trkpt lat="48.68474" lon="1.94534">
        <ele>177</ele>
        <time>2022-11-19T10:57:57Z</time>
      </trkpt>
      <trkpt lat="48.68472" lon="1.94537">
        <ele>177</ele>
        <time>2022-11-19T10:57:59Z</time>
      </trkpt>
      <trkpt lat="48.68471" lon="1.9454">
        <ele>178</ele>
        <time>2022-11-19T10:58:01Z</time>
      </trkpt>
      <trkpt lat="48.68469" lon="1.94544">
        <ele>178</ele>
        <time>2022-11-19T10:58:03Z</time>
      </trkpt>
      <trkpt lat="48.68467" lon="1.94547">
        <ele>178</ele>
        <time>2022-11-19T10:58:05Z</time>
      </trkpt>
      <trkpt lat="48.68466" lon="1.94551">
        <ele>178</ele>
        <time>2022-11-19T10:58:07Z</time>
      </trkpt>
      <trkpt lat="48.68464" lon="1.94555">
        <ele>179</ele>
        <time>2022-11-19T10:58:09Z</time>
      </trkpt>
      <trkpt lat="48.68463" lon="1.94558">
        <ele>179</ele>
        <time>2022-11-19T10:58:11Z</time>
      </trkpt>
      <trkpt lat="48.68461" lon="1.94561">
        <ele>179</ele>
        <time>2022-11-19T10:58:13Z</time>
      </trkpt>
      <trkpt lat="48.6846" lon="1.94564">
        <ele>179</ele>
        <time>2022-11-19T10:58:15Z</time>
      </trkpt>
      <trkpt lat="48.68458" lon="1.94567">
        <ele>179</ele>
        <time>2022-11-19T10:58:17Z</time>
      </trkpt>
      <trkpt lat="48.68456" lon="1.94571">
        <ele>178</ele>
        <time>2022-11-19T10:58:19Z</time>
      </trkpt>
      <trkpt lat="48.68455" lon="1.94574">
        <ele>178</ele>
        <time>2022-11-19T10:58:21Z</time>
      </trkpt>
      <trkpt lat="48.68453" lon="1.94578">
        <ele>178</ele>
        <time>2022-11-19T10:58:23Z</time>
      </trkpt>
      <trkpt lat="48.68452" lon="1.94582">
        <ele>178</ele>
        <time>2022-11-19T10:58:25Z</time>
      </trkpt>
      <trkpt lat="48.68451" lon="1.94586">
        <ele>177</ele>
        <time>2022-11-19T10:58:27Z</time>
      </trkpt>
      <trkpt lat="48.6845" lon="1.9459">
        <ele>177</ele>
        <time>2022-11-19T10:58:29Z</time>
      </trkpt>
      <trkpt lat="48.68448" lon="1.94594">
        <ele>177</ele>
        <time>2022-11-19T10:58:31Z</time>
      </trkpt>
      <trkpt lat="48.68447" lon="1.94597">
        <ele>177</ele>
        <time>2022-11-19T10:58:33Z</time>
      </trkpt>
      <trkpt lat="48.68445" lon="1.94601">
        <ele>178</ele>
        <time>2022-11-19T10:58:35Z</time>
      </trkpt>
      <trkpt lat="48.68444" lon="1.94604">
        <ele>177</ele>
        <time>2022-11-19T10:58:37Z</time>
      </trkpt>
      <trkpt lat="48.68442" lon="1.94607">
        <ele>177</ele>
        <time>2022-11-19T10:58:39Z</time>
      </trkpt>
      <trkpt lat="48.6844" lon="1.94611">
        <ele>177</ele>
        <time>2022-11-19T10:58:41Z</time>
      </trkpt>
      <trkpt lat="48.68438" lon="1.94613">
        <ele>177</ele>
        <time>2022-11-19T10:58:43Z</time>
      </trkpt>
      <trkpt lat="48.68436" lon="1.94617">
        <ele>177</ele>
        <time>2022-11-19T10:58:45Z</time>
      </trkpt>
      <trkpt lat="48.68434" lon="1.94618">
        <ele>177</ele>
        <time>2022-11-19T10:58:46Z</time>
      </trkpt>
      <trkpt lat="48.68433" lon="1.9462">
        <ele>177</ele>
        <time>2022-11-19T10:58:47Z</time>
      </trkpt>
      <trkpt lat="48.6843" lon="1.94622">
        <ele>177</ele>
        <time>2022-11-19T10:58:49Z</time>
      </trkpt>
      <trkpt lat="48.68428" lon="1.94624">
        <ele>177</ele>
        <time>2022-11-19T10:58:50Z</time>
      </trkpt>
      <trkpt lat="48.68425" lon="1.94625">
        <ele>177</ele>
        <time>2022-11-19T10:58:52Z</time>
      </trkpt>
      <trkpt lat="48.68423" lon="1.94626">
        <ele>177</ele>
        <time>2022-11-19T10:58:54Z</time>
      </trkpt>
      <trkpt lat="48.68419" lon="1.94624">
        <ele>177</ele>
        <time>2022-11-19T10:58:56Z</time>
      </trkpt>
      <trkpt lat="48.68416" lon="1.94623">
        <ele>176</ele>
        <time>2022-11-19T10:58:58Z</time>
      </trkpt>
      <trkpt lat="48.68414" lon="1.94621">
        <ele>176</ele>
        <time>2022-11-19T10:59:04Z</time>
      </trkpt>
      <trkpt lat="48.68412" lon="1.94617">
        <ele>175</ele>
        <time>2022-11-19T10:59:06Z</time>
      </trkpt>
      <trkpt lat="48.6841" lon="1.94616">
        <ele>175</ele>
        <time>2022-11-19T10:59:07Z</time>
      </trkpt>
      <trkpt lat="48.68408" lon="1.94614">
        <ele>175</ele>
        <time>2022-11-19T10:59:08Z</time>
      </trkpt>
      <trkpt lat="48.68407" lon="1.9461">
        <ele>174</ele>
        <time>2022-11-19T10:59:10Z</time>
      </trkpt>
      <trkpt lat="48.68406" lon="1.94606">
        <ele>174</ele>
        <time>2022-11-19T10:59:12Z</time>
      </trkpt>
      <trkpt lat="48.68405" lon="1.94603">
        <ele>174</ele>
        <time>2022-11-19T10:59:13Z</time>
      </trkpt>
      <trkpt lat="48.68404" lon="1.94598">
        <ele>173</ele>
        <time>2022-11-19T10:59:15Z</time>
      </trkpt>
      <trkpt lat="48.68403" lon="1.94594">
        <ele>172</ele>
        <time>2022-11-19T10:59:17Z</time>
      </trkpt>
      <trkpt lat="48.68402" lon="1.9459">
        <ele>172</ele>
        <time>2022-11-19T10:59:19Z</time>
      </trkpt>
      <trkpt lat="48.68401" lon="1.94587">
        <ele>172</ele>
        <time>2022-11-19T10:59:21Z</time>
      </trkpt>
      <trkpt lat="48.684" lon="1.94583">
        <ele>171</ele>
        <time>2022-11-19T10:59:23Z</time>
      </trkpt>
      <trkpt lat="48.68398" lon="1.9458">
        <ele>171</ele>
        <time>2022-11-19T10:59:25Z</time>
      </trkpt>
      <trkpt lat="48.68397" lon="1.94578">
        <ele>171</ele>
        <time>2022-11-19T10:59:27Z</time>
      </trkpt>
      <trkpt lat="48.68395" lon="1.94575">
        <ele>170</ele>
        <time>2022-11-19T10:59:29Z</time>
      </trkpt>
      <trkpt lat="48.68393" lon="1.94573">
        <ele>170</ele>
        <time>2022-11-19T10:59:31Z</time>
      </trkpt>
      <trkpt lat="48.68392" lon="1.9457">
        <ele>170</ele>
        <time>2022-11-19T10:59:33Z</time>
      </trkpt>
      <trkpt lat="48.68391" lon="1.94567">
        <ele>170</ele>
        <time>2022-11-19T10:59:35Z</time>
      </trkpt>
      <trkpt lat="48.6839" lon="1.94564">
        <ele>169</ele>
        <time>2022-11-19T10:59:37Z</time>
      </trkpt>
      <trkpt lat="48.68388" lon="1.94561">
        <ele>169</ele>
        <time>2022-11-19T10:59:39Z</time>
      </trkpt>
      <trkpt lat="48.68387" lon="1.94558">
        <ele>168</ele>
        <time>2022-11-19T10:59:41Z</time>
      </trkpt>
      <trkpt lat="48.68386" lon="1.94555">
        <ele>168</ele>
        <time>2022-11-19T10:59:43Z</time>
      </trkpt>
      <trkpt lat="48.68384" lon="1.94553">
        <ele>167</ele>
        <time>2022-11-19T10:59:45Z</time>
      </trkpt>
      <trkpt lat="48.68381" lon="1.94551">
        <ele>167</ele>
        <time>2022-11-19T10:59:47Z</time>
      </trkpt>
      <trkpt lat="48.68379" lon="1.94548">
        <ele>166</ele>
        <time>2022-11-19T10:59:49Z</time>
      </trkpt>
      <trkpt lat="48.68378" lon="1.94546">
        <ele>165</ele>
        <time>2022-11-19T10:59:51Z</time>
      </trkpt>
      <trkpt lat="48.68376" lon="1.94544">
        <ele>165</ele>
        <time>2022-11-19T10:59:53Z</time>
      </trkpt>
      <trkpt lat="48.68374" lon="1.94542">
        <ele>164</ele>
        <time>2022-11-19T10:59:55Z</time>
      </trkpt>
      <trkpt lat="48.68372" lon="1.94539">
        <ele>164</ele>
        <time>2022-11-19T10:59:57Z</time>
      </trkpt>
      <trkpt lat="48.68372" lon="1.94535">
        <ele>163</ele>
        <time>2022-11-19T10:59:59Z</time>
      </trkpt>
      <trkpt lat="48.68371" lon="1.94532">
        <ele>163</ele>
        <time>2022-11-19T11:00:01Z</time>
      </trkpt>
      <trkpt lat="48.68369" lon="1.94529">
        <ele>162</ele>
        <time>2022-11-19T11:00:03Z</time>
      </trkpt>
      <trkpt lat="48.68367" lon="1.94526">
        <ele>161</ele>
        <time>2022-11-19T11:00:05Z</time>
      </trkpt>
      <trkpt lat="48.68366" lon="1.94523">
        <ele>160</ele>
        <time>2022-11-19T11:00:07Z</time>
      </trkpt>
      <trkpt lat="48.68365" lon="1.9452">
        <ele>160</ele>
        <time>2022-11-19T11:00:09Z</time>
      </trkpt>
      <trkpt lat="48.68364" lon="1.94517">
        <ele>159</ele>
        <time>2022-11-19T11:00:11Z</time>
      </trkpt>
      <trkpt lat="48.68361" lon="1.94515">
        <ele>158</ele>
        <time>2022-11-19T11:00:13Z</time>
      </trkpt>
      <trkpt lat="48.6836" lon="1.94512">
        <ele>158</ele>
        <time>2022-11-19T11:00:17Z</time>
      </trkpt>
      <trkpt lat="48.68359" lon="1.94509">
        <ele>158</ele>
        <time>2022-11-19T11:00:19Z</time>
      </trkpt>
      <trkpt lat="48.68358" lon="1.94505">
        <ele>157</ele>
        <time>2022-11-19T11:00:21Z</time>
      </trkpt>
      <trkpt lat="48.68357" lon="1.94503">
        <ele>157</ele>
        <time>2022-11-19T11:00:22Z</time>
      </trkpt>
      <trkpt lat="48.68356" lon="1.945">
        <ele>157</ele>
        <time>2022-11-19T11:00:23Z</time>
      </trkpt>
      <trkpt lat="48.68355" lon="1.94495">
        <ele>157</ele>
        <time>2022-11-19T11:00:25Z</time>
      </trkpt>
      <trkpt lat="48.68355" lon="1.94491">
        <ele>156</ele>
        <time>2022-11-19T11:00:27Z</time>
      </trkpt>
      <trkpt lat="48.68354" lon="1.94486">
        <ele>156</ele>
        <time>2022-11-19T11:00:29Z</time>
      </trkpt>
      <trkpt lat="48.68354" lon="1.94482">
        <ele>155</ele>
        <time>2022-11-19T11:00:31Z</time>
      </trkpt>
      <trkpt lat="48.68353" lon="1.94477">
        <ele>155</ele>
        <time>2022-11-19T11:00:33Z</time>
      </trkpt>
      <trkpt lat="48.68353" lon="1.94473">
        <ele>154</ele>
        <time>2022-11-19T11:00:35Z</time>
      </trkpt>
      <trkpt lat="48.68352" lon="1.94468">
        <ele>154</ele>
        <time>2022-11-19T11:00:37Z</time>
      </trkpt>
      <trkpt lat="48.68352" lon="1.94463">
        <ele>153</ele>
        <time>2022-11-19T11:00:39Z</time>
      </trkpt>
      <trkpt lat="48.68352" lon="1.94459">
        <ele>153</ele>
        <time>2022-11-19T11:00:41Z</time>
      </trkpt>
      <trkpt lat="48.68352" lon="1.94455">
        <ele>152</ele>
        <time>2022-11-19T11:00:43Z</time>
      </trkpt>
      <trkpt lat="48.68352" lon="1.9445">
        <ele>152</ele>
        <time>2022-11-19T11:00:45Z</time>
      </trkpt>
      <trkpt lat="48.68353" lon="1.94446">
        <ele>151</ele>
        <time>2022-11-19T11:00:47Z</time>
      </trkpt>
      <trkpt lat="48.68355" lon="1.94442">
        <ele>151</ele>
        <time>2022-11-19T11:00:49Z</time>
      </trkpt>
      <trkpt lat="48.68356" lon="1.94438">
        <ele>150</ele>
        <time>2022-11-19T11:00:51Z</time>
      </trkpt>
      <trkpt lat="48.68357" lon="1.94434">
        <ele>149</ele>
        <time>2022-11-19T11:00:53Z</time>
      </trkpt>
      <trkpt lat="48.68359" lon="1.94431">
        <ele>149</ele>
        <time>2022-11-19T11:00:55Z</time>
      </trkpt>
      <trkpt lat="48.68361" lon="1.94429">
        <ele>148</ele>
        <time>2022-11-19T11:00:57Z</time>
      </trkpt>
      <trkpt lat="48.68362" lon="1.94426">
        <ele>147</ele>
        <time>2022-11-19T11:00:59Z</time>
      </trkpt>
      <trkpt lat="48.68363" lon="1.94422">
        <ele>147</ele>
        <time>2022-11-19T11:01:01Z</time>
      </trkpt>
      <trkpt lat="48.68364" lon="1.94418">
        <ele>147</ele>
        <time>2022-11-19T11:01:03Z</time>
      </trkpt>
      <trkpt lat="48.68365" lon="1.94415">
        <ele>146</ele>
        <time>2022-11-19T11:01:05Z</time>
      </trkpt>
      <trkpt lat="48.68365" lon="1.94412">
        <ele>145</ele>
        <time>2022-11-19T11:01:07Z</time>
      </trkpt>
      <trkpt lat="48.68367" lon="1.94409">
        <ele>144</ele>
        <time>2022-11-19T11:01:09Z</time>
      </trkpt>
      <trkpt lat="48.68368" lon="1.94406">
        <ele>144</ele>
        <time>2022-11-19T11:01:11Z</time>
      </trkpt>
      <trkpt lat="48.6837" lon="1.94404">
        <ele>143</ele>
        <time>2022-11-19T11:01:13Z</time>
      </trkpt>
      <trkpt lat="48.6837" lon="1.94401">
        <ele>143</ele>
        <time>2022-11-19T11:01:15Z</time>
      </trkpt>
      <trkpt lat="48.6837" lon="1.94396">
        <ele>142</ele>
        <time>2022-11-19T11:01:18Z</time>
      </trkpt>
      <trkpt lat="48.6837" lon="1.94393">
        <ele>142</ele>
        <time>2022-11-19T11:01:20Z</time>
      </trkpt>
      <trkpt lat="48.68371" lon="1.9439">
        <ele>142</ele>
        <time>2022-11-19T11:01:22Z</time>
      </trkpt>
      <trkpt lat="48.68372" lon="1.94386">
        <ele>142</ele>
        <time>2022-11-19T11:01:24Z</time>
      </trkpt>
      <trkpt lat="48.68373" lon="1.94383">
        <ele>141</ele>
        <time>2022-11-19T11:01:26Z</time>
      </trkpt>
      <trkpt lat="48.68373" lon="1.9438">
        <ele>141</ele>
        <time>2022-11-19T11:01:28Z</time>
      </trkpt>
      <trkpt lat="48.68374" lon="1.94377">
        <ele>140</ele>
        <time>2022-11-19T11:01:30Z</time>
      </trkpt>
      <trkpt lat="48.68376" lon="1.94375">
        <ele>140</ele>
        <time>2022-11-19T11:01:32Z</time>
      </trkpt>
      <trkpt lat="48.68379" lon="1.94373">
        <ele>140</ele>
        <time>2022-11-19T11:01:34Z</time>
      </trkpt>
      <trkpt lat="48.6838" lon="1.9437">
        <ele>140</ele>
        <time>2022-11-19T11:01:36Z</time>
      </trkpt>
      <trkpt lat="48.68382" lon="1.94367">
        <ele>139</ele>
        <time>2022-11-19T11:01:38Z</time>
      </trkpt>
      <trkpt lat="48.68385" lon="1.94365">
        <ele>139</ele>
        <time>2022-11-19T11:01:40Z</time>
      </trkpt>
      <trkpt lat="48.68388" lon="1.94363">
        <ele>138</ele>
        <time>2022-11-19T11:01:42Z</time>
      </trkpt>
      <trkpt lat="48.68389" lon="1.94359">
        <ele>138</ele>
        <time>2022-11-19T11:01:44Z</time>
      </trkpt>
      <trkpt lat="48.68389" lon="1.94356">
        <ele>137</ele>
        <time>2022-11-19T11:01:46Z</time>
      </trkpt>
      <trkpt lat="48.68389" lon="1.94352">
        <ele>136</ele>
        <time>2022-11-19T11:01:49Z</time>
      </trkpt>
      <trkpt lat="48.68389" lon="1.94348">
        <ele>136</ele>
        <time>2022-11-19T11:01:52Z</time>
      </trkpt>
      <trkpt lat="48.68389" lon="1.94344">
        <ele>135</ele>
        <time>2022-11-19T11:01:55Z</time>
      </trkpt>
      <trkpt lat="48.68388" lon="1.94342">
        <ele>135</ele>
        <time>2022-11-19T11:01:57Z</time>
      </trkpt>
      <trkpt lat="48.68387" lon="1.94338">
        <ele>135</ele>
        <time>2022-11-19T11:01:59Z</time>
      </trkpt>
      <trkpt lat="48.68387" lon="1.94335">
        <ele>134</ele>
        <time>2022-11-19T11:02:01Z</time>
      </trkpt>
      <trkpt lat="48.68387" lon="1.94331">
        <ele>134</ele>
        <time>2022-11-19T11:02:03Z</time>
      </trkpt>
      <trkpt lat="48.68387" lon="1.94328">
        <ele>134</ele>
        <time>2022-11-19T11:02:05Z</time>
      </trkpt>
      <trkpt lat="48.68387" lon="1.94325">
        <ele>133</ele>
        <time>2022-11-19T11:02:07Z</time>
      </trkpt>
      <trkpt lat="48.68386" lon="1.94322">
        <ele>132</ele>
        <time>2022-11-19T11:02:09Z</time>
      </trkpt>
      <trkpt lat="48.68385" lon="1.94318">
        <ele>132</ele>
        <time>2022-11-19T11:02:11Z</time>
      </trkpt>
      <trkpt lat="48.68385" lon="1.94315">
        <ele>131</ele>
        <time>2022-11-19T11:02:13Z</time>
      </trkpt>
      <trkpt lat="48.68384" lon="1.94312">
        <ele>130</ele>
        <time>2022-11-19T11:02:15Z</time>
      </trkpt>
      <trkpt lat="48.68383" lon="1.94308">
        <ele>130</ele>
        <time>2022-11-19T11:02:17Z</time>
      </trkpt>
      <trkpt lat="48.68381" lon="1.94305">
        <ele>129</ele>
        <time>2022-11-19T11:02:19Z</time>
      </trkpt>
      <trkpt lat="48.6838" lon="1.94302">
        <ele>129</ele>
        <time>2022-11-19T11:02:21Z</time>
      </trkpt>
      <trkpt lat="48.68378" lon="1.94299">
        <ele>129</ele>
        <time>2022-11-19T11:02:23Z</time>
      </trkpt>
      <trkpt lat="48.68376" lon="1.94295">
        <ele>128</ele>
        <time>2022-11-19T11:02:25Z</time>
      </trkpt>
      <trkpt lat="48.68374" lon="1.94292">
        <ele>128</ele>
        <time>2022-11-19T11:02:27Z</time>
      </trkpt>
      <trkpt lat="48.68373" lon="1.94288">
        <ele>127</ele>
        <time>2022-11-19T11:02:29Z</time>
      </trkpt>
      <trkpt lat="48.68373" lon="1.94284">
        <ele>127</ele>
        <time>2022-11-19T11:02:31Z</time>
      </trkpt>
      <trkpt lat="48.68373" lon="1.9428">
        <ele>127</ele>
        <time>2022-11-19T11:02:33Z</time>
      </trkpt>
      <trkpt lat="48.68374" lon="1.94276">
        <ele>127</ele>
        <time>2022-11-19T11:02:35Z</time>
      </trkpt>
      <trkpt lat="48.68374" lon="1.94272">
        <ele>126</ele>
        <time>2022-11-19T11:02:37Z</time>
      </trkpt>
      <trkpt lat="48.68375" lon="1.94268">
        <ele>126</ele>
        <time>2022-11-19T11:02:39Z</time>
      </trkpt>
      <trkpt lat="48.68376" lon="1.94265">
        <ele>126</ele>
        <time>2022-11-19T11:02:42Z</time>
      </trkpt>
      <trkpt lat="48.68377" lon="1.94263">
        <ele>125</ele>
        <time>2022-11-19T11:02:44Z</time>
      </trkpt>
      <trkpt lat="48.68378" lon="1.9426">
        <ele>125</ele>
        <time>2022-11-19T11:02:46Z</time>
      </trkpt>
      <trkpt lat="48.68378" lon="1.94257">
        <ele>125</ele>
        <time>2022-11-19T11:02:48Z</time>
      </trkpt>
      <trkpt lat="48.68378" lon="1.94254">
        <ele>125</ele>
        <time>2022-11-19T11:02:51Z</time>
      </trkpt>
      <trkpt lat="48.68377" lon="1.9425">
        <ele>125</ele>
        <time>2022-11-19T11:02:54Z</time>
      </trkpt>
      <trkpt lat="48.68376" lon="1.94247">
        <ele>126</ele>
        <time>2022-11-19T11:02:56Z</time>
      </trkpt>
      <trkpt lat="48.68374" lon="1.94245">
        <ele>126</ele>
        <time>2022-11-19T11:02:58Z</time>
      </trkpt>
      <trkpt lat="48.68372" lon="1.94243">
        <ele>126</ele>
        <time>2022-11-19T11:03:00Z</time>
      </trkpt>
      <trkpt lat="48.68371" lon="1.9424">
        <ele>126</ele>
        <time>2022-11-19T11:03:02Z</time>
      </trkpt>
      <trkpt lat="48.68369" lon="1.94236">
        <ele>126</ele>
        <time>2022-11-19T11:03:04Z</time>
      </trkpt>
      <trkpt lat="48.68368" lon="1.94233">
        <ele>127</ele>
        <time>2022-11-19T11:03:06Z</time>
      </trkpt>
      <trkpt lat="48.68366" lon="1.94231">
        <ele>127</ele>
        <time>2022-11-19T11:03:08Z</time>
      </trkpt>
      <trkpt lat="48.68365" lon="1.94229">
        <ele>127</ele>
        <time>2022-11-19T11:03:10Z</time>
      </trkpt>
      <trkpt lat="48.68363" lon="1.94228">
        <ele>127</ele>
        <time>2022-11-19T11:03:12Z</time>
      </trkpt>
      <trkpt lat="48.6836" lon="1.94227">
        <ele>128</ele>
        <time>2022-11-19T11:03:15Z</time>
      </trkpt>
      <trkpt lat="48.68358" lon="1.94226">
        <ele>128</ele>
        <time>2022-11-19T11:03:17Z</time>
      </trkpt>
      <trkpt lat="48.68355" lon="1.94225">
        <ele>128</ele>
        <time>2022-11-19T11:03:19Z</time>
      </trkpt>
      <trkpt lat="48.68353" lon="1.94223">
        <ele>128</ele>
        <time>2022-11-19T11:03:21Z</time>
      </trkpt>
      <trkpt lat="48.68351" lon="1.9422">
        <ele>128</ele>
        <time>2022-11-19T11:03:23Z</time>
      </trkpt>
      <trkpt lat="48.68349" lon="1.94218">
        <ele>128</ele>
        <time>2022-11-19T11:03:24Z</time>
      </trkpt>
      <trkpt lat="48.68348" lon="1.94217">
        <ele>128</ele>
        <time>2022-11-19T11:03:25Z</time>
      </trkpt>
      <trkpt lat="48.68346" lon="1.94216">
        <ele>128</ele>
        <time>2022-11-19T11:03:26Z</time>
      </trkpt>
      <trkpt lat="48.68344" lon="1.94214">
        <ele>127</ele>
        <time>2022-11-19T11:03:27Z</time>
      </trkpt>
      <trkpt lat="48.68341" lon="1.94212">
        <ele>127</ele>
        <time>2022-11-19T11:03:29Z</time>
      </trkpt>
      <trkpt lat="48.68339" lon="1.94212">
        <ele>127</ele>
        <time>2022-11-19T11:03:31Z</time>
      </trkpt>
      <trkpt lat="48.68337" lon="1.9421">
        <ele>127</ele>
        <time>2022-11-19T11:03:33Z</time>
      </trkpt>
      <trkpt lat="48.68334" lon="1.94209">
        <ele>127</ele>
        <time>2022-11-19T11:03:35Z</time>
      </trkpt>
      <trkpt lat="48.68333" lon="1.94205">
        <ele>127</ele>
        <time>2022-11-19T11:03:37Z</time>
      </trkpt>
      <trkpt lat="48.68331" lon="1.94201">
        <ele>126</ele>
        <time>2022-11-19T11:03:39Z</time>
      </trkpt>
      <trkpt lat="48.6833" lon="1.94197">
        <ele>126</ele>
        <time>2022-11-19T11:03:41Z</time>
      </trkpt>
      <trkpt lat="48.68329" lon="1.94192">
        <ele>126</ele>
        <time>2022-11-19T11:03:43Z</time>
      </trkpt>
      <trkpt lat="48.68327" lon="1.94189">
        <ele>126</ele>
        <time>2022-11-19T11:03:45Z</time>
      </trkpt>
      <trkpt lat="48.68324" lon="1.94187">
        <ele>125</ele>
        <time>2022-11-19T11:03:47Z</time>
      </trkpt>
      <trkpt lat="48.68322" lon="1.94186">
        <ele>126</ele>
        <time>2022-11-19T11:03:49Z</time>
      </trkpt>
      <trkpt lat="48.6832" lon="1.94186">
        <ele>126</ele>
        <time>2022-11-19T11:03:52Z</time>
      </trkpt>
      <trkpt lat="48.68319" lon="1.9419">
        <ele>126</ele>
        <time>2022-11-19T11:03:56Z</time>
      </trkpt>
      <trkpt lat="48.68319" lon="1.94194">
        <ele>127</ele>
        <time>2022-11-19T11:03:59Z</time>
      </trkpt>
      <trkpt lat="48.68319" lon="1.94198">
        <ele>127</ele>
        <time>2022-11-19T11:04:02Z</time>
      </trkpt>
      <trkpt lat="48.68318" lon="1.942">
        <ele>127</ele>
        <time>2022-11-19T11:04:04Z</time>
      </trkpt>
      <trkpt lat="48.68316" lon="1.94203">
        <ele>127</ele>
        <time>2022-11-19T11:04:06Z</time>
      </trkpt>
      <trkpt lat="48.68315" lon="1.94205">
        <ele>127</ele>
        <time>2022-11-19T11:04:08Z</time>
      </trkpt>
      <trkpt lat="48.68313" lon="1.94208">
        <ele>127</ele>
        <time>2022-11-19T11:04:10Z</time>
      </trkpt>
      <trkpt lat="48.68311" lon="1.94211">
        <ele>127</ele>
        <time>2022-11-19T11:04:12Z</time>
      </trkpt>
      <trkpt lat="48.68308" lon="1.94214">
        <ele>128</ele>
        <time>2022-11-19T11:04:14Z</time>
      </trkpt>
      <trkpt lat="48.68306" lon="1.94217">
        <ele>128</ele>
        <time>2022-11-19T11:04:16Z</time>
      </trkpt>
      <trkpt lat="48.68304" lon="1.9422">
        <ele>128</ele>
        <time>2022-11-19T11:04:17Z</time>
      </trkpt>
      <trkpt lat="48.68303" lon="1.94223">
        <ele>128</ele>
        <time>2022-11-19T11:04:19Z</time>
      </trkpt>
      <trkpt lat="48.68302" lon="1.94227">
        <ele>128</ele>
        <time>2022-11-19T11:04:21Z</time>
      </trkpt>
      <trkpt lat="48.68301" lon="1.94231">
        <ele>127</ele>
        <time>2022-11-19T11:04:23Z</time>
      </trkpt>
      <trkpt lat="48.683" lon="1.94235">
        <ele>127</ele>
        <time>2022-11-19T11:04:25Z</time>
      </trkpt>
      <trkpt lat="48.68299" lon="1.94239">
        <ele>127</ele>
        <time>2022-11-19T11:04:27Z</time>
      </trkpt>
      <trkpt lat="48.68298" lon="1.94243">
        <ele>127</ele>
        <time>2022-11-19T11:04:29Z</time>
      </trkpt>
      <trkpt lat="48.68298" lon="1.94247">
        <ele>127</ele>
        <time>2022-11-19T11:04:31Z</time>
      </trkpt>
      <trkpt lat="48.68297" lon="1.94252">
        <ele>127</ele>
        <time>2022-11-19T11:04:33Z</time>
      </trkpt>
      <trkpt lat="48.68297" lon="1.94256">
        <ele>127</ele>
        <time>2022-11-19T11:04:34Z</time>
      </trkpt>
      <trkpt lat="48.68297" lon="1.9426">
        <ele>127</ele>
        <time>2022-11-19T11:04:35Z</time>
      </trkpt>
      <trkpt lat="48.68297" lon="1.94265">
        <ele>126</ele>
        <time>2022-11-19T11:04:36Z</time>
      </trkpt>
      <trkpt lat="48.68297" lon="1.94268">
        <ele>126</ele>
        <time>2022-11-19T11:04:37Z</time>
      </trkpt>
      <trkpt lat="48.68296" lon="1.94272">
        <ele>126</ele>
        <time>2022-11-19T11:04:39Z</time>
      </trkpt>
      <trkpt lat="48.68296" lon="1.94276">
        <ele>127</ele>
        <time>2022-11-19T11:04:41Z</time>
      </trkpt>
      <trkpt lat="48.68294" lon="1.94279">
        <ele>127</ele>
        <time>2022-11-19T11:04:43Z</time>
      </trkpt>
      <trkpt lat="48.68292" lon="1.94283">
        <ele>127</ele>
        <time>2022-11-19T11:04:45Z</time>
      </trkpt>
      <trkpt lat="48.6829" lon="1.94286">
        <ele>127</ele>
        <time>2022-11-19T11:04:47Z</time>
      </trkpt>
      <trkpt lat="48.68288" lon="1.94291">
        <ele>127</ele>
        <time>2022-11-19T11:04:49Z</time>
      </trkpt>
      <trkpt lat="48.68287" lon="1.94293">
        <ele>127</ele>
        <time>2022-11-19T11:04:50Z</time>
      </trkpt>
      <trkpt lat="48.68285" lon="1.94296">
        <ele>126</ele>
        <time>2022-11-19T11:04:51Z</time>
      </trkpt>
      <trkpt lat="48.68284" lon="1.94298">
        <ele>126</ele>
        <time>2022-11-19T11:04:52Z</time>
      </trkpt>
      <trkpt lat="48.68283" lon="1.94302">
        <ele>127</ele>
        <time>2022-11-19T11:04:54Z</time>
      </trkpt>
      <trkpt lat="48.68282" lon="1.94306">
        <ele>126</ele>
        <time>2022-11-19T11:04:56Z</time>
      </trkpt>
      <trkpt lat="48.68281" lon="1.9431">
        <ele>126</ele>
        <time>2022-11-19T11:04:58Z</time>
      </trkpt>
      <trkpt lat="48.6828" lon="1.94313">
        <ele>126</ele>
        <time>2022-11-19T11:05:01Z</time>
      </trkpt>
      <trkpt lat="48.68278" lon="1.94317">
        <ele>126</ele>
        <time>2022-11-19T11:05:03Z</time>
      </trkpt>
      <trkpt lat="48.68278" lon="1.94321">
        <ele>126</ele>
        <time>2022-11-19T11:05:05Z</time>
      </trkpt>
      <trkpt lat="48.68277" lon="1.94325">
        <ele>126</ele>
        <time>2022-11-19T11:05:07Z</time>
      </trkpt>
      <trkpt lat="48.68276" lon="1.94328">
        <ele>126</ele>
        <time>2022-11-19T11:05:09Z</time>
      </trkpt>
      <trkpt lat="48.68273" lon="1.94331">
        <ele>126</ele>
        <time>2022-11-19T11:05:11Z</time>
      </trkpt>
      <trkpt lat="48.68272" lon="1.94334">
        <ele>125</ele>
        <time>2022-11-19T11:05:13Z</time>
      </trkpt>
      <trkpt lat="48.68272" lon="1.94338">
        <ele>125</ele>
        <time>2022-11-19T11:05:15Z</time>
      </trkpt>
      <trkpt lat="48.68272" lon="1.94343">
        <ele>125</ele>
        <time>2022-11-19T11:05:17Z</time>
      </trkpt>
      <trkpt lat="48.68272" lon="1.94347">
        <ele>126</ele>
        <time>2022-11-19T11:05:19Z</time>
      </trkpt>
      <trkpt lat="48.68271" lon="1.94351">
        <ele>126</ele>
        <time>2022-11-19T11:05:21Z</time>
      </trkpt>
      <trkpt lat="48.6827" lon="1.94355">
        <ele>126</ele>
        <time>2022-11-19T11:05:23Z</time>
      </trkpt>
      <trkpt lat="48.68269" lon="1.94361">
        <ele>125</ele>
        <time>2022-11-19T11:05:25Z</time>
      </trkpt>
      <trkpt lat="48.68268" lon="1.94363">
        <ele>125</ele>
        <time>2022-11-19T11:05:26Z</time>
      </trkpt>
      <trkpt lat="48.68267" lon="1.94368">
        <ele>125</ele>
        <time>2022-11-19T11:05:28Z</time>
      </trkpt>
      <trkpt lat="48.68267" lon="1.94371">
        <ele>124</ele>
        <time>2022-11-19T11:05:30Z</time>
      </trkpt>
      <trkpt lat="48.68266" lon="1.94375">
        <ele>124</ele>
        <time>2022-11-19T11:05:32Z</time>
      </trkpt>
      <trkpt lat="48.68265" lon="1.94379">
        <ele>124</ele>
        <time>2022-11-19T11:05:34Z</time>
      </trkpt>
      <trkpt lat="48.68263" lon="1.94383">
        <ele>124</ele>
        <time>2022-11-19T11:05:36Z</time>
      </trkpt>
      <trkpt lat="48.68262" lon="1.94387">
        <ele>125</ele>
        <time>2022-11-19T11:05:38Z</time>
      </trkpt>
      <trkpt lat="48.68261" lon="1.94391">
        <ele>125</ele>
        <time>2022-11-19T11:05:40Z</time>
      </trkpt>
      <trkpt lat="48.68259" lon="1.94395">
        <ele>124</ele>
        <time>2022-11-19T11:05:42Z</time>
      </trkpt>
      <trkpt lat="48.68258" lon="1.94399">
        <ele>124</ele>
        <time>2022-11-19T11:05:44Z</time>
      </trkpt>
      <trkpt lat="48.68256" lon="1.94402">
        <ele>125</ele>
        <time>2022-11-19T11:05:46Z</time>
      </trkpt>
      <trkpt lat="48.68255" lon="1.94406">
        <ele>125</ele>
        <time>2022-11-19T11:05:48Z</time>
      </trkpt>
      <trkpt lat="48.68254" lon="1.94409">
        <ele>125</ele>
        <time>2022-11-19T11:05:50Z</time>
      </trkpt>
      <trkpt lat="48.68251" lon="1.94412">
        <ele>124</ele>
        <time>2022-11-19T11:05:52Z</time>
      </trkpt>
      <trkpt lat="48.68249" lon="1.94415">
        <ele>125</ele>
        <time>2022-11-19T11:05:54Z</time>
      </trkpt>
      <trkpt lat="48.68248" lon="1.94418">
        <ele>125</ele>
        <time>2022-11-19T11:05:56Z</time>
      </trkpt>
      <trkpt lat="48.68245" lon="1.94421">
        <ele>125</ele>
        <time>2022-11-19T11:05:58Z</time>
      </trkpt>
      <trkpt lat="48.68244" lon="1.94423">
        <ele>125</ele>
        <time>2022-11-19T11:05:59Z</time>
      </trkpt>
      <trkpt lat="48.68243" lon="1.94427">
        <ele>126</ele>
        <time>2022-11-19T11:06:01Z</time>
      </trkpt>
      <trkpt lat="48.68242" lon="1.94432">
        <ele>126</ele>
        <time>2022-11-19T11:06:03Z</time>
      </trkpt>
      <trkpt lat="48.68241" lon="1.94436">
        <ele>126</ele>
        <time>2022-11-19T11:06:05Z</time>
      </trkpt>
      <trkpt lat="48.6824" lon="1.94439">
        <ele>126</ele>
        <time>2022-11-19T11:06:07Z</time>
      </trkpt>
      <trkpt lat="48.68239" lon="1.94443">
        <ele>126</ele>
        <time>2022-11-19T11:06:09Z</time>
      </trkpt>
      <trkpt lat="48.68236" lon="1.94446">
        <ele>126</ele>
        <time>2022-11-19T11:06:11Z</time>
      </trkpt>
      <trkpt lat="48.68233" lon="1.94449">
        <ele>126</ele>
        <time>2022-11-19T11:06:13Z</time>
      </trkpt>
      <trkpt lat="48.6823" lon="1.94451">
        <ele>125</ele>
        <time>2022-11-19T11:06:15Z</time>
      </trkpt>
      <trkpt lat="48.68228" lon="1.94452">
        <ele>125</ele>
        <time>2022-11-19T11:06:16Z</time>
      </trkpt>
      <trkpt lat="48.68225" lon="1.94453">
        <ele>125</ele>
        <time>2022-11-19T11:06:18Z</time>
      </trkpt>
      <trkpt lat="48.68222" lon="1.94454">
        <ele>124</ele>
        <time>2022-11-19T11:06:20Z</time>
      </trkpt>
      <trkpt lat="48.68219" lon="1.94454">
        <ele>125</ele>
        <time>2022-11-19T11:06:22Z</time>
      </trkpt>
      <trkpt lat="48.68216" lon="1.94454">
        <ele>124</ele>
        <time>2022-11-19T11:06:24Z</time>
      </trkpt>
      <trkpt lat="48.68214" lon="1.94455">
        <ele>125</ele>
        <time>2022-11-19T11:06:25Z</time>
      </trkpt>
      <trkpt lat="48.68211" lon="1.94456">
        <ele>125</ele>
        <time>2022-11-19T11:06:27Z</time>
      </trkpt>
      <trkpt lat="48.6821" lon="1.94458">
        <ele>125</ele>
        <time>2022-11-19T11:06:29Z</time>
      </trkpt>
      <trkpt lat="48.68207" lon="1.94459">
        <ele>125</ele>
        <time>2022-11-19T11:06:31Z</time>
      </trkpt>
      <trkpt lat="48.68205" lon="1.94461">
        <ele>125</ele>
        <time>2022-11-19T11:06:33Z</time>
      </trkpt>
      <trkpt lat="48.68202" lon="1.94463">
        <ele>125</ele>
        <time>2022-11-19T11:06:35Z</time>
      </trkpt>
      <trkpt lat="48.682" lon="1.94464">
        <ele>125</ele>
        <time>2022-11-19T11:06:37Z</time>
      </trkpt>
      <trkpt lat="48.68196" lon="1.94463">
        <ele>125</ele>
        <time>2022-11-19T11:06:39Z</time>
      </trkpt>
      <trkpt lat="48.68194" lon="1.94462">
        <ele>125</ele>
        <time>2022-11-19T11:06:40Z</time>
      </trkpt>
      <trkpt lat="48.68192" lon="1.94462">
        <ele>124</ele>
        <time>2022-11-19T11:06:41Z</time>
      </trkpt>
      <trkpt lat="48.6819" lon="1.94462">
        <ele>124</ele>
        <time>2022-11-19T11:06:42Z</time>
      </trkpt>
      <trkpt lat="48.68188" lon="1.94463">
        <ele>124</ele>
        <time>2022-11-19T11:06:43Z</time>
      </trkpt>
      <trkpt lat="48.68185" lon="1.94463">
        <ele>124</ele>
        <time>2022-11-19T11:06:44Z</time>
      </trkpt>
      <trkpt lat="48.68183" lon="1.94463">
        <ele>124</ele>
        <time>2022-11-19T11:06:45Z</time>
      </trkpt>
      <trkpt lat="48.6818" lon="1.94463">
        <ele>123</ele>
        <time>2022-11-19T11:06:47Z</time>
      </trkpt>
      <trkpt lat="48.68178" lon="1.94464">
        <ele>123</ele>
        <time>2022-11-19T11:06:49Z</time>
      </trkpt>
      <trkpt lat="48.68175" lon="1.94465">
        <ele>123</ele>
        <time>2022-11-19T11:06:51Z</time>
      </trkpt>
      <trkpt lat="48.68173" lon="1.94467">
        <ele>123</ele>
        <time>2022-11-19T11:06:53Z</time>
      </trkpt>
      <trkpt lat="48.68171" lon="1.94469">
        <ele>124</ele>
        <time>2022-11-19T11:06:55Z</time>
      </trkpt>
      <trkpt lat="48.6817" lon="1.94471">
        <ele>124</ele>
        <time>2022-11-19T11:06:57Z</time>
      </trkpt>
      <trkpt lat="48.68168" lon="1.94474">
        <ele>125</ele>
        <time>2022-11-19T11:06:59Z</time>
      </trkpt>
      <trkpt lat="48.68166" lon="1.94477">
        <ele>124</ele>
        <time>2022-11-19T11:07:01Z</time>
      </trkpt>
      <trkpt lat="48.68164" lon="1.9448">
        <ele>124</ele>
        <time>2022-11-19T11:07:03Z</time>
      </trkpt>
      <trkpt lat="48.68163" lon="1.94483">
        <ele>125</ele>
        <time>2022-11-19T11:07:05Z</time>
      </trkpt>
      <trkpt lat="48.68161" lon="1.94485">
        <ele>125</ele>
        <time>2022-11-19T11:07:07Z</time>
      </trkpt>
      <trkpt lat="48.68159" lon="1.94487">
        <ele>125</ele>
        <time>2022-11-19T11:07:09Z</time>
      </trkpt>
      <trkpt lat="48.68155" lon="1.94488">
        <ele>125</ele>
        <time>2022-11-19T11:07:11Z</time>
      </trkpt>
      <trkpt lat="48.68153" lon="1.94491">
        <ele>125</ele>
        <time>2022-11-19T11:07:13Z</time>
      </trkpt>
      <trkpt lat="48.68151" lon="1.94494">
        <ele>125</ele>
        <time>2022-11-19T11:07:15Z</time>
      </trkpt>
      <trkpt lat="48.6815" lon="1.94497">
        <ele>125</ele>
        <time>2022-11-19T11:07:17Z</time>
      </trkpt>
      <trkpt lat="48.68149" lon="1.94501">
        <ele>124</ele>
        <time>2022-11-19T11:07:19Z</time>
      </trkpt>
      <trkpt lat="48.68148" lon="1.94505">
        <ele>124</ele>
        <time>2022-11-19T11:07:21Z</time>
      </trkpt>
      <trkpt lat="48.68147" lon="1.9451">
        <ele>124</ele>
        <time>2022-11-19T11:07:23Z</time>
      </trkpt>
      <trkpt lat="48.68147" lon="1.94514">
        <ele>124</ele>
        <time>2022-11-19T11:07:25Z</time>
      </trkpt>
      <trkpt lat="48.68147" lon="1.94518">
        <ele>124</ele>
        <time>2022-11-19T11:07:27Z</time>
      </trkpt>
      <trkpt lat="48.68146" lon="1.94522">
        <ele>124</ele>
        <time>2022-11-19T11:07:29Z</time>
      </trkpt>
      <trkpt lat="48.68146" lon="1.94526">
        <ele>124</ele>
        <time>2022-11-19T11:07:31Z</time>
      </trkpt>
      <trkpt lat="48.68146" lon="1.9453">
        <ele>124</ele>
        <time>2022-11-19T11:07:33Z</time>
      </trkpt>
      <trkpt lat="48.68146" lon="1.94534">
        <ele>124</ele>
        <time>2022-11-19T11:07:35Z</time>
      </trkpt>
      <trkpt lat="48.68145" lon="1.94538">
        <ele>124</ele>
        <time>2022-11-19T11:07:37Z</time>
      </trkpt>
      <trkpt lat="48.68144" lon="1.94542">
        <ele>124</ele>
        <time>2022-11-19T11:07:39Z</time>
      </trkpt>
      <trkpt lat="48.68143" lon="1.94545">
        <ele>123</ele>
        <time>2022-11-19T11:07:40Z</time>
      </trkpt>
      <trkpt lat="48.68142" lon="1.94549">
        <ele>123</ele>
        <time>2022-11-19T11:07:42Z</time>
      </trkpt>
      <trkpt lat="48.68141" lon="1.94553">
        <ele>123</ele>
        <time>2022-11-19T11:07:44Z</time>
      </trkpt>
      <trkpt lat="48.6814" lon="1.94558">
        <ele>123</ele>
        <time>2022-11-19T11:07:46Z</time>
      </trkpt>
      <trkpt lat="48.6814" lon="1.94562">
        <ele>123</ele>
        <time>2022-11-19T11:07:48Z</time>
      </trkpt>
      <trkpt lat="48.68139" lon="1.94567">
        <ele>123</ele>
        <time>2022-11-19T11:07:50Z</time>
      </trkpt>
      <trkpt lat="48.68139" lon="1.94572">
        <ele>123</ele>
        <time>2022-11-19T11:07:52Z</time>
      </trkpt>
      <trkpt lat="48.68138" lon="1.94577">
        <ele>123</ele>
        <time>2022-11-19T11:07:54Z</time>
      </trkpt>
      <trkpt lat="48.68138" lon="1.94581">
        <ele>123</ele>
        <time>2022-11-19T11:07:56Z</time>
      </trkpt>
      <trkpt lat="48.68137" lon="1.94584">
        <ele>123</ele>
        <time>2022-11-19T11:07:58Z</time>
      </trkpt>
      <trkpt lat="48.68137" lon="1.94588">
        <ele>123</ele>
        <time>2022-11-19T11:08:00Z</time>
      </trkpt>
      <trkpt lat="48.68137" lon="1.94592">
        <ele>123</ele>
        <time>2022-11-19T11:08:02Z</time>
      </trkpt>
      <trkpt lat="48.68137" lon="1.94595">
        <ele>123</ele>
        <time>2022-11-19T11:08:04Z</time>
      </trkpt>
      <trkpt lat="48.68137" lon="1.94599">
        <ele>124</ele>
        <time>2022-11-19T11:08:06Z</time>
      </trkpt>
      <trkpt lat="48.68137" lon="1.94603">
        <ele>124</ele>
        <time>2022-11-19T11:08:08Z</time>
      </trkpt>
      <trkpt lat="48.68138" lon="1.94607">
        <ele>124</ele>
        <time>2022-11-19T11:08:10Z</time>
      </trkpt>
      <trkpt lat="48.68137" lon="1.94612">
        <ele>124</ele>
        <time>2022-11-19T11:08:12Z</time>
      </trkpt>
      <trkpt lat="48.68137" lon="1.94616">
        <ele>124</ele>
        <time>2022-11-19T11:08:14Z</time>
      </trkpt>
      <trkpt lat="48.68137" lon="1.9462">
        <ele>124</ele>
        <time>2022-11-19T11:08:16Z</time>
      </trkpt>
      <trkpt lat="48.68137" lon="1.94624">
        <ele>124</ele>
        <time>2022-11-19T11:08:18Z</time>
      </trkpt>
      <trkpt lat="48.68137" lon="1.94629">
        <ele>124</ele>
        <time>2022-11-19T11:08:20Z</time>
      </trkpt>
      <trkpt lat="48.68136" lon="1.94633">
        <ele>124</ele>
        <time>2022-11-19T11:08:22Z</time>
      </trkpt>
      <trkpt lat="48.68137" lon="1.94637">
        <ele>124</ele>
        <time>2022-11-19T11:08:24Z</time>
      </trkpt>
      <trkpt lat="48.68137" lon="1.94641">
        <ele>124</ele>
        <time>2022-11-19T11:08:26Z</time>
      </trkpt>
      <trkpt lat="48.68137" lon="1.94645">
        <ele>124</ele>
        <time>2022-11-19T11:08:28Z</time>
      </trkpt>
      <trkpt lat="48.68137" lon="1.94648">
        <ele>124</ele>
        <time>2022-11-19T11:08:30Z</time>
      </trkpt>
      <trkpt lat="48.68138" lon="1.94652">
        <ele>123</ele>
        <time>2022-11-19T11:08:32Z</time>
      </trkpt>
      <trkpt lat="48.68139" lon="1.94656">
        <ele>124</ele>
        <time>2022-11-19T11:08:34Z</time>
      </trkpt>
      <trkpt lat="48.68139" lon="1.94659">
        <ele>124</ele>
        <time>2022-11-19T11:08:36Z</time>
      </trkpt>
      <trkpt lat="48.6814" lon="1.94663">
        <ele>124</ele>
        <time>2022-11-19T11:08:38Z</time>
      </trkpt>
      <trkpt lat="48.68141" lon="1.94667">
        <ele>125</ele>
        <time>2022-11-19T11:08:40Z</time>
      </trkpt>
      <trkpt lat="48.68142" lon="1.94671">
        <ele>125</ele>
        <time>2022-11-19T11:08:42Z</time>
      </trkpt>
      <trkpt lat="48.68144" lon="1.94676">
        <ele>125</ele>
        <time>2022-11-19T11:08:44Z</time>
      </trkpt>
      <trkpt lat="48.68144" lon="1.9468">
        <ele>125</ele>
        <time>2022-11-19T11:08:46Z</time>
      </trkpt>
      <trkpt lat="48.68145" lon="1.94685">
        <ele>125</ele>
        <time>2022-11-19T11:08:48Z</time>
      </trkpt>
      <trkpt lat="48.68145" lon="1.94689">
        <ele>125</ele>
        <time>2022-11-19T11:08:50Z</time>
      </trkpt>
      <trkpt lat="48.68145" lon="1.94694">
        <ele>125</ele>
        <time>2022-11-19T11:08:52Z</time>
      </trkpt>
      <trkpt lat="48.68145" lon="1.94698">
        <ele>125</ele>
        <time>2022-11-19T11:08:54Z</time>
      </trkpt>
      <trkpt lat="48.68144" lon="1.94701">
        <ele>126</ele>
        <time>2022-11-19T11:08:56Z</time>
      </trkpt>
      <trkpt lat="48.68144" lon="1.94703">
        <ele>126</ele>
        <time>2022-11-19T11:08:58Z</time>
      </trkpt>
      <trkpt lat="48.68143" lon="1.94707">
        <ele>126</ele>
        <time>2022-11-19T11:09:00Z</time>
      </trkpt>
      <trkpt lat="48.68143" lon="1.94709">
        <ele>126</ele>
        <time>2022-11-19T11:09:02Z</time>
      </trkpt>
      <trkpt lat="48.68141" lon="1.94714">
        <ele>127</ele>
        <time>2022-11-19T11:09:04Z</time>
      </trkpt>
      <trkpt lat="48.68139" lon="1.94717">
        <ele>127</ele>
        <time>2022-11-19T11:09:06Z</time>
      </trkpt>
      <trkpt lat="48.68137" lon="1.9472">
        <ele>127</ele>
        <time>2022-11-19T11:09:08Z</time>
      </trkpt>
      <trkpt lat="48.68136" lon="1.94724">
        <ele>127</ele>
        <time>2022-11-19T11:09:10Z</time>
      </trkpt>
      <trkpt lat="48.68135" lon="1.94728">
        <ele>127</ele>
        <time>2022-11-19T11:09:12Z</time>
      </trkpt>
      <trkpt lat="48.68134" lon="1.94732">
        <ele>127</ele>
        <time>2022-11-19T11:09:14Z</time>
      </trkpt>
      <trkpt lat="48.68133" lon="1.94736">
        <ele>128</ele>
        <time>2022-11-19T11:09:16Z</time>
      </trkpt>
      <trkpt lat="48.68132" lon="1.9474">
        <ele>128</ele>
        <time>2022-11-19T11:09:18Z</time>
      </trkpt>
      <trkpt lat="48.6813" lon="1.94743">
        <ele>129</ele>
        <time>2022-11-19T11:09:21Z</time>
      </trkpt>
      <trkpt lat="48.68129" lon="1.94746">
        <ele>129</ele>
        <time>2022-11-19T11:09:23Z</time>
      </trkpt>
      <trkpt lat="48.68128" lon="1.94749">
        <ele>129</ele>
        <time>2022-11-19T11:09:25Z</time>
      </trkpt>
      <trkpt lat="48.68127" lon="1.94752">
        <ele>130</ele>
        <time>2022-11-19T11:09:27Z</time>
      </trkpt>
      <trkpt lat="48.68127" lon="1.94756">
        <ele>130</ele>
        <time>2022-11-19T11:09:29Z</time>
      </trkpt>
      <trkpt lat="48.68127" lon="1.9476">
        <ele>130</ele>
        <time>2022-11-19T11:09:31Z</time>
      </trkpt>
      <trkpt lat="48.68127" lon="1.94765">
        <ele>130</ele>
        <time>2022-11-19T11:09:33Z</time>
      </trkpt>
      <trkpt lat="48.68127" lon="1.94769">
        <ele>130</ele>
        <time>2022-11-19T11:09:35Z</time>
      </trkpt>
      <trkpt lat="48.68127" lon="1.94772">
        <ele>130</ele>
        <time>2022-11-19T11:09:37Z</time>
      </trkpt>
      <trkpt lat="48.68126" lon="1.94776">
        <ele>131</ele>
        <time>2022-11-19T11:09:39Z</time>
      </trkpt>
      <trkpt lat="48.68124" lon="1.94779">
        <ele>131</ele>
        <time>2022-11-19T11:09:41Z</time>
      </trkpt>
      <trkpt lat="48.68123" lon="1.94782">
        <ele>131</ele>
        <time>2022-11-19T11:09:43Z</time>
      </trkpt>
      <trkpt lat="48.68122" lon="1.94785">
        <ele>131</ele>
        <time>2022-11-19T11:09:45Z</time>
      </trkpt>
      <trkpt lat="48.68121" lon="1.94788">
        <ele>131</ele>
        <time>2022-11-19T11:09:46Z</time>
      </trkpt>
      <trkpt lat="48.68119" lon="1.94791">
        <ele>130</ele>
        <time>2022-11-19T11:09:48Z</time>
      </trkpt>
      <trkpt lat="48.68118" lon="1.94794">
        <ele>130</ele>
        <time>2022-11-19T11:09:50Z</time>
      </trkpt>
      <trkpt lat="48.68117" lon="1.94795">
        <ele>130</ele>
        <time>2022-11-19T11:09:52Z</time>
      </trkpt>
      <trkpt lat="48.68114" lon="1.94797">
        <ele>130</ele>
        <time>2022-11-19T11:09:54Z</time>
      </trkpt>
      <trkpt lat="48.68113" lon="1.948">
        <ele>131</ele>
        <time>2022-11-19T11:09:56Z</time>
      </trkpt>
      <trkpt lat="48.68111" lon="1.94803">
        <ele>130</ele>
        <time>2022-11-19T11:09:58Z</time>
      </trkpt>
      <trkpt lat="48.6811" lon="1.94807">
        <ele>130</ele>
        <time>2022-11-19T11:10:00Z</time>
      </trkpt>
      <trkpt lat="48.68109" lon="1.94811">
        <ele>130</ele>
        <time>2022-11-19T11:10:02Z</time>
      </trkpt>
      <trkpt lat="48.68109" lon="1.94814">
        <ele>130</ele>
        <time>2022-11-19T11:10:05Z</time>
      </trkpt>
      <trkpt lat="48.68107" lon="1.94816">
        <ele>130</ele>
        <time>2022-11-19T11:10:08Z</time>
      </trkpt>
      <trkpt lat="48.68103" lon="1.94811">
        <ele>129</ele>
        <time>2022-11-19T11:10:11Z</time>
      </trkpt>
      <trkpt lat="48.68104" lon="1.94813">
        <ele>128</ele>
        <time>2022-11-19T11:10:23Z</time>
      </trkpt>
      <trkpt lat="48.68104" lon="1.94817">
        <ele>128</ele>
        <time>2022-11-19T11:10:25Z</time>
      </trkpt>
      <trkpt lat="48.68104" lon="1.9482">
        <ele>128</ele>
        <time>2022-11-19T11:10:27Z</time>
      </trkpt>
      <trkpt lat="48.68103" lon="1.94822">
        <ele>127</ele>
        <time>2022-11-19T11:10:30Z</time>
      </trkpt>
      <trkpt lat="48.68102" lon="1.94825">
        <ele>127</ele>
        <time>2022-11-19T11:10:35Z</time>
      </trkpt>
      <trkpt lat="48.68101" lon="1.94828">
        <ele>127</ele>
        <time>2022-11-19T11:10:39Z</time>
      </trkpt>
      <trkpt lat="48.68101" lon="1.94831">
        <ele>127</ele>
        <time>2022-11-19T11:10:41Z</time>
      </trkpt>
      <trkpt lat="48.68101" lon="1.94835">
        <ele>127</ele>
        <time>2022-11-19T11:10:43Z</time>
      </trkpt>
      <trkpt lat="48.681" lon="1.94837">
        <ele>128</ele>
        <time>2022-11-19T11:10:45Z</time>
      </trkpt>
      <trkpt lat="48.68099" lon="1.9484">
        <ele>127</ele>
        <time>2022-11-19T11:10:47Z</time>
      </trkpt>
      <trkpt lat="48.68098" lon="1.94843">
        <ele>127</ele>
        <time>2022-11-19T11:10:49Z</time>
      </trkpt>
      <trkpt lat="48.68098" lon="1.94847">
        <ele>127</ele>
        <time>2022-11-19T11:10:51Z</time>
      </trkpt>
      <trkpt lat="48.68098" lon="1.94851">
        <ele>127</ele>
        <time>2022-11-19T11:10:53Z</time>
      </trkpt>
      <trkpt lat="48.68098" lon="1.94855">
        <ele>127</ele>
        <time>2022-11-19T11:10:55Z</time>
      </trkpt>
      <trkpt lat="48.68097" lon="1.94858">
        <ele>126</ele>
        <time>2022-11-19T11:10:57Z</time>
      </trkpt>
      <trkpt lat="48.68098" lon="1.94862">
        <ele>126</ele>
        <time>2022-11-19T11:10:59Z</time>
      </trkpt>
      <trkpt lat="48.68097" lon="1.94866">
        <ele>126</ele>
        <time>2022-11-19T11:11:01Z</time>
      </trkpt>
      <trkpt lat="48.68095" lon="1.94869">
        <ele>126</ele>
        <time>2022-11-19T11:11:03Z</time>
      </trkpt>
      <trkpt lat="48.68094" lon="1.94871">
        <ele>126</ele>
        <time>2022-11-19T11:11:05Z</time>
      </trkpt>
      <trkpt lat="48.6809" lon="1.94874">
        <ele>126</ele>
        <time>2022-11-19T11:11:07Z</time>
      </trkpt>
      <trkpt lat="48.68088" lon="1.94877">
        <ele>126</ele>
        <time>2022-11-19T11:11:09Z</time>
      </trkpt>
      <trkpt lat="48.68088" lon="1.9488">
        <ele>126</ele>
        <time>2022-11-19T11:11:11Z</time>
      </trkpt>
      <trkpt lat="48.68087" lon="1.94885">
        <ele>126</ele>
        <time>2022-11-19T11:11:13Z</time>
      </trkpt>
      <trkpt lat="48.68088" lon="1.94889">
        <ele>126</ele>
        <time>2022-11-19T11:11:15Z</time>
      </trkpt>
      <trkpt lat="48.68089" lon="1.94893">
        <ele>126</ele>
        <time>2022-11-19T11:11:17Z</time>
      </trkpt>
      <trkpt lat="48.6809" lon="1.94898">
        <ele>126</ele>
        <time>2022-11-19T11:11:19Z</time>
      </trkpt>
      <trkpt lat="48.6809" lon="1.94902">
        <ele>126</ele>
        <time>2022-11-19T11:11:21Z</time>
      </trkpt>
      <trkpt lat="48.68091" lon="1.94906">
        <ele>126</ele>
        <time>2022-11-19T11:11:23Z</time>
      </trkpt>
      <trkpt lat="48.6809" lon="1.94909">
        <ele>126</ele>
        <time>2022-11-19T11:11:25Z</time>
      </trkpt>
      <trkpt lat="48.68091" lon="1.94913">
        <ele>127</ele>
        <time>2022-11-19T11:11:27Z</time>
      </trkpt>
      <trkpt lat="48.6809" lon="1.94917">
        <ele>127</ele>
        <time>2022-11-19T11:11:29Z</time>
      </trkpt>
      <trkpt lat="48.68089" lon="1.94921">
        <ele>127</ele>
        <time>2022-11-19T11:11:31Z</time>
      </trkpt>
      <trkpt lat="48.68088" lon="1.94925">
        <ele>127</ele>
        <time>2022-11-19T11:11:33Z</time>
      </trkpt>
      <trkpt lat="48.68087" lon="1.94929">
        <ele>128</ele>
        <time>2022-11-19T11:11:35Z</time>
      </trkpt>
      <trkpt lat="48.68086" lon="1.94934">
        <ele>128</ele>
        <time>2022-11-19T11:11:37Z</time>
      </trkpt>
      <trkpt lat="48.68084" lon="1.94938">
        <ele>128</ele>
        <time>2022-11-19T11:11:39Z</time>
      </trkpt>
      <trkpt lat="48.68083" lon="1.94943">
        <ele>128</ele>
        <time>2022-11-19T11:11:41Z</time>
      </trkpt>
      <trkpt lat="48.68081" lon="1.94947">
        <ele>128</ele>
        <time>2022-11-19T11:11:43Z</time>
      </trkpt>
      <trkpt lat="48.6808" lon="1.94951">
        <ele>128</ele>
        <time>2022-11-19T11:11:45Z</time>
      </trkpt>
      <trkpt lat="48.68079" lon="1.94954">
        <ele>128</ele>
        <time>2022-11-19T11:11:47Z</time>
      </trkpt>
      <trkpt lat="48.68077" lon="1.94957">
        <ele>128</ele>
        <time>2022-11-19T11:11:49Z</time>
      </trkpt>
      <trkpt lat="48.68076" lon="1.94961">
        <ele>128</ele>
        <time>2022-11-19T11:11:51Z</time>
      </trkpt>
      <trkpt lat="48.68075" lon="1.94964">
        <ele>128</ele>
        <time>2022-11-19T11:11:53Z</time>
      </trkpt>
      <trkpt lat="48.68072" lon="1.94964">
        <ele>127</ele>
        <time>2022-11-19T11:11:55Z</time>
      </trkpt>
      <trkpt lat="48.68069" lon="1.94964">
        <ele>126</ele>
        <time>2022-11-19T11:11:56Z</time>
      </trkpt>
      <trkpt lat="48.68068" lon="1.94966">
        <ele>125</ele>
        <time>2022-11-19T11:11:58Z</time>
      </trkpt>
      <trkpt lat="48.68069" lon="1.94969">
        <ele>125</ele>
        <time>2022-11-19T11:12:05Z</time>
      </trkpt>
      <trkpt lat="48.68069" lon="1.94972">
        <ele>125</ele>
        <time>2022-11-19T11:12:07Z</time>
      </trkpt>
      <trkpt lat="48.68067" lon="1.94974">
        <ele>126</ele>
        <time>2022-11-19T11:12:10Z</time>
      </trkpt>
      <trkpt lat="48.68067" lon="1.94977">
        <ele>125</ele>
        <time>2022-11-19T11:12:13Z</time>
      </trkpt>
      <trkpt lat="48.68066" lon="1.9498">
        <ele>125</ele>
        <time>2022-11-19T11:12:18Z</time>
      </trkpt>
      <trkpt lat="48.68064" lon="1.94982">
        <ele>126</ele>
        <time>2022-11-19T11:12:23Z</time>
      </trkpt>
      <trkpt lat="48.68064" lon="1.94985">
        <ele>125</ele>
        <time>2022-11-19T11:12:44Z</time>
      </trkpt>
      <trkpt lat="48.68063" lon="1.94987">
        <ele>125</ele>
        <time>2022-11-19T11:12:47Z</time>
      </trkpt>
      <trkpt lat="48.68062" lon="1.94991">
        <ele>126</ele>
        <time>2022-11-19T11:12:50Z</time>
      </trkpt>
      <trkpt lat="48.68061" lon="1.94994">
        <ele>126</ele>
        <time>2022-11-19T11:12:52Z</time>
      </trkpt>
      <trkpt lat="48.6806" lon="1.94997">
        <ele>126</ele>
        <time>2022-11-19T11:12:54Z</time>
      </trkpt>
      <trkpt lat="48.68059" lon="1.95">
        <ele>127</ele>
        <time>2022-11-19T11:12:56Z</time>
      </trkpt>
      <trkpt lat="48.68057" lon="1.95003">
        <ele>127</ele>
        <time>2022-11-19T11:12:58Z</time>
      </trkpt>
      <trkpt lat="48.68057" lon="1.95005">
        <ele>126</ele>
        <time>2022-11-19T11:13:00Z</time>
      </trkpt>
      <trkpt lat="48.68055" lon="1.95008">
        <ele>126</ele>
        <time>2022-11-19T11:13:02Z</time>
      </trkpt>
      <trkpt lat="48.68054" lon="1.95011">
        <ele>127</ele>
        <time>2022-11-19T11:13:04Z</time>
      </trkpt>
      <trkpt lat="48.68053" lon="1.95014">
        <ele>127</ele>
        <time>2022-11-19T11:13:06Z</time>
      </trkpt>
      <trkpt lat="48.68053" lon="1.95018">
        <ele>127</ele>
        <time>2022-11-19T11:13:08Z</time>
      </trkpt>
      <trkpt lat="48.68052" lon="1.95022">
        <ele>127</ele>
        <time>2022-11-19T11:13:10Z</time>
      </trkpt>
      <trkpt lat="48.6805" lon="1.95025">
        <ele>127</ele>
        <time>2022-11-19T11:13:12Z</time>
      </trkpt>
      <trkpt lat="48.68048" lon="1.95028">
        <ele>127</ele>
        <time>2022-11-19T11:13:14Z</time>
      </trkpt>
      <trkpt lat="48.68046" lon="1.95031">
        <ele>127</ele>
        <time>2022-11-19T11:13:16Z</time>
      </trkpt>
      <trkpt lat="48.68043" lon="1.95034">
        <ele>127</ele>
        <time>2022-11-19T11:13:18Z</time>
      </trkpt>
      <trkpt lat="48.68041" lon="1.95036">
        <ele>127</ele>
        <time>2022-11-19T11:13:20Z</time>
      </trkpt>
      <trkpt lat="48.68039" lon="1.95039">
        <ele>127</ele>
        <time>2022-11-19T11:13:22Z</time>
      </trkpt>
      <trkpt lat="48.68037" lon="1.95041">
        <ele>127</ele>
        <time>2022-11-19T11:13:23Z</time>
      </trkpt>
      <trkpt lat="48.68035" lon="1.95043">
        <ele>127</ele>
        <time>2022-11-19T11:13:24Z</time>
      </trkpt>
      <trkpt lat="48.68034" lon="1.95046">
        <ele>127</ele>
        <time>2022-11-19T11:13:26Z</time>
      </trkpt>
      <trkpt lat="48.68032" lon="1.95048">
        <ele>127</ele>
        <time>2022-11-19T11:13:28Z</time>
      </trkpt>
      <trkpt lat="48.68029" lon="1.9505">
        <ele>127</ele>
        <time>2022-11-19T11:13:30Z</time>
      </trkpt>
      <trkpt lat="48.68026" lon="1.95052">
        <ele>127</ele>
        <time>2022-11-19T11:13:31Z</time>
      </trkpt>
      <trkpt lat="48.68024" lon="1.95053">
        <ele>126</ele>
        <time>2022-11-19T11:13:32Z</time>
      </trkpt>
      <trkpt lat="48.68022" lon="1.95054">
        <ele>125</ele>
        <time>2022-11-19T11:13:34Z</time>
      </trkpt>
      <trkpt lat="48.6802" lon="1.95056">
        <ele>125</ele>
        <time>2022-11-19T11:13:36Z</time>
      </trkpt>
      <trkpt lat="48.68017" lon="1.95058">
        <ele>125</ele>
        <time>2022-11-19T11:13:38Z</time>
      </trkpt>
      <trkpt lat="48.68015" lon="1.95061">
        <ele>125</ele>
        <time>2022-11-19T11:13:40Z</time>
      </trkpt>
      <trkpt lat="48.68012" lon="1.95063">
        <ele>126</ele>
        <time>2022-11-19T11:13:42Z</time>
      </trkpt>
      <trkpt lat="48.6801" lon="1.95066">
        <ele>126</ele>
        <time>2022-11-19T11:13:44Z</time>
      </trkpt>
      <trkpt lat="48.68009" lon="1.95069">
        <ele>126</ele>
        <time>2022-11-19T11:13:46Z</time>
      </trkpt>
      <trkpt lat="48.68008" lon="1.95072">
        <ele>126</ele>
        <time>2022-11-19T11:13:48Z</time>
      </trkpt>
      <trkpt lat="48.68006" lon="1.95075">
        <ele>126</ele>
        <time>2022-11-19T11:13:50Z</time>
      </trkpt>
      <trkpt lat="48.68006" lon="1.95078">
        <ele>126</ele>
        <time>2022-11-19T11:13:52Z</time>
      </trkpt>
      <trkpt lat="48.68004" lon="1.95082">
        <ele>126</ele>
        <time>2022-11-19T11:13:54Z</time>
      </trkpt>
      <trkpt lat="48.68003" lon="1.95086">
        <ele>126</ele>
        <time>2022-11-19T11:13:56Z</time>
      </trkpt>
      <trkpt lat="48.68002" lon="1.95088">
        <ele>126</ele>
        <time>2022-11-19T11:13:57Z</time>
      </trkpt>
      <trkpt lat="48.68001" lon="1.9509">
        <ele>126</ele>
        <time>2022-11-19T11:13:58Z</time>
      </trkpt>
      <trkpt lat="48.67999" lon="1.95095">
        <ele>126</ele>
        <time>2022-11-19T11:14:00Z</time>
      </trkpt>
      <trkpt lat="48.67999" lon="1.95098">
        <ele>126</ele>
        <time>2022-11-19T11:14:01Z</time>
      </trkpt>
      <trkpt lat="48.67999" lon="1.95102">
        <ele>125</ele>
        <time>2022-11-19T11:14:03Z</time>
      </trkpt>
      <trkpt lat="48.67998" lon="1.95105">
        <ele>125</ele>
        <time>2022-11-19T11:14:05Z</time>
      </trkpt>
      <trkpt lat="48.67996" lon="1.95108">
        <ele>126</ele>
        <time>2022-11-19T11:14:07Z</time>
      </trkpt>
      <trkpt lat="48.67994" lon="1.95112">
        <ele>126</ele>
        <time>2022-11-19T11:14:09Z</time>
      </trkpt>
      <trkpt lat="48.67993" lon="1.95116">
        <ele>126</ele>
        <time>2022-11-19T11:14:11Z</time>
      </trkpt>
      <trkpt lat="48.67991" lon="1.9512">
        <ele>126</ele>
        <time>2022-11-19T11:14:13Z</time>
      </trkpt>
      <trkpt lat="48.6799" lon="1.95123">
        <ele>127</ele>
        <time>2022-11-19T11:14:15Z</time>
      </trkpt>
      <trkpt lat="48.67988" lon="1.95127">
        <ele>127</ele>
        <time>2022-11-19T11:14:17Z</time>
      </trkpt>
      <trkpt lat="48.67986" lon="1.95129">
        <ele>127</ele>
        <time>2022-11-19T11:14:18Z</time>
      </trkpt>
      <trkpt lat="48.67984" lon="1.95132">
        <ele>128</ele>
        <time>2022-11-19T11:14:20Z</time>
      </trkpt>
      <trkpt lat="48.67983" lon="1.95136">
        <ele>128</ele>
        <time>2022-11-19T11:14:22Z</time>
      </trkpt>
      <trkpt lat="48.67982" lon="1.9514">
        <ele>128</ele>
        <time>2022-11-19T11:14:24Z</time>
      </trkpt>
      <trkpt lat="48.67981" lon="1.95143">
        <ele>128</ele>
        <time>2022-11-19T11:14:26Z</time>
      </trkpt>
      <trkpt lat="48.67979" lon="1.95147">
        <ele>128</ele>
        <time>2022-11-19T11:14:28Z</time>
      </trkpt>
      <trkpt lat="48.67978" lon="1.95151">
        <ele>128</ele>
        <time>2022-11-19T11:14:30Z</time>
      </trkpt>
      <trkpt lat="48.67977" lon="1.95154">
        <ele>129</ele>
        <time>2022-11-19T11:14:32Z</time>
      </trkpt>
      <trkpt lat="48.67976" lon="1.95158">
        <ele>128</ele>
        <time>2022-11-19T11:14:34Z</time>
      </trkpt>
      <trkpt lat="48.67976" lon="1.95163">
        <ele>128</ele>
        <time>2022-11-19T11:14:36Z</time>
      </trkpt>
      <trkpt lat="48.67974" lon="1.95168">
        <ele>128</ele>
        <time>2022-11-19T11:14:38Z</time>
      </trkpt>
      <trkpt lat="48.67973" lon="1.95172">
        <ele>128</ele>
        <time>2022-11-19T11:14:40Z</time>
      </trkpt>
      <trkpt lat="48.67972" lon="1.95176">
        <ele>128</ele>
        <time>2022-11-19T11:14:42Z</time>
      </trkpt>
      <trkpt lat="48.67971" lon="1.9518">
        <ele>128</ele>
        <time>2022-11-19T11:14:44Z</time>
      </trkpt>
      <trkpt lat="48.67969" lon="1.95184">
        <ele>128</ele>
        <time>2022-11-19T11:14:46Z</time>
      </trkpt>
      <trkpt lat="48.67968" lon="1.95188">
        <ele>127</ele>
        <time>2022-11-19T11:14:48Z</time>
      </trkpt>
      <trkpt lat="48.67968" lon="1.95193">
        <ele>127</ele>
        <time>2022-11-19T11:14:50Z</time>
      </trkpt>
      <trkpt lat="48.67967" lon="1.95195">
        <ele>127</ele>
        <time>2022-11-19T11:14:51Z</time>
      </trkpt>
      <trkpt lat="48.67967" lon="1.95198">
        <ele>127</ele>
        <time>2022-11-19T11:14:52Z</time>
      </trkpt>
      <trkpt lat="48.67967" lon="1.95203">
        <ele>127</ele>
        <time>2022-11-19T11:14:54Z</time>
      </trkpt>
      <trkpt lat="48.67967" lon="1.95208">
        <ele>128</ele>
        <time>2022-11-19T11:14:56Z</time>
      </trkpt>
      <trkpt lat="48.67967" lon="1.95212">
        <ele>128</ele>
        <time>2022-11-19T11:14:58Z</time>
      </trkpt>
      <trkpt lat="48.67967" lon="1.95217">
        <ele>128</ele>
        <time>2022-11-19T11:15:00Z</time>
      </trkpt>
      <trkpt lat="48.67966" lon="1.95221">
        <ele>127</ele>
        <time>2022-11-19T11:15:02Z</time>
      </trkpt>
      <trkpt lat="48.67965" lon="1.95226">
        <ele>128</ele>
        <time>2022-11-19T11:15:04Z</time>
      </trkpt>
      <trkpt lat="48.67965" lon="1.95229">
        <ele>128</ele>
        <time>2022-11-19T11:15:06Z</time>
      </trkpt>
      <trkpt lat="48.67965" lon="1.95232">
        <ele>128</ele>
        <time>2022-11-19T11:15:08Z</time>
      </trkpt>
      <trkpt lat="48.67964" lon="1.95237">
        <ele>128</ele>
        <time>2022-11-19T11:15:10Z</time>
      </trkpt>
      <trkpt lat="48.67964" lon="1.95241">
        <ele>128</ele>
        <time>2022-11-19T11:15:12Z</time>
      </trkpt>
      <trkpt lat="48.67964" lon="1.95245">
        <ele>128</ele>
        <time>2022-11-19T11:15:14Z</time>
      </trkpt>
      <trkpt lat="48.67964" lon="1.9525">
        <ele>128</ele>
        <time>2022-11-19T11:15:16Z</time>
      </trkpt>
      <trkpt lat="48.67964" lon="1.95253">
        <ele>128</ele>
        <time>2022-11-19T11:15:18Z</time>
      </trkpt>
      <trkpt lat="48.67962" lon="1.95258">
        <ele>129</ele>
        <time>2022-11-19T11:15:20Z</time>
      </trkpt>
      <trkpt lat="48.67961" lon="1.95262">
        <ele>129</ele>
        <time>2022-11-19T11:15:22Z</time>
      </trkpt>
      <trkpt lat="48.67959" lon="1.95265">
        <ele>129</ele>
        <time>2022-11-19T11:15:24Z</time>
      </trkpt>
      <trkpt lat="48.67957" lon="1.95269">
        <ele>129</ele>
        <time>2022-11-19T11:15:26Z</time>
      </trkpt>
      <trkpt lat="48.67957" lon="1.95274">
        <ele>129</ele>
        <time>2022-11-19T11:15:28Z</time>
      </trkpt>
      <trkpt lat="48.67956" lon="1.95278">
        <ele>129</ele>
        <time>2022-11-19T11:15:30Z</time>
      </trkpt>
      <trkpt lat="48.67955" lon="1.95282">
        <ele>129</ele>
        <time>2022-11-19T11:15:32Z</time>
      </trkpt>
      <trkpt lat="48.67955" lon="1.95286">
        <ele>128</ele>
        <time>2022-11-19T11:15:34Z</time>
      </trkpt>
      <trkpt lat="48.67954" lon="1.9529">
        <ele>129</ele>
        <time>2022-11-19T11:15:36Z</time>
      </trkpt>
      <trkpt lat="48.67953" lon="1.95294">
        <ele>129</ele>
        <time>2022-11-19T11:15:38Z</time>
      </trkpt>
      <trkpt lat="48.67951" lon="1.95297">
        <ele>129</ele>
        <time>2022-11-19T11:15:40Z</time>
      </trkpt>
      <trkpt lat="48.6795" lon="1.953">
        <ele>128</ele>
        <time>2022-11-19T11:15:41Z</time>
      </trkpt>
      <trkpt lat="48.67949" lon="1.95305">
        <ele>128</ele>
        <time>2022-11-19T11:15:43Z</time>
      </trkpt>
      <trkpt lat="48.67948" lon="1.9531">
        <ele>128</ele>
        <time>2022-11-19T11:15:45Z</time>
      </trkpt>
      <trkpt lat="48.67946" lon="1.95314">
        <ele>128</ele>
        <time>2022-11-19T11:15:47Z</time>
      </trkpt>
      <trkpt lat="48.67945" lon="1.95317">
        <ele>128</ele>
        <time>2022-11-19T11:15:49Z</time>
      </trkpt>
      <trkpt lat="48.67943" lon="1.95322">
        <ele>128</ele>
        <time>2022-11-19T11:15:51Z</time>
      </trkpt>
      <trkpt lat="48.67942" lon="1.95325">
        <ele>128</ele>
        <time>2022-11-19T11:15:52Z</time>
      </trkpt>
      <trkpt lat="48.67941" lon="1.95329">
        <ele>129</ele>
        <time>2022-11-19T11:15:54Z</time>
      </trkpt>
      <trkpt lat="48.6794" lon="1.95333">
        <ele>130</ele>
        <time>2022-11-19T11:15:56Z</time>
      </trkpt>
      <trkpt lat="48.67939" lon="1.95336">
        <ele>129</ele>
        <time>2022-11-19T11:15:57Z</time>
      </trkpt>
      <trkpt lat="48.67938" lon="1.95339">
        <ele>129</ele>
        <time>2022-11-19T11:15:58Z</time>
      </trkpt>
      <trkpt lat="48.67937" lon="1.95342">
        <ele>129</ele>
        <time>2022-11-19T11:15:59Z</time>
      </trkpt>
      <trkpt lat="48.67936" lon="1.95345">
        <ele>129</ele>
        <time>2022-11-19T11:16:00Z</time>
      </trkpt>
      <trkpt lat="48.67936" lon="1.95348">
        <ele>129</ele>
        <time>2022-11-19T11:16:01Z</time>
      </trkpt>
      <trkpt lat="48.67935" lon="1.95353">
        <ele>129</ele>
        <time>2022-11-19T11:16:03Z</time>
      </trkpt>
      <trkpt lat="48.67935" lon="1.95356">
        <ele>129</ele>
        <time>2022-11-19T11:16:05Z</time>
      </trkpt>
      <trkpt lat="48.67933" lon="1.9536">
        <ele>129</ele>
        <time>2022-11-19T11:16:07Z</time>
      </trkpt>
      <trkpt lat="48.67933" lon="1.95363">
        <ele>129</ele>
        <time>2022-11-19T11:16:09Z</time>
      </trkpt>
      <trkpt lat="48.67932" lon="1.95367">
        <ele>129</ele>
        <time>2022-11-19T11:16:11Z</time>
      </trkpt>
      <trkpt lat="48.67932" lon="1.95371">
        <ele>129</ele>
        <time>2022-11-19T11:16:13Z</time>
      </trkpt>
      <trkpt lat="48.67931" lon="1.95376">
        <ele>129</ele>
        <time>2022-11-19T11:16:15Z</time>
      </trkpt>
      <trkpt lat="48.67931" lon="1.9538">
        <ele>129</ele>
        <time>2022-11-19T11:16:17Z</time>
      </trkpt>
      <trkpt lat="48.6793" lon="1.95385">
        <ele>129</ele>
        <time>2022-11-19T11:16:19Z</time>
      </trkpt>
      <trkpt lat="48.67928" lon="1.95388">
        <ele>129</ele>
        <time>2022-11-19T11:16:21Z</time>
      </trkpt>
      <trkpt lat="48.67927" lon="1.95392">
        <ele>129</ele>
        <time>2022-11-19T11:16:23Z</time>
      </trkpt>
      <trkpt lat="48.67927" lon="1.95395">
        <ele>130</ele>
        <time>2022-11-19T11:16:25Z</time>
      </trkpt>
      <trkpt lat="48.67926" lon="1.95398">
        <ele>130</ele>
        <time>2022-11-19T11:16:27Z</time>
      </trkpt>
      <trkpt lat="48.67925" lon="1.95402">
        <ele>130</ele>
        <time>2022-11-19T11:16:29Z</time>
      </trkpt>
      <trkpt lat="48.67924" lon="1.95405">
        <ele>130</ele>
        <time>2022-11-19T11:16:31Z</time>
      </trkpt>
      <trkpt lat="48.67924" lon="1.95411">
        <ele>130</ele>
        <time>2022-11-19T11:16:33Z</time>
      </trkpt>
      <trkpt lat="48.67925" lon="1.95414">
        <ele>130</ele>
        <time>2022-11-19T11:16:34Z</time>
      </trkpt>
      <trkpt lat="48.67925" lon="1.95417">
        <ele>130</ele>
        <time>2022-11-19T11:16:35Z</time>
      </trkpt>
      <trkpt lat="48.67924" lon="1.95422">
        <ele>130</ele>
        <time>2022-11-19T11:16:37Z</time>
      </trkpt>
      <trkpt lat="48.67924" lon="1.95426">
        <ele>130</ele>
        <time>2022-11-19T11:16:39Z</time>
      </trkpt>
      <trkpt lat="48.67924" lon="1.95431">
        <ele>131</ele>
        <time>2022-11-19T11:16:41Z</time>
      </trkpt>
      <trkpt lat="48.67924" lon="1.95434">
        <ele>131</ele>
        <time>2022-11-19T11:16:42Z</time>
      </trkpt>
      <trkpt lat="48.67924" lon="1.95438">
        <ele>130</ele>
        <time>2022-11-19T11:16:43Z</time>
      </trkpt>
      <trkpt lat="48.67923" lon="1.95442">
        <ele>130</ele>
        <time>2022-11-19T11:16:44Z</time>
      </trkpt>
      <trkpt lat="48.67923" lon="1.95445">
        <ele>130</ele>
        <time>2022-11-19T11:16:45Z</time>
      </trkpt>
      <trkpt lat="48.67924" lon="1.9545">
        <ele>130</ele>
        <time>2022-11-19T11:16:47Z</time>
      </trkpt>
      <trkpt lat="48.67923" lon="1.95455">
        <ele>130</ele>
        <time>2022-11-19T11:16:49Z</time>
      </trkpt>
      <trkpt lat="48.67923" lon="1.95458">
        <ele>130</ele>
        <time>2022-11-19T11:16:50Z</time>
      </trkpt>
      <trkpt lat="48.67924" lon="1.95462">
        <ele>130</ele>
        <time>2022-11-19T11:16:51Z</time>
      </trkpt>
      <trkpt lat="48.67924" lon="1.95466">
        <ele>130</ele>
        <time>2022-11-19T11:16:52Z</time>
      </trkpt>
      <trkpt lat="48.67923" lon="1.9547">
        <ele>130</ele>
        <time>2022-11-19T11:16:53Z</time>
      </trkpt>
      <trkpt lat="48.67923" lon="1.95473">
        <ele>130</ele>
        <time>2022-11-19T11:16:54Z</time>
      </trkpt>
      <trkpt lat="48.67924" lon="1.95475">
        <ele>131</ele>
        <time>2022-11-19T11:16:55Z</time>
      </trkpt>
      <trkpt lat="48.67924" lon="1.9548">
        <ele>131</ele>
        <time>2022-11-19T11:16:57Z</time>
      </trkpt>
      <trkpt lat="48.67924" lon="1.95485">
        <ele>131</ele>
        <time>2022-11-19T11:16:59Z</time>
      </trkpt>
      <trkpt lat="48.67924" lon="1.9549">
        <ele>131</ele>
        <time>2022-11-19T11:17:01Z</time>
      </trkpt>
      <trkpt lat="48.67924" lon="1.95495">
        <ele>131</ele>
        <time>2022-11-19T11:17:03Z</time>
      </trkpt>
      <trkpt lat="48.67923" lon="1.95499">
        <ele>131</ele>
        <time>2022-11-19T11:17:05Z</time>
      </trkpt>
      <trkpt lat="48.67923" lon="1.95501">
        <ele>131</ele>
        <time>2022-11-19T11:17:06Z</time>
      </trkpt>
      <trkpt lat="48.67922" lon="1.95506">
        <ele>131</ele>
        <time>2022-11-19T11:17:08Z</time>
      </trkpt>
      <trkpt lat="48.67921" lon="1.95511">
        <ele>131</ele>
        <time>2022-11-19T11:17:10Z</time>
      </trkpt>
      <trkpt lat="48.67921" lon="1.95517">
        <ele>130</ele>
        <time>2022-11-19T11:17:12Z</time>
      </trkpt>
      <trkpt lat="48.67921" lon="1.95526">
        <ele>130</ele>
        <time>2022-11-19T11:17:15Z</time>
      </trkpt>
      <trkpt lat="48.67922" lon="1.95532">
        <ele>130</ele>
        <time>2022-11-19T11:17:17Z</time>
      </trkpt>
      <trkpt lat="48.67921" lon="1.95537">
        <ele>130</ele>
        <time>2022-11-19T11:17:19Z</time>
      </trkpt>
      <trkpt lat="48.6792" lon="1.9554">
        <ele>130</ele>
        <time>2022-11-19T11:17:20Z</time>
      </trkpt>
      <trkpt lat="48.6792" lon="1.95545">
        <ele>131</ele>
        <time>2022-11-19T11:17:22Z</time>
      </trkpt>
      <trkpt lat="48.67919" lon="1.95548">
        <ele>131</ele>
        <time>2022-11-19T11:17:23Z</time>
      </trkpt>
      <trkpt lat="48.67917" lon="1.95552">
        <ele>131</ele>
        <time>2022-11-19T11:17:25Z</time>
      </trkpt>
      <trkpt lat="48.67915" lon="1.95556">
        <ele>130</ele>
        <time>2022-11-19T11:17:27Z</time>
      </trkpt>
      <trkpt lat="48.67914" lon="1.9556">
        <ele>130</ele>
        <time>2022-11-19T11:17:29Z</time>
      </trkpt>
      <trkpt lat="48.67912" lon="1.95562">
        <ele>130</ele>
        <time>2022-11-19T11:17:30Z</time>
      </trkpt>
      <trkpt lat="48.67911" lon="1.95564">
        <ele>130</ele>
        <time>2022-11-19T11:17:31Z</time>
      </trkpt>
      <trkpt lat="48.6791" lon="1.95569">
        <ele>130</ele>
        <time>2022-11-19T11:17:33Z</time>
      </trkpt>
      <trkpt lat="48.67909" lon="1.95573">
        <ele>130</ele>
        <time>2022-11-19T11:17:35Z</time>
      </trkpt>
      <trkpt lat="48.67907" lon="1.95577">
        <ele>130</ele>
        <time>2022-11-19T11:17:37Z</time>
      </trkpt>
      <trkpt lat="48.67906" lon="1.95581">
        <ele>131</ele>
        <time>2022-11-19T11:17:39Z</time>
      </trkpt>
      <trkpt lat="48.67905" lon="1.95585">
        <ele>131</ele>
        <time>2022-11-19T11:17:41Z</time>
      </trkpt>
      <trkpt lat="48.67904" lon="1.95587">
        <ele>131</ele>
        <time>2022-11-19T11:17:42Z</time>
      </trkpt>
      <trkpt lat="48.67903" lon="1.95591">
        <ele>131</ele>
        <time>2022-11-19T11:17:44Z</time>
      </trkpt>
      <trkpt lat="48.67902" lon="1.95594">
        <ele>132</ele>
        <time>2022-11-19T11:17:46Z</time>
      </trkpt>
      <trkpt lat="48.679" lon="1.95597">
        <ele>132</ele>
        <time>2022-11-19T11:17:48Z</time>
      </trkpt>
      <trkpt lat="48.67899" lon="1.956">
        <ele>132</ele>
        <time>2022-11-19T11:17:50Z</time>
      </trkpt>
      <trkpt lat="48.67896" lon="1.95604">
        <ele>132</ele>
        <time>2022-11-19T11:17:52Z</time>
      </trkpt>
      <trkpt lat="48.67895" lon="1.95606">
        <ele>132</ele>
        <time>2022-11-19T11:17:53Z</time>
      </trkpt>
      <trkpt lat="48.67894" lon="1.9561">
        <ele>132</ele>
        <time>2022-11-19T11:17:55Z</time>
      </trkpt>
      <trkpt lat="48.67892" lon="1.95614">
        <ele>132</ele>
        <time>2022-11-19T11:17:57Z</time>
      </trkpt>
      <trkpt lat="48.67891" lon="1.95617">
        <ele>132</ele>
        <time>2022-11-19T11:17:59Z</time>
      </trkpt>
      <trkpt lat="48.67889" lon="1.95621">
        <ele>132</ele>
        <time>2022-11-19T11:18:01Z</time>
      </trkpt>
      <trkpt lat="48.67887" lon="1.95624">
        <ele>132</ele>
        <time>2022-11-19T11:18:03Z</time>
      </trkpt>
      <trkpt lat="48.67886" lon="1.95626">
        <ele>132</ele>
        <time>2022-11-19T11:18:05Z</time>
      </trkpt>
      <trkpt lat="48.67884" lon="1.95629">
        <ele>133</ele>
        <time>2022-11-19T11:18:07Z</time>
      </trkpt>
      <trkpt lat="48.67883" lon="1.95631">
        <ele>133</ele>
        <time>2022-11-19T11:18:09Z</time>
      </trkpt>
      <trkpt lat="48.67882" lon="1.95634">
        <ele>133</ele>
        <time>2022-11-19T11:18:11Z</time>
      </trkpt>
      <trkpt lat="48.6788" lon="1.95636">
        <ele>133</ele>
        <time>2022-11-19T11:18:13Z</time>
      </trkpt>
      <trkpt lat="48.67879" lon="1.95639">
        <ele>133</ele>
        <time>2022-11-19T11:18:15Z</time>
      </trkpt>
      <trkpt lat="48.67877" lon="1.95642">
        <ele>133</ele>
        <time>2022-11-19T11:18:17Z</time>
      </trkpt>
      <trkpt lat="48.67875" lon="1.95645">
        <ele>133</ele>
        <time>2022-11-19T11:18:19Z</time>
      </trkpt>
      <trkpt lat="48.67872" lon="1.95648">
        <ele>133</ele>
        <time>2022-11-19T11:18:21Z</time>
      </trkpt>
      <trkpt lat="48.67871" lon="1.9565">
        <ele>132</ele>
        <time>2022-11-19T11:18:22Z</time>
      </trkpt>
      <trkpt lat="48.67869" lon="1.95651">
        <ele>132</ele>
        <time>2022-11-19T11:18:23Z</time>
      </trkpt>
      <trkpt lat="48.67867" lon="1.95653">
        <ele>132</ele>
        <time>2022-11-19T11:18:24Z</time>
      </trkpt>
      <trkpt lat="48.67865" lon="1.95655">
        <ele>132</ele>
        <time>2022-11-19T11:18:26Z</time>
      </trkpt>
      <trkpt lat="48.67864" lon="1.95658">
        <ele>132</ele>
        <time>2022-11-19T11:18:28Z</time>
      </trkpt>
      <trkpt lat="48.67862" lon="1.9566">
        <ele>132</ele>
        <time>2022-11-19T11:18:30Z</time>
      </trkpt>
      <trkpt lat="48.6786" lon="1.95663">
        <ele>133</ele>
        <time>2022-11-19T11:18:32Z</time>
      </trkpt>
      <trkpt lat="48.67858" lon="1.95666">
        <ele>133</ele>
        <time>2022-11-19T11:18:34Z</time>
      </trkpt>
      <trkpt lat="48.67857" lon="1.95669">
        <ele>133</ele>
        <time>2022-11-19T11:18:36Z</time>
      </trkpt>
      <trkpt lat="48.67855" lon="1.95673">
        <ele>133</ele>
        <time>2022-11-19T11:18:38Z</time>
      </trkpt>
      <trkpt lat="48.67852" lon="1.95677">
        <ele>133</ele>
        <time>2022-11-19T11:18:40Z</time>
      </trkpt>
      <trkpt lat="48.6785" lon="1.9568">
        <ele>133</ele>
        <time>2022-11-19T11:18:42Z</time>
      </trkpt>
      <trkpt lat="48.67849" lon="1.95683">
        <ele>133</ele>
        <time>2022-11-19T11:18:44Z</time>
      </trkpt>
      <trkpt lat="48.67848" lon="1.95687">
        <ele>133</ele>
        <time>2022-11-19T11:18:46Z</time>
      </trkpt>
      <trkpt lat="48.67847" lon="1.9569">
        <ele>133</ele>
        <time>2022-11-19T11:18:48Z</time>
      </trkpt>
      <trkpt lat="48.67845" lon="1.95694">
        <ele>133</ele>
        <time>2022-11-19T11:18:50Z</time>
      </trkpt>
      <trkpt lat="48.67844" lon="1.95697">
        <ele>133</ele>
        <time>2022-11-19T11:18:52Z</time>
      </trkpt>
      <trkpt lat="48.67843" lon="1.95701">
        <ele>133</ele>
        <time>2022-11-19T11:18:54Z</time>
      </trkpt>
      <trkpt lat="48.67842" lon="1.95705">
        <ele>134</ele>
        <time>2022-11-19T11:18:56Z</time>
      </trkpt>
      <trkpt lat="48.6784" lon="1.95707">
        <ele>134</ele>
        <time>2022-11-19T11:18:58Z</time>
      </trkpt>
      <trkpt lat="48.67837" lon="1.95711">
        <ele>133</ele>
        <time>2022-11-19T11:19:00Z</time>
      </trkpt>
      <trkpt lat="48.67836" lon="1.95712">
        <ele>133</ele>
        <time>2022-11-19T11:19:01Z</time>
      </trkpt>
      <trkpt lat="48.67834" lon="1.95714">
        <ele>133</ele>
        <time>2022-11-19T11:19:02Z</time>
      </trkpt>
      <trkpt lat="48.67831" lon="1.95717">
        <ele>132</ele>
        <time>2022-11-19T11:19:04Z</time>
      </trkpt>
      <trkpt lat="48.6783" lon="1.9572">
        <ele>132</ele>
        <time>2022-11-19T11:19:06Z</time>
      </trkpt>
      <trkpt lat="48.67828" lon="1.95722">
        <ele>132</ele>
        <time>2022-11-19T11:19:08Z</time>
      </trkpt>
      <trkpt lat="48.67826" lon="1.95724">
        <ele>132</ele>
        <time>2022-11-19T11:19:10Z</time>
      </trkpt>
      <trkpt lat="48.67824" lon="1.95726">
        <ele>132</ele>
        <time>2022-11-19T11:19:12Z</time>
      </trkpt>
      <trkpt lat="48.67822" lon="1.95729">
        <ele>132</ele>
        <time>2022-11-19T11:19:14Z</time>
      </trkpt>
      <trkpt lat="48.6782" lon="1.95732">
        <ele>132</ele>
        <time>2022-11-19T11:19:16Z</time>
      </trkpt>
      <trkpt lat="48.67818" lon="1.95735">
        <ele>131</ele>
        <time>2022-11-19T11:19:18Z</time>
      </trkpt>
      <trkpt lat="48.67816" lon="1.95738">
        <ele>131</ele>
        <time>2022-11-19T11:19:20Z</time>
      </trkpt>
      <trkpt lat="48.67814" lon="1.9574">
        <ele>131</ele>
        <time>2022-11-19T11:19:21Z</time>
      </trkpt>
      <trkpt lat="48.67813" lon="1.95742">
        <ele>131</ele>
        <time>2022-11-19T11:19:23Z</time>
      </trkpt>
      <trkpt lat="48.67812" lon="1.95746">
        <ele>130</ele>
        <time>2022-11-19T11:19:26Z</time>
      </trkpt>
      <trkpt lat="48.67811" lon="1.95748">
        <ele>130</ele>
        <time>2022-11-19T11:19:28Z</time>
      </trkpt>
      <trkpt lat="48.67809" lon="1.95748">
        <ele>129</ele>
        <time>2022-11-19T11:19:29Z</time>
      </trkpt>
      <trkpt lat="48.67806" lon="1.95747">
        <ele>129</ele>
        <time>2022-11-19T11:19:30Z</time>
      </trkpt>
      <trkpt lat="48.67805" lon="1.95748">
        <ele>128</ele>
        <time>2022-11-19T11:19:31Z</time>
      </trkpt>
      <trkpt lat="48.67802" lon="1.95749">
        <ele>128</ele>
        <time>2022-11-19T11:19:33Z</time>
      </trkpt>
      <trkpt lat="48.678" lon="1.95751">
        <ele>128</ele>
        <time>2022-11-19T11:19:35Z</time>
      </trkpt>
      <trkpt lat="48.67797" lon="1.95755">
        <ele>128</ele>
        <time>2022-11-19T11:19:37Z</time>
      </trkpt>
      <trkpt lat="48.67796" lon="1.95757">
        <ele>128</ele>
        <time>2022-11-19T11:19:39Z</time>
      </trkpt>
      <trkpt lat="48.67794" lon="1.95759">
        <ele>128</ele>
        <time>2022-11-19T11:19:41Z</time>
      </trkpt>
      <trkpt lat="48.67793" lon="1.95762">
        <ele>128</ele>
        <time>2022-11-19T11:19:43Z</time>
      </trkpt>
      <trkpt lat="48.67791" lon="1.95766">
        <ele>128</ele>
        <time>2022-11-19T11:19:47Z</time>
      </trkpt>
      <trkpt lat="48.67788" lon="1.95768">
        <ele>128</ele>
        <time>2022-11-19T11:19:48Z</time>
      </trkpt>
      <trkpt lat="48.67787" lon="1.95771">
        <ele>127</ele>
        <time>2022-11-19T11:19:50Z</time>
      </trkpt>
      <trkpt lat="48.67786" lon="1.95774">
        <ele>127</ele>
        <time>2022-11-19T11:19:52Z</time>
      </trkpt>
      <trkpt lat="48.67784" lon="1.95777">
        <ele>127</ele>
        <time>2022-11-19T11:19:54Z</time>
      </trkpt>
      <trkpt lat="48.67782" lon="1.9578">
        <ele>127</ele>
        <time>2022-11-19T11:19:56Z</time>
      </trkpt>
      <trkpt lat="48.67781" lon="1.95783">
        <ele>127</ele>
        <time>2022-11-19T11:19:58Z</time>
      </trkpt>
      <trkpt lat="48.67779" lon="1.95785">
        <ele>127</ele>
        <time>2022-11-19T11:20:00Z</time>
      </trkpt>
      <trkpt lat="48.67776" lon="1.95785">
        <ele>127</ele>
        <time>2022-11-19T11:20:02Z</time>
      </trkpt>
      <trkpt lat="48.67773" lon="1.95785">
        <ele>126</ele>
        <time>2022-11-19T11:20:03Z</time>
      </trkpt>
      <trkpt lat="48.67771" lon="1.95785">
        <ele>126</ele>
        <time>2022-11-19T11:20:04Z</time>
      </trkpt>
      <trkpt lat="48.67768" lon="1.95786">
        <ele>126</ele>
        <time>2022-11-19T11:20:06Z</time>
      </trkpt>
      <trkpt lat="48.67766" lon="1.95786">
        <ele>126</ele>
        <time>2022-11-19T11:20:07Z</time>
      </trkpt>
      <trkpt lat="48.67764" lon="1.95786">
        <ele>125</ele>
        <time>2022-11-19T11:20:08Z</time>
      </trkpt>
      <trkpt lat="48.67763" lon="1.95786">
        <ele>125</ele>
        <time>2022-11-19T11:20:09Z</time>
      </trkpt>
      <trkpt lat="48.67761" lon="1.95787">
        <ele>125</ele>
        <time>2022-11-19T11:20:10Z</time>
      </trkpt>
      <trkpt lat="48.67759" lon="1.95786">
        <ele>124</ele>
        <time>2022-11-19T11:20:11Z</time>
      </trkpt>
      <trkpt lat="48.67757" lon="1.95785">
        <ele>124</ele>
        <time>2022-11-19T11:20:12Z</time>
      </trkpt>
      <trkpt lat="48.67755" lon="1.95784">
        <ele>124</ele>
        <time>2022-11-19T11:20:13Z</time>
      </trkpt>
      <trkpt lat="48.67753" lon="1.95784">
        <ele>123</ele>
        <time>2022-11-19T11:20:14Z</time>
      </trkpt>
      <trkpt lat="48.67751" lon="1.95784">
        <ele>123</ele>
        <time>2022-11-19T11:20:15Z</time>
      </trkpt>
      <trkpt lat="48.67748" lon="1.95786">
        <ele>123</ele>
        <time>2022-11-19T11:20:16Z</time>
      </trkpt>
      <trkpt lat="48.67746" lon="1.95787">
        <ele>122</ele>
        <time>2022-11-19T11:20:17Z</time>
      </trkpt>
      <trkpt lat="48.67743" lon="1.9579">
        <ele>121</ele>
        <time>2022-11-19T11:20:19Z</time>
      </trkpt>
      <trkpt lat="48.67742" lon="1.95794">
        <ele>120</ele>
        <time>2022-11-19T11:20:21Z</time>
      </trkpt>
      <trkpt lat="48.67741" lon="1.95798">
        <ele>120</ele>
        <time>2022-11-19T11:20:23Z</time>
      </trkpt>
      <trkpt lat="48.6774" lon="1.95802">
        <ele>120</ele>
        <time>2022-11-19T11:20:25Z</time>
      </trkpt>
      <trkpt lat="48.6774" lon="1.95806">
        <ele>120</ele>
        <time>2022-11-19T11:20:27Z</time>
      </trkpt>
      <trkpt lat="48.67739" lon="1.9581">
        <ele>119</ele>
        <time>2022-11-19T11:20:29Z</time>
      </trkpt>
      <trkpt lat="48.67739" lon="1.95814">
        <ele>119</ele>
        <time>2022-11-19T11:20:31Z</time>
      </trkpt>
      <trkpt lat="48.67739" lon="1.95818">
        <ele>119</ele>
        <time>2022-11-19T11:20:33Z</time>
      </trkpt>
      <trkpt lat="48.67738" lon="1.95822">
        <ele>119</ele>
        <time>2022-11-19T11:20:35Z</time>
      </trkpt>
      <trkpt lat="48.67737" lon="1.95826">
        <ele>119</ele>
        <time>2022-11-19T11:20:37Z</time>
      </trkpt>
      <trkpt lat="48.67735" lon="1.95829">
        <ele>119</ele>
        <time>2022-11-19T11:20:39Z</time>
      </trkpt>
      <trkpt lat="48.67735" lon="1.95832">
        <ele>118</ele>
        <time>2022-11-19T11:20:41Z</time>
      </trkpt>
      <trkpt lat="48.67735" lon="1.95837">
        <ele>118</ele>
        <time>2022-11-19T11:20:43Z</time>
      </trkpt>
      <trkpt lat="48.67734" lon="1.95841">
        <ele>118</ele>
        <time>2022-11-19T11:20:45Z</time>
      </trkpt>
      <trkpt lat="48.67731" lon="1.95844">
        <ele>118</ele>
        <time>2022-11-19T11:20:47Z</time>
      </trkpt>
      <trkpt lat="48.67729" lon="1.95848">
        <ele>118</ele>
        <time>2022-11-19T11:20:49Z</time>
      </trkpt>
      <trkpt lat="48.67728" lon="1.95851">
        <ele>117</ele>
        <time>2022-11-19T11:20:53Z</time>
      </trkpt>
      <trkpt lat="48.67726" lon="1.95854">
        <ele>117</ele>
        <time>2022-11-19T11:20:55Z</time>
      </trkpt>
      <trkpt lat="48.67724" lon="1.95858">
        <ele>117</ele>
        <time>2022-11-19T11:20:57Z</time>
      </trkpt>
      <trkpt lat="48.67722" lon="1.95862">
        <ele>116</ele>
        <time>2022-11-19T11:20:59Z</time>
      </trkpt>
      <trkpt lat="48.6772" lon="1.95866">
        <ele>116</ele>
        <time>2022-11-19T11:21:01Z</time>
      </trkpt>
      <trkpt lat="48.67719" lon="1.95868">
        <ele>116</ele>
        <time>2022-11-19T11:21:02Z</time>
      </trkpt>
      <trkpt lat="48.67718" lon="1.9587">
        <ele>116</ele>
        <time>2022-11-19T11:21:03Z</time>
      </trkpt>
      <trkpt lat="48.67716" lon="1.95873">
        <ele>115</ele>
        <time>2022-11-19T11:21:04Z</time>
      </trkpt>
      <trkpt lat="48.67715" lon="1.95875">
        <ele>115</ele>
        <time>2022-11-19T11:21:05Z</time>
      </trkpt>
      <trkpt lat="48.67713" lon="1.95879">
        <ele>114</ele>
        <time>2022-11-19T11:21:07Z</time>
      </trkpt>
      <trkpt lat="48.67712" lon="1.95884">
        <ele>114</ele>
        <time>2022-11-19T11:21:09Z</time>
      </trkpt>
      <trkpt lat="48.67711" lon="1.95887">
        <ele>114</ele>
        <time>2022-11-19T11:21:11Z</time>
      </trkpt>
      <trkpt lat="48.67709" lon="1.95892">
        <ele>114</ele>
        <time>2022-11-19T11:21:13Z</time>
      </trkpt>
      <trkpt lat="48.67708" lon="1.95895">
        <ele>114</ele>
        <time>2022-11-19T11:21:14Z</time>
      </trkpt>
      <trkpt lat="48.67707" lon="1.95897">
        <ele>113</ele>
        <time>2022-11-19T11:21:15Z</time>
      </trkpt>
      <trkpt lat="48.67705" lon="1.95899">
        <ele>113</ele>
        <time>2022-11-19T11:21:16Z</time>
      </trkpt>
      <trkpt lat="48.67703" lon="1.95901">
        <ele>112</ele>
        <time>2022-11-19T11:21:17Z</time>
      </trkpt>
      <trkpt lat="48.67702" lon="1.95904">
        <ele>112</ele>
        <time>2022-11-19T11:21:18Z</time>
      </trkpt>
      <trkpt lat="48.677" lon="1.95907">
        <ele>111</ele>
        <time>2022-11-19T11:21:20Z</time>
      </trkpt>
      <trkpt lat="48.67699" lon="1.95911">
        <ele>111</ele>
        <time>2022-11-19T11:21:22Z</time>
      </trkpt>
      <trkpt lat="48.67698" lon="1.95915">
        <ele>111</ele>
        <time>2022-11-19T11:21:24Z</time>
      </trkpt>
      <trkpt lat="48.67697" lon="1.95919">
        <ele>111</ele>
        <time>2022-11-19T11:21:26Z</time>
      </trkpt>
      <trkpt lat="48.67697" lon="1.95924">
        <ele>111</ele>
        <time>2022-11-19T11:21:28Z</time>
      </trkpt>
      <trkpt lat="48.67696" lon="1.95929">
        <ele>111</ele>
        <time>2022-11-19T11:21:30Z</time>
      </trkpt>
      <trkpt lat="48.67696" lon="1.95933">
        <ele>111</ele>
        <time>2022-11-19T11:21:32Z</time>
      </trkpt>
      <trkpt lat="48.67696" lon="1.95938">
        <ele>111</ele>
        <time>2022-11-19T11:21:34Z</time>
      </trkpt>
      <trkpt lat="48.67695" lon="1.95943">
        <ele>111</ele>
        <time>2022-11-19T11:21:36Z</time>
      </trkpt>
      <trkpt lat="48.67695" lon="1.95947">
        <ele>111</ele>
        <time>2022-11-19T11:21:38Z</time>
      </trkpt>
      <trkpt lat="48.67694" lon="1.95952">
        <ele>111</ele>
        <time>2022-11-19T11:21:40Z</time>
      </trkpt>
      <trkpt lat="48.67693" lon="1.95955">
        <ele>111</ele>
        <time>2022-11-19T11:21:42Z</time>
      </trkpt>
      <trkpt lat="48.67693" lon="1.95958">
        <ele>112</ele>
        <time>2022-11-19T11:21:44Z</time>
      </trkpt>
      <trkpt lat="48.67692" lon="1.95962">
        <ele>112</ele>
        <time>2022-11-19T11:21:46Z</time>
      </trkpt>
      <trkpt lat="48.67692" lon="1.95966">
        <ele>112</ele>
        <time>2022-11-19T11:21:48Z</time>
      </trkpt>
      <trkpt lat="48.67692" lon="1.95969">
        <ele>111</ele>
        <time>2022-11-19T11:21:50Z</time>
      </trkpt>
      <trkpt lat="48.67692" lon="1.95974">
        <ele>112</ele>
        <time>2022-11-19T11:21:52Z</time>
      </trkpt>
      <trkpt lat="48.67692" lon="1.95978">
        <ele>112</ele>
        <time>2022-11-19T11:21:54Z</time>
      </trkpt>
      <trkpt lat="48.67691" lon="1.95982">
        <ele>112</ele>
        <time>2022-11-19T11:21:56Z</time>
      </trkpt>
      <trkpt lat="48.67691" lon="1.95985">
        <ele>112</ele>
        <time>2022-11-19T11:21:58Z</time>
      </trkpt>
      <trkpt lat="48.67689" lon="1.95989">
        <ele>112</ele>
        <time>2022-11-19T11:22:00Z</time>
      </trkpt>
      <trkpt lat="48.67689" lon="1.95994">
        <ele>112</ele>
        <time>2022-11-19T11:22:02Z</time>
      </trkpt>
      <trkpt lat="48.67687" lon="1.95998">
        <ele>112</ele>
        <time>2022-11-19T11:22:04Z</time>
      </trkpt>
      <trkpt lat="48.67686" lon="1.96002">
        <ele>112</ele>
        <time>2022-11-19T11:22:06Z</time>
      </trkpt>
      <trkpt lat="48.67685" lon="1.96007">
        <ele>112</ele>
        <time>2022-11-19T11:22:08Z</time>
      </trkpt>
      <trkpt lat="48.67686" lon="1.96012">
        <ele>112</ele>
        <time>2022-11-19T11:22:10Z</time>
      </trkpt>
      <trkpt lat="48.67687" lon="1.96017">
        <ele>111</ele>
        <time>2022-11-19T11:22:12Z</time>
      </trkpt>
      <trkpt lat="48.67687" lon="1.96022">
        <ele>111</ele>
        <time>2022-11-19T11:22:14Z</time>
      </trkpt>
      <trkpt lat="48.67687" lon="1.96027">
        <ele>111</ele>
        <time>2022-11-19T11:22:16Z</time>
      </trkpt>
      <trkpt lat="48.67688" lon="1.96032">
        <ele>111</ele>
        <time>2022-11-19T11:22:18Z</time>
      </trkpt>
      <trkpt lat="48.67688" lon="1.96035">
        <ele>111</ele>
        <time>2022-11-19T11:22:19Z</time>
      </trkpt>
      <trkpt lat="48.67688" lon="1.9604">
        <ele>112</ele>
        <time>2022-11-19T11:22:21Z</time>
      </trkpt>
      <trkpt lat="48.67689" lon="1.96045">
        <ele>112</ele>
        <time>2022-11-19T11:22:23Z</time>
      </trkpt>
      <trkpt lat="48.67688" lon="1.9605">
        <ele>113</ele>
        <time>2022-11-19T11:22:25Z</time>
      </trkpt>
      <trkpt lat="48.67688" lon="1.96054">
        <ele>112</ele>
        <time>2022-11-19T11:22:27Z</time>
      </trkpt>
      <trkpt lat="48.67689" lon="1.96059">
        <ele>112</ele>
        <time>2022-11-19T11:22:29Z</time>
      </trkpt>
      <trkpt lat="48.67689" lon="1.96063">
        <ele>112</ele>
        <time>2022-11-19T11:22:31Z</time>
      </trkpt>
      <trkpt lat="48.6769" lon="1.96068">
        <ele>112</ele>
        <time>2022-11-19T11:22:33Z</time>
      </trkpt>
      <trkpt lat="48.6769" lon="1.96073">
        <ele>112</ele>
        <time>2022-11-19T11:22:35Z</time>
      </trkpt>
      <trkpt lat="48.6769" lon="1.96078">
        <ele>113</ele>
        <time>2022-11-19T11:22:37Z</time>
      </trkpt>
      <trkpt lat="48.67689" lon="1.96083">
        <ele>112</ele>
        <time>2022-11-19T11:22:39Z</time>
      </trkpt>
      <trkpt lat="48.67688" lon="1.96087">
        <ele>113</ele>
        <time>2022-11-19T11:22:41Z</time>
      </trkpt>
      <trkpt lat="48.67688" lon="1.96092">
        <ele>113</ele>
        <time>2022-11-19T11:22:43Z</time>
      </trkpt>
      <trkpt lat="48.67688" lon="1.96096">
        <ele>113</ele>
        <time>2022-11-19T11:22:45Z</time>
      </trkpt>
      <trkpt lat="48.67689" lon="1.96101">
        <ele>113</ele>
        <time>2022-11-19T11:22:47Z</time>
      </trkpt>
      <trkpt lat="48.6769" lon="1.96105">
        <ele>113</ele>
        <time>2022-11-19T11:22:49Z</time>
      </trkpt>
      <trkpt lat="48.6769" lon="1.96109">
        <ele>114</ele>
        <time>2022-11-19T11:22:51Z</time>
      </trkpt>
      <trkpt lat="48.67691" lon="1.96113">
        <ele>114</ele>
        <time>2022-11-19T11:22:53Z</time>
      </trkpt>
      <trkpt lat="48.67689" lon="1.96117">
        <ele>114</ele>
        <time>2022-11-19T11:22:55Z</time>
      </trkpt>
      <trkpt lat="48.67689" lon="1.9612">
        <ele>115</ele>
        <time>2022-11-19T11:22:56Z</time>
      </trkpt>
      <trkpt lat="48.67687" lon="1.96122">
        <ele>115</ele>
        <time>2022-11-19T11:22:57Z</time>
      </trkpt>
      <trkpt lat="48.67686" lon="1.96124">
        <ele>115</ele>
        <time>2022-11-19T11:22:58Z</time>
      </trkpt>
      <trkpt lat="48.67685" lon="1.96129">
        <ele>115</ele>
        <time>2022-11-19T11:23:00Z</time>
      </trkpt>
      <trkpt lat="48.67684" lon="1.96132">
        <ele>115</ele>
        <time>2022-11-19T11:23:01Z</time>
      </trkpt>
      <trkpt lat="48.67684" lon="1.96136">
        <ele>115</ele>
        <time>2022-11-19T11:23:03Z</time>
      </trkpt>
      <trkpt lat="48.67685" lon="1.9614">
        <ele>115</ele>
        <time>2022-11-19T11:23:05Z</time>
      </trkpt>
      <trkpt lat="48.67686" lon="1.96144">
        <ele>116</ele>
        <time>2022-11-19T11:23:07Z</time>
      </trkpt>
      <trkpt lat="48.67687" lon="1.96149">
        <ele>116</ele>
        <time>2022-11-19T11:23:09Z</time>
      </trkpt>
      <trkpt lat="48.67688" lon="1.96153">
        <ele>116</ele>
        <time>2022-11-19T11:23:11Z</time>
      </trkpt>
      <trkpt lat="48.67688" lon="1.96157">
        <ele>116</ele>
        <time>2022-11-19T11:23:13Z</time>
      </trkpt>
      <trkpt lat="48.67688" lon="1.96162">
        <ele>116</ele>
        <time>2022-11-19T11:23:15Z</time>
      </trkpt>
      <trkpt lat="48.67689" lon="1.96166">
        <ele>116</ele>
        <time>2022-11-19T11:23:17Z</time>
      </trkpt>
      <trkpt lat="48.67689" lon="1.9617">
        <ele>116</ele>
        <time>2022-11-19T11:23:19Z</time>
      </trkpt>
      <trkpt lat="48.67689" lon="1.96174">
        <ele>117</ele>
        <time>2022-11-19T11:23:21Z</time>
      </trkpt>
      <trkpt lat="48.67689" lon="1.96177">
        <ele>117</ele>
        <time>2022-11-19T11:23:23Z</time>
      </trkpt>
      <trkpt lat="48.67688" lon="1.9618">
        <ele>116</ele>
        <time>2022-11-19T11:23:26Z</time>
      </trkpt>
      <trkpt lat="48.67685" lon="1.96185">
        <ele>116</ele>
        <time>2022-11-19T11:23:28Z</time>
      </trkpt>
      <trkpt lat="48.67684" lon="1.96187">
        <ele>116</ele>
        <time>2022-11-19T11:23:29Z</time>
      </trkpt>
      <trkpt lat="48.67682" lon="1.96189">
        <ele>116</ele>
        <time>2022-11-19T11:23:30Z</time>
      </trkpt>
      <trkpt lat="48.67681" lon="1.96191">
        <ele>116</ele>
        <time>2022-11-19T11:23:31Z</time>
      </trkpt>
      <trkpt lat="48.67679" lon="1.96192">
        <ele>116</ele>
        <time>2022-11-19T11:23:32Z</time>
      </trkpt>
      <trkpt lat="48.67677" lon="1.96195">
        <ele>116</ele>
        <time>2022-11-19T11:23:34Z</time>
      </trkpt>
      <trkpt lat="48.67675" lon="1.96197">
        <ele>116</ele>
        <time>2022-11-19T11:23:36Z</time>
      </trkpt>
      <trkpt lat="48.67674" lon="1.962">
        <ele>116</ele>
        <time>2022-11-19T11:23:38Z</time>
      </trkpt>
      <trkpt lat="48.67672" lon="1.96202">
        <ele>116</ele>
        <time>2022-11-19T11:23:40Z</time>
      </trkpt>
      <trkpt lat="48.6767" lon="1.96206">
        <ele>116</ele>
        <time>2022-11-19T11:23:42Z</time>
      </trkpt>
      <trkpt lat="48.67668" lon="1.96209">
        <ele>116</ele>
        <time>2022-11-19T11:23:44Z</time>
      </trkpt>
      <trkpt lat="48.67667" lon="1.96211">
        <ele>116</ele>
        <time>2022-11-19T11:23:45Z</time>
      </trkpt>
      <trkpt lat="48.67666" lon="1.96215">
        <ele>116</ele>
        <time>2022-11-19T11:23:47Z</time>
      </trkpt>
      <trkpt lat="48.67666" lon="1.96218">
        <ele>116</ele>
        <time>2022-11-19T11:23:49Z</time>
      </trkpt>
      <trkpt lat="48.67667" lon="1.96222">
        <ele>117</ele>
        <time>2022-11-19T11:23:52Z</time>
      </trkpt>
      <trkpt lat="48.67667" lon="1.96226">
        <ele>117</ele>
        <time>2022-11-19T11:23:54Z</time>
      </trkpt>
      <trkpt lat="48.67668" lon="1.96231">
        <ele>117</ele>
        <time>2022-11-19T11:23:56Z</time>
      </trkpt>
      <trkpt lat="48.67668" lon="1.96234">
        <ele>117</ele>
        <time>2022-11-19T11:23:57Z</time>
      </trkpt>
      <trkpt lat="48.6767" lon="1.96238">
        <ele>117</ele>
        <time>2022-11-19T11:23:59Z</time>
      </trkpt>
      <trkpt lat="48.67671" lon="1.96242">
        <ele>117</ele>
        <time>2022-11-19T11:24:01Z</time>
      </trkpt>
      <trkpt lat="48.67673" lon="1.96246">
        <ele>117</ele>
        <time>2022-11-19T11:24:03Z</time>
      </trkpt>
      <trkpt lat="48.67675" lon="1.96249">
        <ele>117</ele>
        <time>2022-11-19T11:24:05Z</time>
      </trkpt>
      <trkpt lat="48.67677" lon="1.96251">
        <ele>117</ele>
        <time>2022-11-19T11:24:08Z</time>
      </trkpt>
      <trkpt lat="48.67679" lon="1.96253">
        <ele>117</ele>
        <time>2022-11-19T11:24:10Z</time>
      </trkpt>
      <trkpt lat="48.6768" lon="1.96255">
        <ele>117</ele>
        <time>2022-11-19T11:24:12Z</time>
      </trkpt>
      <trkpt lat="48.67682" lon="1.96256">
        <ele>117</ele>
        <time>2022-11-19T11:24:14Z</time>
      </trkpt>
      <trkpt lat="48.67684" lon="1.96255">
        <ele>117</ele>
        <time>2022-11-19T11:24:16Z</time>
      </trkpt>
      <trkpt lat="48.67686" lon="1.96252">
        <ele>118</ele>
        <time>2022-11-19T11:24:18Z</time>
      </trkpt>
      <trkpt lat="48.67687" lon="1.96248">
        <ele>118</ele>
        <time>2022-11-19T11:24:20Z</time>
      </trkpt>
      <trkpt lat="48.67688" lon="1.96245">
        <ele>118</ele>
        <time>2022-11-19T11:24:22Z</time>
      </trkpt>
      <trkpt lat="48.67689" lon="1.96243">
        <ele>118</ele>
        <time>2022-11-19T11:24:24Z</time>
      </trkpt>
      <trkpt lat="48.67691" lon="1.96242">
        <ele>119</ele>
        <time>2022-11-19T11:24:26Z</time>
      </trkpt>
      <trkpt lat="48.67693" lon="1.96243">
        <ele>119</ele>
        <time>2022-11-19T11:24:28Z</time>
      </trkpt>
      <trkpt lat="48.67696" lon="1.96243">
        <ele>119</ele>
        <time>2022-11-19T11:24:31Z</time>
      </trkpt>
      <trkpt lat="48.67698" lon="1.9624">
        <ele>120</ele>
        <time>2022-11-19T11:24:33Z</time>
      </trkpt>
      <trkpt lat="48.677" lon="1.96238">
        <ele>120</ele>
        <time>2022-11-19T11:24:35Z</time>
      </trkpt>
      <trkpt lat="48.67702" lon="1.96236">
        <ele>120</ele>
        <time>2022-11-19T11:24:37Z</time>
      </trkpt>
      <trkpt lat="48.67705" lon="1.96235">
        <ele>120</ele>
        <time>2022-11-19T11:24:39Z</time>
      </trkpt>
      <trkpt lat="48.67707" lon="1.96233">
        <ele>120</ele>
        <time>2022-11-19T11:24:41Z</time>
      </trkpt>
      <trkpt lat="48.67709" lon="1.96231">
        <ele>121</ele>
        <time>2022-11-19T11:24:43Z</time>
      </trkpt>
      <trkpt lat="48.67712" lon="1.96229">
        <ele>122</ele>
        <time>2022-11-19T11:24:45Z</time>
      </trkpt>
      <trkpt lat="48.67714" lon="1.96226">
        <ele>122</ele>
        <time>2022-11-19T11:24:47Z</time>
      </trkpt>
      <trkpt lat="48.67716" lon="1.96222">
        <ele>123</ele>
        <time>2022-11-19T11:24:49Z</time>
      </trkpt>
      <trkpt lat="48.67718" lon="1.96218">
        <ele>123</ele>
        <time>2022-11-19T11:24:51Z</time>
      </trkpt>
      <trkpt lat="48.67719" lon="1.96215">
        <ele>124</ele>
        <time>2022-11-19T11:24:53Z</time>
      </trkpt>
      <trkpt lat="48.6772" lon="1.96211">
        <ele>125</ele>
        <time>2022-11-19T11:24:55Z</time>
      </trkpt>
      <trkpt lat="48.67721" lon="1.96207">
        <ele>126</ele>
        <time>2022-11-19T11:24:57Z</time>
      </trkpt>
      <trkpt lat="48.67722" lon="1.96204">
        <ele>127</ele>
        <time>2022-11-19T11:24:59Z</time>
      </trkpt>
      <trkpt lat="48.67724" lon="1.96201">
        <ele>127</ele>
        <time>2022-11-19T11:25:01Z</time>
      </trkpt>
      <trkpt lat="48.67726" lon="1.96198">
        <ele>127</ele>
        <time>2022-11-19T11:25:03Z</time>
      </trkpt>
      <trkpt lat="48.67728" lon="1.96196">
        <ele>128</ele>
        <time>2022-11-19T11:25:05Z</time>
      </trkpt>
      <trkpt lat="48.6773" lon="1.96193">
        <ele>129</ele>
        <time>2022-11-19T11:25:07Z</time>
      </trkpt>
      <trkpt lat="48.67732" lon="1.96191">
        <ele>130</ele>
        <time>2022-11-19T11:25:09Z</time>
      </trkpt>
      <trkpt lat="48.67734" lon="1.9619">
        <ele>131</ele>
        <time>2022-11-19T11:25:11Z</time>
      </trkpt>
      <trkpt lat="48.67736" lon="1.96188">
        <ele>131</ele>
        <time>2022-11-19T11:25:13Z</time>
      </trkpt>
      <trkpt lat="48.67737" lon="1.96186">
        <ele>132</ele>
        <time>2022-11-19T11:25:15Z</time>
      </trkpt>
      <trkpt lat="48.67739" lon="1.96183">
        <ele>132</ele>
        <time>2022-11-19T11:25:17Z</time>
      </trkpt>
      <trkpt lat="48.67741" lon="1.96182">
        <ele>133</ele>
        <time>2022-11-19T11:25:19Z</time>
      </trkpt>
      <trkpt lat="48.67743" lon="1.96179">
        <ele>134</ele>
        <time>2022-11-19T11:25:21Z</time>
      </trkpt>
      <trkpt lat="48.67745" lon="1.96179">
        <ele>134</ele>
        <time>2022-11-19T11:25:23Z</time>
      </trkpt>
      <trkpt lat="48.67747" lon="1.9618">
        <ele>135</ele>
        <time>2022-11-19T11:25:25Z</time>
      </trkpt>
      <trkpt lat="48.67748" lon="1.96182">
        <ele>135</ele>
        <time>2022-11-19T11:25:27Z</time>
      </trkpt>
      <trkpt lat="48.67751" lon="1.96184">
        <ele>135</ele>
        <time>2022-11-19T11:25:30Z</time>
      </trkpt>
      <trkpt lat="48.67753" lon="1.96186">
        <ele>136</ele>
        <time>2022-11-19T11:25:33Z</time>
      </trkpt>
      <trkpt lat="48.67755" lon="1.96189">
        <ele>137</ele>
        <time>2022-11-19T11:25:35Z</time>
      </trkpt>
      <trkpt lat="48.67756" lon="1.96193">
        <ele>137</ele>
        <time>2022-11-19T11:25:37Z</time>
      </trkpt>
      <trkpt lat="48.67758" lon="1.96197">
        <ele>138</ele>
        <time>2022-11-19T11:25:39Z</time>
      </trkpt>
      <trkpt lat="48.6776" lon="1.962">
        <ele>139</ele>
        <time>2022-11-19T11:25:41Z</time>
      </trkpt>
      <trkpt lat="48.67763" lon="1.96203">
        <ele>139</ele>
        <time>2022-11-19T11:25:43Z</time>
      </trkpt>
      <trkpt lat="48.67764" lon="1.96205">
        <ele>140</ele>
        <time>2022-11-19T11:25:45Z</time>
      </trkpt>
      <trkpt lat="48.67766" lon="1.96207">
        <ele>141</ele>
        <time>2022-11-19T11:25:47Z</time>
      </trkpt>
      <trkpt lat="48.67768" lon="1.96208">
        <ele>142</ele>
        <time>2022-11-19T11:25:49Z</time>
      </trkpt>
      <trkpt lat="48.6777" lon="1.9621">
        <ele>142</ele>
        <time>2022-11-19T11:25:52Z</time>
      </trkpt>
      <trkpt lat="48.67772" lon="1.96211">
        <ele>144</ele>
        <time>2022-11-19T11:25:55Z</time>
      </trkpt>
      <trkpt lat="48.67775" lon="1.96211">
        <ele>145</ele>
        <time>2022-11-19T11:25:57Z</time>
      </trkpt>
      <trkpt lat="48.67777" lon="1.96212">
        <ele>146</ele>
        <time>2022-11-19T11:25:59Z</time>
      </trkpt>
      <trkpt lat="48.67779" lon="1.96211">
        <ele>147</ele>
        <time>2022-11-19T11:26:01Z</time>
      </trkpt>
      <trkpt lat="48.67781" lon="1.9621">
        <ele>147</ele>
        <time>2022-11-19T11:26:03Z</time>
      </trkpt>
      <trkpt lat="48.67784" lon="1.96211">
        <ele>148</ele>
        <time>2022-11-19T11:26:05Z</time>
      </trkpt>
      <trkpt lat="48.67786" lon="1.96212">
        <ele>149</ele>
        <time>2022-11-19T11:26:07Z</time>
      </trkpt>
      <trkpt lat="48.6779" lon="1.96213">
        <ele>149</ele>
        <time>2022-11-19T11:26:09Z</time>
      </trkpt>
      <trkpt lat="48.67792" lon="1.96213">
        <ele>150</ele>
        <time>2022-11-19T11:26:11Z</time>
      </trkpt>
      <trkpt lat="48.67795" lon="1.96213">
        <ele>151</ele>
        <time>2022-11-19T11:26:15Z</time>
      </trkpt>
      <trkpt lat="48.67797" lon="1.96213">
        <ele>152</ele>
        <time>2022-11-19T11:26:17Z</time>
      </trkpt>
      <trkpt lat="48.67798" lon="1.96214">
        <ele>153</ele>
        <time>2022-11-19T11:26:20Z</time>
      </trkpt>
      <trkpt lat="48.678" lon="1.96217">
        <ele>153</ele>
        <time>2022-11-19T11:26:22Z</time>
      </trkpt>
      <trkpt lat="48.67802" lon="1.96221">
        <ele>153</ele>
        <time>2022-11-19T11:26:24Z</time>
      </trkpt>
      <trkpt lat="48.67805" lon="1.96224">
        <ele>154</ele>
        <time>2022-11-19T11:26:26Z</time>
      </trkpt>
      <trkpt lat="48.67808" lon="1.96226">
        <ele>155</ele>
        <time>2022-11-19T11:26:28Z</time>
      </trkpt>
      <trkpt lat="48.6781" lon="1.96227">
        <ele>156</ele>
        <time>2022-11-19T11:26:30Z</time>
      </trkpt>
      <trkpt lat="48.67813" lon="1.96229">
        <ele>157</ele>
        <time>2022-11-19T11:26:32Z</time>
      </trkpt>
      <trkpt lat="48.67815" lon="1.96233">
        <ele>157</ele>
        <time>2022-11-19T11:26:34Z</time>
      </trkpt>
      <trkpt lat="48.67817" lon="1.96237">
        <ele>158</ele>
        <time>2022-11-19T11:26:36Z</time>
      </trkpt>
      <trkpt lat="48.67818" lon="1.96241">
        <ele>158</ele>
        <time>2022-11-19T11:26:38Z</time>
      </trkpt>
      <trkpt lat="48.67821" lon="1.96244">
        <ele>159</ele>
        <time>2022-11-19T11:26:40Z</time>
      </trkpt>
      <trkpt lat="48.67823" lon="1.96246">
        <ele>159</ele>
        <time>2022-11-19T11:26:42Z</time>
      </trkpt>
      <trkpt lat="48.67825" lon="1.96249">
        <ele>160</ele>
        <time>2022-11-19T11:26:44Z</time>
      </trkpt>
      <trkpt lat="48.67826" lon="1.96252">
        <ele>161</ele>
        <time>2022-11-19T11:26:46Z</time>
      </trkpt>
      <trkpt lat="48.67828" lon="1.96254">
        <ele>161</ele>
        <time>2022-11-19T11:26:48Z</time>
      </trkpt>
      <trkpt lat="48.67831" lon="1.96257">
        <ele>162</ele>
        <time>2022-11-19T11:26:50Z</time>
      </trkpt>
      <trkpt lat="48.67833" lon="1.9626">
        <ele>162</ele>
        <time>2022-11-19T11:26:52Z</time>
      </trkpt>
      <trkpt lat="48.67835" lon="1.96262">
        <ele>162</ele>
        <time>2022-11-19T11:26:54Z</time>
      </trkpt>
      <trkpt lat="48.67836" lon="1.96265">
        <ele>163</ele>
        <time>2022-11-19T11:26:56Z</time>
      </trkpt>
      <trkpt lat="48.67839" lon="1.96268">
        <ele>164</ele>
        <time>2022-11-19T11:26:58Z</time>
      </trkpt>
      <trkpt lat="48.6784" lon="1.9627">
        <ele>164</ele>
        <time>2022-11-19T11:26:59Z</time>
      </trkpt>
      <trkpt lat="48.67842" lon="1.96273">
        <ele>164</ele>
        <time>2022-11-19T11:27:01Z</time>
      </trkpt>
      <trkpt lat="48.67844" lon="1.96275">
        <ele>165</ele>
        <time>2022-11-19T11:27:03Z</time>
      </trkpt>
      <trkpt lat="48.67846" lon="1.96277">
        <ele>165</ele>
        <time>2022-11-19T11:27:05Z</time>
      </trkpt>
      <trkpt lat="48.67849" lon="1.96279">
        <ele>165</ele>
        <time>2022-11-19T11:27:07Z</time>
      </trkpt>
      <trkpt lat="48.67851" lon="1.96282">
        <ele>165</ele>
        <time>2022-11-19T11:27:09Z</time>
      </trkpt>
      <trkpt lat="48.67853" lon="1.96283">
        <ele>166</ele>
        <time>2022-11-19T11:27:11Z</time>
      </trkpt>
      <trkpt lat="48.67855" lon="1.96285">
        <ele>166</ele>
        <time>2022-11-19T11:27:13Z</time>
      </trkpt>
      <trkpt lat="48.67857" lon="1.96288">
        <ele>166</ele>
        <time>2022-11-19T11:27:15Z</time>
      </trkpt>
      <trkpt lat="48.6786" lon="1.96289">
        <ele>166</ele>
        <time>2022-11-19T11:27:17Z</time>
      </trkpt>
      <trkpt lat="48.67861" lon="1.9629">
        <ele>167</ele>
        <time>2022-11-19T11:27:19Z</time>
      </trkpt>
      <trkpt lat="48.67864" lon="1.96291">
        <ele>167</ele>
        <time>2022-11-19T11:27:21Z</time>
      </trkpt>
      <trkpt lat="48.67867" lon="1.96292">
        <ele>167</ele>
        <time>2022-11-19T11:27:23Z</time>
      </trkpt>
      <trkpt lat="48.6787" lon="1.96294">
        <ele>167</ele>
        <time>2022-11-19T11:27:25Z</time>
      </trkpt>
      <trkpt lat="48.67873" lon="1.96294">
        <ele>167</ele>
        <time>2022-11-19T11:27:27Z</time>
      </trkpt>
      <trkpt lat="48.67875" lon="1.96295">
        <ele>167</ele>
        <time>2022-11-19T11:27:29Z</time>
      </trkpt>
      <trkpt lat="48.67877" lon="1.96298">
        <ele>168</ele>
        <time>2022-11-19T11:27:31Z</time>
      </trkpt>
      <trkpt lat="48.6788" lon="1.96299">
        <ele>168</ele>
        <time>2022-11-19T11:27:33Z</time>
      </trkpt>
      <trkpt lat="48.67881" lon="1.96302">
        <ele>168</ele>
        <time>2022-11-19T11:27:35Z</time>
      </trkpt>
      <trkpt lat="48.67884" lon="1.96304">
        <ele>168</ele>
        <time>2022-11-19T11:27:37Z</time>
      </trkpt>
      <trkpt lat="48.67886" lon="1.96305">
        <ele>168</ele>
        <time>2022-11-19T11:27:38Z</time>
      </trkpt>
      <trkpt lat="48.67889" lon="1.96307">
        <ele>168</ele>
        <time>2022-11-19T11:27:40Z</time>
      </trkpt>
      <trkpt lat="48.67892" lon="1.96308">
        <ele>169</ele>
        <time>2022-11-19T11:27:42Z</time>
      </trkpt>
      <trkpt lat="48.67895" lon="1.96309">
        <ele>168</ele>
        <time>2022-11-19T11:27:44Z</time>
      </trkpt>
      <trkpt lat="48.67898" lon="1.9631">
        <ele>168</ele>
        <time>2022-11-19T11:27:46Z</time>
      </trkpt>
      <trkpt lat="48.67901" lon="1.9631">
        <ele>169</ele>
        <time>2022-11-19T11:27:48Z</time>
      </trkpt>
      <trkpt lat="48.67903" lon="1.9631">
        <ele>169</ele>
        <time>2022-11-19T11:27:50Z</time>
      </trkpt>
      <trkpt lat="48.67906" lon="1.9631">
        <ele>169</ele>
        <time>2022-11-19T11:27:52Z</time>
      </trkpt>
      <trkpt lat="48.67908" lon="1.9631">
        <ele>169</ele>
        <time>2022-11-19T11:27:54Z</time>
      </trkpt>
      <trkpt lat="48.6791" lon="1.96309">
        <ele>169</ele>
        <time>2022-11-19T11:27:56Z</time>
      </trkpt>
      <trkpt lat="48.67913" lon="1.96309">
        <ele>169</ele>
        <time>2022-11-19T11:27:58Z</time>
      </trkpt>
      <trkpt lat="48.67915" lon="1.96307">
        <ele>169</ele>
        <time>2022-11-19T11:28:00Z</time>
      </trkpt>
      <trkpt lat="48.67918" lon="1.96307">
        <ele>170</ele>
        <time>2022-11-19T11:28:02Z</time>
      </trkpt>
      <trkpt lat="48.6792" lon="1.96306">
        <ele>170</ele>
        <time>2022-11-19T11:28:04Z</time>
      </trkpt>
      <trkpt lat="48.67923" lon="1.96306">
        <ele>170</ele>
        <time>2022-11-19T11:28:06Z</time>
      </trkpt>
      <trkpt lat="48.67926" lon="1.96306">
        <ele>170</ele>
        <time>2022-11-19T11:28:08Z</time>
      </trkpt>
      <trkpt lat="48.67929" lon="1.96305">
        <ele>170</ele>
        <time>2022-11-19T11:28:10Z</time>
      </trkpt>
      <trkpt lat="48.67932" lon="1.96305">
        <ele>170</ele>
        <time>2022-11-19T11:28:12Z</time>
      </trkpt>
      <trkpt lat="48.67935" lon="1.96304">
        <ele>170</ele>
        <time>2022-11-19T11:28:14Z</time>
      </trkpt>
      <trkpt lat="48.67937" lon="1.96304">
        <ele>170</ele>
        <time>2022-11-19T11:28:16Z</time>
      </trkpt>
      <trkpt lat="48.6794" lon="1.96303">
        <ele>170</ele>
        <time>2022-11-19T11:28:18Z</time>
      </trkpt>
      <trkpt lat="48.67943" lon="1.96302">
        <ele>170</ele>
        <time>2022-11-19T11:28:20Z</time>
      </trkpt>
      <trkpt lat="48.67946" lon="1.96302">
        <ele>170</ele>
        <time>2022-11-19T11:28:22Z</time>
      </trkpt>
      <trkpt lat="48.67948" lon="1.96301">
        <ele>170</ele>
        <time>2022-11-19T11:28:24Z</time>
      </trkpt>
      <trkpt lat="48.67951" lon="1.963">
        <ele>170</ele>
        <time>2022-11-19T11:28:26Z</time>
      </trkpt>
      <trkpt lat="48.67954" lon="1.963">
        <ele>170</ele>
        <time>2022-11-19T11:28:28Z</time>
      </trkpt>
      <trkpt lat="48.67956" lon="1.96299">
        <ele>171</ele>
        <time>2022-11-19T11:28:30Z</time>
      </trkpt>
      <trkpt lat="48.67958" lon="1.96299">
        <ele>171</ele>
        <time>2022-11-19T11:28:32Z</time>
      </trkpt>
      <trkpt lat="48.67962" lon="1.96299">
        <ele>171</ele>
        <time>2022-11-19T11:28:34Z</time>
      </trkpt>
      <trkpt lat="48.67965" lon="1.963">
        <ele>171</ele>
        <time>2022-11-19T11:28:36Z</time>
      </trkpt>
      <trkpt lat="48.67968" lon="1.96299">
        <ele>171</ele>
        <time>2022-11-19T11:28:38Z</time>
      </trkpt>
      <trkpt lat="48.67971" lon="1.96299">
        <ele>171</ele>
        <time>2022-11-19T11:28:40Z</time>
      </trkpt>
      <trkpt lat="48.67974" lon="1.963">
        <ele>171</ele>
        <time>2022-11-19T11:28:42Z</time>
      </trkpt>
      <trkpt lat="48.67977" lon="1.963">
        <ele>171</ele>
        <time>2022-11-19T11:28:44Z</time>
      </trkpt>
      <trkpt lat="48.67979" lon="1.96299">
        <ele>171</ele>
        <time>2022-11-19T11:28:46Z</time>
      </trkpt>
      <trkpt lat="48.67982" lon="1.96297">
        <ele>171</ele>
        <time>2022-11-19T11:28:48Z</time>
      </trkpt>
      <trkpt lat="48.67984" lon="1.96296">
        <ele>171</ele>
        <time>2022-11-19T11:28:50Z</time>
      </trkpt>
      <trkpt lat="48.67986" lon="1.96294">
        <ele>171</ele>
        <time>2022-11-19T11:28:52Z</time>
      </trkpt>
      <trkpt lat="48.67989" lon="1.96293">
        <ele>171</ele>
        <time>2022-11-19T11:28:54Z</time>
      </trkpt>
      <trkpt lat="48.6799" lon="1.96292">
        <ele>171</ele>
        <time>2022-11-19T11:28:56Z</time>
      </trkpt>
      <trkpt lat="48.67993" lon="1.96292">
        <ele>170</ele>
        <time>2022-11-19T11:28:58Z</time>
      </trkpt>
      <trkpt lat="48.67997" lon="1.96291">
        <ele>170</ele>
        <time>2022-11-19T11:29:00Z</time>
      </trkpt>
      <trkpt lat="48.67999" lon="1.9629">
        <ele>170</ele>
        <time>2022-11-19T11:29:02Z</time>
      </trkpt>
      <trkpt lat="48.68002" lon="1.96289">
        <ele>170</ele>
        <time>2022-11-19T11:29:04Z</time>
      </trkpt>
      <trkpt lat="48.68005" lon="1.96288">
        <ele>170</ele>
        <time>2022-11-19T11:29:06Z</time>
      </trkpt>
      <trkpt lat="48.68008" lon="1.96288">
        <ele>170</ele>
        <time>2022-11-19T11:29:08Z</time>
      </trkpt>
      <trkpt lat="48.68011" lon="1.96287">
        <ele>169</ele>
        <time>2022-11-19T11:29:10Z</time>
      </trkpt>
      <trkpt lat="48.68013" lon="1.96286">
        <ele>169</ele>
        <time>2022-11-19T11:29:12Z</time>
      </trkpt>
      <trkpt lat="48.68016" lon="1.96286">
        <ele>170</ele>
        <time>2022-11-19T11:29:14Z</time>
      </trkpt>
      <trkpt lat="48.68019" lon="1.96285">
        <ele>170</ele>
        <time>2022-11-19T11:29:16Z</time>
      </trkpt>
      <trkpt lat="48.68022" lon="1.96284">
        <ele>170</ele>
        <time>2022-11-19T11:29:18Z</time>
      </trkpt>
      <trkpt lat="48.68025" lon="1.96284">
        <ele>170</ele>
        <time>2022-11-19T11:29:20Z</time>
      </trkpt>
      <trkpt lat="48.68027" lon="1.96284">
        <ele>170</ele>
        <time>2022-11-19T11:29:21Z</time>
      </trkpt>
      <trkpt lat="48.6803" lon="1.96283">
        <ele>170</ele>
        <time>2022-11-19T11:29:23Z</time>
      </trkpt>
      <trkpt lat="48.68033" lon="1.96283">
        <ele>170</ele>
        <time>2022-11-19T11:29:25Z</time>
      </trkpt>
      <trkpt lat="48.68035" lon="1.96282">
        <ele>170</ele>
        <time>2022-11-19T11:29:27Z</time>
      </trkpt>
      <trkpt lat="48.68037" lon="1.96281">
        <ele>170</ele>
        <time>2022-11-19T11:29:29Z</time>
      </trkpt>
      <trkpt lat="48.6804" lon="1.9628">
        <ele>170</ele>
        <time>2022-11-19T11:29:31Z</time>
      </trkpt>
      <trkpt lat="48.68043" lon="1.96279">
        <ele>170</ele>
        <time>2022-11-19T11:29:33Z</time>
      </trkpt>
      <trkpt lat="48.68047" lon="1.96278">
        <ele>170</ele>
        <time>2022-11-19T11:29:35Z</time>
      </trkpt>
      <trkpt lat="48.6805" lon="1.96278">
        <ele>170</ele>
        <time>2022-11-19T11:29:37Z</time>
      </trkpt>
      <trkpt lat="48.68053" lon="1.96277">
        <ele>170</ele>
        <time>2022-11-19T11:29:39Z</time>
      </trkpt>
      <trkpt lat="48.68056" lon="1.96276">
        <ele>171</ele>
        <time>2022-11-19T11:29:41Z</time>
      </trkpt>
      <trkpt lat="48.68058" lon="1.96275">
        <ele>170</ele>
        <time>2022-11-19T11:29:43Z</time>
      </trkpt>
      <trkpt lat="48.68059" lon="1.96273">
        <ele>170</ele>
        <time>2022-11-19T11:29:45Z</time>
      </trkpt>
      <trkpt lat="48.68061" lon="1.96272">
        <ele>170</ele>
        <time>2022-11-19T11:29:47Z</time>
      </trkpt>
      <trkpt lat="48.68064" lon="1.96271">
        <ele>170</ele>
        <time>2022-11-19T11:29:49Z</time>
      </trkpt>
      <trkpt lat="48.68068" lon="1.9627">
        <ele>170</ele>
        <time>2022-11-19T11:29:51Z</time>
      </trkpt>
      <trkpt lat="48.68071" lon="1.96269">
        <ele>170</ele>
        <time>2022-11-19T11:29:53Z</time>
      </trkpt>
      <trkpt lat="48.68073" lon="1.96269">
        <ele>170</ele>
        <time>2022-11-19T11:29:55Z</time>
      </trkpt>
      <trkpt lat="48.68076" lon="1.9627">
        <ele>170</ele>
        <time>2022-11-19T11:29:56Z</time>
      </trkpt>
      <trkpt lat="48.68077" lon="1.9627">
        <ele>170</ele>
        <time>2022-11-19T11:29:57Z</time>
      </trkpt>
      <trkpt lat="48.68081" lon="1.9627">
        <ele>170</ele>
        <time>2022-11-19T11:29:59Z</time>
      </trkpt>
      <trkpt lat="48.68083" lon="1.9627">
        <ele>170</ele>
        <time>2022-11-19T11:30:00Z</time>
      </trkpt>
      <trkpt lat="48.68086" lon="1.96271">
        <ele>170</ele>
        <time>2022-11-19T11:30:02Z</time>
      </trkpt>
      <trkpt lat="48.68088" lon="1.96271">
        <ele>170</ele>
        <time>2022-11-19T11:30:03Z</time>
      </trkpt>
      <trkpt lat="48.68091" lon="1.96271">
        <ele>170</ele>
        <time>2022-11-19T11:30:05Z</time>
      </trkpt>
      <trkpt lat="48.68095" lon="1.96271">
        <ele>170</ele>
        <time>2022-11-19T11:30:07Z</time>
      </trkpt>
      <trkpt lat="48.68098" lon="1.96272">
        <ele>170</ele>
        <time>2022-11-19T11:30:09Z</time>
      </trkpt>
      <trkpt lat="48.68101" lon="1.96272">
        <ele>169</ele>
        <time>2022-11-19T11:30:11Z</time>
      </trkpt>
      <trkpt lat="48.68104" lon="1.96273">
        <ele>169</ele>
        <time>2022-11-19T11:30:13Z</time>
      </trkpt>
      <trkpt lat="48.68107" lon="1.96273">
        <ele>169</ele>
        <time>2022-11-19T11:30:15Z</time>
      </trkpt>
      <trkpt lat="48.6811" lon="1.96272">
        <ele>170</ele>
        <time>2022-11-19T11:30:17Z</time>
      </trkpt>
      <trkpt lat="48.68113" lon="1.96272">
        <ele>170</ele>
        <time>2022-11-19T11:30:19Z</time>
      </trkpt>
      <trkpt lat="48.68117" lon="1.96272">
        <ele>170</ele>
        <time>2022-11-19T11:30:21Z</time>
      </trkpt>
      <trkpt lat="48.68119" lon="1.96272">
        <ele>170</ele>
        <time>2022-11-19T11:30:22Z</time>
      </trkpt>
      <trkpt lat="48.68122" lon="1.9627">
        <ele>170</ele>
        <time>2022-11-19T11:30:24Z</time>
      </trkpt>
      <trkpt lat="48.68125" lon="1.96269">
        <ele>170</ele>
        <time>2022-11-19T11:30:26Z</time>
      </trkpt>
      <trkpt lat="48.68127" lon="1.96268">
        <ele>169</ele>
        <time>2022-11-19T11:30:28Z</time>
      </trkpt>
      <trkpt lat="48.6813" lon="1.96266">
        <ele>169</ele>
        <time>2022-11-19T11:30:30Z</time>
      </trkpt>
      <trkpt lat="48.68132" lon="1.96265">
        <ele>168</ele>
        <time>2022-11-19T11:30:32Z</time>
      </trkpt>
      <trkpt lat="48.68135" lon="1.96263">
        <ele>168</ele>
        <time>2022-11-19T11:30:34Z</time>
      </trkpt>
      <trkpt lat="48.68137" lon="1.96261">
        <ele>168</ele>
        <time>2022-11-19T11:30:36Z</time>
      </trkpt>
      <trkpt lat="48.68139" lon="1.96258">
        <ele>168</ele>
        <time>2022-11-19T11:30:38Z</time>
      </trkpt>
      <trkpt lat="48.68142" lon="1.96256">
        <ele>167</ele>
        <time>2022-11-19T11:30:40Z</time>
      </trkpt>
      <trkpt lat="48.68144" lon="1.96254">
        <ele>167</ele>
        <time>2022-11-19T11:30:42Z</time>
      </trkpt>
      <trkpt lat="48.68146" lon="1.96252">
        <ele>167</ele>
        <time>2022-11-19T11:30:44Z</time>
      </trkpt>
      <trkpt lat="48.68149" lon="1.96251">
        <ele>167</ele>
        <time>2022-11-19T11:30:46Z</time>
      </trkpt>
      <trkpt lat="48.68151" lon="1.96249">
        <ele>167</ele>
        <time>2022-11-19T11:30:48Z</time>
      </trkpt>
      <trkpt lat="48.68153" lon="1.96247">
        <ele>167</ele>
        <time>2022-11-19T11:30:50Z</time>
      </trkpt>
      <trkpt lat="48.68155" lon="1.96245">
        <ele>167</ele>
        <time>2022-11-19T11:30:52Z</time>
      </trkpt>
      <trkpt lat="48.68158" lon="1.96243">
        <ele>167</ele>
        <time>2022-11-19T11:30:54Z</time>
      </trkpt>
      <trkpt lat="48.68161" lon="1.96242">
        <ele>167</ele>
        <time>2022-11-19T11:30:56Z</time>
      </trkpt>
      <trkpt lat="48.68164" lon="1.96241">
        <ele>167</ele>
        <time>2022-11-19T11:30:58Z</time>
      </trkpt>
      <trkpt lat="48.68165" lon="1.9624">
        <ele>167</ele>
        <time>2022-11-19T11:30:59Z</time>
      </trkpt>
      <trkpt lat="48.68167" lon="1.96238">
        <ele>167</ele>
        <time>2022-11-19T11:31:00Z</time>
      </trkpt>
      <trkpt lat="48.68169" lon="1.96237">
        <ele>167</ele>
        <time>2022-11-19T11:31:01Z</time>
      </trkpt>
      <trkpt lat="48.68172" lon="1.96235">
        <ele>167</ele>
        <time>2022-11-19T11:31:03Z</time>
      </trkpt>
      <trkpt lat="48.68175" lon="1.96233">
        <ele>167</ele>
        <time>2022-11-19T11:31:05Z</time>
      </trkpt>
      <trkpt lat="48.68176" lon="1.96232">
        <ele>166</ele>
        <time>2022-11-19T11:31:06Z</time>
      </trkpt>
      <trkpt lat="48.68178" lon="1.96231">
        <ele>166</ele>
        <time>2022-11-19T11:31:07Z</time>
      </trkpt>
      <trkpt lat="48.68181" lon="1.96229">
        <ele>166</ele>
        <time>2022-11-19T11:31:09Z</time>
      </trkpt>
      <trkpt lat="48.68184" lon="1.96227">
        <ele>166</ele>
        <time>2022-11-19T11:31:11Z</time>
      </trkpt>
      <trkpt lat="48.68187" lon="1.96226">
        <ele>166</ele>
        <time>2022-11-19T11:31:13Z</time>
      </trkpt>
      <trkpt lat="48.6819" lon="1.96226">
        <ele>166</ele>
        <time>2022-11-19T11:31:15Z</time>
      </trkpt>
      <trkpt lat="48.68192" lon="1.96224">
        <ele>166</ele>
        <time>2022-11-19T11:31:17Z</time>
      </trkpt>
      <trkpt lat="48.68195" lon="1.96222">
        <ele>167</ele>
        <time>2022-11-19T11:31:19Z</time>
      </trkpt>
      <trkpt lat="48.68197" lon="1.96221">
        <ele>166</ele>
        <time>2022-11-19T11:31:21Z</time>
      </trkpt>
      <trkpt lat="48.68199" lon="1.96219">
        <ele>166</ele>
        <time>2022-11-19T11:31:23Z</time>
      </trkpt>
      <trkpt lat="48.68202" lon="1.96217">
        <ele>166</ele>
        <time>2022-11-19T11:31:25Z</time>
      </trkpt>
      <trkpt lat="48.68205" lon="1.96216">
        <ele>166</ele>
        <time>2022-11-19T11:31:27Z</time>
      </trkpt>
      <trkpt lat="48.68208" lon="1.96214">
        <ele>166</ele>
        <time>2022-11-19T11:31:29Z</time>
      </trkpt>
      <trkpt lat="48.6821" lon="1.96212">
        <ele>167</ele>
        <time>2022-11-19T11:31:31Z</time>
      </trkpt>
      <trkpt lat="48.68213" lon="1.9621">
        <ele>167</ele>
        <time>2022-11-19T11:31:33Z</time>
      </trkpt>
      <trkpt lat="48.68216" lon="1.96208">
        <ele>167</ele>
        <time>2022-11-19T11:31:35Z</time>
      </trkpt>
      <trkpt lat="48.68218" lon="1.96206">
        <ele>167</ele>
        <time>2022-11-19T11:31:37Z</time>
      </trkpt>
      <trkpt lat="48.68221" lon="1.96205">
        <ele>167</ele>
        <time>2022-11-19T11:31:39Z</time>
      </trkpt>
      <trkpt lat="48.68224" lon="1.96203">
        <ele>167</ele>
        <time>2022-11-19T11:31:41Z</time>
      </trkpt>
      <trkpt lat="48.68227" lon="1.96201">
        <ele>167</ele>
        <time>2022-11-19T11:31:43Z</time>
      </trkpt>
      <trkpt lat="48.6823" lon="1.96199">
        <ele>167</ele>
        <time>2022-11-19T11:31:45Z</time>
      </trkpt>
      <trkpt lat="48.68233" lon="1.96197">
        <ele>167</ele>
        <time>2022-11-19T11:31:47Z</time>
      </trkpt>
      <trkpt lat="48.68235" lon="1.96196">
        <ele>168</ele>
        <time>2022-11-19T11:31:49Z</time>
      </trkpt>
      <trkpt lat="48.68238" lon="1.96194">
        <ele>168</ele>
        <time>2022-11-19T11:31:51Z</time>
      </trkpt>
      <trkpt lat="48.6824" lon="1.96193">
        <ele>168</ele>
        <time>2022-11-19T11:31:53Z</time>
      </trkpt>
      <trkpt lat="48.68242" lon="1.96191">
        <ele>168</ele>
        <time>2022-11-19T11:31:55Z</time>
      </trkpt>
      <trkpt lat="48.68245" lon="1.9619">
        <ele>169</ele>
        <time>2022-11-19T11:31:57Z</time>
      </trkpt>
      <trkpt lat="48.68248" lon="1.96187">
        <ele>169</ele>
        <time>2022-11-19T11:31:59Z</time>
      </trkpt>
      <trkpt lat="48.68251" lon="1.96185">
        <ele>169</ele>
        <time>2022-11-19T11:32:01Z</time>
      </trkpt>
      <trkpt lat="48.68253" lon="1.96184">
        <ele>169</ele>
        <time>2022-11-19T11:32:03Z</time>
      </trkpt>
      <trkpt lat="48.68256" lon="1.96182">
        <ele>169</ele>
        <time>2022-11-19T11:32:05Z</time>
      </trkpt>
      <trkpt lat="48.68258" lon="1.96181">
        <ele>169</ele>
        <time>2022-11-19T11:32:07Z</time>
      </trkpt>
      <trkpt lat="48.68261" lon="1.96179">
        <ele>169</ele>
        <time>2022-11-19T11:32:09Z</time>
      </trkpt>
      <trkpt lat="48.68264" lon="1.96177">
        <ele>169</ele>
        <time>2022-11-19T11:32:11Z</time>
      </trkpt>
      <trkpt lat="48.68267" lon="1.96175">
        <ele>169</ele>
        <time>2022-11-19T11:32:13Z</time>
      </trkpt>
      <trkpt lat="48.6827" lon="1.96172">
        <ele>169</ele>
        <time>2022-11-19T11:32:15Z</time>
      </trkpt>
      <trkpt lat="48.68272" lon="1.96171">
        <ele>169</ele>
        <time>2022-11-19T11:32:17Z</time>
      </trkpt>
      <trkpt lat="48.68275" lon="1.96169">
        <ele>169</ele>
        <time>2022-11-19T11:32:19Z</time>
      </trkpt>
      <trkpt lat="48.68278" lon="1.96168">
        <ele>169</ele>
        <time>2022-11-19T11:32:21Z</time>
      </trkpt>
      <trkpt lat="48.68281" lon="1.96166">
        <ele>169</ele>
        <time>2022-11-19T11:32:23Z</time>
      </trkpt>
      <trkpt lat="48.68284" lon="1.96165">
        <ele>169</ele>
        <time>2022-11-19T11:32:25Z</time>
      </trkpt>
      <trkpt lat="48.68286" lon="1.96164">
        <ele>169</ele>
        <time>2022-11-19T11:32:27Z</time>
      </trkpt>
      <trkpt lat="48.68289" lon="1.96162">
        <ele>170</ele>
        <time>2022-11-19T11:32:29Z</time>
      </trkpt>
      <trkpt lat="48.68291" lon="1.9616">
        <ele>170</ele>
        <time>2022-11-19T11:32:31Z</time>
      </trkpt>
      <trkpt lat="48.68294" lon="1.96158">
        <ele>170</ele>
        <time>2022-11-19T11:32:33Z</time>
      </trkpt>
      <trkpt lat="48.68296" lon="1.96156">
        <ele>170</ele>
        <time>2022-11-19T11:32:35Z</time>
      </trkpt>
      <trkpt lat="48.68298" lon="1.96153">
        <ele>170</ele>
        <time>2022-11-19T11:32:37Z</time>
      </trkpt>
      <trkpt lat="48.68301" lon="1.96151">
        <ele>170</ele>
        <time>2022-11-19T11:32:39Z</time>
      </trkpt>
      <trkpt lat="48.68304" lon="1.96149">
        <ele>170</ele>
        <time>2022-11-19T11:32:41Z</time>
      </trkpt>
      <trkpt lat="48.68306" lon="1.96148">
        <ele>170</ele>
        <time>2022-11-19T11:32:42Z</time>
      </trkpt>
      <trkpt lat="48.68308" lon="1.96147">
        <ele>170</ele>
        <time>2022-11-19T11:32:44Z</time>
      </trkpt>
      <trkpt lat="48.68311" lon="1.96146">
        <ele>171</ele>
        <time>2022-11-19T11:32:46Z</time>
      </trkpt>
      <trkpt lat="48.68313" lon="1.96144">
        <ele>171</ele>
        <time>2022-11-19T11:32:48Z</time>
      </trkpt>
      <trkpt lat="48.68315" lon="1.96143">
        <ele>171</ele>
        <time>2022-11-19T11:32:50Z</time>
      </trkpt>
      <trkpt lat="48.68318" lon="1.96144">
        <ele>171</ele>
        <time>2022-11-19T11:32:52Z</time>
      </trkpt>
      <trkpt lat="48.68321" lon="1.96146">
        <ele>171</ele>
        <time>2022-11-19T11:32:54Z</time>
      </trkpt>
      <trkpt lat="48.68324" lon="1.96148">
        <ele>171</ele>
        <time>2022-11-19T11:32:56Z</time>
      </trkpt>
      <trkpt lat="48.68325" lon="1.96149">
        <ele>171</ele>
        <time>2022-11-19T11:32:57Z</time>
      </trkpt>
      <trkpt lat="48.68328" lon="1.96153">
        <ele>171</ele>
        <time>2022-11-19T11:32:59Z</time>
      </trkpt>
      <trkpt lat="48.6833" lon="1.96156">
        <ele>170</ele>
        <time>2022-11-19T11:33:01Z</time>
      </trkpt>
      <trkpt lat="48.68331" lon="1.96158">
        <ele>170</ele>
        <time>2022-11-19T11:33:02Z</time>
      </trkpt>
      <trkpt lat="48.68334" lon="1.96162">
        <ele>170</ele>
        <time>2022-11-19T11:33:04Z</time>
      </trkpt>
      <trkpt lat="48.68336" lon="1.96165">
        <ele>169</ele>
        <time>2022-11-19T11:33:06Z</time>
      </trkpt>
      <trkpt lat="48.68338" lon="1.96169">
        <ele>168</ele>
        <time>2022-11-19T11:33:08Z</time>
      </trkpt>
      <trkpt lat="48.6834" lon="1.96173">
        <ele>168</ele>
        <time>2022-11-19T11:33:10Z</time>
      </trkpt>
      <trkpt lat="48.68342" lon="1.96176">
        <ele>168</ele>
        <time>2022-11-19T11:33:12Z</time>
      </trkpt>
      <trkpt lat="48.68344" lon="1.9618">
        <ele>167</ele>
        <time>2022-11-19T11:33:14Z</time>
      </trkpt>
      <trkpt lat="48.68346" lon="1.96182">
        <ele>167</ele>
        <time>2022-11-19T11:33:16Z</time>
      </trkpt>
      <trkpt lat="48.68348" lon="1.96186">
        <ele>168</ele>
        <time>2022-11-19T11:33:18Z</time>
      </trkpt>
      <trkpt lat="48.68349" lon="1.96189">
        <ele>168</ele>
        <time>2022-11-19T11:33:20Z</time>
      </trkpt>
      <trkpt lat="48.68352" lon="1.96191">
        <ele>168</ele>
        <time>2022-11-19T11:33:22Z</time>
      </trkpt>
      <trkpt lat="48.68354" lon="1.96194">
        <ele>168</ele>
        <time>2022-11-19T11:33:24Z</time>
      </trkpt>
      <trkpt lat="48.68355" lon="1.96198">
        <ele>168</ele>
        <time>2022-11-19T11:33:26Z</time>
      </trkpt>
      <trkpt lat="48.68357" lon="1.96202">
        <ele>168</ele>
        <time>2022-11-19T11:33:28Z</time>
      </trkpt>
      <trkpt lat="48.68358" lon="1.96205">
        <ele>167</ele>
        <time>2022-11-19T11:33:30Z</time>
      </trkpt>
      <trkpt lat="48.6836" lon="1.96208">
        <ele>167</ele>
        <time>2022-11-19T11:33:32Z</time>
      </trkpt>
      <trkpt lat="48.68361" lon="1.96211">
        <ele>167</ele>
        <time>2022-11-19T11:33:34Z</time>
      </trkpt>
      <trkpt lat="48.68363" lon="1.96213">
        <ele>167</ele>
        <time>2022-11-19T11:33:36Z</time>
      </trkpt>
      <trkpt lat="48.68364" lon="1.96216">
        <ele>167</ele>
        <time>2022-11-19T11:33:38Z</time>
      </trkpt>
      <trkpt lat="48.68366" lon="1.96218">
        <ele>167</ele>
        <time>2022-11-19T11:33:40Z</time>
      </trkpt>
      <trkpt lat="48.68367" lon="1.9622">
        <ele>167</ele>
        <time>2022-11-19T11:33:42Z</time>
      </trkpt>
      <trkpt lat="48.68368" lon="1.96223">
        <ele>166</ele>
        <time>2022-11-19T11:33:44Z</time>
      </trkpt>
      <trkpt lat="48.68369" lon="1.96225">
        <ele>166</ele>
        <time>2022-11-19T11:33:46Z</time>
      </trkpt>
      <trkpt lat="48.68372" lon="1.96227">
        <ele>166</ele>
        <time>2022-11-19T11:33:49Z</time>
      </trkpt>
      <trkpt lat="48.68373" lon="1.96229">
        <ele>166</ele>
        <time>2022-11-19T11:33:53Z</time>
      </trkpt>
      <trkpt lat="48.68376" lon="1.96231">
        <ele>166</ele>
        <time>2022-11-19T11:33:58Z</time>
      </trkpt>
      <trkpt lat="48.68378" lon="1.96231">
        <ele>166</ele>
        <time>2022-11-19T11:34:00Z</time>
      </trkpt>
      <trkpt lat="48.6838" lon="1.96234">
        <ele>166</ele>
        <time>2022-11-19T11:34:02Z</time>
      </trkpt>
      <trkpt lat="48.68382" lon="1.96236">
        <ele>166</ele>
        <time>2022-11-19T11:34:04Z</time>
      </trkpt>
      <trkpt lat="48.68384" lon="1.96239">
        <ele>166</ele>
        <time>2022-11-19T11:34:06Z</time>
      </trkpt>
      <trkpt lat="48.68386" lon="1.96241">
        <ele>166</ele>
        <time>2022-11-19T11:34:08Z</time>
      </trkpt>
      <trkpt lat="48.68388" lon="1.96243">
        <ele>166</ele>
        <time>2022-11-19T11:34:10Z</time>
      </trkpt>
      <trkpt lat="48.6839" lon="1.96244">
        <ele>165</ele>
        <time>2022-11-19T11:34:12Z</time>
      </trkpt>
      <trkpt lat="48.68392" lon="1.96245">
        <ele>165</ele>
        <time>2022-11-19T11:34:14Z</time>
      </trkpt>
      <trkpt lat="48.68394" lon="1.96246">
        <ele>165</ele>
        <time>2022-11-19T11:34:16Z</time>
      </trkpt>
      <trkpt lat="48.68396" lon="1.96247">
        <ele>164</ele>
        <time>2022-11-19T11:34:18Z</time>
      </trkpt>
      <trkpt lat="48.68398" lon="1.9625">
        <ele>164</ele>
        <time>2022-11-19T11:34:20Z</time>
      </trkpt>
      <trkpt lat="48.684" lon="1.9625">
        <ele>164</ele>
        <time>2022-11-19T11:34:21Z</time>
      </trkpt>
      <trkpt lat="48.68402" lon="1.96252">
        <ele>163</ele>
        <time>2022-11-19T11:34:23Z</time>
      </trkpt>
      <trkpt lat="48.68404" lon="1.96254">
        <ele>163</ele>
        <time>2022-11-19T11:34:25Z</time>
      </trkpt>
      <trkpt lat="48.68406" lon="1.96255">
        <ele>163</ele>
        <time>2022-11-19T11:34:26Z</time>
      </trkpt>
      <trkpt lat="48.68409" lon="1.96257">
        <ele>163</ele>
        <time>2022-11-19T11:34:27Z</time>
      </trkpt>
      <trkpt lat="48.68411" lon="1.96258">
        <ele>163</ele>
        <time>2022-11-19T11:34:28Z</time>
      </trkpt>
      <trkpt lat="48.68413" lon="1.9626">
        <ele>162</ele>
        <time>2022-11-19T11:34:30Z</time>
      </trkpt>
      <trkpt lat="48.68415" lon="1.96263">
        <ele>162</ele>
        <time>2022-11-19T11:34:32Z</time>
      </trkpt>
      <trkpt lat="48.68417" lon="1.96266">
        <ele>162</ele>
        <time>2022-11-19T11:34:35Z</time>
      </trkpt>
      <trkpt lat="48.68419" lon="1.96269">
        <ele>162</ele>
        <time>2022-11-19T11:34:37Z</time>
      </trkpt>
      <trkpt lat="48.68421" lon="1.96272">
        <ele>162</ele>
        <time>2022-11-19T11:34:39Z</time>
      </trkpt>
      <trkpt lat="48.68422" lon="1.96276">
        <ele>161</ele>
        <time>2022-11-19T11:34:41Z</time>
      </trkpt>
      <trkpt lat="48.68424" lon="1.96281">
        <ele>161</ele>
        <time>2022-11-19T11:34:43Z</time>
      </trkpt>
      <trkpt lat="48.68425" lon="1.96286">
        <ele>161</ele>
        <time>2022-11-19T11:34:45Z</time>
      </trkpt>
      <trkpt lat="48.68425" lon="1.96291">
        <ele>160</ele>
        <time>2022-11-19T11:34:47Z</time>
      </trkpt>
      <trkpt lat="48.68425" lon="1.96295">
        <ele>160</ele>
        <time>2022-11-19T11:34:49Z</time>
      </trkpt>
      <trkpt lat="48.68425" lon="1.96299">
        <ele>160</ele>
        <time>2022-11-19T11:34:51Z</time>
      </trkpt>
      <trkpt lat="48.68425" lon="1.96304">
        <ele>159</ele>
        <time>2022-11-19T11:34:53Z</time>
      </trkpt>
      <trkpt lat="48.68425" lon="1.96308">
        <ele>159</ele>
        <time>2022-11-19T11:34:54Z</time>
      </trkpt>
      <trkpt lat="48.68426" lon="1.96312">
        <ele>158</ele>
        <time>2022-11-19T11:34:55Z</time>
      </trkpt>
      <trkpt lat="48.68426" lon="1.96315">
        <ele>157</ele>
        <time>2022-11-19T11:34:56Z</time>
      </trkpt>
      <trkpt lat="48.68427" lon="1.96318">
        <ele>155</ele>
        <time>2022-11-19T11:34:57Z</time>
      </trkpt>
      <trkpt lat="48.68427" lon="1.96321">
        <ele>154</ele>
        <time>2022-11-19T11:34:58Z</time>
      </trkpt>
      <trkpt lat="48.68427" lon="1.96324">
        <ele>154</ele>
        <time>2022-11-19T11:34:59Z</time>
      </trkpt>
      <trkpt lat="48.68427" lon="1.96329">
        <ele>153</ele>
        <time>2022-11-19T11:35:01Z</time>
      </trkpt>
      <trkpt lat="48.68427" lon="1.96333">
        <ele>153</ele>
        <time>2022-11-19T11:35:03Z</time>
      </trkpt>
      <trkpt lat="48.68427" lon="1.96338">
        <ele>152</ele>
        <time>2022-11-19T11:35:05Z</time>
      </trkpt>
      <trkpt lat="48.68426" lon="1.96343">
        <ele>152</ele>
        <time>2022-11-19T11:35:07Z</time>
      </trkpt>
      <trkpt lat="48.68428" lon="1.96347">
        <ele>152</ele>
        <time>2022-11-19T11:35:09Z</time>
      </trkpt>
      <trkpt lat="48.68428" lon="1.96351">
        <ele>152</ele>
        <time>2022-11-19T11:35:11Z</time>
      </trkpt>
      <trkpt lat="48.68427" lon="1.96354">
        <ele>151</ele>
        <time>2022-11-19T11:35:13Z</time>
      </trkpt>
      <trkpt lat="48.68427" lon="1.96357">
        <ele>151</ele>
        <time>2022-11-19T11:35:15Z</time>
      </trkpt>
      <trkpt lat="48.68426" lon="1.96361">
        <ele>151</ele>
        <time>2022-11-19T11:35:17Z</time>
      </trkpt>
      <trkpt lat="48.68425" lon="1.96367">
        <ele>151</ele>
        <time>2022-11-19T11:35:19Z</time>
      </trkpt>
      <trkpt lat="48.68424" lon="1.9637">
        <ele>150</ele>
        <time>2022-11-19T11:35:20Z</time>
      </trkpt>
      <trkpt lat="48.68424" lon="1.96374">
        <ele>149</ele>
        <time>2022-11-19T11:35:22Z</time>
      </trkpt>
      <trkpt lat="48.68425" lon="1.96378">
        <ele>149</ele>
        <time>2022-11-19T11:35:24Z</time>
      </trkpt>
      <trkpt lat="48.68425" lon="1.96382">
        <ele>149</ele>
        <time>2022-11-19T11:35:26Z</time>
      </trkpt>
      <trkpt lat="48.68424" lon="1.96385">
        <ele>149</ele>
        <time>2022-11-19T11:35:27Z</time>
      </trkpt>
      <trkpt lat="48.68423" lon="1.96387">
        <ele>148</ele>
        <time>2022-11-19T11:35:28Z</time>
      </trkpt>
      <trkpt lat="48.68421" lon="1.9639">
        <ele>148</ele>
        <time>2022-11-19T11:35:29Z</time>
      </trkpt>
      <trkpt lat="48.6842" lon="1.96393">
        <ele>147</ele>
        <time>2022-11-19T11:35:31Z</time>
      </trkpt>
      <trkpt lat="48.68421" lon="1.96397">
        <ele>146</ele>
        <time>2022-11-19T11:35:33Z</time>
      </trkpt>
      <trkpt lat="48.68423" lon="1.96398">
        <ele>146</ele>
        <time>2022-11-19T11:35:38Z</time>
      </trkpt>
      <trkpt lat="48.68425" lon="1.96399">
        <ele>146</ele>
        <time>2022-11-19T11:35:40Z</time>
      </trkpt>
      <trkpt lat="48.68427" lon="1.96399">
        <ele>146</ele>
        <time>2022-11-19T11:35:42Z</time>
      </trkpt>
      <trkpt lat="48.6843" lon="1.96399">
        <ele>146</ele>
        <time>2022-11-19T11:35:44Z</time>
      </trkpt>
      <trkpt lat="48.68431" lon="1.96399">
        <ele>146</ele>
        <time>2022-11-19T11:35:46Z</time>
      </trkpt>
      <trkpt lat="48.68434" lon="1.96398">
        <ele>146</ele>
        <time>2022-11-19T11:35:48Z</time>
      </trkpt>
      <trkpt lat="48.68438" lon="1.96397">
        <ele>146</ele>
        <time>2022-11-19T11:35:50Z</time>
      </trkpt>
      <trkpt lat="48.68441" lon="1.96396">
        <ele>146</ele>
        <time>2022-11-19T11:35:52Z</time>
      </trkpt>
      <trkpt lat="48.68443" lon="1.96394">
        <ele>145</ele>
        <time>2022-11-19T11:35:54Z</time>
      </trkpt>
      <trkpt lat="48.68446" lon="1.96393">
        <ele>145</ele>
        <time>2022-11-19T11:35:56Z</time>
      </trkpt>
      <trkpt lat="48.68449" lon="1.96391">
        <ele>144</ele>
        <time>2022-11-19T11:35:58Z</time>
      </trkpt>
      <trkpt lat="48.68452" lon="1.9639">
        <ele>144</ele>
        <time>2022-11-19T11:36:00Z</time>
      </trkpt>
      <trkpt lat="48.68454" lon="1.9639">
        <ele>144</ele>
        <time>2022-11-19T11:36:02Z</time>
      </trkpt>
      <trkpt lat="48.68457" lon="1.9639">
        <ele>144</ele>
        <time>2022-11-19T11:36:04Z</time>
      </trkpt>
      <trkpt lat="48.6846" lon="1.9639">
        <ele>144</ele>
        <time>2022-11-19T11:36:06Z</time>
      </trkpt>
      <trkpt lat="48.68462" lon="1.9639">
        <ele>144</ele>
        <time>2022-11-19T11:36:08Z</time>
      </trkpt>
      <trkpt lat="48.68464" lon="1.9639">
        <ele>144</ele>
        <time>2022-11-19T11:36:10Z</time>
      </trkpt>
      <trkpt lat="48.68467" lon="1.96388">
        <ele>144</ele>
        <time>2022-11-19T11:36:12Z</time>
      </trkpt>
      <trkpt lat="48.6847" lon="1.96388">
        <ele>143</ele>
        <time>2022-11-19T11:36:14Z</time>
      </trkpt>
      <trkpt lat="48.68472" lon="1.96388">
        <ele>143</ele>
        <time>2022-11-19T11:36:16Z</time>
      </trkpt>
      <trkpt lat="48.68475" lon="1.96386">
        <ele>143</ele>
        <time>2022-11-19T11:36:18Z</time>
      </trkpt>
      <trkpt lat="48.68477" lon="1.96384">
        <ele>143</ele>
        <time>2022-11-19T11:36:20Z</time>
      </trkpt>
      <trkpt lat="48.68479" lon="1.96383">
        <ele>143</ele>
        <time>2022-11-19T11:36:22Z</time>
      </trkpt>
      <trkpt lat="48.68481" lon="1.96382">
        <ele>143</ele>
        <time>2022-11-19T11:36:24Z</time>
      </trkpt>
      <trkpt lat="48.68484" lon="1.96381">
        <ele>143</ele>
        <time>2022-11-19T11:36:26Z</time>
      </trkpt>
      <trkpt lat="48.68485" lon="1.96381">
        <ele>143</ele>
        <time>2022-11-19T11:36:27Z</time>
      </trkpt>
      <trkpt lat="48.68487" lon="1.9638">
        <ele>143</ele>
        <time>2022-11-19T11:36:28Z</time>
      </trkpt>
      <trkpt lat="48.68489" lon="1.96379">
        <ele>144</ele>
        <time>2022-11-19T11:36:30Z</time>
      </trkpt>
      <trkpt lat="48.68493" lon="1.96377">
        <ele>143</ele>
        <time>2022-11-19T11:36:32Z</time>
      </trkpt>
      <trkpt lat="48.68496" lon="1.96375">
        <ele>143</ele>
        <time>2022-11-19T11:36:34Z</time>
      </trkpt>
      <trkpt lat="48.68498" lon="1.96373">
        <ele>143</ele>
        <time>2022-11-19T11:36:36Z</time>
      </trkpt>
      <trkpt lat="48.68501" lon="1.96372">
        <ele>143</ele>
        <time>2022-11-19T11:36:38Z</time>
      </trkpt>
      <trkpt lat="48.68503" lon="1.96371">
        <ele>143</ele>
        <time>2022-11-19T11:36:40Z</time>
      </trkpt>
      <trkpt lat="48.68507" lon="1.96371">
        <ele>143</ele>
        <time>2022-11-19T11:36:42Z</time>
      </trkpt>
      <trkpt lat="48.6851" lon="1.96371">
        <ele>144</ele>
        <time>2022-11-19T11:36:44Z</time>
      </trkpt>
      <trkpt lat="48.68513" lon="1.96372">
        <ele>144</ele>
        <time>2022-11-19T11:36:46Z</time>
      </trkpt>
      <trkpt lat="48.68515" lon="1.96371">
        <ele>144</ele>
        <time>2022-11-19T11:36:48Z</time>
      </trkpt>
      <trkpt lat="48.68518" lon="1.9637">
        <ele>144</ele>
        <time>2022-11-19T11:36:50Z</time>
      </trkpt>
      <trkpt lat="48.68521" lon="1.96368">
        <ele>144</ele>
        <time>2022-11-19T11:36:52Z</time>
      </trkpt>
      <trkpt lat="48.68524" lon="1.96367">
        <ele>144</ele>
        <time>2022-11-19T11:36:54Z</time>
      </trkpt>
      <trkpt lat="48.68527" lon="1.96368">
        <ele>144</ele>
        <time>2022-11-19T11:36:56Z</time>
      </trkpt>
      <trkpt lat="48.6853" lon="1.96367">
        <ele>144</ele>
        <time>2022-11-19T11:36:58Z</time>
      </trkpt>
      <trkpt lat="48.68532" lon="1.96366">
        <ele>144</ele>
        <time>2022-11-19T11:36:59Z</time>
      </trkpt>
      <trkpt lat="48.68534" lon="1.96365">
        <ele>144</ele>
        <time>2022-11-19T11:37:00Z</time>
      </trkpt>
      <trkpt lat="48.68537" lon="1.96364">
        <ele>143</ele>
        <time>2022-11-19T11:37:02Z</time>
      </trkpt>
      <trkpt lat="48.68539" lon="1.96362">
        <ele>143</ele>
        <time>2022-11-19T11:37:04Z</time>
      </trkpt>
      <trkpt lat="48.68543" lon="1.96362">
        <ele>143</ele>
        <time>2022-11-19T11:37:06Z</time>
      </trkpt>
      <trkpt lat="48.68545" lon="1.96363">
        <ele>143</ele>
        <time>2022-11-19T11:37:07Z</time>
      </trkpt>
      <trkpt lat="48.68548" lon="1.96363">
        <ele>143</ele>
        <time>2022-11-19T11:37:09Z</time>
      </trkpt>
      <trkpt lat="48.68551" lon="1.96361">
        <ele>143</ele>
        <time>2022-11-19T11:37:11Z</time>
      </trkpt>
      <trkpt lat="48.68553" lon="1.96361">
        <ele>143</ele>
        <time>2022-11-19T11:37:12Z</time>
      </trkpt>
      <trkpt lat="48.68556" lon="1.9636">
        <ele>142</ele>
        <time>2022-11-19T11:37:14Z</time>
      </trkpt>
      <trkpt lat="48.68559" lon="1.96361">
        <ele>142</ele>
        <time>2022-11-19T11:37:16Z</time>
      </trkpt>
      <trkpt lat="48.68561" lon="1.96361">
        <ele>142</ele>
        <time>2022-11-19T11:37:18Z</time>
      </trkpt>
      <trkpt lat="48.68563" lon="1.9636">
        <ele>141</ele>
        <time>2022-11-19T11:37:21Z</time>
      </trkpt>
      <trkpt lat="48.68565" lon="1.96358">
        <ele>139</ele>
        <time>2022-11-19T11:37:24Z</time>
      </trkpt>
      <trkpt lat="48.68567" lon="1.96356">
        <ele>138</ele>
        <time>2022-11-19T11:37:26Z</time>
      </trkpt>
      <trkpt lat="48.6857" lon="1.96354">
        <ele>138</ele>
        <time>2022-11-19T11:37:28Z</time>
      </trkpt>
      <trkpt lat="48.68572" lon="1.96354">
        <ele>138</ele>
        <time>2022-11-19T11:37:30Z</time>
      </trkpt>
      <trkpt lat="48.68575" lon="1.96354">
        <ele>138</ele>
        <time>2022-11-19T11:37:32Z</time>
      </trkpt>
      <trkpt lat="48.68577" lon="1.96353">
        <ele>138</ele>
        <time>2022-11-19T11:37:34Z</time>
      </trkpt>
      <trkpt lat="48.6858" lon="1.96353">
        <ele>138</ele>
        <time>2022-11-19T11:37:36Z</time>
      </trkpt>
      <trkpt lat="48.68583" lon="1.96351">
        <ele>138</ele>
        <time>2022-11-19T11:37:38Z</time>
      </trkpt>
      <trkpt lat="48.68585" lon="1.96349">
        <ele>138</ele>
        <time>2022-11-19T11:37:40Z</time>
      </trkpt>
      <trkpt lat="48.68588" lon="1.96347">
        <ele>138</ele>
        <time>2022-11-19T11:37:42Z</time>
      </trkpt>
      <trkpt lat="48.68591" lon="1.96345">
        <ele>138</ele>
        <time>2022-11-19T11:37:44Z</time>
      </trkpt>
      <trkpt lat="48.68594" lon="1.96343">
        <ele>137</ele>
        <time>2022-11-19T11:37:46Z</time>
      </trkpt>
      <trkpt lat="48.68597" lon="1.96341">
        <ele>137</ele>
        <time>2022-11-19T11:37:48Z</time>
      </trkpt>
      <trkpt lat="48.68599" lon="1.96339">
        <ele>138</ele>
        <time>2022-11-19T11:37:50Z</time>
      </trkpt>
      <trkpt lat="48.68601" lon="1.96337">
        <ele>137</ele>
        <time>2022-11-19T11:37:52Z</time>
      </trkpt>
      <trkpt lat="48.68603" lon="1.96336">
        <ele>137</ele>
        <time>2022-11-19T11:37:54Z</time>
      </trkpt>
      <trkpt lat="48.68606" lon="1.96335">
        <ele>138</ele>
        <time>2022-11-19T11:37:56Z</time>
      </trkpt>
      <trkpt lat="48.68609" lon="1.96336">
        <ele>138</ele>
        <time>2022-11-19T11:37:58Z</time>
      </trkpt>
      <trkpt lat="48.68612" lon="1.96337">
        <ele>138</ele>
        <time>2022-11-19T11:38:00Z</time>
      </trkpt>
      <trkpt lat="48.68614" lon="1.96338">
        <ele>138</ele>
        <time>2022-11-19T11:38:02Z</time>
      </trkpt>
      <trkpt lat="48.68617" lon="1.96339">
        <ele>138</ele>
        <time>2022-11-19T11:38:04Z</time>
      </trkpt>
      <trkpt lat="48.68619" lon="1.96337">
        <ele>138</ele>
        <time>2022-11-19T11:38:06Z</time>
      </trkpt>
      <trkpt lat="48.68621" lon="1.96335">
        <ele>138</ele>
        <time>2022-11-19T11:38:08Z</time>
      </trkpt>
      <trkpt lat="48.68623" lon="1.96333">
        <ele>138</ele>
        <time>2022-11-19T11:38:10Z</time>
      </trkpt>
      <trkpt lat="48.68624" lon="1.96331">
        <ele>138</ele>
        <time>2022-11-19T11:38:12Z</time>
      </trkpt>
      <trkpt lat="48.68626" lon="1.96329">
        <ele>138</ele>
        <time>2022-11-19T11:38:14Z</time>
      </trkpt>
      <trkpt lat="48.68627" lon="1.96326">
        <ele>138</ele>
        <time>2022-11-19T11:38:16Z</time>
      </trkpt>
      <trkpt lat="48.68629" lon="1.96323">
        <ele>138</ele>
        <time>2022-11-19T11:38:18Z</time>
      </trkpt>
      <trkpt lat="48.68631" lon="1.96321">
        <ele>139</ele>
        <time>2022-11-19T11:38:20Z</time>
      </trkpt>
      <trkpt lat="48.68633" lon="1.9632">
        <ele>139</ele>
        <time>2022-11-19T11:38:22Z</time>
      </trkpt>
      <trkpt lat="48.68636" lon="1.9632">
        <ele>139</ele>
        <time>2022-11-19T11:38:24Z</time>
      </trkpt>
      <trkpt lat="48.68638" lon="1.96319">
        <ele>139</ele>
        <time>2022-11-19T11:38:26Z</time>
      </trkpt>
      <trkpt lat="48.6864" lon="1.96319">
        <ele>139</ele>
        <time>2022-11-19T11:38:27Z</time>
      </trkpt>
      <trkpt lat="48.68643" lon="1.96319">
        <ele>139</ele>
        <time>2022-11-19T11:38:29Z</time>
      </trkpt>
      <trkpt lat="48.68645" lon="1.96318">
        <ele>139</ele>
        <time>2022-11-19T11:38:31Z</time>
      </trkpt>
      <trkpt lat="48.68648" lon="1.96316">
        <ele>140</ele>
        <time>2022-11-19T11:38:33Z</time>
      </trkpt>
      <trkpt lat="48.6865" lon="1.96316">
        <ele>140</ele>
        <time>2022-11-19T11:38:35Z</time>
      </trkpt>
      <trkpt lat="48.68653" lon="1.96316">
        <ele>140</ele>
        <time>2022-11-19T11:38:37Z</time>
      </trkpt>
      <trkpt lat="48.68655" lon="1.96314">
        <ele>140</ele>
        <time>2022-11-19T11:38:39Z</time>
      </trkpt>
      <trkpt lat="48.68658" lon="1.96312">
        <ele>140</ele>
        <time>2022-11-19T11:38:41Z</time>
      </trkpt>
      <trkpt lat="48.6866" lon="1.9631">
        <ele>140</ele>
        <time>2022-11-19T11:38:43Z</time>
      </trkpt>
      <trkpt lat="48.68661" lon="1.96308">
        <ele>141</ele>
        <time>2022-11-19T11:38:45Z</time>
      </trkpt>
      <trkpt lat="48.68663" lon="1.96307">
        <ele>141</ele>
        <time>2022-11-19T11:38:47Z</time>
      </trkpt>
      <trkpt lat="48.68665" lon="1.96305">
        <ele>141</ele>
        <time>2022-11-19T11:38:49Z</time>
      </trkpt>
      <trkpt lat="48.68666" lon="1.96302">
        <ele>142</ele>
        <time>2022-11-19T11:38:54Z</time>
      </trkpt>
      <trkpt lat="48.68667" lon="1.96299">
        <ele>142</ele>
        <time>2022-11-19T11:38:56Z</time>
      </trkpt>
      <trkpt lat="48.68669" lon="1.96297">
        <ele>143</ele>
        <time>2022-11-19T11:38:58Z</time>
      </trkpt>
      <trkpt lat="48.6867" lon="1.96294">
        <ele>143</ele>
        <time>2022-11-19T11:39:01Z</time>
      </trkpt>
      <trkpt lat="48.68671" lon="1.96289">
        <ele>143</ele>
        <time>2022-11-19T11:39:04Z</time>
      </trkpt>
      <trkpt lat="48.68678" lon="1.96279">
        <ele>145</ele>
        <time>2022-11-19T11:39:11Z</time>
      </trkpt>
      <trkpt lat="48.68681" lon="1.96273">
        <ele>145</ele>
        <time>2022-11-19T11:39:14Z</time>
      </trkpt>
      <trkpt lat="48.68685" lon="1.96269">
        <ele>145</ele>
        <time>2022-11-19T11:39:17Z</time>
      </trkpt>
      <trkpt lat="48.68688" lon="1.96268">
        <ele>145</ele>
        <time>2022-11-19T11:39:19Z</time>
      </trkpt>
      <trkpt lat="48.68691" lon="1.96268">
        <ele>145</ele>
        <time>2022-11-19T11:39:21Z</time>
      </trkpt>
      <trkpt lat="48.68693" lon="1.96267">
        <ele>146</ele>
        <time>2022-11-19T11:39:23Z</time>
      </trkpt>
      <trkpt lat="48.68695" lon="1.96266">
        <ele>147</ele>
        <time>2022-11-19T11:39:25Z</time>
      </trkpt>
      <trkpt lat="48.68698" lon="1.96266">
        <ele>147</ele>
        <time>2022-11-19T11:39:27Z</time>
      </trkpt>
      <trkpt lat="48.687" lon="1.96267">
        <ele>147</ele>
        <time>2022-11-19T11:39:28Z</time>
      </trkpt>
      <trkpt lat="48.68703" lon="1.96268">
        <ele>147</ele>
        <time>2022-11-19T11:39:30Z</time>
      </trkpt>
      <trkpt lat="48.68706" lon="1.96268">
        <ele>147</ele>
        <time>2022-11-19T11:39:32Z</time>
      </trkpt>
      <trkpt lat="48.68709" lon="1.96269">
        <ele>147</ele>
        <time>2022-11-19T11:39:34Z</time>
      </trkpt>
      <trkpt lat="48.68712" lon="1.9627">
        <ele>147</ele>
        <time>2022-11-19T11:39:36Z</time>
      </trkpt>
      <trkpt lat="48.68715" lon="1.96271">
        <ele>147</ele>
        <time>2022-11-19T11:39:38Z</time>
      </trkpt>
      <trkpt lat="48.68718" lon="1.96272">
        <ele>148</ele>
        <time>2022-11-19T11:39:40Z</time>
      </trkpt>
      <trkpt lat="48.68721" lon="1.96273">
        <ele>148</ele>
        <time>2022-11-19T11:39:42Z</time>
      </trkpt>
      <trkpt lat="48.68724" lon="1.96275">
        <ele>148</ele>
        <time>2022-11-19T11:39:44Z</time>
      </trkpt>
      <trkpt lat="48.68726" lon="1.96276">
        <ele>149</ele>
        <time>2022-11-19T11:39:49Z</time>
      </trkpt>
      <trkpt lat="48.68728" lon="1.96277">
        <ele>149</ele>
        <time>2022-11-19T11:39:51Z</time>
      </trkpt>
      <trkpt lat="48.68731" lon="1.96277">
        <ele>149</ele>
        <time>2022-11-19T11:39:53Z</time>
      </trkpt>
      <trkpt lat="48.68733" lon="1.96278">
        <ele>149</ele>
        <time>2022-11-19T11:39:54Z</time>
      </trkpt>
      <trkpt lat="48.68735" lon="1.96279">
        <ele>149</ele>
        <time>2022-11-19T11:39:55Z</time>
      </trkpt>
      <trkpt lat="48.68737" lon="1.9628">
        <ele>149</ele>
        <time>2022-11-19T11:39:56Z</time>
      </trkpt>
      <trkpt lat="48.68739" lon="1.96282">
        <ele>149</ele>
        <time>2022-11-19T11:39:57Z</time>
      </trkpt>
      <trkpt lat="48.68742" lon="1.96284">
        <ele>149</ele>
        <time>2022-11-19T11:39:59Z</time>
      </trkpt>
      <trkpt lat="48.68743" lon="1.96285">
        <ele>149</ele>
        <time>2022-11-19T11:40:00Z</time>
      </trkpt>
      <trkpt lat="48.68745" lon="1.96286">
        <ele>150</ele>
        <time>2022-11-19T11:40:01Z</time>
      </trkpt>
      <trkpt lat="48.68747" lon="1.96288">
        <ele>150</ele>
        <time>2022-11-19T11:40:02Z</time>
      </trkpt>
      <trkpt lat="48.68748" lon="1.96289">
        <ele>150</ele>
        <time>2022-11-19T11:40:03Z</time>
      </trkpt>
      <trkpt lat="48.6875" lon="1.96291">
        <ele>150</ele>
        <time>2022-11-19T11:40:04Z</time>
      </trkpt>
      <trkpt lat="48.68752" lon="1.96292">
        <ele>150</ele>
        <time>2022-11-19T11:40:05Z</time>
      </trkpt>
      <trkpt lat="48.68754" lon="1.96294">
        <ele>149</ele>
        <time>2022-11-19T11:40:06Z</time>
      </trkpt>
      <trkpt lat="48.68757" lon="1.96295">
        <ele>149</ele>
        <time>2022-11-19T11:40:08Z</time>
      </trkpt>
      <trkpt lat="48.68759" lon="1.96297">
        <ele>149</ele>
        <time>2022-11-19T11:40:10Z</time>
      </trkpt>
      <trkpt lat="48.68762" lon="1.963">
        <ele>149</ele>
        <time>2022-11-19T11:40:12Z</time>
      </trkpt>
      <trkpt lat="48.68765" lon="1.96302">
        <ele>149</ele>
        <time>2022-11-19T11:40:14Z</time>
      </trkpt>
      <trkpt lat="48.6877" lon="1.96307">
        <ele>149</ele>
        <time>2022-11-19T11:40:18Z</time>
      </trkpt>
      <trkpt lat="48.68773" lon="1.96308">
        <ele>150</ele>
        <time>2022-11-19T11:40:20Z</time>
      </trkpt>
      <trkpt lat="48.68776" lon="1.96309">
        <ele>150</ele>
        <time>2022-11-19T11:40:22Z</time>
      </trkpt>
      <trkpt lat="48.68779" lon="1.96311">
        <ele>149</ele>
        <time>2022-11-19T11:40:24Z</time>
      </trkpt>
      <trkpt lat="48.68781" lon="1.96315">
        <ele>150</ele>
        <time>2022-11-19T11:40:26Z</time>
      </trkpt>
      <trkpt lat="48.68782" lon="1.96317">
        <ele>150</ele>
        <time>2022-11-19T11:40:28Z</time>
      </trkpt>
      <trkpt lat="48.68785" lon="1.96319">
        <ele>149</ele>
        <time>2022-11-19T11:40:30Z</time>
      </trkpt>
      <trkpt lat="48.68788" lon="1.9632">
        <ele>149</ele>
        <time>2022-11-19T11:40:32Z</time>
      </trkpt>
      <trkpt lat="48.68791" lon="1.96321">
        <ele>149</ele>
        <time>2022-11-19T11:40:34Z</time>
      </trkpt>
      <trkpt lat="48.68793" lon="1.96322">
        <ele>149</ele>
        <time>2022-11-19T11:40:36Z</time>
      </trkpt>
      <trkpt lat="48.68795" lon="1.9632">
        <ele>149</ele>
        <time>2022-11-19T11:40:38Z</time>
      </trkpt>
      <trkpt lat="48.68796" lon="1.96318">
        <ele>148</ele>
        <time>2022-11-19T11:40:40Z</time>
      </trkpt>
      <trkpt lat="48.68797" lon="1.96315">
        <ele>148</ele>
        <time>2022-11-19T11:40:42Z</time>
      </trkpt>
      <trkpt lat="48.68798" lon="1.96312">
        <ele>147</ele>
        <time>2022-11-19T11:40:44Z</time>
      </trkpt>
      <trkpt lat="48.68801" lon="1.9631">
        <ele>147</ele>
        <time>2022-11-19T11:40:47Z</time>
      </trkpt>
      <trkpt lat="48.68803" lon="1.96308">
        <ele>147</ele>
        <time>2022-11-19T11:40:49Z</time>
      </trkpt>
      <trkpt lat="48.68805" lon="1.96307">
        <ele>148</ele>
        <time>2022-11-19T11:40:51Z</time>
      </trkpt>
      <trkpt lat="48.68807" lon="1.96306">
        <ele>148</ele>
        <time>2022-11-19T11:40:53Z</time>
      </trkpt>
      <trkpt lat="48.6881" lon="1.96305">
        <ele>148</ele>
        <time>2022-11-19T11:40:55Z</time>
      </trkpt>
      <trkpt lat="48.68812" lon="1.96304">
        <ele>148</ele>
        <time>2022-11-19T11:40:57Z</time>
      </trkpt>
      <trkpt lat="48.68814" lon="1.96303">
        <ele>148</ele>
        <time>2022-11-19T11:41:00Z</time>
      </trkpt>
      <trkpt lat="48.68816" lon="1.96301">
        <ele>148</ele>
        <time>2022-11-19T11:41:03Z</time>
      </trkpt>
      <trkpt lat="48.68817" lon="1.96299">
        <ele>148</ele>
        <time>2022-11-19T11:41:06Z</time>
      </trkpt>
      <trkpt lat="48.68819" lon="1.96297">
        <ele>148</ele>
        <time>2022-11-19T11:41:08Z</time>
      </trkpt>
      <trkpt lat="48.68821" lon="1.96294">
        <ele>147</ele>
        <time>2022-11-19T11:41:10Z</time>
      </trkpt>
      <trkpt lat="48.68823" lon="1.96291">
        <ele>146</ele>
        <time>2022-11-19T11:41:12Z</time>
      </trkpt>
      <trkpt lat="48.68824" lon="1.96288">
        <ele>145</ele>
        <time>2022-11-19T11:41:15Z</time>
      </trkpt>
      <trkpt lat="48.68824" lon="1.96285">
        <ele>144</ele>
        <time>2022-11-19T11:41:17Z</time>
      </trkpt>
      <trkpt lat="48.68825" lon="1.96282">
        <ele>144</ele>
        <time>2022-11-19T11:41:19Z</time>
      </trkpt>
      <trkpt lat="48.68826" lon="1.96278">
        <ele>143</ele>
        <time>2022-11-19T11:41:21Z</time>
      </trkpt>
      <trkpt lat="48.68826" lon="1.96275">
        <ele>143</ele>
        <time>2022-11-19T11:41:23Z</time>
      </trkpt>
      <trkpt lat="48.68827" lon="1.96272">
        <ele>143</ele>
        <time>2022-11-19T11:41:25Z</time>
      </trkpt>
      <trkpt lat="48.68828" lon="1.96269">
        <ele>143</ele>
        <time>2022-11-19T11:41:27Z</time>
      </trkpt>
      <trkpt lat="48.68829" lon="1.96265">
        <ele>142</ele>
        <time>2022-11-19T11:41:29Z</time>
      </trkpt>
      <trkpt lat="48.6883" lon="1.96262">
        <ele>142</ele>
        <time>2022-11-19T11:41:31Z</time>
      </trkpt>
      <trkpt lat="48.68831" lon="1.96258">
        <ele>143</ele>
        <time>2022-11-19T11:41:33Z</time>
      </trkpt>
      <trkpt lat="48.68833" lon="1.96255">
        <ele>143</ele>
        <time>2022-11-19T11:41:35Z</time>
      </trkpt>
      <trkpt lat="48.68834" lon="1.96253">
        <ele>143</ele>
        <time>2022-11-19T11:41:37Z</time>
      </trkpt>
      <trkpt lat="48.68837" lon="1.96248">
        <ele>143</ele>
        <time>2022-11-19T11:41:40Z</time>
      </trkpt>
      <trkpt lat="48.68842" lon="1.96244">
        <ele>143</ele>
        <time>2022-11-19T11:41:44Z</time>
      </trkpt>
      <trkpt lat="48.68844" lon="1.96242">
        <ele>143</ele>
        <time>2022-11-19T11:41:46Z</time>
      </trkpt>
      <trkpt lat="48.68847" lon="1.96242">
        <ele>143</ele>
        <time>2022-11-19T11:41:48Z</time>
      </trkpt>
      <trkpt lat="48.68849" lon="1.96243">
        <ele>143</ele>
        <time>2022-11-19T11:41:49Z</time>
      </trkpt>
      <trkpt lat="48.68851" lon="1.96243">
        <ele>143</ele>
        <time>2022-11-19T11:41:50Z</time>
      </trkpt>
      <trkpt lat="48.68854" lon="1.96247">
        <ele>143</ele>
        <time>2022-11-19T11:41:53Z</time>
      </trkpt>
      <trkpt lat="48.68856" lon="1.96248">
        <ele>143</ele>
        <time>2022-11-19T11:41:55Z</time>
      </trkpt>
      <trkpt lat="48.68864" lon="1.96255">
        <ele>144</ele>
        <time>2022-11-19T11:42:03Z</time>
      </trkpt>
      <trkpt lat="48.68866" lon="1.96259">
        <ele>144</ele>
        <time>2022-11-19T11:42:05Z</time>
      </trkpt>
      <trkpt lat="48.68868" lon="1.96261">
        <ele>144</ele>
        <time>2022-11-19T11:42:06Z</time>
      </trkpt>
      <trkpt lat="48.6887" lon="1.96262">
        <ele>144</ele>
        <time>2022-11-19T11:42:08Z</time>
      </trkpt>
      <trkpt lat="48.68872" lon="1.96263">
        <ele>144</ele>
        <time>2022-11-19T11:42:09Z</time>
      </trkpt>
      <trkpt lat="48.68874" lon="1.96263">
        <ele>144</ele>
        <time>2022-11-19T11:42:10Z</time>
      </trkpt>
      <trkpt lat="48.68877" lon="1.96262">
        <ele>144</ele>
        <time>2022-11-19T11:42:12Z</time>
      </trkpt>
      <trkpt lat="48.68881" lon="1.9626">
        <ele>144</ele>
        <time>2022-11-19T11:42:15Z</time>
      </trkpt>
      <trkpt lat="48.68884" lon="1.96258">
        <ele>144</ele>
        <time>2022-11-19T11:42:17Z</time>
      </trkpt>
      <trkpt lat="48.68887" lon="1.96257">
        <ele>144</ele>
        <time>2022-11-19T11:42:19Z</time>
      </trkpt>
      <trkpt lat="48.68889" lon="1.96254">
        <ele>144</ele>
        <time>2022-11-19T11:42:22Z</time>
      </trkpt>
      <trkpt lat="48.68892" lon="1.96253">
        <ele>144</ele>
        <time>2022-11-19T11:42:24Z</time>
      </trkpt>
      <trkpt lat="48.68894" lon="1.96251">
        <ele>144</ele>
        <time>2022-11-19T11:42:26Z</time>
      </trkpt>
      <trkpt lat="48.68896" lon="1.9625">
        <ele>144</ele>
        <time>2022-11-19T11:42:28Z</time>
      </trkpt>
      <trkpt lat="48.68899" lon="1.96249">
        <ele>144</ele>
        <time>2022-11-19T11:42:30Z</time>
      </trkpt>
      <trkpt lat="48.68902" lon="1.96247">
        <ele>144</ele>
        <time>2022-11-19T11:42:33Z</time>
      </trkpt>
      <trkpt lat="48.68911" lon="1.96242">
        <ele>144</ele>
        <time>2022-11-19T11:42:40Z</time>
      </trkpt>
      <trkpt lat="48.6892" lon="1.96236">
        <ele>145</ele>
        <time>2022-11-19T11:42:46Z</time>
      </trkpt>
      <trkpt lat="48.68925" lon="1.96233">
        <ele>144</ele>
        <time>2022-11-19T11:42:50Z</time>
      </trkpt>
      <trkpt lat="48.68934" lon="1.96227">
        <ele>145</ele>
        <time>2022-11-19T11:42:59Z</time>
      </trkpt>
      <trkpt lat="48.68943" lon="1.96227">
        <ele>145</ele>
        <time>2022-11-19T11:43:04Z</time>
      </trkpt>
      <trkpt lat="48.68945" lon="1.96229">
        <ele>145</ele>
        <time>2022-11-19T11:43:05Z</time>
      </trkpt>
      <trkpt lat="48.68947" lon="1.96231">
        <ele>145</ele>
        <time>2022-11-19T11:43:06Z</time>
      </trkpt>
      <trkpt lat="48.6895" lon="1.96235">
        <ele>145</ele>
        <time>2022-11-19T11:43:08Z</time>
      </trkpt>
      <trkpt lat="48.68953" lon="1.96238">
        <ele>145</ele>
        <time>2022-11-19T11:43:10Z</time>
      </trkpt>
      <trkpt lat="48.68955" lon="1.96242">
        <ele>145</ele>
        <time>2022-11-19T11:43:12Z</time>
      </trkpt>
      <trkpt lat="48.68957" lon="1.96244">
        <ele>145</ele>
        <time>2022-11-19T11:43:13Z</time>
      </trkpt>
      <trkpt lat="48.68959" lon="1.96247">
        <ele>146</ele>
        <time>2022-11-19T11:43:15Z</time>
      </trkpt>
      <trkpt lat="48.68961" lon="1.9625">
        <ele>146</ele>
        <time>2022-11-19T11:43:17Z</time>
      </trkpt>
      <trkpt lat="48.68964" lon="1.96253">
        <ele>146</ele>
        <time>2022-11-19T11:43:19Z</time>
      </trkpt>
      <trkpt lat="48.68965" lon="1.96255">
        <ele>146</ele>
        <time>2022-11-19T11:43:20Z</time>
      </trkpt>
      <trkpt lat="48.68967" lon="1.96256">
        <ele>146</ele>
        <time>2022-11-19T11:43:21Z</time>
      </trkpt>
      <trkpt lat="48.68969" lon="1.96261">
        <ele>147</ele>
        <time>2022-11-19T11:43:23Z</time>
      </trkpt>
      <trkpt lat="48.6897" lon="1.96263">
        <ele>147</ele>
        <time>2022-11-19T11:43:24Z</time>
      </trkpt>
      <trkpt lat="48.68971" lon="1.96267">
        <ele>147</ele>
        <time>2022-11-19T11:43:26Z</time>
      </trkpt>
      <trkpt lat="48.68973" lon="1.96272">
        <ele>147</ele>
        <time>2022-11-19T11:43:28Z</time>
      </trkpt>
      <trkpt lat="48.68974" lon="1.96275">
        <ele>147</ele>
        <time>2022-11-19T11:43:30Z</time>
      </trkpt>
      <trkpt lat="48.68974" lon="1.9628">
        <ele>146</ele>
        <time>2022-11-19T11:43:32Z</time>
      </trkpt>
      <trkpt lat="48.68974" lon="1.96284">
        <ele>146</ele>
        <time>2022-11-19T11:43:34Z</time>
      </trkpt>
      <trkpt lat="48.68976" lon="1.96288">
        <ele>146</ele>
        <time>2022-11-19T11:43:36Z</time>
      </trkpt>
      <trkpt lat="48.68977" lon="1.96289">
        <ele>146</ele>
        <time>2022-11-19T11:43:38Z</time>
      </trkpt>
      <trkpt lat="48.68979" lon="1.9629">
        <ele>146</ele>
        <time>2022-11-19T11:43:40Z</time>
      </trkpt>
      <trkpt lat="48.68981" lon="1.9629">
        <ele>147</ele>
        <time>2022-11-19T11:43:42Z</time>
      </trkpt>
      <trkpt lat="48.68984" lon="1.96289">
        <ele>146</ele>
        <time>2022-11-19T11:43:44Z</time>
      </trkpt>
      <trkpt lat="48.68986" lon="1.9629">
        <ele>147</ele>
        <time>2022-11-19T11:43:46Z</time>
      </trkpt>
      <trkpt lat="48.68988" lon="1.96291">
        <ele>147</ele>
        <time>2022-11-19T11:43:48Z</time>
      </trkpt>
      <trkpt lat="48.6899" lon="1.96292">
        <ele>147</ele>
        <time>2022-11-19T11:43:50Z</time>
      </trkpt>
      <trkpt lat="48.68993" lon="1.96292">
        <ele>148</ele>
        <time>2022-11-19T11:43:52Z</time>
      </trkpt>
      <trkpt lat="48.68996" lon="1.96291">
        <ele>148</ele>
        <time>2022-11-19T11:43:55Z</time>
      </trkpt>
      <trkpt lat="48.68998" lon="1.96293">
        <ele>148</ele>
        <time>2022-11-19T11:43:57Z</time>
      </trkpt>
      <trkpt lat="48.69" lon="1.96293">
        <ele>148</ele>
        <time>2022-11-19T11:43:59Z</time>
      </trkpt>
      <trkpt lat="48.69002" lon="1.96293">
        <ele>148</ele>
        <time>2022-11-19T11:44:01Z</time>
      </trkpt>
      <trkpt lat="48.69005" lon="1.96291">
        <ele>149</ele>
        <time>2022-11-19T11:44:04Z</time>
      </trkpt>
      <trkpt lat="48.69007" lon="1.96289">
        <ele>149</ele>
        <time>2022-11-19T11:44:06Z</time>
      </trkpt>
      <trkpt lat="48.69009" lon="1.96288">
        <ele>150</ele>
        <time>2022-11-19T11:44:08Z</time>
      </trkpt>
      <trkpt lat="48.69011" lon="1.96288">
        <ele>150</ele>
        <time>2022-11-19T11:44:10Z</time>
      </trkpt>
      <trkpt lat="48.69013" lon="1.96287">
        <ele>151</ele>
        <time>2022-11-19T11:44:12Z</time>
      </trkpt>
      <trkpt lat="48.69015" lon="1.96286">
        <ele>151</ele>
        <time>2022-11-19T11:44:14Z</time>
      </trkpt>
      <trkpt lat="48.69017" lon="1.96285">
        <ele>152</ele>
        <time>2022-11-19T11:44:16Z</time>
      </trkpt>
      <trkpt lat="48.6902" lon="1.96285">
        <ele>152</ele>
        <time>2022-11-19T11:44:18Z</time>
      </trkpt>
      <trkpt lat="48.69022" lon="1.96285">
        <ele>153</ele>
        <time>2022-11-19T11:44:20Z</time>
      </trkpt>
      <trkpt lat="48.69024" lon="1.96285">
        <ele>154</ele>
        <time>2022-11-19T11:44:22Z</time>
      </trkpt>
      <trkpt lat="48.69028" lon="1.96286">
        <ele>154</ele>
        <time>2022-11-19T11:44:24Z</time>
      </trkpt>
      <trkpt lat="48.69031" lon="1.96285">
        <ele>155</ele>
        <time>2022-11-19T11:44:26Z</time>
      </trkpt>
      <trkpt lat="48.69034" lon="1.96285">
        <ele>156</ele>
        <time>2022-11-19T11:44:28Z</time>
      </trkpt>
      <trkpt lat="48.69036" lon="1.96284">
        <ele>157</ele>
        <time>2022-11-19T11:44:30Z</time>
      </trkpt>
      <trkpt lat="48.69038" lon="1.96284">
        <ele>157</ele>
        <time>2022-11-19T11:44:32Z</time>
      </trkpt>
      <trkpt lat="48.69041" lon="1.96284">
        <ele>158</ele>
        <time>2022-11-19T11:44:34Z</time>
      </trkpt>
      <trkpt lat="48.69044" lon="1.96284">
        <ele>158</ele>
        <time>2022-11-19T11:44:36Z</time>
      </trkpt>
      <trkpt lat="48.69046" lon="1.96284">
        <ele>159</ele>
        <time>2022-11-19T11:44:41Z</time>
      </trkpt>
      <trkpt lat="48.69048" lon="1.96284">
        <ele>159</ele>
        <time>2022-11-19T11:44:43Z</time>
      </trkpt>
      <trkpt lat="48.6905" lon="1.96284">
        <ele>160</ele>
        <time>2022-11-19T11:44:45Z</time>
      </trkpt>
      <trkpt lat="48.69052" lon="1.96283">
        <ele>160</ele>
        <time>2022-11-19T11:44:47Z</time>
      </trkpt>
      <trkpt lat="48.69055" lon="1.96282">
        <ele>161</ele>
        <time>2022-11-19T11:44:49Z</time>
      </trkpt>
      <trkpt lat="48.69057" lon="1.96281">
        <ele>161</ele>
        <time>2022-11-19T11:44:51Z</time>
      </trkpt>
      <trkpt lat="48.69059" lon="1.9628">
        <ele>162</ele>
        <time>2022-11-19T11:44:53Z</time>
      </trkpt>
      <trkpt lat="48.69061" lon="1.96278">
        <ele>163</ele>
        <time>2022-11-19T11:44:55Z</time>
      </trkpt>
      <trkpt lat="48.69063" lon="1.96276">
        <ele>163</ele>
        <time>2022-11-19T11:44:57Z</time>
      </trkpt>
      <trkpt lat="48.69064" lon="1.96273">
        <ele>164</ele>
        <time>2022-11-19T11:44:59Z</time>
      </trkpt>
      <trkpt lat="48.69065" lon="1.9627">
        <ele>165</ele>
        <time>2022-11-19T11:45:01Z</time>
      </trkpt>
      <trkpt lat="48.69065" lon="1.96267">
        <ele>165</ele>
        <time>2022-11-19T11:45:03Z</time>
      </trkpt>
      <trkpt lat="48.69066" lon="1.96262">
        <ele>165</ele>
        <time>2022-11-19T11:45:05Z</time>
      </trkpt>
      <trkpt lat="48.69067" lon="1.96258">
        <ele>165</ele>
        <time>2022-11-19T11:45:07Z</time>
      </trkpt>
      <trkpt lat="48.69067" lon="1.96254">
        <ele>166</ele>
        <time>2022-11-19T11:45:09Z</time>
      </trkpt>
      <trkpt lat="48.69069" lon="1.96249">
        <ele>166</ele>
        <time>2022-11-19T11:45:11Z</time>
      </trkpt>
      <trkpt lat="48.69069" lon="1.96245">
        <ele>166</ele>
        <time>2022-11-19T11:45:13Z</time>
      </trkpt>
      <trkpt lat="48.6907" lon="1.96242">
        <ele>167</ele>
        <time>2022-11-19T11:45:14Z</time>
      </trkpt>
      <trkpt lat="48.69071" lon="1.96239">
        <ele>167</ele>
        <time>2022-11-19T11:45:15Z</time>
      </trkpt>
      <trkpt lat="48.69071" lon="1.96234">
        <ele>167</ele>
        <time>2022-11-19T11:45:17Z</time>
      </trkpt>
      <trkpt lat="48.69072" lon="1.9623">
        <ele>167</ele>
        <time>2022-11-19T11:45:19Z</time>
      </trkpt>
      <trkpt lat="48.69072" lon="1.96225">
        <ele>168</ele>
        <time>2022-11-19T11:45:21Z</time>
      </trkpt>
      <trkpt lat="48.69071" lon="1.9622">
        <ele>168</ele>
        <time>2022-11-19T11:45:23Z</time>
      </trkpt>
      <trkpt lat="48.69071" lon="1.96216">
        <ele>169</ele>
        <time>2022-11-19T11:45:25Z</time>
      </trkpt>
      <trkpt lat="48.6907" lon="1.96214">
        <ele>169</ele>
        <time>2022-11-19T11:45:27Z</time>
      </trkpt>
      <trkpt lat="48.6907" lon="1.96211">
        <ele>169</ele>
        <time>2022-11-19T11:45:29Z</time>
      </trkpt>
      <trkpt lat="48.69069" lon="1.96208">
        <ele>170</ele>
        <time>2022-11-19T11:45:31Z</time>
      </trkpt>
      <trkpt lat="48.69068" lon="1.96204">
        <ele>170</ele>
        <time>2022-11-19T11:45:33Z</time>
      </trkpt>
      <trkpt lat="48.69068" lon="1.962">
        <ele>170</ele>
        <time>2022-11-19T11:45:35Z</time>
      </trkpt>
      <trkpt lat="48.69067" lon="1.96196">
        <ele>171</ele>
        <time>2022-11-19T11:45:37Z</time>
      </trkpt>
      <trkpt lat="48.69067" lon="1.96191">
        <ele>171</ele>
        <time>2022-11-19T11:45:39Z</time>
      </trkpt>
      <trkpt lat="48.69066" lon="1.96187">
        <ele>171</ele>
        <time>2022-11-19T11:45:41Z</time>
      </trkpt>
      <trkpt lat="48.69066" lon="1.96183">
        <ele>171</ele>
        <time>2022-11-19T11:45:43Z</time>
      </trkpt>
      <trkpt lat="48.69065" lon="1.96179">
        <ele>171</ele>
        <time>2022-11-19T11:45:45Z</time>
      </trkpt>
      <trkpt lat="48.69064" lon="1.96175">
        <ele>171</ele>
        <time>2022-11-19T11:45:47Z</time>
      </trkpt>
      <trkpt lat="48.69063" lon="1.96171">
        <ele>171</ele>
        <time>2022-11-19T11:45:49Z</time>
      </trkpt>
      <trkpt lat="48.69062" lon="1.96167">
        <ele>172</ele>
        <time>2022-11-19T11:45:51Z</time>
      </trkpt>
      <trkpt lat="48.69061" lon="1.96164">
        <ele>172</ele>
        <time>2022-11-19T11:45:53Z</time>
      </trkpt>
      <trkpt lat="48.69059" lon="1.96161">
        <ele>172</ele>
        <time>2022-11-19T11:45:55Z</time>
      </trkpt>
      <trkpt lat="48.69057" lon="1.96158">
        <ele>173</ele>
        <time>2022-11-19T11:45:57Z</time>
      </trkpt>
      <trkpt lat="48.69056" lon="1.96154">
        <ele>173</ele>
        <time>2022-11-19T11:45:59Z</time>
      </trkpt>
      <trkpt lat="48.69054" lon="1.96149">
        <ele>173</ele>
        <time>2022-11-19T11:46:01Z</time>
      </trkpt>
      <trkpt lat="48.69052" lon="1.96146">
        <ele>173</ele>
        <time>2022-11-19T11:46:03Z</time>
      </trkpt>
      <trkpt lat="48.6905" lon="1.96142">
        <ele>173</ele>
        <time>2022-11-19T11:46:05Z</time>
      </trkpt>
      <trkpt lat="48.69049" lon="1.96138">
        <ele>173</ele>
        <time>2022-11-19T11:46:07Z</time>
      </trkpt>
      <trkpt lat="48.69049" lon="1.96134">
        <ele>174</ele>
        <time>2022-11-19T11:46:09Z</time>
      </trkpt>
      <trkpt lat="48.69047" lon="1.96129">
        <ele>174</ele>
        <time>2022-11-19T11:46:11Z</time>
      </trkpt>
      <trkpt lat="48.69046" lon="1.96124">
        <ele>174</ele>
        <time>2022-11-19T11:46:13Z</time>
      </trkpt>
      <trkpt lat="48.69045" lon="1.9612">
        <ele>174</ele>
        <time>2022-11-19T11:46:15Z</time>
      </trkpt>
      <trkpt lat="48.69044" lon="1.96118">
        <ele>174</ele>
        <time>2022-11-19T11:46:17Z</time>
      </trkpt>
      <trkpt lat="48.69042" lon="1.96115">
        <ele>175</ele>
        <time>2022-11-19T11:46:19Z</time>
      </trkpt>
      <trkpt lat="48.6904" lon="1.9611">
        <ele>175</ele>
        <time>2022-11-19T11:46:21Z</time>
      </trkpt>
      <trkpt lat="48.69039" lon="1.96107">
        <ele>175</ele>
        <time>2022-11-19T11:46:23Z</time>
      </trkpt>
      <trkpt lat="48.69037" lon="1.96104">
        <ele>175</ele>
        <time>2022-11-19T11:46:25Z</time>
      </trkpt>
      <trkpt lat="48.69036" lon="1.96102">
        <ele>175</ele>
        <time>2022-11-19T11:46:27Z</time>
      </trkpt>
      <trkpt lat="48.69034" lon="1.96101">
        <ele>175</ele>
        <time>2022-11-19T11:46:29Z</time>
      </trkpt>
      <trkpt lat="48.69031" lon="1.96101">
        <ele>176</ele>
        <time>2022-11-19T11:46:31Z</time>
      </trkpt>
      <trkpt lat="48.69029" lon="1.96097">
        <ele>176</ele>
        <time>2022-11-19T11:46:33Z</time>
      </trkpt>
      <trkpt lat="48.69029" lon="1.96095">
        <ele>176</ele>
        <time>2022-11-19T11:46:34Z</time>
      </trkpt>
      <trkpt lat="48.69028" lon="1.96092">
        <ele>176</ele>
        <time>2022-11-19T11:46:35Z</time>
      </trkpt>
      <trkpt lat="48.69028" lon="1.96089">
        <ele>176</ele>
        <time>2022-11-19T11:46:36Z</time>
      </trkpt>
      <trkpt lat="48.69027" lon="1.96085">
        <ele>176</ele>
        <time>2022-11-19T11:46:37Z</time>
      </trkpt>
      <trkpt lat="48.69027" lon="1.96082">
        <ele>176</ele>
        <time>2022-11-19T11:46:38Z</time>
      </trkpt>
      <trkpt lat="48.69026" lon="1.96079">
        <ele>176</ele>
        <time>2022-11-19T11:46:39Z</time>
      </trkpt>
      <trkpt lat="48.69025" lon="1.96075">
        <ele>176</ele>
        <time>2022-11-19T11:46:40Z</time>
      </trkpt>
      <trkpt lat="48.69025" lon="1.96072">
        <ele>175</ele>
        <time>2022-11-19T11:46:41Z</time>
      </trkpt>
      <trkpt lat="48.69024" lon="1.9607">
        <ele>175</ele>
        <time>2022-11-19T11:46:42Z</time>
      </trkpt>
      <trkpt lat="48.69024" lon="1.96065">
        <ele>175</ele>
        <time>2022-11-19T11:46:44Z</time>
      </trkpt>
      <trkpt lat="48.69024" lon="1.96063">
        <ele>175</ele>
        <time>2022-11-19T11:46:45Z</time>
      </trkpt>
      <trkpt lat="48.69023" lon="1.96057">
        <ele>175</ele>
        <time>2022-11-19T11:46:47Z</time>
      </trkpt>
      <trkpt lat="48.69022" lon="1.96053">
        <ele>175</ele>
        <time>2022-11-19T11:46:49Z</time>
      </trkpt>
      <trkpt lat="48.69022" lon="1.9605">
        <ele>175</ele>
        <time>2022-11-19T11:46:50Z</time>
      </trkpt>
      <trkpt lat="48.69021" lon="1.96045">
        <ele>175</ele>
        <time>2022-11-19T11:46:52Z</time>
      </trkpt>
      <trkpt lat="48.69021" lon="1.9604">
        <ele>175</ele>
        <time>2022-11-19T11:46:54Z</time>
      </trkpt>
      <trkpt lat="48.6902" lon="1.96036">
        <ele>175</ele>
        <time>2022-11-19T11:46:56Z</time>
      </trkpt>
      <trkpt lat="48.6902" lon="1.96032">
        <ele>175</ele>
        <time>2022-11-19T11:46:58Z</time>
      </trkpt>
      <trkpt lat="48.6902" lon="1.96028">
        <ele>175</ele>
        <time>2022-11-19T11:47:00Z</time>
      </trkpt>
      <trkpt lat="48.69019" lon="1.96024">
        <ele>175</ele>
        <time>2022-11-19T11:47:02Z</time>
      </trkpt>
      <trkpt lat="48.69017" lon="1.9602">
        <ele>176</ele>
        <time>2022-11-19T11:47:04Z</time>
      </trkpt>
      <trkpt lat="48.69017" lon="1.96017">
        <ele>176</ele>
        <time>2022-11-19T11:47:06Z</time>
      </trkpt>
      <trkpt lat="48.69016" lon="1.96013">
        <ele>176</ele>
        <time>2022-11-19T11:47:08Z</time>
      </trkpt>
      <trkpt lat="48.69016" lon="1.96009">
        <ele>176</ele>
        <time>2022-11-19T11:47:10Z</time>
      </trkpt>
      <trkpt lat="48.69015" lon="1.96004">
        <ele>176</ele>
        <time>2022-11-19T11:47:12Z</time>
      </trkpt>
      <trkpt lat="48.69014" lon="1.96">
        <ele>176</ele>
        <time>2022-11-19T11:47:14Z</time>
      </trkpt>
      <trkpt lat="48.69013" lon="1.95997">
        <ele>176</ele>
        <time>2022-11-19T11:47:16Z</time>
      </trkpt>
      <trkpt lat="48.69013" lon="1.95994">
        <ele>176</ele>
        <time>2022-11-19T11:47:18Z</time>
      </trkpt>
      <trkpt lat="48.69012" lon="1.9599">
        <ele>176</ele>
        <time>2022-11-19T11:47:20Z</time>
      </trkpt>
      <trkpt lat="48.69011" lon="1.95985">
        <ele>177</ele>
        <time>2022-11-19T11:47:22Z</time>
      </trkpt>
      <trkpt lat="48.6901" lon="1.95982">
        <ele>177</ele>
        <time>2022-11-19T11:47:24Z</time>
      </trkpt>
      <trkpt lat="48.69009" lon="1.95977">
        <ele>177</ele>
        <time>2022-11-19T11:47:26Z</time>
      </trkpt>
      <trkpt lat="48.69009" lon="1.95973">
        <ele>177</ele>
        <time>2022-11-19T11:47:28Z</time>
      </trkpt>
      <trkpt lat="48.69008" lon="1.95969">
        <ele>178</ele>
        <time>2022-11-19T11:47:30Z</time>
      </trkpt>
      <trkpt lat="48.69007" lon="1.95965">
        <ele>178</ele>
        <time>2022-11-19T11:47:32Z</time>
      </trkpt>
      <trkpt lat="48.69006" lon="1.95961">
        <ele>178</ele>
        <time>2022-11-19T11:47:34Z</time>
      </trkpt>
      <trkpt lat="48.69005" lon="1.95957">
        <ele>178</ele>
        <time>2022-11-19T11:47:36Z</time>
      </trkpt>
      <trkpt lat="48.69003" lon="1.95952">
        <ele>178</ele>
        <time>2022-11-19T11:47:38Z</time>
      </trkpt>
      <trkpt lat="48.69004" lon="1.95948">
        <ele>178</ele>
        <time>2022-11-19T11:47:40Z</time>
      </trkpt>
      <trkpt lat="48.69004" lon="1.95943">
        <ele>178</ele>
        <time>2022-11-19T11:47:42Z</time>
      </trkpt>
      <trkpt lat="48.69004" lon="1.95938">
        <ele>177</ele>
        <time>2022-11-19T11:47:44Z</time>
      </trkpt>
      <trkpt lat="48.69004" lon="1.95935">
        <ele>177</ele>
        <time>2022-11-19T11:47:45Z</time>
      </trkpt>
      <trkpt lat="48.69005" lon="1.95932">
        <ele>177</ele>
        <time>2022-11-19T11:47:46Z</time>
      </trkpt>
      <trkpt lat="48.69006" lon="1.95927">
        <ele>177</ele>
        <time>2022-11-19T11:47:48Z</time>
      </trkpt>
      <trkpt lat="48.69006" lon="1.95925">
        <ele>177</ele>
        <time>2022-11-19T11:47:49Z</time>
      </trkpt>
      <trkpt lat="48.69008" lon="1.9592">
        <ele>177</ele>
        <time>2022-11-19T11:47:51Z</time>
      </trkpt>
      <trkpt lat="48.6901" lon="1.95917">
        <ele>177</ele>
        <time>2022-11-19T11:47:53Z</time>
      </trkpt>
      <trkpt lat="48.69012" lon="1.95913">
        <ele>177</ele>
        <time>2022-11-19T11:47:55Z</time>
      </trkpt>
      <trkpt lat="48.69014" lon="1.9591">
        <ele>177</ele>
        <time>2022-11-19T11:47:57Z</time>
      </trkpt>
      <trkpt lat="48.69016" lon="1.95907">
        <ele>178</ele>
        <time>2022-11-19T11:47:59Z</time>
      </trkpt>
      <trkpt lat="48.69019" lon="1.95903">
        <ele>178</ele>
        <time>2022-11-19T11:48:01Z</time>
      </trkpt>
      <trkpt lat="48.69021" lon="1.959">
        <ele>178</ele>
        <time>2022-11-19T11:48:03Z</time>
      </trkpt>
      <trkpt lat="48.69023" lon="1.95896">
        <ele>179</ele>
        <time>2022-11-19T11:48:05Z</time>
      </trkpt>
      <trkpt lat="48.69024" lon="1.95894">
        <ele>179</ele>
        <time>2022-11-19T11:48:06Z</time>
      </trkpt>
      <trkpt lat="48.69025" lon="1.9589">
        <ele>179</ele>
        <time>2022-11-19T11:48:08Z</time>
      </trkpt>
      <trkpt lat="48.69027" lon="1.95886">
        <ele>179</ele>
        <time>2022-11-19T11:48:10Z</time>
      </trkpt>
      <trkpt lat="48.69029" lon="1.95882">
        <ele>179</ele>
        <time>2022-11-19T11:48:12Z</time>
      </trkpt>
      <trkpt lat="48.69031" lon="1.95879">
        <ele>178</ele>
        <time>2022-11-19T11:48:14Z</time>
      </trkpt>
      <trkpt lat="48.69032" lon="1.95876">
        <ele>179</ele>
        <time>2022-11-19T11:48:16Z</time>
      </trkpt>
      <trkpt lat="48.69033" lon="1.95872">
        <ele>179</ele>
        <time>2022-11-19T11:48:18Z</time>
      </trkpt>
      <trkpt lat="48.69033" lon="1.95868">
        <ele>179</ele>
        <time>2022-11-19T11:48:20Z</time>
      </trkpt>
      <trkpt lat="48.69035" lon="1.95865">
        <ele>180</ele>
        <time>2022-11-19T11:48:22Z</time>
      </trkpt>
      <trkpt lat="48.69037" lon="1.95861">
        <ele>180</ele>
        <time>2022-11-19T11:48:24Z</time>
      </trkpt>
      <trkpt lat="48.69039" lon="1.9586">
        <ele>180</ele>
        <time>2022-11-19T11:48:25Z</time>
      </trkpt>
      <trkpt lat="48.69041" lon="1.95858">
        <ele>180</ele>
        <time>2022-11-19T11:48:26Z</time>
      </trkpt>
      <trkpt lat="48.69043" lon="1.95855">
        <ele>180</ele>
        <time>2022-11-19T11:48:27Z</time>
      </trkpt>
      <trkpt lat="48.69045" lon="1.95852">
        <ele>180</ele>
        <time>2022-11-19T11:48:28Z</time>
      </trkpt>
      <trkpt lat="48.69046" lon="1.95849">
        <ele>180</ele>
        <time>2022-11-19T11:48:29Z</time>
      </trkpt>
      <trkpt lat="48.69048" lon="1.95847">
        <ele>180</ele>
        <time>2022-11-19T11:48:30Z</time>
      </trkpt>
      <trkpt lat="48.6905" lon="1.95846">
        <ele>180</ele>
        <time>2022-11-19T11:48:31Z</time>
      </trkpt>
      <trkpt lat="48.69052" lon="1.95843">
        <ele>180</ele>
        <time>2022-11-19T11:48:33Z</time>
      </trkpt>
      <trkpt lat="48.69054" lon="1.95841">
        <ele>180</ele>
        <time>2022-11-19T11:48:34Z</time>
      </trkpt>
      <trkpt lat="48.69057" lon="1.95838">
        <ele>179</ele>
        <time>2022-11-19T11:48:36Z</time>
      </trkpt>
      <trkpt lat="48.69059" lon="1.95835">
        <ele>179</ele>
        <time>2022-11-19T11:48:38Z</time>
      </trkpt>
      <trkpt lat="48.69061" lon="1.95832">
        <ele>179</ele>
        <time>2022-11-19T11:48:40Z</time>
      </trkpt>
      <trkpt lat="48.69063" lon="1.95828">
        <ele>179</ele>
        <time>2022-11-19T11:48:42Z</time>
      </trkpt>
      <trkpt lat="48.69064" lon="1.95825">
        <ele>179</ele>
        <time>2022-11-19T11:48:44Z</time>
      </trkpt>
      <trkpt lat="48.69066" lon="1.95821">
        <ele>179</ele>
        <time>2022-11-19T11:48:46Z</time>
      </trkpt>
      <trkpt lat="48.69067" lon="1.95818">
        <ele>180</ele>
        <time>2022-11-19T11:48:48Z</time>
      </trkpt>
      <trkpt lat="48.69069" lon="1.95816">
        <ele>180</ele>
        <time>2022-11-19T11:48:50Z</time>
      </trkpt>
      <trkpt lat="48.69072" lon="1.95813">
        <ele>180</ele>
        <time>2022-11-19T11:48:52Z</time>
      </trkpt>
      <trkpt lat="48.69074" lon="1.95811">
        <ele>180</ele>
        <time>2022-11-19T11:48:54Z</time>
      </trkpt>
      <trkpt lat="48.69075" lon="1.95808">
        <ele>179</ele>
        <time>2022-11-19T11:48:56Z</time>
      </trkpt>
      <trkpt lat="48.69076" lon="1.95805">
        <ele>179</ele>
        <time>2022-11-19T11:48:58Z</time>
      </trkpt>
      <trkpt lat="48.69074" lon="1.95803">
        <ele>179</ele>
        <time>2022-11-19T11:49:00Z</time>
      </trkpt>
      <trkpt lat="48.69073" lon="1.958">
        <ele>179</ele>
        <time>2022-11-19T11:49:02Z</time>
      </trkpt>
      <trkpt lat="48.69074" lon="1.95796">
        <ele>179</ele>
        <time>2022-11-19T11:49:04Z</time>
      </trkpt>
      <trkpt lat="48.69074" lon="1.95792">
        <ele>179</ele>
        <time>2022-11-19T11:49:06Z</time>
      </trkpt>
      <trkpt lat="48.69075" lon="1.95788">
        <ele>179</ele>
        <time>2022-11-19T11:49:08Z</time>
      </trkpt>
      <trkpt lat="48.69077" lon="1.95784">
        <ele>179</ele>
        <time>2022-11-19T11:49:10Z</time>
      </trkpt>
      <trkpt lat="48.69078" lon="1.9578">
        <ele>179</ele>
        <time>2022-11-19T11:49:12Z</time>
      </trkpt>
      <trkpt lat="48.69079" lon="1.95776">
        <ele>179</ele>
        <time>2022-11-19T11:49:14Z</time>
      </trkpt>
      <trkpt lat="48.6908" lon="1.95772">
        <ele>180</ele>
        <time>2022-11-19T11:49:16Z</time>
      </trkpt>
      <trkpt lat="48.69081" lon="1.95767">
        <ele>180</ele>
        <time>2022-11-19T11:49:18Z</time>
      </trkpt>
      <trkpt lat="48.69081" lon="1.95763">
        <ele>180</ele>
        <time>2022-11-19T11:49:20Z</time>
      </trkpt>
      <trkpt lat="48.69082" lon="1.95759">
        <ele>180</ele>
        <time>2022-11-19T11:49:22Z</time>
      </trkpt>
      <trkpt lat="48.69082" lon="1.95754">
        <ele>180</ele>
        <time>2022-11-19T11:49:24Z</time>
      </trkpt>
      <trkpt lat="48.69082" lon="1.9575">
        <ele>181</ele>
        <time>2022-11-19T11:49:26Z</time>
      </trkpt>
      <trkpt lat="48.69083" lon="1.95745">
        <ele>181</ele>
        <time>2022-11-19T11:49:28Z</time>
      </trkpt>
      <trkpt lat="48.69085" lon="1.95741">
        <ele>181</ele>
        <time>2022-11-19T11:49:30Z</time>
      </trkpt>
      <trkpt lat="48.69087" lon="1.95738">
        <ele>182</ele>
        <time>2022-11-19T11:49:32Z</time>
      </trkpt>
      <trkpt lat="48.69089" lon="1.95735">
        <ele>182</ele>
        <time>2022-11-19T11:49:34Z</time>
      </trkpt>
      <trkpt lat="48.69091" lon="1.95732">
        <ele>182</ele>
        <time>2022-11-19T11:49:36Z</time>
      </trkpt>
      <trkpt lat="48.69093" lon="1.95729">
        <ele>182</ele>
        <time>2022-11-19T11:49:38Z</time>
      </trkpt>
      <trkpt lat="48.69094" lon="1.95727">
        <ele>183</ele>
        <time>2022-11-19T11:49:39Z</time>
      </trkpt>
      <trkpt lat="48.69096" lon="1.95726">
        <ele>183</ele>
        <time>2022-11-19T11:49:40Z</time>
      </trkpt>
      <trkpt lat="48.69099" lon="1.95726">
        <ele>183</ele>
        <time>2022-11-19T11:49:41Z</time>
      </trkpt>
      <trkpt lat="48.69101" lon="1.95727">
        <ele>183</ele>
        <time>2022-11-19T11:49:42Z</time>
      </trkpt>
      <trkpt lat="48.69103" lon="1.95728">
        <ele>182</ele>
        <time>2022-11-19T11:49:43Z</time>
      </trkpt>
      <trkpt lat="48.69106" lon="1.95728">
        <ele>182</ele>
        <time>2022-11-19T11:49:45Z</time>
      </trkpt>
      <trkpt lat="48.69108" lon="1.95726">
        <ele>182</ele>
        <time>2022-11-19T11:49:47Z</time>
      </trkpt>
      <trkpt lat="48.69109" lon="1.95724">
        <ele>182</ele>
        <time>2022-11-19T11:49:48Z</time>
      </trkpt>
      <trkpt lat="48.69111" lon="1.95721">
        <ele>182</ele>
        <time>2022-11-19T11:49:50Z</time>
      </trkpt>
      <trkpt lat="48.69111" lon="1.95718">
        <ele>182</ele>
        <time>2022-11-19T11:49:52Z</time>
      </trkpt>
      <trkpt lat="48.6911" lon="1.95715">
        <ele>182</ele>
        <time>2022-11-19T11:49:54Z</time>
      </trkpt>
      <trkpt lat="48.6911" lon="1.95711">
        <ele>182</ele>
        <time>2022-11-19T11:49:56Z</time>
      </trkpt>
      <trkpt lat="48.6911" lon="1.95707">
        <ele>182</ele>
        <time>2022-11-19T11:49:58Z</time>
      </trkpt>
      <trkpt lat="48.69111" lon="1.95703">
        <ele>182</ele>
        <time>2022-11-19T11:50:00Z</time>
      </trkpt>
      <trkpt lat="48.69112" lon="1.95701">
        <ele>182</ele>
        <time>2022-11-19T11:50:01Z</time>
      </trkpt>
      <trkpt lat="48.69115" lon="1.95697">
        <ele>182</ele>
        <time>2022-11-19T11:50:03Z</time>
      </trkpt>
      <trkpt lat="48.69118" lon="1.95694">
        <ele>182</ele>
        <time>2022-11-19T11:50:05Z</time>
      </trkpt>
      <trkpt lat="48.6912" lon="1.95694">
        <ele>182</ele>
        <time>2022-11-19T11:50:06Z</time>
      </trkpt>
      <trkpt lat="48.69122" lon="1.95693">
        <ele>182</ele>
        <time>2022-11-19T11:50:07Z</time>
      </trkpt>
      <trkpt lat="48.69124" lon="1.9569">
        <ele>183</ele>
        <time>2022-11-19T11:50:09Z</time>
      </trkpt>
      <trkpt lat="48.69127" lon="1.95689">
        <ele>183</ele>
        <time>2022-11-19T11:50:11Z</time>
      </trkpt>
      <trkpt lat="48.69129" lon="1.95687">
        <ele>183</ele>
        <time>2022-11-19T11:50:13Z</time>
      </trkpt>
      <trkpt lat="48.69131" lon="1.95684">
        <ele>183</ele>
        <time>2022-11-19T11:50:15Z</time>
      </trkpt>
      <trkpt lat="48.69134" lon="1.95681">
        <ele>183</ele>
        <time>2022-11-19T11:50:17Z</time>
      </trkpt>
      <trkpt lat="48.69136" lon="1.95679">
        <ele>183</ele>
        <time>2022-11-19T11:50:19Z</time>
      </trkpt>
      <trkpt lat="48.69138" lon="1.95676">
        <ele>183</ele>
        <time>2022-11-19T11:50:21Z</time>
      </trkpt>
      <trkpt lat="48.69141" lon="1.95674">
        <ele>183</ele>
        <time>2022-11-19T11:50:23Z</time>
      </trkpt>
      <trkpt lat="48.69143" lon="1.95671">
        <ele>183</ele>
        <time>2022-11-19T11:50:25Z</time>
      </trkpt>
      <trkpt lat="48.69145" lon="1.95669">
        <ele>183</ele>
        <time>2022-11-19T11:50:26Z</time>
      </trkpt>
      <trkpt lat="48.69146" lon="1.95666">
        <ele>183</ele>
        <time>2022-11-19T11:50:27Z</time>
      </trkpt>
      <trkpt lat="48.69147" lon="1.95664">
        <ele>183</ele>
        <time>2022-11-19T11:50:28Z</time>
      </trkpt>
      <trkpt lat="48.69148" lon="1.95662">
        <ele>183</ele>
        <time>2022-11-19T11:50:29Z</time>
      </trkpt>
      <trkpt lat="48.69149" lon="1.95659">
        <ele>183</ele>
        <time>2022-11-19T11:50:30Z</time>
      </trkpt>
      <trkpt lat="48.6915" lon="1.95657">
        <ele>183</ele>
        <time>2022-11-19T11:50:31Z</time>
      </trkpt>
      <trkpt lat="48.69151" lon="1.95655">
        <ele>183</ele>
        <time>2022-11-19T11:50:32Z</time>
      </trkpt>
      <trkpt lat="48.69154" lon="1.95653">
        <ele>183</ele>
        <time>2022-11-19T11:50:34Z</time>
      </trkpt>
      <trkpt lat="48.69157" lon="1.95653">
        <ele>183</ele>
        <time>2022-11-19T11:50:35Z</time>
      </trkpt>
      <trkpt lat="48.69159" lon="1.95654">
        <ele>183</ele>
        <time>2022-11-19T11:50:36Z</time>
      </trkpt>
      <trkpt lat="48.69161" lon="1.95654">
        <ele>183</ele>
        <time>2022-11-19T11:50:37Z</time>
      </trkpt>
      <trkpt lat="48.69163" lon="1.95652">
        <ele>183</ele>
        <time>2022-11-19T11:50:39Z</time>
      </trkpt>
      <trkpt lat="48.69163" lon="1.95649">
        <ele>183</ele>
        <time>2022-11-19T11:50:40Z</time>
      </trkpt>
      <trkpt lat="48.69165" lon="1.95645">
        <ele>183</ele>
        <time>2022-11-19T11:50:42Z</time>
      </trkpt>
      <trkpt lat="48.69167" lon="1.95641">
        <ele>182</ele>
        <time>2022-11-19T11:50:44Z</time>
      </trkpt>
      <trkpt lat="48.69169" lon="1.95638">
        <ele>183</ele>
        <time>2022-11-19T11:50:46Z</time>
      </trkpt>
      <trkpt lat="48.6917" lon="1.95635">
        <ele>183</ele>
        <time>2022-11-19T11:50:48Z</time>
      </trkpt>
      <trkpt lat="48.69172" lon="1.95632">
        <ele>183</ele>
        <time>2022-11-19T11:50:50Z</time>
      </trkpt>
      <trkpt lat="48.69173" lon="1.95629">
        <ele>183</ele>
        <time>2022-11-19T11:50:51Z</time>
      </trkpt>
      <trkpt lat="48.69175" lon="1.95625">
        <ele>183</ele>
        <time>2022-11-19T11:50:53Z</time>
      </trkpt>
      <trkpt lat="48.69176" lon="1.95623">
        <ele>183</ele>
        <time>2022-11-19T11:50:54Z</time>
      </trkpt>
      <trkpt lat="48.69178" lon="1.95618">
        <ele>183</ele>
        <time>2022-11-19T11:50:56Z</time>
      </trkpt>
      <trkpt lat="48.69178" lon="1.95614">
        <ele>183</ele>
        <time>2022-11-19T11:50:58Z</time>
      </trkpt>
      <trkpt lat="48.69179" lon="1.9561">
        <ele>183</ele>
        <time>2022-11-19T11:51:00Z</time>
      </trkpt>
      <trkpt lat="48.6918" lon="1.95607">
        <ele>183</ele>
        <time>2022-11-19T11:51:02Z</time>
      </trkpt>
      <trkpt lat="48.69181" lon="1.95604">
        <ele>183</ele>
        <time>2022-11-19T11:51:04Z</time>
      </trkpt>
      <trkpt lat="48.69183" lon="1.95601">
        <ele>183</ele>
        <time>2022-11-19T11:51:06Z</time>
      </trkpt>
      <trkpt lat="48.69184" lon="1.95596">
        <ele>183</ele>
        <time>2022-11-19T11:51:08Z</time>
      </trkpt>
      <trkpt lat="48.69185" lon="1.95594">
        <ele>183</ele>
        <time>2022-11-19T11:51:10Z</time>
      </trkpt>
      <trkpt lat="48.69187" lon="1.9559">
        <ele>183</ele>
        <time>2022-11-19T11:51:12Z</time>
      </trkpt>
      <trkpt lat="48.69188" lon="1.95588">
        <ele>183</ele>
        <time>2022-11-19T11:51:13Z</time>
      </trkpt>
      <trkpt lat="48.6919" lon="1.95584">
        <ele>183</ele>
        <time>2022-11-19T11:51:15Z</time>
      </trkpt>
      <trkpt lat="48.69192" lon="1.9558">
        <ele>183</ele>
        <time>2022-11-19T11:51:17Z</time>
      </trkpt>
      <trkpt lat="48.69193" lon="1.95575">
        <ele>183</ele>
        <time>2022-11-19T11:51:19Z</time>
      </trkpt>
      <trkpt lat="48.69195" lon="1.95572">
        <ele>183</ele>
        <time>2022-11-19T11:51:21Z</time>
      </trkpt>
      <trkpt lat="48.69196" lon="1.95569">
        <ele>183</ele>
        <time>2022-11-19T11:51:23Z</time>
      </trkpt>
      <trkpt lat="48.69197" lon="1.95565">
        <ele>183</ele>
        <time>2022-11-19T11:51:25Z</time>
      </trkpt>
      <trkpt lat="48.69199" lon="1.95561">
        <ele>183</ele>
        <time>2022-11-19T11:51:27Z</time>
      </trkpt>
      <trkpt lat="48.692" lon="1.95556">
        <ele>183</ele>
        <time>2022-11-19T11:51:29Z</time>
      </trkpt>
      <trkpt lat="48.69202" lon="1.95553">
        <ele>183</ele>
        <time>2022-11-19T11:51:31Z</time>
      </trkpt>
      <trkpt lat="48.69205" lon="1.95549">
        <ele>183</ele>
        <time>2022-11-19T11:51:33Z</time>
      </trkpt>
      <trkpt lat="48.69207" lon="1.95546">
        <ele>183</ele>
        <time>2022-11-19T11:51:35Z</time>
      </trkpt>
      <trkpt lat="48.69208" lon="1.95543">
        <ele>183</ele>
        <time>2022-11-19T11:51:37Z</time>
      </trkpt>
      <trkpt lat="48.6921" lon="1.9554">
        <ele>183</ele>
        <time>2022-11-19T11:51:39Z</time>
      </trkpt>
      <trkpt lat="48.69212" lon="1.95537">
        <ele>183</ele>
        <time>2022-11-19T11:51:41Z</time>
      </trkpt>
      <trkpt lat="48.69214" lon="1.95533">
        <ele>183</ele>
        <time>2022-11-19T11:51:43Z</time>
      </trkpt>
      <trkpt lat="48.69216" lon="1.9553">
        <ele>183</ele>
        <time>2022-11-19T11:51:45Z</time>
      </trkpt>
      <trkpt lat="48.69217" lon="1.95526">
        <ele>183</ele>
        <time>2022-11-19T11:51:47Z</time>
      </trkpt>
      <trkpt lat="48.69219" lon="1.95522">
        <ele>183</ele>
        <time>2022-11-19T11:51:49Z</time>
      </trkpt>
      <trkpt lat="48.6922" lon="1.95516">
        <ele>183</ele>
        <time>2022-11-19T11:51:51Z</time>
      </trkpt>
      <trkpt lat="48.69222" lon="1.95512">
        <ele>182</ele>
        <time>2022-11-19T11:51:53Z</time>
      </trkpt>
      <trkpt lat="48.69223" lon="1.95508">
        <ele>182</ele>
        <time>2022-11-19T11:51:55Z</time>
      </trkpt>
      <trkpt lat="48.69224" lon="1.95505">
        <ele>182</ele>
        <time>2022-11-19T11:51:57Z</time>
      </trkpt>
      <trkpt lat="48.69225" lon="1.955">
        <ele>182</ele>
        <time>2022-11-19T11:51:59Z</time>
      </trkpt>
      <trkpt lat="48.69226" lon="1.95498">
        <ele>182</ele>
        <time>2022-11-19T11:52:00Z</time>
      </trkpt>
      <trkpt lat="48.69228" lon="1.95496">
        <ele>182</ele>
        <time>2022-11-19T11:52:01Z</time>
      </trkpt>
      <trkpt lat="48.69229" lon="1.95492">
        <ele>182</ele>
        <time>2022-11-19T11:52:03Z</time>
      </trkpt>
      <trkpt lat="48.69231" lon="1.95489">
        <ele>182</ele>
        <time>2022-11-19T11:52:05Z</time>
      </trkpt>
      <trkpt lat="48.69233" lon="1.95485">
        <ele>181</ele>
        <time>2022-11-19T11:52:07Z</time>
      </trkpt>
      <trkpt lat="48.69235" lon="1.95481">
        <ele>181</ele>
        <time>2022-11-19T11:52:09Z</time>
      </trkpt>
      <trkpt lat="48.69237" lon="1.95477">
        <ele>181</ele>
        <time>2022-11-19T11:52:11Z</time>
      </trkpt>
      <trkpt lat="48.69238" lon="1.95474">
        <ele>181</ele>
        <time>2022-11-19T11:52:15Z</time>
      </trkpt>
      <trkpt lat="48.69239" lon="1.9547">
        <ele>181</ele>
        <time>2022-11-19T11:52:17Z</time>
      </trkpt>
      <trkpt lat="48.69241" lon="1.95467">
        <ele>181</ele>
        <time>2022-11-19T11:52:18Z</time>
      </trkpt>
      <trkpt lat="48.69243" lon="1.95464">
        <ele>181</ele>
        <time>2022-11-19T11:52:20Z</time>
      </trkpt>
      <trkpt lat="48.69245" lon="1.95459">
        <ele>181</ele>
        <time>2022-11-19T11:52:22Z</time>
      </trkpt>
      <trkpt lat="48.69246" lon="1.95455">
        <ele>181</ele>
        <time>2022-11-19T11:52:24Z</time>
      </trkpt>
      <trkpt lat="48.69247" lon="1.95453">
        <ele>181</ele>
        <time>2022-11-19T11:52:25Z</time>
      </trkpt>
      <trkpt lat="48.69247" lon="1.95447">
        <ele>181</ele>
        <time>2022-11-19T11:52:27Z</time>
      </trkpt>
      <trkpt lat="48.69248" lon="1.95445">
        <ele>181</ele>
        <time>2022-11-19T11:52:28Z</time>
      </trkpt>
      <trkpt lat="48.69249" lon="1.95442">
        <ele>181</ele>
        <time>2022-11-19T11:52:29Z</time>
      </trkpt>
      <trkpt lat="48.6925" lon="1.9544">
        <ele>180</ele>
        <time>2022-11-19T11:52:30Z</time>
      </trkpt>
      <trkpt lat="48.69251" lon="1.95437">
        <ele>180</ele>
        <time>2022-11-19T11:52:31Z</time>
      </trkpt>
      <trkpt lat="48.69252" lon="1.95433">
        <ele>180</ele>
        <time>2022-11-19T11:52:32Z</time>
      </trkpt>
      <trkpt lat="48.69252" lon="1.95429">
        <ele>180</ele>
        <time>2022-11-19T11:52:33Z</time>
      </trkpt>
      <trkpt lat="48.69252" lon="1.95426">
        <ele>180</ele>
        <time>2022-11-19T11:52:34Z</time>
      </trkpt>
      <trkpt lat="48.69252" lon="1.95423">
        <ele>181</ele>
        <time>2022-11-19T11:52:35Z</time>
      </trkpt>
      <trkpt lat="48.69252" lon="1.95419">
        <ele>181</ele>
        <time>2022-11-19T11:52:37Z</time>
      </trkpt>
      <trkpt lat="48.69252" lon="1.95414">
        <ele>181</ele>
        <time>2022-11-19T11:52:39Z</time>
      </trkpt>
      <trkpt lat="48.69252" lon="1.95411">
        <ele>181</ele>
        <time>2022-11-19T11:52:40Z</time>
      </trkpt>
      <trkpt lat="48.69252" lon="1.95407">
        <ele>181</ele>
        <time>2022-11-19T11:52:42Z</time>
      </trkpt>
      <trkpt lat="48.69252" lon="1.95403">
        <ele>181</ele>
        <time>2022-11-19T11:52:44Z</time>
      </trkpt>
      <trkpt lat="48.69252" lon="1.95397">
        <ele>181</ele>
        <time>2022-11-19T11:52:46Z</time>
      </trkpt>
      <trkpt lat="48.69253" lon="1.95393">
        <ele>181</ele>
        <time>2022-11-19T11:52:48Z</time>
      </trkpt>
      <trkpt lat="48.69255" lon="1.9539">
        <ele>181</ele>
        <time>2022-11-19T11:52:50Z</time>
      </trkpt>
      <trkpt lat="48.69256" lon="1.95386">
        <ele>181</ele>
        <time>2022-11-19T11:52:52Z</time>
      </trkpt>
      <trkpt lat="48.69256" lon="1.95382">
        <ele>181</ele>
        <time>2022-11-19T11:52:54Z</time>
      </trkpt>
      <trkpt lat="48.69257" lon="1.95378">
        <ele>181</ele>
        <time>2022-11-19T11:52:56Z</time>
      </trkpt>
      <trkpt lat="48.69258" lon="1.95375">
        <ele>180</ele>
        <time>2022-11-19T11:52:57Z</time>
      </trkpt>
      <trkpt lat="48.69259" lon="1.9537">
        <ele>179</ele>
        <time>2022-11-19T11:52:59Z</time>
      </trkpt>
      <trkpt lat="48.69261" lon="1.95366">
        <ele>178</ele>
        <time>2022-11-19T11:53:01Z</time>
      </trkpt>
      <trkpt lat="48.69262" lon="1.95362">
        <ele>178</ele>
        <time>2022-11-19T11:53:03Z</time>
      </trkpt>
      <trkpt lat="48.69263" lon="1.95359">
        <ele>178</ele>
        <time>2022-11-19T11:53:05Z</time>
      </trkpt>
      <trkpt lat="48.69262" lon="1.95356">
        <ele>177</ele>
        <time>2022-11-19T11:53:07Z</time>
      </trkpt>
      <trkpt lat="48.69261" lon="1.95351">
        <ele>178</ele>
        <time>2022-11-19T11:53:09Z</time>
      </trkpt>
      <trkpt lat="48.69259" lon="1.95347">
        <ele>178</ele>
        <time>2022-11-19T11:53:11Z</time>
      </trkpt>
      <trkpt lat="48.69258" lon="1.95345">
        <ele>178</ele>
        <time>2022-11-19T11:53:12Z</time>
      </trkpt>
      <trkpt lat="48.69257" lon="1.95341">
        <ele>178</ele>
        <time>2022-11-19T11:53:14Z</time>
      </trkpt>
      <trkpt lat="48.69256" lon="1.95337">
        <ele>178</ele>
        <time>2022-11-19T11:53:16Z</time>
      </trkpt>
      <trkpt lat="48.69255" lon="1.95332">
        <ele>178</ele>
        <time>2022-11-19T11:53:18Z</time>
      </trkpt>
      <trkpt lat="48.69254" lon="1.95328">
        <ele>177</ele>
        <time>2022-11-19T11:53:20Z</time>
      </trkpt>
      <trkpt lat="48.69253" lon="1.95324">
        <ele>177</ele>
        <time>2022-11-19T11:53:22Z</time>
      </trkpt>
      <trkpt lat="48.69252" lon="1.95321">
        <ele>177</ele>
        <time>2022-11-19T11:53:24Z</time>
      </trkpt>
      <trkpt lat="48.69251" lon="1.95319">
        <ele>177</ele>
        <time>2022-11-19T11:53:26Z</time>
      </trkpt>
      <trkpt lat="48.69249" lon="1.95316">
        <ele>177</ele>
        <time>2022-11-19T11:53:28Z</time>
      </trkpt>
      <trkpt lat="48.69246" lon="1.95313">
        <ele>177</ele>
        <time>2022-11-19T11:53:30Z</time>
      </trkpt>
      <trkpt lat="48.69244" lon="1.95309">
        <ele>177</ele>
        <time>2022-11-19T11:53:32Z</time>
      </trkpt>
      <trkpt lat="48.69242" lon="1.95306">
        <ele>177</ele>
        <time>2022-11-19T11:53:34Z</time>
      </trkpt>
      <trkpt lat="48.69241" lon="1.95303">
        <ele>177</ele>
        <time>2022-11-19T11:53:36Z</time>
      </trkpt>
      <trkpt lat="48.69239" lon="1.953">
        <ele>177</ele>
        <time>2022-11-19T11:53:38Z</time>
      </trkpt>
      <trkpt lat="48.69237" lon="1.95298">
        <ele>177</ele>
        <time>2022-11-19T11:53:40Z</time>
      </trkpt>
      <trkpt lat="48.69235" lon="1.95295">
        <ele>177</ele>
        <time>2022-11-19T11:53:42Z</time>
      </trkpt>
      <trkpt lat="48.69233" lon="1.95292">
        <ele>178</ele>
        <time>2022-11-19T11:53:44Z</time>
      </trkpt>
      <trkpt lat="48.69231" lon="1.95289">
        <ele>178</ele>
        <time>2022-11-19T11:53:46Z</time>
      </trkpt>
      <trkpt lat="48.6923" lon="1.95284">
        <ele>177</ele>
        <time>2022-11-19T11:53:48Z</time>
      </trkpt>
      <trkpt lat="48.6923" lon="1.95281">
        <ele>177</ele>
        <time>2022-11-19T11:53:49Z</time>
      </trkpt>
      <trkpt lat="48.6923" lon="1.95278">
        <ele>177</ele>
        <time>2022-11-19T11:53:50Z</time>
      </trkpt>
      <trkpt lat="48.6923" lon="1.95273">
        <ele>177</ele>
        <time>2022-11-19T11:53:52Z</time>
      </trkpt>
      <trkpt lat="48.6923" lon="1.95267">
        <ele>177</ele>
        <time>2022-11-19T11:53:54Z</time>
      </trkpt>
      <trkpt lat="48.69229" lon="1.95263">
        <ele>177</ele>
        <time>2022-11-19T11:53:56Z</time>
      </trkpt>
      <trkpt lat="48.69228" lon="1.95258">
        <ele>177</ele>
        <time>2022-11-19T11:53:58Z</time>
      </trkpt>
      <trkpt lat="48.69227" lon="1.95254">
        <ele>177</ele>
        <time>2022-11-19T11:54:00Z</time>
      </trkpt>
      <trkpt lat="48.69227" lon="1.9525">
        <ele>178</ele>
        <time>2022-11-19T11:54:02Z</time>
      </trkpt>
      <trkpt lat="48.69225" lon="1.95246">
        <ele>177</ele>
        <time>2022-11-19T11:54:04Z</time>
      </trkpt>
      <trkpt lat="48.69223" lon="1.95242">
        <ele>177</ele>
        <time>2022-11-19T11:54:06Z</time>
      </trkpt>
      <trkpt lat="48.69223" lon="1.95237">
        <ele>177</ele>
        <time>2022-11-19T11:54:08Z</time>
      </trkpt>
      <trkpt lat="48.69222" lon="1.95232">
        <ele>178</ele>
        <time>2022-11-19T11:54:10Z</time>
      </trkpt>
      <trkpt lat="48.69221" lon="1.95228">
        <ele>178</ele>
        <time>2022-11-19T11:54:15Z</time>
      </trkpt>
      <trkpt lat="48.6922" lon="1.95224">
        <ele>178</ele>
        <time>2022-11-19T11:54:17Z</time>
      </trkpt>
      <trkpt lat="48.69219" lon="1.9522">
        <ele>178</ele>
        <time>2022-11-19T11:54:19Z</time>
      </trkpt>
      <trkpt lat="48.69217" lon="1.95216">
        <ele>178</ele>
        <time>2022-11-19T11:54:21Z</time>
      </trkpt>
      <trkpt lat="48.69216" lon="1.95211">
        <ele>178</ele>
        <time>2022-11-19T11:54:23Z</time>
      </trkpt>
      <trkpt lat="48.69215" lon="1.95208">
        <ele>178</ele>
        <time>2022-11-19T11:54:24Z</time>
      </trkpt>
      <trkpt lat="48.69215" lon="1.95205">
        <ele>178</ele>
        <time>2022-11-19T11:54:25Z</time>
      </trkpt>
      <trkpt lat="48.69213" lon="1.95202">
        <ele>178</ele>
        <time>2022-11-19T11:54:27Z</time>
      </trkpt>
      <trkpt lat="48.69213" lon="1.95199">
        <ele>178</ele>
        <time>2022-11-19T11:54:29Z</time>
      </trkpt>
      <trkpt lat="48.69211" lon="1.95194">
        <ele>178</ele>
        <time>2022-11-19T11:54:31Z</time>
      </trkpt>
      <trkpt lat="48.69209" lon="1.9519">
        <ele>178</ele>
        <time>2022-11-19T11:54:33Z</time>
      </trkpt>
      <trkpt lat="48.69208" lon="1.95187">
        <ele>178</ele>
        <time>2022-11-19T11:54:34Z</time>
      </trkpt>
      <trkpt lat="48.69207" lon="1.95185">
        <ele>178</ele>
        <time>2022-11-19T11:54:35Z</time>
      </trkpt>
      <trkpt lat="48.69206" lon="1.95181">
        <ele>178</ele>
        <time>2022-11-19T11:54:37Z</time>
      </trkpt>
      <trkpt lat="48.69204" lon="1.95178">
        <ele>178</ele>
        <time>2022-11-19T11:54:38Z</time>
      </trkpt>
      <trkpt lat="48.69203" lon="1.95173">
        <ele>178</ele>
        <time>2022-11-19T11:54:40Z</time>
      </trkpt>
      <trkpt lat="48.69203" lon="1.95167">
        <ele>178</ele>
        <time>2022-11-19T11:54:42Z</time>
      </trkpt>
      <trkpt lat="48.69203" lon="1.95164">
        <ele>178</ele>
        <time>2022-11-19T11:54:43Z</time>
      </trkpt>
      <trkpt lat="48.69203" lon="1.95162">
        <ele>178</ele>
        <time>2022-11-19T11:54:44Z</time>
      </trkpt>
      <trkpt lat="48.69204" lon="1.95159">
        <ele>178</ele>
        <time>2022-11-19T11:54:45Z</time>
      </trkpt>
      <trkpt lat="48.69203" lon="1.95154">
        <ele>178</ele>
        <time>2022-11-19T11:54:47Z</time>
      </trkpt>
      <trkpt lat="48.69202" lon="1.9515">
        <ele>178</ele>
        <time>2022-11-19T11:54:49Z</time>
      </trkpt>
      <trkpt lat="48.69201" lon="1.95146">
        <ele>178</ele>
        <time>2022-11-19T11:54:51Z</time>
      </trkpt>
      <trkpt lat="48.692" lon="1.95142">
        <ele>178</ele>
        <time>2022-11-19T11:54:53Z</time>
      </trkpt>
      <trkpt lat="48.69199" lon="1.95138">
        <ele>178</ele>
        <time>2022-11-19T11:54:55Z</time>
      </trkpt>
      <trkpt lat="48.69198" lon="1.95134">
        <ele>178</ele>
        <time>2022-11-19T11:54:57Z</time>
      </trkpt>
      <trkpt lat="48.69196" lon="1.95129">
        <ele>178</ele>
        <time>2022-11-19T11:54:59Z</time>
      </trkpt>
      <trkpt lat="48.69195" lon="1.95125">
        <ele>178</ele>
        <time>2022-11-19T11:55:01Z</time>
      </trkpt>
      <trkpt lat="48.69193" lon="1.95122">
        <ele>178</ele>
        <time>2022-11-19T11:55:03Z</time>
      </trkpt>
      <trkpt lat="48.69191" lon="1.95119">
        <ele>179</ele>
        <time>2022-11-19T11:55:05Z</time>
      </trkpt>
      <trkpt lat="48.6919" lon="1.95117">
        <ele>179</ele>
        <time>2022-11-19T11:55:06Z</time>
      </trkpt>
      <trkpt lat="48.69189" lon="1.95115">
        <ele>179</ele>
        <time>2022-11-19T11:55:07Z</time>
      </trkpt>
      <trkpt lat="48.69187" lon="1.95111">
        <ele>179</ele>
        <time>2022-11-19T11:55:09Z</time>
      </trkpt>
      <trkpt lat="48.69184" lon="1.95107">
        <ele>180</ele>
        <time>2022-11-19T11:55:11Z</time>
      </trkpt>
      <trkpt lat="48.69182" lon="1.95104">
        <ele>180</ele>
        <time>2022-11-19T11:55:13Z</time>
      </trkpt>
      <trkpt lat="48.69181" lon="1.951">
        <ele>180</ele>
        <time>2022-11-19T11:55:15Z</time>
      </trkpt>
      <trkpt lat="48.6918" lon="1.95096">
        <ele>180</ele>
        <time>2022-11-19T11:55:17Z</time>
      </trkpt>
      <trkpt lat="48.69179" lon="1.95093">
        <ele>180</ele>
        <time>2022-11-19T11:55:18Z</time>
      </trkpt>
      <trkpt lat="48.69179" lon="1.95089">
        <ele>180</ele>
        <time>2022-11-19T11:55:20Z</time>
      </trkpt>
      <trkpt lat="48.69178" lon="1.95083">
        <ele>179</ele>
        <time>2022-11-19T11:55:22Z</time>
      </trkpt>
      <trkpt lat="48.69178" lon="1.95081">
        <ele>179</ele>
        <time>2022-11-19T11:55:23Z</time>
      </trkpt>
      <trkpt lat="48.69177" lon="1.95077">
        <ele>179</ele>
        <time>2022-11-19T11:55:25Z</time>
      </trkpt>
      <trkpt lat="48.69175" lon="1.95073">
        <ele>179</ele>
        <time>2022-11-19T11:55:27Z</time>
      </trkpt>
      <trkpt lat="48.69173" lon="1.95068">
        <ele>179</ele>
        <time>2022-11-19T11:55:29Z</time>
      </trkpt>
      <trkpt lat="48.69172" lon="1.95063">
        <ele>179</ele>
        <time>2022-11-19T11:55:31Z</time>
      </trkpt>
      <trkpt lat="48.69171" lon="1.95058">
        <ele>179</ele>
        <time>2022-11-19T11:55:33Z</time>
      </trkpt>
      <trkpt lat="48.69171" lon="1.95053">
        <ele>179</ele>
        <time>2022-11-19T11:55:35Z</time>
      </trkpt>
      <trkpt lat="48.6917" lon="1.95048">
        <ele>179</ele>
        <time>2022-11-19T11:55:37Z</time>
      </trkpt>
      <trkpt lat="48.69168" lon="1.95044">
        <ele>179</ele>
        <time>2022-11-19T11:55:39Z</time>
      </trkpt>
      <trkpt lat="48.69167" lon="1.95039">
        <ele>180</ele>
        <time>2022-11-19T11:55:41Z</time>
      </trkpt>
      <trkpt lat="48.69167" lon="1.95035">
        <ele>180</ele>
        <time>2022-11-19T11:55:43Z</time>
      </trkpt>
      <trkpt lat="48.69166" lon="1.95033">
        <ele>180</ele>
        <time>2022-11-19T11:55:44Z</time>
      </trkpt>
      <trkpt lat="48.69165" lon="1.95028">
        <ele>180</ele>
        <time>2022-11-19T11:55:46Z</time>
      </trkpt>
      <trkpt lat="48.69164" lon="1.95024">
        <ele>180</ele>
        <time>2022-11-19T11:55:48Z</time>
      </trkpt>
      <trkpt lat="48.69164" lon="1.9502">
        <ele>181</ele>
        <time>2022-11-19T11:55:50Z</time>
      </trkpt>
      <trkpt lat="48.69164" lon="1.95015">
        <ele>181</ele>
        <time>2022-11-19T11:55:52Z</time>
      </trkpt>
      <trkpt lat="48.69164" lon="1.9501">
        <ele>181</ele>
        <time>2022-11-19T11:55:54Z</time>
      </trkpt>
      <trkpt lat="48.69164" lon="1.95005">
        <ele>181</ele>
        <time>2022-11-19T11:55:56Z</time>
      </trkpt>
      <trkpt lat="48.69162" lon="1.95001">
        <ele>182</ele>
        <time>2022-11-19T11:55:58Z</time>
      </trkpt>
      <trkpt lat="48.69161" lon="1.94997">
        <ele>182</ele>
        <time>2022-11-19T11:56:00Z</time>
      </trkpt>
      <trkpt lat="48.6916" lon="1.94992">
        <ele>182</ele>
        <time>2022-11-19T11:56:02Z</time>
      </trkpt>
      <trkpt lat="48.69158" lon="1.94989">
        <ele>182</ele>
        <time>2022-11-19T11:56:04Z</time>
      </trkpt>
      <trkpt lat="48.69156" lon="1.94984">
        <ele>182</ele>
        <time>2022-11-19T11:56:06Z</time>
      </trkpt>
      <trkpt lat="48.69154" lon="1.94981">
        <ele>181</ele>
        <time>2022-11-19T11:56:08Z</time>
      </trkpt>
      <trkpt lat="48.69153" lon="1.94978">
        <ele>181</ele>
        <time>2022-11-19T11:56:10Z</time>
      </trkpt>
      <trkpt lat="48.69151" lon="1.94975">
        <ele>181</ele>
        <time>2022-11-19T11:56:12Z</time>
      </trkpt>
      <trkpt lat="48.69149" lon="1.94972">
        <ele>182</ele>
        <time>2022-11-19T11:56:14Z</time>
      </trkpt>
      <trkpt lat="48.69147" lon="1.94967">
        <ele>182</ele>
        <time>2022-11-19T11:56:16Z</time>
      </trkpt>
      <trkpt lat="48.69145" lon="1.94964">
        <ele>181</ele>
        <time>2022-11-19T11:56:18Z</time>
      </trkpt>
      <trkpt lat="48.69144" lon="1.9496">
        <ele>181</ele>
        <time>2022-11-19T11:56:20Z</time>
      </trkpt>
      <trkpt lat="48.69142" lon="1.94956">
        <ele>182</ele>
        <time>2022-11-19T11:56:22Z</time>
      </trkpt>
      <trkpt lat="48.6914" lon="1.94952">
        <ele>181</ele>
        <time>2022-11-19T11:56:24Z</time>
      </trkpt>
      <trkpt lat="48.69139" lon="1.94948">
        <ele>181</ele>
        <time>2022-11-19T11:56:26Z</time>
      </trkpt>
      <trkpt lat="48.69137" lon="1.94945">
        <ele>181</ele>
        <time>2022-11-19T11:56:28Z</time>
      </trkpt>
      <trkpt lat="48.69136" lon="1.94942">
        <ele>181</ele>
        <time>2022-11-19T11:56:30Z</time>
      </trkpt>
      <trkpt lat="48.69134" lon="1.94939">
        <ele>181</ele>
        <time>2022-11-19T11:56:32Z</time>
      </trkpt>
      <trkpt lat="48.69132" lon="1.94936">
        <ele>181</ele>
        <time>2022-11-19T11:56:34Z</time>
      </trkpt>
      <trkpt lat="48.6913" lon="1.94933">
        <ele>181</ele>
        <time>2022-11-19T11:56:36Z</time>
      </trkpt>
      <trkpt lat="48.69128" lon="1.9493">
        <ele>181</ele>
        <time>2022-11-19T11:56:38Z</time>
      </trkpt>
      <trkpt lat="48.69127" lon="1.94925">
        <ele>182</ele>
        <time>2022-11-19T11:56:40Z</time>
      </trkpt>
      <trkpt lat="48.69127" lon="1.94922">
        <ele>182</ele>
        <time>2022-11-19T11:56:41Z</time>
      </trkpt>
      <trkpt lat="48.69127" lon="1.94919">
        <ele>182</ele>
        <time>2022-11-19T11:56:42Z</time>
      </trkpt>
      <trkpt lat="48.69128" lon="1.94916">
        <ele>181</ele>
        <time>2022-11-19T11:56:43Z</time>
      </trkpt>
      <trkpt lat="48.69129" lon="1.94914">
        <ele>181</ele>
        <time>2022-11-19T11:56:44Z</time>
      </trkpt>
      <trkpt lat="48.69131" lon="1.9491">
        <ele>180</ele>
        <time>2022-11-19T11:56:46Z</time>
      </trkpt>
      <trkpt lat="48.69133" lon="1.94907">
        <ele>179</ele>
        <time>2022-11-19T11:56:48Z</time>
      </trkpt>
      <trkpt lat="48.69135" lon="1.94902">
        <ele>178</ele>
        <time>2022-11-19T11:56:50Z</time>
      </trkpt>
      <trkpt lat="48.69136" lon="1.94897">
        <ele>178</ele>
        <time>2022-11-19T11:56:52Z</time>
      </trkpt>
      <trkpt lat="48.69137" lon="1.94894">
        <ele>178</ele>
        <time>2022-11-19T11:56:53Z</time>
      </trkpt>
      <trkpt lat="48.69137" lon="1.9489">
        <ele>177</ele>
        <time>2022-11-19T11:56:55Z</time>
      </trkpt>
      <trkpt lat="48.69137" lon="1.94884">
        <ele>177</ele>
        <time>2022-11-19T11:56:57Z</time>
      </trkpt>
      <trkpt lat="48.69137" lon="1.94881">
        <ele>177</ele>
        <time>2022-11-19T11:56:58Z</time>
      </trkpt>
      <trkpt lat="48.69136" lon="1.94879">
        <ele>177</ele>
        <time>2022-11-19T11:56:59Z</time>
      </trkpt>
      <trkpt lat="48.69134" lon="1.94875">
        <ele>177</ele>
        <time>2022-11-19T11:57:01Z</time>
      </trkpt>
      <trkpt lat="48.69133" lon="1.94871">
        <ele>177</ele>
        <time>2022-11-19T11:57:03Z</time>
      </trkpt>
      <trkpt lat="48.69132" lon="1.94867">
        <ele>177</ele>
        <time>2022-11-19T11:57:05Z</time>
      </trkpt>
      <trkpt lat="48.6913" lon="1.94862">
        <ele>177</ele>
        <time>2022-11-19T11:57:07Z</time>
      </trkpt>
      <trkpt lat="48.69127" lon="1.94859">
        <ele>177</ele>
        <time>2022-11-19T11:57:09Z</time>
      </trkpt>
      <trkpt lat="48.69124" lon="1.94856">
        <ele>177</ele>
        <time>2022-11-19T11:57:11Z</time>
      </trkpt>
      <trkpt lat="48.69122" lon="1.94852">
        <ele>177</ele>
        <time>2022-11-19T11:57:13Z</time>
      </trkpt>
      <trkpt lat="48.6912" lon="1.94849">
        <ele>177</ele>
        <time>2022-11-19T11:57:15Z</time>
      </trkpt>
      <trkpt lat="48.69118" lon="1.94845">
        <ele>177</ele>
        <time>2022-11-19T11:57:17Z</time>
      </trkpt>
      <trkpt lat="48.69116" lon="1.94842">
        <ele>177</ele>
        <time>2022-11-19T11:57:19Z</time>
      </trkpt>
      <trkpt lat="48.69114" lon="1.94839">
        <ele>177</ele>
        <time>2022-11-19T11:57:21Z</time>
      </trkpt>
      <trkpt lat="48.69112" lon="1.94835">
        <ele>177</ele>
        <time>2022-11-19T11:57:23Z</time>
      </trkpt>
      <trkpt lat="48.6911" lon="1.94831">
        <ele>177</ele>
        <time>2022-11-19T11:57:25Z</time>
      </trkpt>
      <trkpt lat="48.69108" lon="1.94828">
        <ele>177</ele>
        <time>2022-11-19T11:57:27Z</time>
      </trkpt>
      <trkpt lat="48.69107" lon="1.94825">
        <ele>177</ele>
        <time>2022-11-19T11:57:29Z</time>
      </trkpt>
      <trkpt lat="48.69105" lon="1.94822">
        <ele>177</ele>
        <time>2022-11-19T11:57:31Z</time>
      </trkpt>
      <trkpt lat="48.69103" lon="1.94818">
        <ele>178</ele>
        <time>2022-11-19T11:57:33Z</time>
      </trkpt>
      <trkpt lat="48.69101" lon="1.94815">
        <ele>177</ele>
        <time>2022-11-19T11:57:35Z</time>
      </trkpt>
      <trkpt lat="48.69099" lon="1.94811">
        <ele>177</ele>
        <time>2022-11-19T11:57:37Z</time>
      </trkpt>
      <trkpt lat="48.69096" lon="1.94808">
        <ele>177</ele>
        <time>2022-11-19T11:57:39Z</time>
      </trkpt>
      <trkpt lat="48.69094" lon="1.94804">
        <ele>177</ele>
        <time>2022-11-19T11:57:41Z</time>
      </trkpt>
      <trkpt lat="48.69092" lon="1.948">
        <ele>177</ele>
        <time>2022-11-19T11:57:43Z</time>
      </trkpt>
      <trkpt lat="48.69091" lon="1.94797">
        <ele>177</ele>
        <time>2022-11-19T11:57:45Z</time>
      </trkpt>
      <trkpt lat="48.69089" lon="1.94793">
        <ele>177</ele>
        <time>2022-11-19T11:57:47Z</time>
      </trkpt>
      <trkpt lat="48.69087" lon="1.94789">
        <ele>177</ele>
        <time>2022-11-19T11:57:49Z</time>
      </trkpt>
      <trkpt lat="48.69084" lon="1.94785">
        <ele>177</ele>
        <time>2022-11-19T11:57:51Z</time>
      </trkpt>
      <trkpt lat="48.69082" lon="1.94781">
        <ele>177</ele>
        <time>2022-11-19T11:57:53Z</time>
      </trkpt>
      <trkpt lat="48.6908" lon="1.94778">
        <ele>177</ele>
        <time>2022-11-19T11:57:55Z</time>
      </trkpt>
      <trkpt lat="48.69079" lon="1.94775">
        <ele>177</ele>
        <time>2022-11-19T11:57:57Z</time>
      </trkpt>
      <trkpt lat="48.69076" lon="1.94773">
        <ele>177</ele>
        <time>2022-11-19T11:57:59Z</time>
      </trkpt>
      <trkpt lat="48.69074" lon="1.9477">
        <ele>177</ele>
        <time>2022-11-19T11:58:01Z</time>
      </trkpt>
      <trkpt lat="48.69071" lon="1.94767">
        <ele>177</ele>
        <time>2022-11-19T11:58:03Z</time>
      </trkpt>
      <trkpt lat="48.69069" lon="1.94763">
        <ele>178</ele>
        <time>2022-11-19T11:58:05Z</time>
      </trkpt>
      <trkpt lat="48.69067" lon="1.94759">
        <ele>178</ele>
        <time>2022-11-19T11:58:07Z</time>
      </trkpt>
      <trkpt lat="48.69065" lon="1.94756">
        <ele>178</ele>
        <time>2022-11-19T11:58:09Z</time>
      </trkpt>
      <trkpt lat="48.69063" lon="1.94753">
        <ele>178</ele>
        <time>2022-11-19T11:58:11Z</time>
      </trkpt>
      <trkpt lat="48.69061" lon="1.9475">
        <ele>178</ele>
        <time>2022-11-19T11:58:13Z</time>
      </trkpt>
      <trkpt lat="48.69058" lon="1.94747">
        <ele>178</ele>
        <time>2022-11-19T11:58:15Z</time>
      </trkpt>
      <trkpt lat="48.69056" lon="1.94744">
        <ele>178</ele>
        <time>2022-11-19T11:58:17Z</time>
      </trkpt>
      <trkpt lat="48.69054" lon="1.9474">
        <ele>179</ele>
        <time>2022-11-19T11:58:19Z</time>
      </trkpt>
      <trkpt lat="48.69052" lon="1.94737">
        <ele>179</ele>
        <time>2022-11-19T11:58:21Z</time>
      </trkpt>
      <trkpt lat="48.6905" lon="1.94734">
        <ele>179</ele>
        <time>2022-11-19T11:58:23Z</time>
      </trkpt>
      <trkpt lat="48.69047" lon="1.9473">
        <ele>179</ele>
        <time>2022-11-19T11:58:25Z</time>
      </trkpt>
      <trkpt lat="48.69045" lon="1.94727">
        <ele>180</ele>
        <time>2022-11-19T11:58:27Z</time>
      </trkpt>
      <trkpt lat="48.69042" lon="1.94724">
        <ele>180</ele>
        <time>2022-11-19T11:58:29Z</time>
      </trkpt>
      <trkpt lat="48.6904" lon="1.9472">
        <ele>180</ele>
        <time>2022-11-19T11:58:31Z</time>
      </trkpt>
      <trkpt lat="48.69038" lon="1.94716">
        <ele>180</ele>
        <time>2022-11-19T11:58:33Z</time>
      </trkpt>
      <trkpt lat="48.69036" lon="1.94713">
        <ele>180</ele>
        <time>2022-11-19T11:58:35Z</time>
      </trkpt>
      <trkpt lat="48.69034" lon="1.9471">
        <ele>181</ele>
        <time>2022-11-19T11:58:37Z</time>
      </trkpt>
      <trkpt lat="48.69032" lon="1.94706">
        <ele>181</ele>
        <time>2022-11-19T11:58:39Z</time>
      </trkpt>
      <trkpt lat="48.6903" lon="1.94702">
        <ele>180</ele>
        <time>2022-11-19T11:58:41Z</time>
      </trkpt>
      <trkpt lat="48.69029" lon="1.94697">
        <ele>180</ele>
        <time>2022-11-19T11:58:43Z</time>
      </trkpt>
      <trkpt lat="48.69028" lon="1.94694">
        <ele>180</ele>
        <time>2022-11-19T11:58:44Z</time>
      </trkpt>
      <trkpt lat="48.69027" lon="1.94692">
        <ele>180</ele>
        <time>2022-11-19T11:58:45Z</time>
      </trkpt>
      <trkpt lat="48.69025" lon="1.94688">
        <ele>179</ele>
        <time>2022-11-19T11:58:47Z</time>
      </trkpt>
      <trkpt lat="48.69023" lon="1.94685">
        <ele>179</ele>
        <time>2022-11-19T11:58:49Z</time>
      </trkpt>
      <trkpt lat="48.69022" lon="1.94683">
        <ele>179</ele>
        <time>2022-11-19T11:58:50Z</time>
      </trkpt>
      <trkpt lat="48.6902" lon="1.94678">
        <ele>179</ele>
        <time>2022-11-19T11:58:52Z</time>
      </trkpt>
      <trkpt lat="48.69018" lon="1.94675">
        <ele>179</ele>
        <time>2022-11-19T11:58:54Z</time>
      </trkpt>
      <trkpt lat="48.69016" lon="1.94671">
        <ele>179</ele>
        <time>2022-11-19T11:58:56Z</time>
      </trkpt>
      <trkpt lat="48.69014" lon="1.94668">
        <ele>179</ele>
        <time>2022-11-19T11:58:58Z</time>
      </trkpt>
      <trkpt lat="48.69013" lon="1.94663">
        <ele>179</ele>
        <time>2022-11-19T11:59:00Z</time>
      </trkpt>
      <trkpt lat="48.69011" lon="1.94659">
        <ele>179</ele>
        <time>2022-11-19T11:59:02Z</time>
      </trkpt>
      <trkpt lat="48.6901" lon="1.94654">
        <ele>179</ele>
        <time>2022-11-19T11:59:04Z</time>
      </trkpt>
      <trkpt lat="48.69009" lon="1.94652">
        <ele>179</ele>
        <time>2022-11-19T11:59:05Z</time>
      </trkpt>
      <trkpt lat="48.69009" lon="1.94648">
        <ele>179</ele>
        <time>2022-11-19T11:59:06Z</time>
      </trkpt>
      <trkpt lat="48.69008" lon="1.94645">
        <ele>179</ele>
        <time>2022-11-19T11:59:07Z</time>
      </trkpt>
      <trkpt lat="48.69008" lon="1.94642">
        <ele>178</ele>
        <time>2022-11-19T11:59:08Z</time>
      </trkpt>
      <trkpt lat="48.69009" lon="1.94639">
        <ele>178</ele>
        <time>2022-11-19T11:59:09Z</time>
      </trkpt>
      <trkpt lat="48.6901" lon="1.94635">
        <ele>178</ele>
        <time>2022-11-19T11:59:10Z</time>
      </trkpt>
      <trkpt lat="48.69011" lon="1.94632">
        <ele>177</ele>
        <time>2022-11-19T11:59:11Z</time>
      </trkpt>
      <trkpt lat="48.69012" lon="1.9463">
        <ele>177</ele>
        <time>2022-11-19T11:59:12Z</time>
      </trkpt>
      <trkpt lat="48.69013" lon="1.94625">
        <ele>177</ele>
        <time>2022-11-19T11:59:14Z</time>
      </trkpt>
      <trkpt lat="48.69015" lon="1.9462">
        <ele>176</ele>
        <time>2022-11-19T11:59:16Z</time>
      </trkpt>
      <trkpt lat="48.69017" lon="1.94616">
        <ele>176</ele>
        <time>2022-11-19T11:59:18Z</time>
      </trkpt>
      <trkpt lat="48.69018" lon="1.94611">
        <ele>176</ele>
        <time>2022-11-19T11:59:20Z</time>
      </trkpt>
      <trkpt lat="48.6902" lon="1.94606">
        <ele>175</ele>
        <time>2022-11-19T11:59:22Z</time>
      </trkpt>
      <trkpt lat="48.69021" lon="1.94604">
        <ele>175</ele>
        <time>2022-11-19T11:59:23Z</time>
      </trkpt>
      <trkpt lat="48.69023" lon="1.94599">
        <ele>175</ele>
        <time>2022-11-19T11:59:25Z</time>
      </trkpt>
      <trkpt lat="48.69024" lon="1.94597">
        <ele>175</ele>
        <time>2022-11-19T11:59:26Z</time>
      </trkpt>
      <trkpt lat="48.69025" lon="1.94592">
        <ele>175</ele>
        <time>2022-11-19T11:59:28Z</time>
      </trkpt>
      <trkpt lat="48.69026" lon="1.94587">
        <ele>175</ele>
        <time>2022-11-19T11:59:30Z</time>
      </trkpt>
      <trkpt lat="48.69028" lon="1.94583">
        <ele>175</ele>
        <time>2022-11-19T11:59:32Z</time>
      </trkpt>
      <trkpt lat="48.69029" lon="1.94578">
        <ele>175</ele>
        <time>2022-11-19T11:59:34Z</time>
      </trkpt>
      <trkpt lat="48.69029" lon="1.94573">
        <ele>175</ele>
        <time>2022-11-19T11:59:36Z</time>
      </trkpt>
      <trkpt lat="48.6903" lon="1.94567">
        <ele>175</ele>
        <time>2022-11-19T11:59:38Z</time>
      </trkpt>
      <trkpt lat="48.69031" lon="1.94565">
        <ele>175</ele>
        <time>2022-11-19T11:59:39Z</time>
      </trkpt>
      <trkpt lat="48.69031" lon="1.94562">
        <ele>175</ele>
        <time>2022-11-19T11:59:40Z</time>
      </trkpt>
      <trkpt lat="48.69032" lon="1.94558">
        <ele>175</ele>
        <time>2022-11-19T11:59:42Z</time>
      </trkpt>
      <trkpt lat="48.69033" lon="1.94552">
        <ele>175</ele>
        <time>2022-11-19T11:59:44Z</time>
      </trkpt>
      <trkpt lat="48.69034" lon="1.9455">
        <ele>176</ele>
        <time>2022-11-19T11:59:45Z</time>
      </trkpt>
      <trkpt lat="48.69035" lon="1.94547">
        <ele>176</ele>
        <time>2022-11-19T11:59:46Z</time>
      </trkpt>
      <trkpt lat="48.69036" lon="1.94542">
        <ele>176</ele>
        <time>2022-11-19T11:59:48Z</time>
      </trkpt>
      <trkpt lat="48.69037" lon="1.94537">
        <ele>176</ele>
        <time>2022-11-19T11:59:50Z</time>
      </trkpt>
      <trkpt lat="48.69038" lon="1.94533">
        <ele>176</ele>
        <time>2022-11-19T11:59:52Z</time>
      </trkpt>
      <trkpt lat="48.6904" lon="1.94529">
        <ele>176</ele>
        <time>2022-11-19T11:59:54Z</time>
      </trkpt>
      <trkpt lat="48.69041" lon="1.94524">
        <ele>176</ele>
        <time>2022-11-19T11:59:56Z</time>
      </trkpt>
      <trkpt lat="48.69042" lon="1.9452">
        <ele>176</ele>
        <time>2022-11-19T11:59:58Z</time>
      </trkpt>
      <trkpt lat="48.69044" lon="1.94515">
        <ele>176</ele>
        <time>2022-11-19T12:00:00Z</time>
      </trkpt>
      <trkpt lat="48.69045" lon="1.9451">
        <ele>175</ele>
        <time>2022-11-19T12:00:02Z</time>
      </trkpt>
      <trkpt lat="48.69046" lon="1.94508">
        <ele>175</ele>
        <time>2022-11-19T12:00:03Z</time>
      </trkpt>
      <trkpt lat="48.69046" lon="1.94505">
        <ele>176</ele>
        <time>2022-11-19T12:00:04Z</time>
      </trkpt>
      <trkpt lat="48.69047" lon="1.94503">
        <ele>175</ele>
        <time>2022-11-19T12:00:05Z</time>
      </trkpt>
      <trkpt lat="48.69048" lon="1.94498">
        <ele>175</ele>
        <time>2022-11-19T12:00:07Z</time>
      </trkpt>
      <trkpt lat="48.69049" lon="1.94493">
        <ele>175</ele>
        <time>2022-11-19T12:00:09Z</time>
      </trkpt>
      <trkpt lat="48.6905" lon="1.94489">
        <ele>175</ele>
        <time>2022-11-19T12:00:11Z</time>
      </trkpt>
      <trkpt lat="48.69051" lon="1.94484">
        <ele>175</ele>
        <time>2022-11-19T12:00:13Z</time>
      </trkpt>
      <trkpt lat="48.69052" lon="1.9448">
        <ele>175</ele>
        <time>2022-11-19T12:00:15Z</time>
      </trkpt>
      <trkpt lat="48.69053" lon="1.94475">
        <ele>175</ele>
        <time>2022-11-19T12:00:17Z</time>
      </trkpt>
      <trkpt lat="48.69054" lon="1.94471">
        <ele>175</ele>
        <time>2022-11-19T12:00:19Z</time>
      </trkpt>
      <trkpt lat="48.69055" lon="1.94468">
        <ele>175</ele>
        <time>2022-11-19T12:00:20Z</time>
      </trkpt>
      <trkpt lat="48.69055" lon="1.94466">
        <ele>174</ele>
        <time>2022-11-19T12:00:21Z</time>
      </trkpt>
      <trkpt lat="48.69056" lon="1.94461">
        <ele>174</ele>
        <time>2022-11-19T12:00:23Z</time>
      </trkpt>
      <trkpt lat="48.69057" lon="1.94456">
        <ele>174</ele>
        <time>2022-11-19T12:00:25Z</time>
      </trkpt>
      <trkpt lat="48.69059" lon="1.94451">
        <ele>174</ele>
        <time>2022-11-19T12:00:27Z</time>
      </trkpt>
      <trkpt lat="48.6906" lon="1.94447">
        <ele>174</ele>
        <time>2022-11-19T12:00:29Z</time>
      </trkpt>
      <trkpt lat="48.69061" lon="1.94442">
        <ele>174</ele>
        <time>2022-11-19T12:00:31Z</time>
      </trkpt>
      <trkpt lat="48.69063" lon="1.94438">
        <ele>174</ele>
        <time>2022-11-19T12:00:33Z</time>
      </trkpt>
      <trkpt lat="48.69064" lon="1.94433">
        <ele>174</ele>
        <time>2022-11-19T12:00:35Z</time>
      </trkpt>
      <trkpt lat="48.69065" lon="1.94429">
        <ele>174</ele>
        <time>2022-11-19T12:00:37Z</time>
      </trkpt>
      <trkpt lat="48.69066" lon="1.94425">
        <ele>174</ele>
        <time>2022-11-19T12:00:39Z</time>
      </trkpt>
      <trkpt lat="48.69068" lon="1.94421">
        <ele>174</ele>
        <time>2022-11-19T12:00:41Z</time>
      </trkpt>
      <trkpt lat="48.6907" lon="1.94416">
        <ele>174</ele>
        <time>2022-11-19T12:00:43Z</time>
      </trkpt>
      <trkpt lat="48.69071" lon="1.94412">
        <ele>174</ele>
        <time>2022-11-19T12:00:45Z</time>
      </trkpt>
      <trkpt lat="48.69073" lon="1.94407">
        <ele>174</ele>
        <time>2022-11-19T12:00:47Z</time>
      </trkpt>
      <trkpt lat="48.69074" lon="1.94403">
        <ele>174</ele>
        <time>2022-11-19T12:00:49Z</time>
      </trkpt>
      <trkpt lat="48.69075" lon="1.94399">
        <ele>174</ele>
        <time>2022-11-19T12:00:51Z</time>
      </trkpt>
      <trkpt lat="48.69077" lon="1.94394">
        <ele>174</ele>
        <time>2022-11-19T12:00:53Z</time>
      </trkpt>
      <trkpt lat="48.69077" lon="1.9439">
        <ele>174</ele>
        <time>2022-11-19T12:00:55Z</time>
      </trkpt>
      <trkpt lat="48.69077" lon="1.94385">
        <ele>174</ele>
        <time>2022-11-19T12:00:57Z</time>
      </trkpt>
      <trkpt lat="48.69079" lon="1.9438">
        <ele>174</ele>
        <time>2022-11-19T12:00:59Z</time>
      </trkpt>
      <trkpt lat="48.6908" lon="1.94376">
        <ele>174</ele>
        <time>2022-11-19T12:01:01Z</time>
      </trkpt>
      <trkpt lat="48.69081" lon="1.94372">
        <ele>174</ele>
        <time>2022-11-19T12:01:03Z</time>
      </trkpt>
      <trkpt lat="48.69082" lon="1.94367">
        <ele>174</ele>
        <time>2022-11-19T12:01:05Z</time>
      </trkpt>
      <trkpt lat="48.69083" lon="1.94363">
        <ele>174</ele>
        <time>2022-11-19T12:01:07Z</time>
      </trkpt>
      <trkpt lat="48.69084" lon="1.94359">
        <ele>174</ele>
        <time>2022-11-19T12:01:09Z</time>
      </trkpt>
      <trkpt lat="48.69085" lon="1.94355">
        <ele>174</ele>
        <time>2022-11-19T12:01:11Z</time>
      </trkpt>
      <trkpt lat="48.69087" lon="1.9435">
        <ele>174</ele>
        <time>2022-11-19T12:01:13Z</time>
      </trkpt>
      <trkpt lat="48.69088" lon="1.94345">
        <ele>174</ele>
        <time>2022-11-19T12:01:15Z</time>
      </trkpt>
      <trkpt lat="48.69089" lon="1.9434">
        <ele>174</ele>
        <time>2022-11-19T12:01:17Z</time>
      </trkpt>
      <trkpt lat="48.6909" lon="1.94336">
        <ele>174</ele>
        <time>2022-11-19T12:01:19Z</time>
      </trkpt>
      <trkpt lat="48.69092" lon="1.94331">
        <ele>174</ele>
        <time>2022-11-19T12:01:21Z</time>
      </trkpt>
      <trkpt lat="48.69093" lon="1.94327">
        <ele>174</ele>
        <time>2022-11-19T12:01:23Z</time>
      </trkpt>
      <trkpt lat="48.69094" lon="1.94322">
        <ele>174</ele>
        <time>2022-11-19T12:01:25Z</time>
      </trkpt>
      <trkpt lat="48.69095" lon="1.94318">
        <ele>174</ele>
        <time>2022-11-19T12:01:27Z</time>
      </trkpt>
      <trkpt lat="48.69097" lon="1.94313">
        <ele>174</ele>
        <time>2022-11-19T12:01:29Z</time>
      </trkpt>
      <trkpt lat="48.69098" lon="1.94309">
        <ele>174</ele>
        <time>2022-11-19T12:01:31Z</time>
      </trkpt>
      <trkpt lat="48.691" lon="1.94305">
        <ele>174</ele>
        <time>2022-11-19T12:01:33Z</time>
      </trkpt>
      <trkpt lat="48.69101" lon="1.94301">
        <ele>174</ele>
        <time>2022-11-19T12:01:35Z</time>
      </trkpt>
      <trkpt lat="48.69101" lon="1.94298">
        <ele>173</ele>
        <time>2022-11-19T12:01:36Z</time>
      </trkpt>
      <trkpt lat="48.69102" lon="1.94293">
        <ele>174</ele>
        <time>2022-11-19T12:01:38Z</time>
      </trkpt>
      <trkpt lat="48.69103" lon="1.94289">
        <ele>173</ele>
        <time>2022-11-19T12:01:40Z</time>
      </trkpt>
      <trkpt lat="48.69104" lon="1.94284">
        <ele>173</ele>
        <time>2022-11-19T12:01:42Z</time>
      </trkpt>
      <trkpt lat="48.69105" lon="1.9428">
        <ele>173</ele>
        <time>2022-11-19T12:01:44Z</time>
      </trkpt>
      <trkpt lat="48.69106" lon="1.94275">
        <ele>173</ele>
        <time>2022-11-19T12:01:46Z</time>
      </trkpt>
      <trkpt lat="48.69107" lon="1.94271">
        <ele>173</ele>
        <time>2022-11-19T12:01:48Z</time>
      </trkpt>
      <trkpt lat="48.69109" lon="1.94267">
        <ele>173</ele>
        <time>2022-11-19T12:01:50Z</time>
      </trkpt>
      <trkpt lat="48.69111" lon="1.94262">
        <ele>173</ele>
        <time>2022-11-19T12:01:52Z</time>
      </trkpt>
      <trkpt lat="48.69113" lon="1.94258">
        <ele>173</ele>
        <time>2022-11-19T12:01:54Z</time>
      </trkpt>
      <trkpt lat="48.69114" lon="1.94254">
        <ele>173</ele>
        <time>2022-11-19T12:01:56Z</time>
      </trkpt>
      <trkpt lat="48.69116" lon="1.9425">
        <ele>173</ele>
        <time>2022-11-19T12:01:58Z</time>
      </trkpt>
      <trkpt lat="48.69117" lon="1.94245">
        <ele>173</ele>
        <time>2022-11-19T12:02:00Z</time>
      </trkpt>
      <trkpt lat="48.69119" lon="1.94241">
        <ele>173</ele>
        <time>2022-11-19T12:02:02Z</time>
      </trkpt>
      <trkpt lat="48.69121" lon="1.94236">
        <ele>173</ele>
        <time>2022-11-19T12:02:04Z</time>
      </trkpt>
      <trkpt lat="48.69122" lon="1.94232">
        <ele>173</ele>
        <time>2022-11-19T12:02:06Z</time>
      </trkpt>
      <trkpt lat="48.69124" lon="1.94227">
        <ele>174</ele>
        <time>2022-11-19T12:02:08Z</time>
      </trkpt>
      <trkpt lat="48.69126" lon="1.94223">
        <ele>174</ele>
        <time>2022-11-19T12:02:10Z</time>
      </trkpt>
      <trkpt lat="48.69127" lon="1.94219">
        <ele>174</ele>
        <time>2022-11-19T12:02:12Z</time>
      </trkpt>
      <trkpt lat="48.69128" lon="1.94215">
        <ele>174</ele>
        <time>2022-11-19T12:02:14Z</time>
      </trkpt>
      <trkpt lat="48.69129" lon="1.9421">
        <ele>174</ele>
        <time>2022-11-19T12:02:16Z</time>
      </trkpt>
      <trkpt lat="48.69131" lon="1.94206">
        <ele>174</ele>
        <time>2022-11-19T12:02:18Z</time>
      </trkpt>
      <trkpt lat="48.69131" lon="1.94201">
        <ele>174</ele>
        <time>2022-11-19T12:02:20Z</time>
      </trkpt>
      <trkpt lat="48.69132" lon="1.94197">
        <ele>174</ele>
        <time>2022-11-19T12:02:22Z</time>
      </trkpt>
      <trkpt lat="48.69133" lon="1.94192">
        <ele>174</ele>
        <time>2022-11-19T12:02:24Z</time>
      </trkpt>
      <trkpt lat="48.69134" lon="1.94188">
        <ele>174</ele>
        <time>2022-11-19T12:02:26Z</time>
      </trkpt>
      <trkpt lat="48.69136" lon="1.94184">
        <ele>174</ele>
        <time>2022-11-19T12:02:28Z</time>
      </trkpt>
      <trkpt lat="48.69137" lon="1.94179">
        <ele>174</ele>
        <time>2022-11-19T12:02:30Z</time>
      </trkpt>
      <trkpt lat="48.69139" lon="1.94175">
        <ele>174</ele>
        <time>2022-11-19T12:02:32Z</time>
      </trkpt>
      <trkpt lat="48.6914" lon="1.9417">
        <ele>174</ele>
        <time>2022-11-19T12:02:34Z</time>
      </trkpt>
      <trkpt lat="48.69141" lon="1.94166">
        <ele>174</ele>
        <time>2022-11-19T12:02:36Z</time>
      </trkpt>
      <trkpt lat="48.69143" lon="1.94161">
        <ele>174</ele>
        <time>2022-11-19T12:02:38Z</time>
      </trkpt>
      <trkpt lat="48.69144" lon="1.94157">
        <ele>174</ele>
        <time>2022-11-19T12:02:40Z</time>
      </trkpt>
      <trkpt lat="48.69145" lon="1.94152">
        <ele>174</ele>
        <time>2022-11-19T12:02:42Z</time>
      </trkpt>
      <trkpt lat="48.69146" lon="1.94147">
        <ele>174</ele>
        <time>2022-11-19T12:02:44Z</time>
      </trkpt>
      <trkpt lat="48.69148" lon="1.94142">
        <ele>174</ele>
        <time>2022-11-19T12:02:46Z</time>
      </trkpt>
      <trkpt lat="48.69149" lon="1.94138">
        <ele>174</ele>
        <time>2022-11-19T12:02:48Z</time>
      </trkpt>
      <trkpt lat="48.6915" lon="1.94135">
        <ele>174</ele>
        <time>2022-11-19T12:02:50Z</time>
      </trkpt>
      <trkpt lat="48.69152" lon="1.94131">
        <ele>174</ele>
        <time>2022-11-19T12:02:52Z</time>
      </trkpt>
      <trkpt lat="48.69153" lon="1.94126">
        <ele>174</ele>
        <time>2022-11-19T12:02:54Z</time>
      </trkpt>
      <trkpt lat="48.69154" lon="1.94121">
        <ele>174</ele>
        <time>2022-11-19T12:02:56Z</time>
      </trkpt>
      <trkpt lat="48.69154" lon="1.94117">
        <ele>174</ele>
        <time>2022-11-19T12:02:58Z</time>
      </trkpt>
      <trkpt lat="48.69155" lon="1.94114">
        <ele>174</ele>
        <time>2022-11-19T12:03:00Z</time>
      </trkpt>
      <trkpt lat="48.69157" lon="1.9411">
        <ele>174</ele>
        <time>2022-11-19T12:03:02Z</time>
      </trkpt>
      <trkpt lat="48.69159" lon="1.94107">
        <ele>174</ele>
        <time>2022-11-19T12:03:04Z</time>
      </trkpt>
      <trkpt lat="48.69161" lon="1.94105">
        <ele>174</ele>
        <time>2022-11-19T12:03:07Z</time>
      </trkpt>
      <trkpt lat="48.69161" lon="1.94104">
        <ele>173</ele>
        <time>2022-11-19T12:03:37Z</time>
      </trkpt>
    </trkseg>
  </trk>
</gpx>